<?xml version="1.0" encoding="UTF-8" standalone="no" ?>
<gpx xmlns="http://www.topografix.com/GPX/1/1" xmlns:xsi="http://www.w3.org/2001/XMLSchema-instance" xsi:schemaLocation="http://www.topografix.com/GPX/1/1 http://www.topografix.com/GPX/1/1/gpx.xsd" version="1.1" creator="VisuGPX - https://www.visugpx.com">
  <metadata>
    <name>[06/03/2016] 22ème Moulinarde à St André de l'Eure</name>
    <desc><![CDATA[60 km VTT au départ de St André de l'Eure]]></desc>
  </metadata>
  <trk>
    <name><![CDATA[[06/03/2016] 22ème Moulinarde à St André de l'Eure_1]]></name>
    <trkseg>
      <trkpt lat="48.9082" lon="1.2831">
        <ele>145.706757</ele>
        <time>2016-03-06T07:09:06Z</time>
      </trkpt>
      <trkpt lat="48.9082" lon="1.2831">
        <ele>145.706757</ele>
        <time>2016-03-06T07:09:07Z</time>
      </trkpt>
      <trkpt lat="48.90813" lon="1.28319">
        <ele>145.9</ele>
        <time>2016-03-06T07:09:43Z</time>
      </trkpt>
      <trkpt lat="48.90819" lon="1.28306">
        <ele>145.6</ele>
        <time>2016-03-06T07:11:20Z</time>
      </trkpt>
      <trkpt lat="48.9083" lon="1.283">
        <ele>145.6</ele>
        <time>2016-03-06T07:11:24Z</time>
      </trkpt>
      <trkpt lat="48.90819" lon="1.28305">
        <ele>145.6</ele>
        <time>2016-03-06T07:12:16Z</time>
      </trkpt>
      <trkpt lat="48.90809" lon="1.28313">
        <ele>145.6</ele>
        <time>2016-03-06T07:12:20Z</time>
      </trkpt>
      <trkpt lat="48.90809" lon="1.28327">
        <ele>145.6</ele>
        <time>2016-03-06T07:12:25Z</time>
      </trkpt>
      <trkpt lat="48.90801" lon="1.28332">
        <ele>145.2</ele>
        <time>2016-03-06T07:20:39Z</time>
      </trkpt>
      <trkpt lat="48.90792" lon="1.28342">
        <ele>145.2</ele>
        <time>2016-03-06T07:20:43Z</time>
      </trkpt>
      <trkpt lat="48.90783" lon="1.28352">
        <ele>145.2</ele>
        <time>2016-03-06T07:20:47Z</time>
      </trkpt>
      <trkpt lat="48.90772" lon="1.28357">
        <ele>145.2</ele>
        <time>2016-03-06T07:20:51Z</time>
      </trkpt>
      <trkpt lat="48.90762" lon="1.28361">
        <ele>145.1</ele>
        <time>2016-03-06T07:20:54Z</time>
      </trkpt>
      <trkpt lat="48.90751" lon="1.28365">
        <ele>145</ele>
        <time>2016-03-06T07:20:57Z</time>
      </trkpt>
      <trkpt lat="48.90739" lon="1.2837">
        <ele>144.9</ele>
        <time>2016-03-06T07:21:00Z</time>
      </trkpt>
      <trkpt lat="48.90729" lon="1.28376">
        <ele>144.7</ele>
        <time>2016-03-06T07:21:03Z</time>
      </trkpt>
      <trkpt lat="48.90719" lon="1.28376">
        <ele>144.6</ele>
        <time>2016-03-06T07:21:06Z</time>
      </trkpt>
      <trkpt lat="48.90709" lon="1.28371">
        <ele>144.4</ele>
        <time>2016-03-06T07:21:09Z</time>
      </trkpt>
      <trkpt lat="48.90699" lon="1.28371">
        <ele>144.3</ele>
        <time>2016-03-06T07:21:12Z</time>
      </trkpt>
      <trkpt lat="48.90694" lon="1.28355">
        <ele>144</ele>
        <time>2016-03-06T07:21:16Z</time>
      </trkpt>
      <trkpt lat="48.90692" lon="1.28339">
        <ele>143.9</ele>
        <time>2016-03-06T07:21:19Z</time>
      </trkpt>
      <trkpt lat="48.90688" lon="1.28322">
        <ele>143.7</ele>
        <time>2016-03-06T07:21:22Z</time>
      </trkpt>
      <trkpt lat="48.90685" lon="1.28305">
        <ele>143.6</ele>
        <time>2016-03-06T07:21:25Z</time>
      </trkpt>
      <trkpt lat="48.9068" lon="1.28288">
        <ele>143.5</ele>
        <time>2016-03-06T07:21:28Z</time>
      </trkpt>
      <trkpt lat="48.90676" lon="1.2827">
        <ele>143.4</ele>
        <time>2016-03-06T07:21:31Z</time>
      </trkpt>
      <trkpt lat="48.90672" lon="1.28252">
        <ele>143.3</ele>
        <time>2016-03-06T07:21:34Z</time>
      </trkpt>
      <trkpt lat="48.90668" lon="1.28235">
        <ele>143.3</ele>
        <time>2016-03-06T07:21:37Z</time>
      </trkpt>
      <trkpt lat="48.90665" lon="1.28218">
        <ele>143.2</ele>
        <time>2016-03-06T07:21:40Z</time>
      </trkpt>
      <trkpt lat="48.90661" lon="1.282">
        <ele>143.2</ele>
        <time>2016-03-06T07:21:43Z</time>
      </trkpt>
      <trkpt lat="48.90659" lon="1.28182">
        <ele>143.2</ele>
        <time>2016-03-06T07:21:46Z</time>
      </trkpt>
      <trkpt lat="48.90656" lon="1.28163">
        <ele>143.1</ele>
        <time>2016-03-06T07:21:49Z</time>
      </trkpt>
      <trkpt lat="48.90653" lon="1.2815">
        <ele>143.1</ele>
        <time>2016-03-06T07:21:51Z</time>
      </trkpt>
      <trkpt lat="48.90649" lon="1.28132">
        <ele>143.1</ele>
        <time>2016-03-06T07:21:54Z</time>
      </trkpt>
      <trkpt lat="48.90644" lon="1.28114">
        <ele>143</ele>
        <time>2016-03-06T07:21:57Z</time>
      </trkpt>
      <trkpt lat="48.90641" lon="1.28095">
        <ele>143</ele>
        <time>2016-03-06T07:22:00Z</time>
      </trkpt>
      <trkpt lat="48.90636" lon="1.28079">
        <ele>143</ele>
        <time>2016-03-06T07:22:03Z</time>
      </trkpt>
      <trkpt lat="48.90627" lon="1.28071">
        <ele>142.9</ele>
        <time>2016-03-06T07:22:06Z</time>
      </trkpt>
      <trkpt lat="48.90616" lon="1.28075">
        <ele>142.9</ele>
        <time>2016-03-06T07:22:09Z</time>
      </trkpt>
      <trkpt lat="48.90607" lon="1.28079">
        <ele>142.8</ele>
        <time>2016-03-06T07:22:11Z</time>
      </trkpt>
      <trkpt lat="48.90599" lon="1.28083">
        <ele>142.7</ele>
        <time>2016-03-06T07:22:13Z</time>
      </trkpt>
      <trkpt lat="48.9059" lon="1.28087">
        <ele>142.7</ele>
        <time>2016-03-06T07:22:15Z</time>
      </trkpt>
      <trkpt lat="48.9058" lon="1.28091">
        <ele>142.6</ele>
        <time>2016-03-06T07:22:17Z</time>
      </trkpt>
      <trkpt lat="48.90571" lon="1.28096">
        <ele>142.5</ele>
        <time>2016-03-06T07:22:19Z</time>
      </trkpt>
      <trkpt lat="48.90562" lon="1.281">
        <ele>142.4</ele>
        <time>2016-03-06T07:22:21Z</time>
      </trkpt>
      <trkpt lat="48.90553" lon="1.28105">
        <ele>142.3</ele>
        <time>2016-03-06T07:22:23Z</time>
      </trkpt>
      <trkpt lat="48.90544" lon="1.2811">
        <ele>142.1</ele>
        <time>2016-03-06T07:22:25Z</time>
      </trkpt>
      <trkpt lat="48.90535" lon="1.28114">
        <ele>142</ele>
        <time>2016-03-06T07:22:27Z</time>
      </trkpt>
      <trkpt lat="48.90525" lon="1.28118">
        <ele>141.9</ele>
        <time>2016-03-06T07:22:29Z</time>
      </trkpt>
      <trkpt lat="48.90517" lon="1.28123">
        <ele>141.8</ele>
        <time>2016-03-06T07:22:31Z</time>
      </trkpt>
      <trkpt lat="48.90504" lon="1.28127">
        <ele>141.7</ele>
        <time>2016-03-06T07:22:34Z</time>
      </trkpt>
      <trkpt lat="48.90495" lon="1.2813">
        <ele>141.6</ele>
        <time>2016-03-06T07:22:36Z</time>
      </trkpt>
      <trkpt lat="48.90486" lon="1.28133">
        <ele>141.6</ele>
        <time>2016-03-06T07:22:38Z</time>
      </trkpt>
      <trkpt lat="48.90473" lon="1.28136">
        <ele>141.5</ele>
        <time>2016-03-06T07:22:41Z</time>
      </trkpt>
      <trkpt lat="48.90463" lon="1.28137">
        <ele>141.5</ele>
        <time>2016-03-06T07:22:43Z</time>
      </trkpt>
      <trkpt lat="48.90454" lon="1.28139">
        <ele>141.5</ele>
        <time>2016-03-06T07:22:45Z</time>
      </trkpt>
      <trkpt lat="48.90445" lon="1.2814">
        <ele>141.5</ele>
        <time>2016-03-06T07:22:47Z</time>
      </trkpt>
      <trkpt lat="48.90436" lon="1.28141">
        <ele>141.4</ele>
        <time>2016-03-06T07:22:49Z</time>
      </trkpt>
      <trkpt lat="48.90427" lon="1.28143">
        <ele>141.4</ele>
        <time>2016-03-06T07:22:51Z</time>
      </trkpt>
      <trkpt lat="48.90414" lon="1.28148">
        <ele>141.5</ele>
        <time>2016-03-06T07:22:54Z</time>
      </trkpt>
      <trkpt lat="48.90412" lon="1.28163">
        <ele>141.5</ele>
        <time>2016-03-06T07:22:58Z</time>
      </trkpt>
      <trkpt lat="48.90413" lon="1.28179">
        <ele>141.6</ele>
        <time>2016-03-06T07:23:02Z</time>
      </trkpt>
      <trkpt lat="48.90413" lon="1.28197">
        <ele>141.6</ele>
        <time>2016-03-06T07:23:05Z</time>
      </trkpt>
      <trkpt lat="48.90414" lon="1.28211">
        <ele>141.7</ele>
        <time>2016-03-06T07:23:07Z</time>
      </trkpt>
      <trkpt lat="48.90415" lon="1.28225">
        <ele>141.7</ele>
        <time>2016-03-06T07:23:09Z</time>
      </trkpt>
      <trkpt lat="48.90416" lon="1.28239">
        <ele>141.8</ele>
        <time>2016-03-06T07:23:11Z</time>
      </trkpt>
      <trkpt lat="48.90418" lon="1.28253">
        <ele>141.8</ele>
        <time>2016-03-06T07:23:13Z</time>
      </trkpt>
      <trkpt lat="48.90419" lon="1.28268">
        <ele>141.9</ele>
        <time>2016-03-06T07:23:15Z</time>
      </trkpt>
      <trkpt lat="48.9042" lon="1.28283">
        <ele>141.9</ele>
        <time>2016-03-06T07:23:17Z</time>
      </trkpt>
      <trkpt lat="48.90421" lon="1.28297">
        <ele>141.9</ele>
        <time>2016-03-06T07:23:19Z</time>
      </trkpt>
      <trkpt lat="48.90422" lon="1.28311">
        <ele>142</ele>
        <time>2016-03-06T07:23:21Z</time>
      </trkpt>
      <trkpt lat="48.90423" lon="1.28326">
        <ele>142</ele>
        <time>2016-03-06T07:23:23Z</time>
      </trkpt>
      <trkpt lat="48.90424" lon="1.2834">
        <ele>142.1</ele>
        <time>2016-03-06T07:23:25Z</time>
      </trkpt>
      <trkpt lat="48.90425" lon="1.28354">
        <ele>142.1</ele>
        <time>2016-03-06T07:23:27Z</time>
      </trkpt>
      <trkpt lat="48.90426" lon="1.28368">
        <ele>142.1</ele>
        <time>2016-03-06T07:23:29Z</time>
      </trkpt>
      <trkpt lat="48.90427" lon="1.28382">
        <ele>142.1</ele>
        <time>2016-03-06T07:23:31Z</time>
      </trkpt>
      <trkpt lat="48.90428" lon="1.28402">
        <ele>142.2</ele>
        <time>2016-03-06T07:23:34Z</time>
      </trkpt>
      <trkpt lat="48.9043" lon="1.28422">
        <ele>142.2</ele>
        <time>2016-03-06T07:23:37Z</time>
      </trkpt>
      <trkpt lat="48.90432" lon="1.28442">
        <ele>142.2</ele>
        <time>2016-03-06T07:23:40Z</time>
      </trkpt>
      <trkpt lat="48.90433" lon="1.28463">
        <ele>142.2</ele>
        <time>2016-03-06T07:23:43Z</time>
      </trkpt>
      <trkpt lat="48.90434" lon="1.28483">
        <ele>142.3</ele>
        <time>2016-03-06T07:23:46Z</time>
      </trkpt>
      <trkpt lat="48.90435" lon="1.28502">
        <ele>142.3</ele>
        <time>2016-03-06T07:23:49Z</time>
      </trkpt>
      <trkpt lat="48.90437" lon="1.28516">
        <ele>142.3</ele>
        <time>2016-03-06T07:23:52Z</time>
      </trkpt>
      <trkpt lat="48.90446" lon="1.28509">
        <ele>142.3</ele>
        <time>2016-03-06T07:24:02Z</time>
      </trkpt>
      <trkpt lat="48.9045" lon="1.28497">
        <ele>142.3</ele>
        <time>2016-03-06T07:24:07Z</time>
      </trkpt>
      <trkpt lat="48.90456" lon="1.28483">
        <ele>142.3</ele>
        <time>2016-03-06T07:24:10Z</time>
      </trkpt>
      <trkpt lat="48.90462" lon="1.28467">
        <ele>142.3</ele>
        <time>2016-03-06T07:24:13Z</time>
      </trkpt>
      <trkpt lat="48.90469" lon="1.28449">
        <ele>142.3</ele>
        <time>2016-03-06T07:24:16Z</time>
      </trkpt>
      <trkpt lat="48.90473" lon="1.28436">
        <ele>142.3</ele>
        <time>2016-03-06T07:24:18Z</time>
      </trkpt>
      <trkpt lat="48.90477" lon="1.28424">
        <ele>142.3</ele>
        <time>2016-03-06T07:24:20Z</time>
      </trkpt>
      <trkpt lat="48.90482" lon="1.28411">
        <ele>142.3</ele>
        <time>2016-03-06T07:24:22Z</time>
      </trkpt>
      <trkpt lat="48.90486" lon="1.28397">
        <ele>142.3</ele>
        <time>2016-03-06T07:24:24Z</time>
      </trkpt>
      <trkpt lat="48.90491" lon="1.28384">
        <ele>142.3</ele>
        <time>2016-03-06T07:24:26Z</time>
      </trkpt>
      <trkpt lat="48.90496" lon="1.28371">
        <ele>142.3</ele>
        <time>2016-03-06T07:24:28Z</time>
      </trkpt>
      <trkpt lat="48.90501" lon="1.28358">
        <ele>142.3</ele>
        <time>2016-03-06T07:24:30Z</time>
      </trkpt>
      <trkpt lat="48.90505" lon="1.28346">
        <ele>142.3</ele>
        <time>2016-03-06T07:24:32Z</time>
      </trkpt>
      <trkpt lat="48.9051" lon="1.28334">
        <ele>142.2</ele>
        <time>2016-03-06T07:24:34Z</time>
      </trkpt>
      <trkpt lat="48.90516" lon="1.28321">
        <ele>142.1</ele>
        <time>2016-03-06T07:24:36Z</time>
      </trkpt>
      <trkpt lat="48.90521" lon="1.28308">
        <ele>142</ele>
        <time>2016-03-06T07:24:38Z</time>
      </trkpt>
      <trkpt lat="48.90526" lon="1.28295">
        <ele>141.9</ele>
        <time>2016-03-06T07:24:40Z</time>
      </trkpt>
      <trkpt lat="48.90532" lon="1.28282">
        <ele>141.8</ele>
        <time>2016-03-06T07:24:42Z</time>
      </trkpt>
      <trkpt lat="48.90537" lon="1.28268">
        <ele>141.7</ele>
        <time>2016-03-06T07:24:44Z</time>
      </trkpt>
      <trkpt lat="48.90542" lon="1.28255">
        <ele>141.6</ele>
        <time>2016-03-06T07:24:46Z</time>
      </trkpt>
      <trkpt lat="48.90547" lon="1.28242">
        <ele>141.5</ele>
        <time>2016-03-06T07:24:48Z</time>
      </trkpt>
      <trkpt lat="48.90553" lon="1.28229">
        <ele>141.4</ele>
        <time>2016-03-06T07:24:50Z</time>
      </trkpt>
      <trkpt lat="48.90559" lon="1.28216">
        <ele>141.3</ele>
        <time>2016-03-06T07:24:52Z</time>
      </trkpt>
      <trkpt lat="48.90565" lon="1.28205">
        <ele>141.1</ele>
        <time>2016-03-06T07:24:54Z</time>
      </trkpt>
      <trkpt lat="48.90572" lon="1.28197">
        <ele>140.9</ele>
        <time>2016-03-06T07:24:57Z</time>
      </trkpt>
      <trkpt lat="48.90582" lon="1.28206">
        <ele>140.8</ele>
        <time>2016-03-06T07:25:01Z</time>
      </trkpt>
      <trkpt lat="48.90586" lon="1.28221">
        <ele>140.6</ele>
        <time>2016-03-06T07:25:04Z</time>
      </trkpt>
      <trkpt lat="48.9059" lon="1.28239">
        <ele>140.6</ele>
        <time>2016-03-06T07:25:07Z</time>
      </trkpt>
      <trkpt lat="48.90593" lon="1.28256">
        <ele>140.5</ele>
        <time>2016-03-06T07:25:10Z</time>
      </trkpt>
      <trkpt lat="48.90598" lon="1.28275">
        <ele>140.4</ele>
        <time>2016-03-06T07:25:13Z</time>
      </trkpt>
      <trkpt lat="48.90601" lon="1.28289">
        <ele>140.4</ele>
        <time>2016-03-06T07:25:15Z</time>
      </trkpt>
      <trkpt lat="48.90603" lon="1.28302">
        <ele>140.3</ele>
        <time>2016-03-06T07:25:17Z</time>
      </trkpt>
      <trkpt lat="48.90606" lon="1.28316">
        <ele>140.3</ele>
        <time>2016-03-06T07:25:19Z</time>
      </trkpt>
      <trkpt lat="48.90609" lon="1.2833">
        <ele>140.3</ele>
        <time>2016-03-06T07:25:21Z</time>
      </trkpt>
      <trkpt lat="48.90612" lon="1.28344">
        <ele>140.3</ele>
        <time>2016-03-06T07:25:23Z</time>
      </trkpt>
      <trkpt lat="48.90614" lon="1.28359">
        <ele>140.3</ele>
        <time>2016-03-06T07:25:25Z</time>
      </trkpt>
      <trkpt lat="48.90617" lon="1.28373">
        <ele>140.2</ele>
        <time>2016-03-06T07:25:27Z</time>
      </trkpt>
      <trkpt lat="48.90621" lon="1.28388">
        <ele>140.2</ele>
        <time>2016-03-06T07:25:29Z</time>
      </trkpt>
      <trkpt lat="48.90625" lon="1.28403">
        <ele>140.2</ele>
        <time>2016-03-06T07:25:31Z</time>
      </trkpt>
      <trkpt lat="48.90628" lon="1.28418">
        <ele>140.2</ele>
        <time>2016-03-06T07:25:33Z</time>
      </trkpt>
      <trkpt lat="48.90632" lon="1.28432">
        <ele>140.2</ele>
        <time>2016-03-06T07:25:35Z</time>
      </trkpt>
      <trkpt lat="48.90636" lon="1.28448">
        <ele>140.2</ele>
        <time>2016-03-06T07:25:38Z</time>
      </trkpt>
      <trkpt lat="48.90645" lon="1.28451">
        <ele>140.1</ele>
        <time>2016-03-06T07:25:53Z</time>
      </trkpt>
      <trkpt lat="48.90654" lon="1.28445">
        <ele>140.1</ele>
        <time>2016-03-06T07:25:58Z</time>
      </trkpt>
      <trkpt lat="48.90666" lon="1.28438">
        <ele>140.2</ele>
        <time>2016-03-06T07:26:01Z</time>
      </trkpt>
      <trkpt lat="48.90677" lon="1.28432">
        <ele>140.3</ele>
        <time>2016-03-06T07:26:04Z</time>
      </trkpt>
      <trkpt lat="48.90686" lon="1.28428">
        <ele>140.4</ele>
        <time>2016-03-06T07:26:06Z</time>
      </trkpt>
      <trkpt lat="48.90695" lon="1.2842">
        <ele>140.6</ele>
        <time>2016-03-06T07:26:09Z</time>
      </trkpt>
      <trkpt lat="48.90696" lon="1.28402">
        <ele>141</ele>
        <time>2016-03-06T07:26:13Z</time>
      </trkpt>
      <trkpt lat="48.90699" lon="1.28384">
        <ele>141.3</ele>
        <time>2016-03-06T07:26:16Z</time>
      </trkpt>
      <trkpt lat="48.90698" lon="1.28369">
        <ele>141.4</ele>
        <time>2016-03-06T07:26:18Z</time>
      </trkpt>
      <trkpt lat="48.90694" lon="1.28354">
        <ele>141.5</ele>
        <time>2016-03-06T07:26:20Z</time>
      </trkpt>
      <trkpt lat="48.90691" lon="1.28337">
        <ele>141.7</ele>
        <time>2016-03-06T07:26:22Z</time>
      </trkpt>
      <trkpt lat="48.90687" lon="1.28319">
        <ele>141.8</ele>
        <time>2016-03-06T07:26:24Z</time>
      </trkpt>
      <trkpt lat="48.90682" lon="1.28302">
        <ele>141.9</ele>
        <time>2016-03-06T07:26:26Z</time>
      </trkpt>
      <trkpt lat="48.90678" lon="1.28285">
        <ele>141.9</ele>
        <time>2016-03-06T07:26:28Z</time>
      </trkpt>
      <trkpt lat="48.90674" lon="1.28269">
        <ele>142</ele>
        <time>2016-03-06T07:26:30Z</time>
      </trkpt>
      <trkpt lat="48.9067" lon="1.28252">
        <ele>142.1</ele>
        <time>2016-03-06T07:26:32Z</time>
      </trkpt>
      <trkpt lat="48.90667" lon="1.28236">
        <ele>142.2</ele>
        <time>2016-03-06T07:26:34Z</time>
      </trkpt>
      <trkpt lat="48.90664" lon="1.28221">
        <ele>142.2</ele>
        <time>2016-03-06T07:26:36Z</time>
      </trkpt>
      <trkpt lat="48.90662" lon="1.28206">
        <ele>142.3</ele>
        <time>2016-03-06T07:26:38Z</time>
      </trkpt>
      <trkpt lat="48.90659" lon="1.2819">
        <ele>142.3</ele>
        <time>2016-03-06T07:26:40Z</time>
      </trkpt>
      <trkpt lat="48.90657" lon="1.28174">
        <ele>142.4</ele>
        <time>2016-03-06T07:26:42Z</time>
      </trkpt>
      <trkpt lat="48.90653" lon="1.28158">
        <ele>142.4</ele>
        <time>2016-03-06T07:26:44Z</time>
      </trkpt>
      <trkpt lat="48.9065" lon="1.28142">
        <ele>142.4</ele>
        <time>2016-03-06T07:26:46Z</time>
      </trkpt>
      <trkpt lat="48.90647" lon="1.28127">
        <ele>142.5</ele>
        <time>2016-03-06T07:26:48Z</time>
      </trkpt>
      <trkpt lat="48.90643" lon="1.28111">
        <ele>142.5</ele>
        <time>2016-03-06T07:26:50Z</time>
      </trkpt>
      <trkpt lat="48.9064" lon="1.28095">
        <ele>142.5</ele>
        <time>2016-03-06T07:26:52Z</time>
      </trkpt>
      <trkpt lat="48.90637" lon="1.28081">
        <ele>142.5</ele>
        <time>2016-03-06T07:26:54Z</time>
      </trkpt>
      <trkpt lat="48.90626" lon="1.28071">
        <ele>142.5</ele>
        <time>2016-03-06T07:26:57Z</time>
      </trkpt>
      <trkpt lat="48.90617" lon="1.28075">
        <ele>142.5</ele>
        <time>2016-03-06T07:26:59Z</time>
      </trkpt>
      <trkpt lat="48.90607" lon="1.2808">
        <ele>142.4</ele>
        <time>2016-03-06T07:27:01Z</time>
      </trkpt>
      <trkpt lat="48.90596" lon="1.28086">
        <ele>142.3</ele>
        <time>2016-03-06T07:27:03Z</time>
      </trkpt>
      <trkpt lat="48.90584" lon="1.28091">
        <ele>142.3</ele>
        <time>2016-03-06T07:27:05Z</time>
      </trkpt>
      <trkpt lat="48.90573" lon="1.28097">
        <ele>142.2</ele>
        <time>2016-03-06T07:27:07Z</time>
      </trkpt>
      <trkpt lat="48.90561" lon="1.28103">
        <ele>142.2</ele>
        <time>2016-03-06T07:27:09Z</time>
      </trkpt>
      <trkpt lat="48.9055" lon="1.28109">
        <ele>142</ele>
        <time>2016-03-06T07:27:11Z</time>
      </trkpt>
      <trkpt lat="48.90539" lon="1.28114">
        <ele>141.9</ele>
        <time>2016-03-06T07:27:13Z</time>
      </trkpt>
      <trkpt lat="48.90529" lon="1.28119">
        <ele>141.8</ele>
        <time>2016-03-06T07:27:15Z</time>
      </trkpt>
      <trkpt lat="48.90518" lon="1.28124">
        <ele>141.7</ele>
        <time>2016-03-06T07:27:17Z</time>
      </trkpt>
      <trkpt lat="48.90508" lon="1.28128">
        <ele>141.6</ele>
        <time>2016-03-06T07:27:19Z</time>
      </trkpt>
      <trkpt lat="48.90497" lon="1.28131">
        <ele>141.5</ele>
        <time>2016-03-06T07:27:21Z</time>
      </trkpt>
      <trkpt lat="48.90486" lon="1.28134">
        <ele>141.5</ele>
        <time>2016-03-06T07:27:23Z</time>
      </trkpt>
      <trkpt lat="48.90474" lon="1.28136">
        <ele>141.4</ele>
        <time>2016-03-06T07:27:25Z</time>
      </trkpt>
      <trkpt lat="48.90463" lon="1.28138">
        <ele>141.3</ele>
        <time>2016-03-06T07:27:27Z</time>
      </trkpt>
      <trkpt lat="48.90451" lon="1.2814">
        <ele>141.3</ele>
        <time>2016-03-06T07:27:29Z</time>
      </trkpt>
      <trkpt lat="48.9044" lon="1.28142">
        <ele>141.3</ele>
        <time>2016-03-06T07:27:31Z</time>
      </trkpt>
      <trkpt lat="48.90428" lon="1.28143">
        <ele>141.2</ele>
        <time>2016-03-06T07:27:33Z</time>
      </trkpt>
      <trkpt lat="48.90417" lon="1.28145">
        <ele>141.3</ele>
        <time>2016-03-06T07:27:35Z</time>
      </trkpt>
      <trkpt lat="48.90407" lon="1.28147">
        <ele>141.3</ele>
        <time>2016-03-06T07:27:37Z</time>
      </trkpt>
      <trkpt lat="48.90396" lon="1.28148">
        <ele>141.4</ele>
        <time>2016-03-06T07:27:39Z</time>
      </trkpt>
      <trkpt lat="48.90385" lon="1.28148">
        <ele>141.4</ele>
        <time>2016-03-06T07:27:41Z</time>
      </trkpt>
      <trkpt lat="48.90374" lon="1.28147">
        <ele>141.5</ele>
        <time>2016-03-06T07:27:43Z</time>
      </trkpt>
      <trkpt lat="48.90363" lon="1.28146">
        <ele>141.5</ele>
        <time>2016-03-06T07:27:45Z</time>
      </trkpt>
      <trkpt lat="48.90352" lon="1.28144">
        <ele>141.6</ele>
        <time>2016-03-06T07:27:47Z</time>
      </trkpt>
      <trkpt lat="48.90343" lon="1.28142">
        <ele>141.7</ele>
        <time>2016-03-06T07:27:49Z</time>
      </trkpt>
      <trkpt lat="48.90333" lon="1.28139">
        <ele>141.8</ele>
        <time>2016-03-06T07:27:51Z</time>
      </trkpt>
      <trkpt lat="48.90324" lon="1.28135">
        <ele>141.9</ele>
        <time>2016-03-06T07:27:53Z</time>
      </trkpt>
      <trkpt lat="48.90314" lon="1.28131">
        <ele>142</ele>
        <time>2016-03-06T07:27:55Z</time>
      </trkpt>
      <trkpt lat="48.90304" lon="1.28126">
        <ele>142.1</ele>
        <time>2016-03-06T07:27:57Z</time>
      </trkpt>
      <trkpt lat="48.90293" lon="1.28122">
        <ele>142.2</ele>
        <time>2016-03-06T07:27:59Z</time>
      </trkpt>
      <trkpt lat="48.90283" lon="1.28118">
        <ele>142.3</ele>
        <time>2016-03-06T07:28:01Z</time>
      </trkpt>
      <trkpt lat="48.90273" lon="1.28115">
        <ele>142.5</ele>
        <time>2016-03-06T07:28:03Z</time>
      </trkpt>
      <trkpt lat="48.90263" lon="1.28111">
        <ele>142.6</ele>
        <time>2016-03-06T07:28:05Z</time>
      </trkpt>
      <trkpt lat="48.90253" lon="1.28097">
        <ele>142.7</ele>
        <time>2016-03-06T07:28:08Z</time>
      </trkpt>
      <trkpt lat="48.90252" lon="1.28082">
        <ele>142.8</ele>
        <time>2016-03-06T07:28:10Z</time>
      </trkpt>
      <trkpt lat="48.90254" lon="1.28066">
        <ele>142.8</ele>
        <time>2016-03-06T07:28:12Z</time>
      </trkpt>
      <trkpt lat="48.90254" lon="1.28051">
        <ele>142.9</ele>
        <time>2016-03-06T07:28:14Z</time>
      </trkpt>
      <trkpt lat="48.90254" lon="1.28034">
        <ele>143</ele>
        <time>2016-03-06T07:28:17Z</time>
      </trkpt>
      <trkpt lat="48.90244" lon="1.28027">
        <ele>143.1</ele>
        <time>2016-03-06T07:28:21Z</time>
      </trkpt>
      <trkpt lat="48.90234" lon="1.28036">
        <ele>143.2</ele>
        <time>2016-03-06T07:28:24Z</time>
      </trkpt>
      <trkpt lat="48.90223" lon="1.28045">
        <ele>143.2</ele>
        <time>2016-03-06T07:28:27Z</time>
      </trkpt>
      <trkpt lat="48.90211" lon="1.28055">
        <ele>143.3</ele>
        <time>2016-03-06T07:28:30Z</time>
      </trkpt>
      <trkpt lat="48.90203" lon="1.28062">
        <ele>143.3</ele>
        <time>2016-03-06T07:28:32Z</time>
      </trkpt>
      <trkpt lat="48.90196" lon="1.28069">
        <ele>143.3</ele>
        <time>2016-03-06T07:28:34Z</time>
      </trkpt>
      <trkpt lat="48.90188" lon="1.28078">
        <ele>143.4</ele>
        <time>2016-03-06T07:28:36Z</time>
      </trkpt>
      <trkpt lat="48.9018" lon="1.28087">
        <ele>143.4</ele>
        <time>2016-03-06T07:28:38Z</time>
      </trkpt>
      <trkpt lat="48.90173" lon="1.28096">
        <ele>143.4</ele>
        <time>2016-03-06T07:28:40Z</time>
      </trkpt>
      <trkpt lat="48.90165" lon="1.28106">
        <ele>143.5</ele>
        <time>2016-03-06T07:28:42Z</time>
      </trkpt>
      <trkpt lat="48.90157" lon="1.28115">
        <ele>143.5</ele>
        <time>2016-03-06T07:28:44Z</time>
      </trkpt>
      <trkpt lat="48.90149" lon="1.28125">
        <ele>143.5</ele>
        <time>2016-03-06T07:28:46Z</time>
      </trkpt>
      <trkpt lat="48.9014" lon="1.28136">
        <ele>143.6</ele>
        <time>2016-03-06T07:28:48Z</time>
      </trkpt>
      <trkpt lat="48.90132" lon="1.28146">
        <ele>143.7</ele>
        <time>2016-03-06T07:28:50Z</time>
      </trkpt>
      <trkpt lat="48.90123" lon="1.28156">
        <ele>143.8</ele>
        <time>2016-03-06T07:28:52Z</time>
      </trkpt>
      <trkpt lat="48.90114" lon="1.28166">
        <ele>143.9</ele>
        <time>2016-03-06T07:28:54Z</time>
      </trkpt>
      <trkpt lat="48.90105" lon="1.28176">
        <ele>143.9</ele>
        <time>2016-03-06T07:28:56Z</time>
      </trkpt>
      <trkpt lat="48.90096" lon="1.28186">
        <ele>144</ele>
        <time>2016-03-06T07:28:58Z</time>
      </trkpt>
      <trkpt lat="48.90086" lon="1.28196">
        <ele>144.1</ele>
        <time>2016-03-06T07:29:00Z</time>
      </trkpt>
      <trkpt lat="48.90077" lon="1.28203">
        <ele>144.1</ele>
        <time>2016-03-06T07:29:02Z</time>
      </trkpt>
      <trkpt lat="48.90066" lon="1.28207">
        <ele>144.1</ele>
        <time>2016-03-06T07:29:04Z</time>
      </trkpt>
      <trkpt lat="48.90055" lon="1.28209">
        <ele>144.2</ele>
        <time>2016-03-06T07:29:06Z</time>
      </trkpt>
      <trkpt lat="48.90045" lon="1.28211">
        <ele>144.3</ele>
        <time>2016-03-06T07:29:08Z</time>
      </trkpt>
      <trkpt lat="48.90034" lon="1.28211">
        <ele>144.3</ele>
        <time>2016-03-06T07:29:10Z</time>
      </trkpt>
      <trkpt lat="48.90024" lon="1.28213">
        <ele>144.4</ele>
        <time>2016-03-06T07:29:12Z</time>
      </trkpt>
      <trkpt lat="48.90014" lon="1.28215">
        <ele>144.4</ele>
        <time>2016-03-06T07:29:14Z</time>
      </trkpt>
      <trkpt lat="48.90004" lon="1.28217">
        <ele>144.4</ele>
        <time>2016-03-06T07:29:16Z</time>
      </trkpt>
      <trkpt lat="48.89994" lon="1.28218">
        <ele>144.4</ele>
        <time>2016-03-06T07:29:18Z</time>
      </trkpt>
      <trkpt lat="48.89984" lon="1.28217">
        <ele>144.4</ele>
        <time>2016-03-06T07:29:20Z</time>
      </trkpt>
      <trkpt lat="48.89974" lon="1.28216">
        <ele>144.5</ele>
        <time>2016-03-06T07:29:22Z</time>
      </trkpt>
      <trkpt lat="48.89963" lon="1.28215">
        <ele>144.5</ele>
        <time>2016-03-06T07:29:24Z</time>
      </trkpt>
      <trkpt lat="48.89952" lon="1.28212">
        <ele>144.5</ele>
        <time>2016-03-06T07:29:26Z</time>
      </trkpt>
      <trkpt lat="48.89942" lon="1.28208">
        <ele>144.5</ele>
        <time>2016-03-06T07:29:28Z</time>
      </trkpt>
      <trkpt lat="48.89932" lon="1.28204">
        <ele>144.5</ele>
        <time>2016-03-06T07:29:30Z</time>
      </trkpt>
      <trkpt lat="48.89922" lon="1.28198">
        <ele>144.5</ele>
        <time>2016-03-06T07:29:32Z</time>
      </trkpt>
      <trkpt lat="48.89913" lon="1.2819">
        <ele>144.5</ele>
        <time>2016-03-06T07:29:34Z</time>
      </trkpt>
      <trkpt lat="48.89905" lon="1.28183">
        <ele>144.5</ele>
        <time>2016-03-06T07:29:36Z</time>
      </trkpt>
      <trkpt lat="48.89897" lon="1.28175">
        <ele>144.5</ele>
        <time>2016-03-06T07:29:38Z</time>
      </trkpt>
      <trkpt lat="48.89888" lon="1.28168">
        <ele>144.5</ele>
        <time>2016-03-06T07:29:40Z</time>
      </trkpt>
      <trkpt lat="48.89881" lon="1.28158">
        <ele>144.5</ele>
        <time>2016-03-06T07:29:42Z</time>
      </trkpt>
      <trkpt lat="48.89873" lon="1.2815">
        <ele>144.5</ele>
        <time>2016-03-06T07:29:44Z</time>
      </trkpt>
      <trkpt lat="48.89865" lon="1.28142">
        <ele>144.5</ele>
        <time>2016-03-06T07:29:46Z</time>
      </trkpt>
      <trkpt lat="48.89856" lon="1.28134">
        <ele>144.5</ele>
        <time>2016-03-06T07:29:48Z</time>
      </trkpt>
      <trkpt lat="48.89848" lon="1.28126">
        <ele>144.6</ele>
        <time>2016-03-06T07:29:50Z</time>
      </trkpt>
      <trkpt lat="48.89839" lon="1.28117">
        <ele>144.6</ele>
        <time>2016-03-06T07:29:52Z</time>
      </trkpt>
      <trkpt lat="48.89831" lon="1.28109">
        <ele>144.6</ele>
        <time>2016-03-06T07:29:54Z</time>
      </trkpt>
      <trkpt lat="48.89821" lon="1.28101">
        <ele>144.7</ele>
        <time>2016-03-06T07:29:57Z</time>
      </trkpt>
      <trkpt lat="48.89811" lon="1.28093">
        <ele>144.7</ele>
        <time>2016-03-06T07:30:00Z</time>
      </trkpt>
      <trkpt lat="48.89801" lon="1.28085">
        <ele>144.7</ele>
        <time>2016-03-06T07:30:03Z</time>
      </trkpt>
      <trkpt lat="48.89791" lon="1.28078">
        <ele>144.8</ele>
        <time>2016-03-06T07:30:06Z</time>
      </trkpt>
      <trkpt lat="48.89782" lon="1.28073">
        <ele>144.7</ele>
        <time>2016-03-06T07:30:09Z</time>
      </trkpt>
      <trkpt lat="48.89771" lon="1.28069">
        <ele>144.6</ele>
        <time>2016-03-06T07:30:12Z</time>
      </trkpt>
      <trkpt lat="48.89759" lon="1.28065">
        <ele>144.6</ele>
        <time>2016-03-06T07:30:15Z</time>
      </trkpt>
      <trkpt lat="48.89747" lon="1.28062">
        <ele>144.6</ele>
        <time>2016-03-06T07:30:18Z</time>
      </trkpt>
      <trkpt lat="48.89734" lon="1.2806">
        <ele>144.6</ele>
        <time>2016-03-06T07:30:21Z</time>
      </trkpt>
      <trkpt lat="48.89721" lon="1.28059">
        <ele>144.6</ele>
        <time>2016-03-06T07:30:24Z</time>
      </trkpt>
      <trkpt lat="48.89707" lon="1.28058">
        <ele>144.7</ele>
        <time>2016-03-06T07:30:27Z</time>
      </trkpt>
      <trkpt lat="48.89695" lon="1.28054">
        <ele>144.6</ele>
        <time>2016-03-06T07:30:30Z</time>
      </trkpt>
      <trkpt lat="48.89685" lon="1.28053">
        <ele>144.5</ele>
        <time>2016-03-06T07:30:32Z</time>
      </trkpt>
      <trkpt lat="48.89676" lon="1.28053">
        <ele>144.4</ele>
        <time>2016-03-06T07:30:34Z</time>
      </trkpt>
      <trkpt lat="48.89663" lon="1.28052">
        <ele>144.3</ele>
        <time>2016-03-06T07:30:37Z</time>
      </trkpt>
      <trkpt lat="48.89653" lon="1.28052">
        <ele>144.2</ele>
        <time>2016-03-06T07:30:39Z</time>
      </trkpt>
      <trkpt lat="48.89643" lon="1.28052">
        <ele>144.1</ele>
        <time>2016-03-06T07:30:41Z</time>
      </trkpt>
      <trkpt lat="48.89633" lon="1.28052">
        <ele>144.1</ele>
        <time>2016-03-06T07:30:43Z</time>
      </trkpt>
      <trkpt lat="48.89623" lon="1.28051">
        <ele>144</ele>
        <time>2016-03-06T07:30:45Z</time>
      </trkpt>
      <trkpt lat="48.89614" lon="1.28052">
        <ele>144</ele>
        <time>2016-03-06T07:30:47Z</time>
      </trkpt>
      <trkpt lat="48.89604" lon="1.28053">
        <ele>144</ele>
        <time>2016-03-06T07:30:49Z</time>
      </trkpt>
      <trkpt lat="48.89594" lon="1.28053">
        <ele>143.9</ele>
        <time>2016-03-06T07:30:51Z</time>
      </trkpt>
      <trkpt lat="48.89585" lon="1.28054">
        <ele>143.9</ele>
        <time>2016-03-06T07:30:53Z</time>
      </trkpt>
      <trkpt lat="48.89576" lon="1.28056">
        <ele>143.9</ele>
        <time>2016-03-06T07:30:55Z</time>
      </trkpt>
      <trkpt lat="48.89566" lon="1.28056">
        <ele>143.9</ele>
        <time>2016-03-06T07:30:57Z</time>
      </trkpt>
      <trkpt lat="48.89557" lon="1.28056">
        <ele>143.9</ele>
        <time>2016-03-06T07:30:59Z</time>
      </trkpt>
      <trkpt lat="48.89544" lon="1.28057">
        <ele>143.8</ele>
        <time>2016-03-06T07:31:02Z</time>
      </trkpt>
      <trkpt lat="48.89532" lon="1.2806">
        <ele>143.8</ele>
        <time>2016-03-06T07:31:05Z</time>
      </trkpt>
      <trkpt lat="48.89523" lon="1.28062">
        <ele>143.8</ele>
        <time>2016-03-06T07:31:07Z</time>
      </trkpt>
      <trkpt lat="48.89513" lon="1.28063">
        <ele>143.8</ele>
        <time>2016-03-06T07:31:09Z</time>
      </trkpt>
      <trkpt lat="48.89504" lon="1.28065">
        <ele>143.8</ele>
        <time>2016-03-06T07:31:11Z</time>
      </trkpt>
      <trkpt lat="48.89494" lon="1.28067">
        <ele>143.8</ele>
        <time>2016-03-06T07:31:13Z</time>
      </trkpt>
      <trkpt lat="48.89484" lon="1.28069">
        <ele>143.8</ele>
        <time>2016-03-06T07:31:15Z</time>
      </trkpt>
      <trkpt lat="48.89474" lon="1.28072">
        <ele>143.8</ele>
        <time>2016-03-06T07:31:17Z</time>
      </trkpt>
      <trkpt lat="48.89464" lon="1.28073">
        <ele>143.7</ele>
        <time>2016-03-06T07:31:19Z</time>
      </trkpt>
      <trkpt lat="48.89455" lon="1.28076">
        <ele>143.7</ele>
        <time>2016-03-06T07:31:21Z</time>
      </trkpt>
      <trkpt lat="48.89445" lon="1.2808">
        <ele>143.6</ele>
        <time>2016-03-06T07:31:23Z</time>
      </trkpt>
      <trkpt lat="48.89435" lon="1.28084">
        <ele>143.6</ele>
        <time>2016-03-06T07:31:25Z</time>
      </trkpt>
      <trkpt lat="48.89424" lon="1.28087">
        <ele>143.5</ele>
        <time>2016-03-06T07:31:27Z</time>
      </trkpt>
      <trkpt lat="48.89414" lon="1.2809">
        <ele>143.5</ele>
        <time>2016-03-06T07:31:29Z</time>
      </trkpt>
      <trkpt lat="48.89403" lon="1.28093">
        <ele>143.3</ele>
        <time>2016-03-06T07:31:31Z</time>
      </trkpt>
      <trkpt lat="48.89392" lon="1.28096">
        <ele>143.3</ele>
        <time>2016-03-06T07:31:33Z</time>
      </trkpt>
      <trkpt lat="48.89381" lon="1.28099">
        <ele>143.2</ele>
        <time>2016-03-06T07:31:35Z</time>
      </trkpt>
      <trkpt lat="48.8937" lon="1.28102">
        <ele>143.1</ele>
        <time>2016-03-06T07:31:37Z</time>
      </trkpt>
      <trkpt lat="48.89359" lon="1.28105">
        <ele>143</ele>
        <time>2016-03-06T07:31:39Z</time>
      </trkpt>
      <trkpt lat="48.89348" lon="1.28108">
        <ele>143</ele>
        <time>2016-03-06T07:31:41Z</time>
      </trkpt>
      <trkpt lat="48.89337" lon="1.28109">
        <ele>142.9</ele>
        <time>2016-03-06T07:31:43Z</time>
      </trkpt>
      <trkpt lat="48.89326" lon="1.28113">
        <ele>142.9</ele>
        <time>2016-03-06T07:31:45Z</time>
      </trkpt>
      <trkpt lat="48.89315" lon="1.28116">
        <ele>142.9</ele>
        <time>2016-03-06T07:31:47Z</time>
      </trkpt>
      <trkpt lat="48.89304" lon="1.2812">
        <ele>142.8</ele>
        <time>2016-03-06T07:31:49Z</time>
      </trkpt>
      <trkpt lat="48.89293" lon="1.28124">
        <ele>142.7</ele>
        <time>2016-03-06T07:31:51Z</time>
      </trkpt>
      <trkpt lat="48.89282" lon="1.28128">
        <ele>142.7</ele>
        <time>2016-03-06T07:31:53Z</time>
      </trkpt>
      <trkpt lat="48.89271" lon="1.28132">
        <ele>142.6</ele>
        <time>2016-03-06T07:31:55Z</time>
      </trkpt>
      <trkpt lat="48.8926" lon="1.28138">
        <ele>142.6</ele>
        <time>2016-03-06T07:31:57Z</time>
      </trkpt>
      <trkpt lat="48.8925" lon="1.28145">
        <ele>142.5</ele>
        <time>2016-03-06T07:31:59Z</time>
      </trkpt>
      <trkpt lat="48.89239" lon="1.28152">
        <ele>142.4</ele>
        <time>2016-03-06T07:32:01Z</time>
      </trkpt>
      <trkpt lat="48.89228" lon="1.2816">
        <ele>142.3</ele>
        <time>2016-03-06T07:32:03Z</time>
      </trkpt>
      <trkpt lat="48.89218" lon="1.28169">
        <ele>142.2</ele>
        <time>2016-03-06T07:32:05Z</time>
      </trkpt>
      <trkpt lat="48.89208" lon="1.28179">
        <ele>142.2</ele>
        <time>2016-03-06T07:32:07Z</time>
      </trkpt>
      <trkpt lat="48.89198" lon="1.28189">
        <ele>142.1</ele>
        <time>2016-03-06T07:32:09Z</time>
      </trkpt>
      <trkpt lat="48.89188" lon="1.28199">
        <ele>142</ele>
        <time>2016-03-06T07:32:11Z</time>
      </trkpt>
      <trkpt lat="48.89178" lon="1.28209">
        <ele>141.9</ele>
        <time>2016-03-06T07:32:13Z</time>
      </trkpt>
      <trkpt lat="48.89168" lon="1.28219">
        <ele>141.7</ele>
        <time>2016-03-06T07:32:15Z</time>
      </trkpt>
      <trkpt lat="48.89157" lon="1.28229">
        <ele>141.5</ele>
        <time>2016-03-06T07:32:17Z</time>
      </trkpt>
      <trkpt lat="48.89147" lon="1.28239">
        <ele>141.2</ele>
        <time>2016-03-06T07:32:19Z</time>
      </trkpt>
      <trkpt lat="48.89137" lon="1.2825">
        <ele>140.9</ele>
        <time>2016-03-06T07:32:21Z</time>
      </trkpt>
      <trkpt lat="48.89127" lon="1.28259">
        <ele>140.7</ele>
        <time>2016-03-06T07:32:23Z</time>
      </trkpt>
      <trkpt lat="48.89118" lon="1.28269">
        <ele>140.5</ele>
        <time>2016-03-06T07:32:25Z</time>
      </trkpt>
      <trkpt lat="48.89108" lon="1.28279">
        <ele>140.3</ele>
        <time>2016-03-06T07:32:27Z</time>
      </trkpt>
      <trkpt lat="48.891" lon="1.28288">
        <ele>140.1</ele>
        <time>2016-03-06T07:32:29Z</time>
      </trkpt>
      <trkpt lat="48.8909" lon="1.28297">
        <ele>140</ele>
        <time>2016-03-06T07:32:31Z</time>
      </trkpt>
      <trkpt lat="48.89081" lon="1.28306">
        <ele>139.9</ele>
        <time>2016-03-06T07:32:33Z</time>
      </trkpt>
      <trkpt lat="48.89072" lon="1.28314">
        <ele>139.8</ele>
        <time>2016-03-06T07:32:35Z</time>
      </trkpt>
      <trkpt lat="48.89063" lon="1.28322">
        <ele>139.8</ele>
        <time>2016-03-06T07:32:37Z</time>
      </trkpt>
      <trkpt lat="48.89054" lon="1.28331">
        <ele>139.8</ele>
        <time>2016-03-06T07:32:39Z</time>
      </trkpt>
      <trkpt lat="48.89045" lon="1.2834">
        <ele>139.9</ele>
        <time>2016-03-06T07:32:41Z</time>
      </trkpt>
      <trkpt lat="48.89036" lon="1.28348">
        <ele>139.9</ele>
        <time>2016-03-06T07:32:43Z</time>
      </trkpt>
      <trkpt lat="48.89028" lon="1.28356">
        <ele>139.9</ele>
        <time>2016-03-06T07:32:45Z</time>
      </trkpt>
      <trkpt lat="48.89019" lon="1.28364">
        <ele>139.9</ele>
        <time>2016-03-06T07:32:47Z</time>
      </trkpt>
      <trkpt lat="48.8901" lon="1.28372">
        <ele>140</ele>
        <time>2016-03-06T07:32:49Z</time>
      </trkpt>
      <trkpt lat="48.89001" lon="1.2838">
        <ele>140.1</ele>
        <time>2016-03-06T07:32:51Z</time>
      </trkpt>
      <trkpt lat="48.88992" lon="1.28387">
        <ele>140.1</ele>
        <time>2016-03-06T07:32:53Z</time>
      </trkpt>
      <trkpt lat="48.88984" lon="1.28396">
        <ele>140.2</ele>
        <time>2016-03-06T07:32:55Z</time>
      </trkpt>
      <trkpt lat="48.88975" lon="1.28403">
        <ele>140.2</ele>
        <time>2016-03-06T07:32:57Z</time>
      </trkpt>
      <trkpt lat="48.88967" lon="1.2841">
        <ele>140.3</ele>
        <time>2016-03-06T07:32:59Z</time>
      </trkpt>
      <trkpt lat="48.88958" lon="1.28417">
        <ele>140.3</ele>
        <time>2016-03-06T07:33:01Z</time>
      </trkpt>
      <trkpt lat="48.8895" lon="1.28424">
        <ele>140.5</ele>
        <time>2016-03-06T07:33:03Z</time>
      </trkpt>
      <trkpt lat="48.88942" lon="1.28431">
        <ele>140.7</ele>
        <time>2016-03-06T07:33:05Z</time>
      </trkpt>
      <trkpt lat="48.88933" lon="1.28437">
        <ele>140.8</ele>
        <time>2016-03-06T07:33:07Z</time>
      </trkpt>
      <trkpt lat="48.88925" lon="1.28445">
        <ele>140.9</ele>
        <time>2016-03-06T07:33:09Z</time>
      </trkpt>
      <trkpt lat="48.88916" lon="1.28452">
        <ele>141</ele>
        <time>2016-03-06T07:33:11Z</time>
      </trkpt>
      <trkpt lat="48.88908" lon="1.28459">
        <ele>141.1</ele>
        <time>2016-03-06T07:33:13Z</time>
      </trkpt>
      <trkpt lat="48.88898" lon="1.28466">
        <ele>141.2</ele>
        <time>2016-03-06T07:33:15Z</time>
      </trkpt>
      <trkpt lat="48.8889" lon="1.28473">
        <ele>141.3</ele>
        <time>2016-03-06T07:33:17Z</time>
      </trkpt>
      <trkpt lat="48.88881" lon="1.28481">
        <ele>141.4</ele>
        <time>2016-03-06T07:33:19Z</time>
      </trkpt>
      <trkpt lat="48.88872" lon="1.28488">
        <ele>141.5</ele>
        <time>2016-03-06T07:33:21Z</time>
      </trkpt>
      <trkpt lat="48.88863" lon="1.28495">
        <ele>141.6</ele>
        <time>2016-03-06T07:33:23Z</time>
      </trkpt>
      <trkpt lat="48.88855" lon="1.28502">
        <ele>141.6</ele>
        <time>2016-03-06T07:33:25Z</time>
      </trkpt>
      <trkpt lat="48.88846" lon="1.28509">
        <ele>141.7</ele>
        <time>2016-03-06T07:33:27Z</time>
      </trkpt>
      <trkpt lat="48.88837" lon="1.28517">
        <ele>141.8</ele>
        <time>2016-03-06T07:33:29Z</time>
      </trkpt>
      <trkpt lat="48.88828" lon="1.28524">
        <ele>141.8</ele>
        <time>2016-03-06T07:33:31Z</time>
      </trkpt>
      <trkpt lat="48.88819" lon="1.28532">
        <ele>141.9</ele>
        <time>2016-03-06T07:33:33Z</time>
      </trkpt>
      <trkpt lat="48.8881" lon="1.28539">
        <ele>141.8</ele>
        <time>2016-03-06T07:33:35Z</time>
      </trkpt>
      <trkpt lat="48.88801" lon="1.28547">
        <ele>141.8</ele>
        <time>2016-03-06T07:33:37Z</time>
      </trkpt>
      <trkpt lat="48.88792" lon="1.28554">
        <ele>141.8</ele>
        <time>2016-03-06T07:33:39Z</time>
      </trkpt>
      <trkpt lat="48.88783" lon="1.28561">
        <ele>141.8</ele>
        <time>2016-03-06T07:33:41Z</time>
      </trkpt>
      <trkpt lat="48.88774" lon="1.28569">
        <ele>141.8</ele>
        <time>2016-03-06T07:33:43Z</time>
      </trkpt>
      <trkpt lat="48.88766" lon="1.28577">
        <ele>141.8</ele>
        <time>2016-03-06T07:33:45Z</time>
      </trkpt>
      <trkpt lat="48.88757" lon="1.28585">
        <ele>141.8</ele>
        <time>2016-03-06T07:33:47Z</time>
      </trkpt>
      <trkpt lat="48.88747" lon="1.28591">
        <ele>141.8</ele>
        <time>2016-03-06T07:33:49Z</time>
      </trkpt>
      <trkpt lat="48.88738" lon="1.28596">
        <ele>141.8</ele>
        <time>2016-03-06T07:33:51Z</time>
      </trkpt>
      <trkpt lat="48.88728" lon="1.28601">
        <ele>141.8</ele>
        <time>2016-03-06T07:33:53Z</time>
      </trkpt>
      <trkpt lat="48.88718" lon="1.28606">
        <ele>141.8</ele>
        <time>2016-03-06T07:33:55Z</time>
      </trkpt>
      <trkpt lat="48.88707" lon="1.28611">
        <ele>141.8</ele>
        <time>2016-03-06T07:33:57Z</time>
      </trkpt>
      <trkpt lat="48.88696" lon="1.28616">
        <ele>141.8</ele>
        <time>2016-03-06T07:33:59Z</time>
      </trkpt>
      <trkpt lat="48.88686" lon="1.28622">
        <ele>141.8</ele>
        <time>2016-03-06T07:34:01Z</time>
      </trkpt>
      <trkpt lat="48.88676" lon="1.28629">
        <ele>141.8</ele>
        <time>2016-03-06T07:34:03Z</time>
      </trkpt>
      <trkpt lat="48.88666" lon="1.28634">
        <ele>141.8</ele>
        <time>2016-03-06T07:34:05Z</time>
      </trkpt>
      <trkpt lat="48.88656" lon="1.28638">
        <ele>141.8</ele>
        <time>2016-03-06T07:34:07Z</time>
      </trkpt>
      <trkpt lat="48.88646" lon="1.28643">
        <ele>141.8</ele>
        <time>2016-03-06T07:34:09Z</time>
      </trkpt>
      <trkpt lat="48.88637" lon="1.28647">
        <ele>141.8</ele>
        <time>2016-03-06T07:34:11Z</time>
      </trkpt>
      <trkpt lat="48.88628" lon="1.28652">
        <ele>141.8</ele>
        <time>2016-03-06T07:34:13Z</time>
      </trkpt>
      <trkpt lat="48.88618" lon="1.28658">
        <ele>141.7</ele>
        <time>2016-03-06T07:34:15Z</time>
      </trkpt>
      <trkpt lat="48.88609" lon="1.28664">
        <ele>141.7</ele>
        <time>2016-03-06T07:34:17Z</time>
      </trkpt>
      <trkpt lat="48.88598" lon="1.28668">
        <ele>141.6</ele>
        <time>2016-03-06T07:34:19Z</time>
      </trkpt>
      <trkpt lat="48.88587" lon="1.28671">
        <ele>141.5</ele>
        <time>2016-03-06T07:34:21Z</time>
      </trkpt>
      <trkpt lat="48.88577" lon="1.28674">
        <ele>141.5</ele>
        <time>2016-03-06T07:34:23Z</time>
      </trkpt>
      <trkpt lat="48.88566" lon="1.28675">
        <ele>141.4</ele>
        <time>2016-03-06T07:34:25Z</time>
      </trkpt>
      <trkpt lat="48.88556" lon="1.28673">
        <ele>141.4</ele>
        <time>2016-03-06T07:34:27Z</time>
      </trkpt>
      <trkpt lat="48.88546" lon="1.28671">
        <ele>141.3</ele>
        <time>2016-03-06T07:34:29Z</time>
      </trkpt>
      <trkpt lat="48.88536" lon="1.28668">
        <ele>141.2</ele>
        <time>2016-03-06T07:34:31Z</time>
      </trkpt>
      <trkpt lat="48.88525" lon="1.28665">
        <ele>141.1</ele>
        <time>2016-03-06T07:34:33Z</time>
      </trkpt>
      <trkpt lat="48.88513" lon="1.28659">
        <ele>141</ele>
        <time>2016-03-06T07:34:36Z</time>
      </trkpt>
      <trkpt lat="48.88501" lon="1.28662">
        <ele>140.8</ele>
        <time>2016-03-06T07:34:39Z</time>
      </trkpt>
      <trkpt lat="48.88495" lon="1.28676">
        <ele>140.6</ele>
        <time>2016-03-06T07:34:43Z</time>
      </trkpt>
      <trkpt lat="48.88489" lon="1.28687">
        <ele>140.4</ele>
        <time>2016-03-06T07:34:47Z</time>
      </trkpt>
      <trkpt lat="48.8848" lon="1.28695">
        <ele>140.2</ele>
        <time>2016-03-06T07:34:51Z</time>
      </trkpt>
      <trkpt lat="48.88472" lon="1.28705">
        <ele>140.1</ele>
        <time>2016-03-06T07:34:56Z</time>
      </trkpt>
      <trkpt lat="48.88462" lon="1.28716">
        <ele>139.7</ele>
        <time>2016-03-06T07:35:00Z</time>
      </trkpt>
      <trkpt lat="48.8845" lon="1.2873">
        <ele>139.5</ele>
        <time>2016-03-06T07:35:03Z</time>
      </trkpt>
      <trkpt lat="48.88441" lon="1.28738">
        <ele>139.4</ele>
        <time>2016-03-06T07:35:05Z</time>
      </trkpt>
      <trkpt lat="48.88434" lon="1.28748">
        <ele>139.4</ele>
        <time>2016-03-06T07:35:07Z</time>
      </trkpt>
      <trkpt lat="48.88426" lon="1.28758">
        <ele>139.4</ele>
        <time>2016-03-06T07:35:09Z</time>
      </trkpt>
      <trkpt lat="48.8842" lon="1.28768">
        <ele>139.4</ele>
        <time>2016-03-06T07:35:10Z</time>
      </trkpt>
      <trkpt lat="48.88412" lon="1.2878">
        <ele>139.4</ele>
        <time>2016-03-06T07:35:12Z</time>
      </trkpt>
      <trkpt lat="48.88402" lon="1.28793">
        <ele>139.4</ele>
        <time>2016-03-06T07:35:14Z</time>
      </trkpt>
      <trkpt lat="48.88395" lon="1.28808">
        <ele>139.4</ele>
        <time>2016-03-06T07:35:17Z</time>
      </trkpt>
      <trkpt lat="48.8839" lon="1.28823">
        <ele>139.3</ele>
        <time>2016-03-06T07:35:21Z</time>
      </trkpt>
      <trkpt lat="48.88383" lon="1.28834">
        <ele>139.2</ele>
        <time>2016-03-06T07:35:26Z</time>
      </trkpt>
      <trkpt lat="48.88373" lon="1.28834">
        <ele>139.1</ele>
        <time>2016-03-06T07:35:29Z</time>
      </trkpt>
      <trkpt lat="48.88362" lon="1.28831">
        <ele>139</ele>
        <time>2016-03-06T07:35:32Z</time>
      </trkpt>
      <trkpt lat="48.8835" lon="1.2883">
        <ele>139</ele>
        <time>2016-03-06T07:35:34Z</time>
      </trkpt>
      <trkpt lat="48.88338" lon="1.28827">
        <ele>138.9</ele>
        <time>2016-03-06T07:35:37Z</time>
      </trkpt>
      <trkpt lat="48.88328" lon="1.28826">
        <ele>138.8</ele>
        <time>2016-03-06T07:35:40Z</time>
      </trkpt>
      <trkpt lat="48.88318" lon="1.28826">
        <ele>138.7</ele>
        <time>2016-03-06T07:35:43Z</time>
      </trkpt>
      <trkpt lat="48.88304" lon="1.28825">
        <ele>138.5</ele>
        <time>2016-03-06T07:35:46Z</time>
      </trkpt>
      <trkpt lat="48.88293" lon="1.28824">
        <ele>138.3</ele>
        <time>2016-03-06T07:35:49Z</time>
      </trkpt>
      <trkpt lat="48.88281" lon="1.28822">
        <ele>138.2</ele>
        <time>2016-03-06T07:35:52Z</time>
      </trkpt>
      <trkpt lat="48.88269" lon="1.2882">
        <ele>138.1</ele>
        <time>2016-03-06T07:35:55Z</time>
      </trkpt>
      <trkpt lat="48.88259" lon="1.28819">
        <ele>138</ele>
        <time>2016-03-06T07:35:57Z</time>
      </trkpt>
      <trkpt lat="48.88247" lon="1.28819">
        <ele>137.9</ele>
        <time>2016-03-06T07:36:00Z</time>
      </trkpt>
      <trkpt lat="48.88234" lon="1.2882">
        <ele>137.8</ele>
        <time>2016-03-06T07:36:02Z</time>
      </trkpt>
      <trkpt lat="48.88223" lon="1.28819">
        <ele>137.7</ele>
        <time>2016-03-06T07:36:04Z</time>
      </trkpt>
      <trkpt lat="48.88213" lon="1.28818">
        <ele>137.6</ele>
        <time>2016-03-06T07:36:06Z</time>
      </trkpt>
      <trkpt lat="48.88202" lon="1.28817">
        <ele>137.4</ele>
        <time>2016-03-06T07:36:09Z</time>
      </trkpt>
      <trkpt lat="48.88189" lon="1.28816">
        <ele>137.3</ele>
        <time>2016-03-06T07:36:12Z</time>
      </trkpt>
      <trkpt lat="48.88178" lon="1.28823">
        <ele>137.1</ele>
        <time>2016-03-06T07:36:15Z</time>
      </trkpt>
      <trkpt lat="48.88166" lon="1.28831">
        <ele>136.8</ele>
        <time>2016-03-06T07:36:19Z</time>
      </trkpt>
      <trkpt lat="48.88157" lon="1.28835">
        <ele>136.6</ele>
        <time>2016-03-06T07:36:21Z</time>
      </trkpt>
      <trkpt lat="48.88148" lon="1.28838">
        <ele>136.5</ele>
        <time>2016-03-06T07:36:23Z</time>
      </trkpt>
      <trkpt lat="48.88138" lon="1.2884">
        <ele>136.3</ele>
        <time>2016-03-06T07:36:25Z</time>
      </trkpt>
      <trkpt lat="48.88129" lon="1.28845">
        <ele>136.2</ele>
        <time>2016-03-06T07:36:27Z</time>
      </trkpt>
      <trkpt lat="48.8812" lon="1.2885">
        <ele>136.1</ele>
        <time>2016-03-06T07:36:29Z</time>
      </trkpt>
      <trkpt lat="48.88111" lon="1.28854">
        <ele>136</ele>
        <time>2016-03-06T07:36:31Z</time>
      </trkpt>
      <trkpt lat="48.88102" lon="1.28859">
        <ele>135.9</ele>
        <time>2016-03-06T07:36:33Z</time>
      </trkpt>
      <trkpt lat="48.88092" lon="1.28865">
        <ele>135.8</ele>
        <time>2016-03-06T07:36:35Z</time>
      </trkpt>
      <trkpt lat="48.88083" lon="1.28869">
        <ele>135.7</ele>
        <time>2016-03-06T07:36:37Z</time>
      </trkpt>
      <trkpt lat="48.88069" lon="1.28877">
        <ele>135.6</ele>
        <time>2016-03-06T07:36:40Z</time>
      </trkpt>
      <trkpt lat="48.88063" lon="1.28888">
        <ele>135.5</ele>
        <time>2016-03-06T07:36:42Z</time>
      </trkpt>
      <trkpt lat="48.88053" lon="1.28902">
        <ele>135.2</ele>
        <time>2016-03-06T07:36:45Z</time>
      </trkpt>
      <trkpt lat="48.88047" lon="1.28914">
        <ele>135</ele>
        <time>2016-03-06T07:36:47Z</time>
      </trkpt>
      <trkpt lat="48.88042" lon="1.28928">
        <ele>134.7</ele>
        <time>2016-03-06T07:36:49Z</time>
      </trkpt>
      <trkpt lat="48.88031" lon="1.28948">
        <ele>134.1</ele>
        <time>2016-03-06T07:36:52Z</time>
      </trkpt>
      <trkpt lat="48.88025" lon="1.28962">
        <ele>133.8</ele>
        <time>2016-03-06T07:36:54Z</time>
      </trkpt>
      <trkpt lat="48.88016" lon="1.28978">
        <ele>133.3</ele>
        <time>2016-03-06T07:36:57Z</time>
      </trkpt>
      <trkpt lat="48.88008" lon="1.2899">
        <ele>132.9</ele>
        <time>2016-03-06T07:37:00Z</time>
      </trkpt>
      <trkpt lat="48.88" lon="1.28996">
        <ele>132.6</ele>
        <time>2016-03-06T07:37:02Z</time>
      </trkpt>
      <trkpt lat="48.87989" lon="1.28999">
        <ele>132.3</ele>
        <time>2016-03-06T07:37:04Z</time>
      </trkpt>
      <trkpt lat="48.87978" lon="1.28997">
        <ele>132</ele>
        <time>2016-03-06T07:37:06Z</time>
      </trkpt>
      <trkpt lat="48.87969" lon="1.28991">
        <ele>131.8</ele>
        <time>2016-03-06T07:37:08Z</time>
      </trkpt>
      <trkpt lat="48.87961" lon="1.28985">
        <ele>131.4</ele>
        <time>2016-03-06T07:37:10Z</time>
      </trkpt>
      <trkpt lat="48.87953" lon="1.28978">
        <ele>131.1</ele>
        <time>2016-03-06T07:37:12Z</time>
      </trkpt>
      <trkpt lat="48.87945" lon="1.2897">
        <ele>130.7</ele>
        <time>2016-03-06T07:37:15Z</time>
      </trkpt>
      <trkpt lat="48.87937" lon="1.28961">
        <ele>130.4</ele>
        <time>2016-03-06T07:37:18Z</time>
      </trkpt>
      <trkpt lat="48.87929" lon="1.28949">
        <ele>130.1</ele>
        <time>2016-03-06T07:37:21Z</time>
      </trkpt>
      <trkpt lat="48.87919" lon="1.28938">
        <ele>129.8</ele>
        <time>2016-03-06T07:37:24Z</time>
      </trkpt>
      <trkpt lat="48.87912" lon="1.28927">
        <ele>129.7</ele>
        <time>2016-03-06T07:37:26Z</time>
      </trkpt>
      <trkpt lat="48.87904" lon="1.28916">
        <ele>129.5</ele>
        <time>2016-03-06T07:37:28Z</time>
      </trkpt>
      <trkpt lat="48.87896" lon="1.28904">
        <ele>129.2</ele>
        <time>2016-03-06T07:37:30Z</time>
      </trkpt>
      <trkpt lat="48.87887" lon="1.28891">
        <ele>129</ele>
        <time>2016-03-06T07:37:32Z</time>
      </trkpt>
      <trkpt lat="48.87877" lon="1.28879">
        <ele>128.7</ele>
        <time>2016-03-06T07:37:34Z</time>
      </trkpt>
      <trkpt lat="48.87868" lon="1.28867">
        <ele>128.4</ele>
        <time>2016-03-06T07:37:36Z</time>
      </trkpt>
      <trkpt lat="48.8786" lon="1.28855">
        <ele>128.1</ele>
        <time>2016-03-06T07:37:38Z</time>
      </trkpt>
      <trkpt lat="48.87853" lon="1.28839">
        <ele>127.7</ele>
        <time>2016-03-06T07:37:40Z</time>
      </trkpt>
      <trkpt lat="48.87845" lon="1.28824">
        <ele>127.4</ele>
        <time>2016-03-06T07:37:42Z</time>
      </trkpt>
      <trkpt lat="48.87838" lon="1.28811">
        <ele>126.9</ele>
        <time>2016-03-06T07:37:44Z</time>
      </trkpt>
      <trkpt lat="48.87834" lon="1.28795">
        <ele>126.4</ele>
        <time>2016-03-06T07:37:46Z</time>
      </trkpt>
      <trkpt lat="48.87832" lon="1.2878">
        <ele>125.9</ele>
        <time>2016-03-06T07:37:48Z</time>
      </trkpt>
      <trkpt lat="48.87829" lon="1.28764">
        <ele>125.4</ele>
        <time>2016-03-06T07:37:50Z</time>
      </trkpt>
      <trkpt lat="48.87827" lon="1.28748">
        <ele>125</ele>
        <time>2016-03-06T07:37:52Z</time>
      </trkpt>
      <trkpt lat="48.87824" lon="1.28735">
        <ele>124.6</ele>
        <time>2016-03-06T07:37:54Z</time>
      </trkpt>
      <trkpt lat="48.8782" lon="1.28722">
        <ele>124.2</ele>
        <time>2016-03-06T07:37:56Z</time>
      </trkpt>
      <trkpt lat="48.87818" lon="1.28707">
        <ele>123.9</ele>
        <time>2016-03-06T07:37:58Z</time>
      </trkpt>
      <trkpt lat="48.87816" lon="1.28693">
        <ele>123.7</ele>
        <time>2016-03-06T07:38:00Z</time>
      </trkpt>
      <trkpt lat="48.87814" lon="1.28679">
        <ele>123.7</ele>
        <time>2016-03-06T07:38:02Z</time>
      </trkpt>
      <trkpt lat="48.87812" lon="1.28666">
        <ele>123.6</ele>
        <time>2016-03-06T07:38:04Z</time>
      </trkpt>
      <trkpt lat="48.8781" lon="1.28651">
        <ele>123.5</ele>
        <time>2016-03-06T07:38:06Z</time>
      </trkpt>
      <trkpt lat="48.87808" lon="1.28636">
        <ele>123.4</ele>
        <time>2016-03-06T07:38:08Z</time>
      </trkpt>
      <trkpt lat="48.87806" lon="1.28622">
        <ele>123.2</ele>
        <time>2016-03-06T07:38:10Z</time>
      </trkpt>
      <trkpt lat="48.87805" lon="1.28607">
        <ele>123.1</ele>
        <time>2016-03-06T07:38:12Z</time>
      </trkpt>
      <trkpt lat="48.87803" lon="1.28592">
        <ele>123</ele>
        <time>2016-03-06T07:38:14Z</time>
      </trkpt>
      <trkpt lat="48.87801" lon="1.28577">
        <ele>122.9</ele>
        <time>2016-03-06T07:38:16Z</time>
      </trkpt>
      <trkpt lat="48.87799" lon="1.28562">
        <ele>122.9</ele>
        <time>2016-03-06T07:38:18Z</time>
      </trkpt>
      <trkpt lat="48.87796" lon="1.28547">
        <ele>122.8</ele>
        <time>2016-03-06T07:38:20Z</time>
      </trkpt>
      <trkpt lat="48.87793" lon="1.28531">
        <ele>122.7</ele>
        <time>2016-03-06T07:38:22Z</time>
      </trkpt>
      <trkpt lat="48.8779" lon="1.28515">
        <ele>122.7</ele>
        <time>2016-03-06T07:38:24Z</time>
      </trkpt>
      <trkpt lat="48.87788" lon="1.28501">
        <ele>122.6</ele>
        <time>2016-03-06T07:38:26Z</time>
      </trkpt>
      <trkpt lat="48.87784" lon="1.28486">
        <ele>122.6</ele>
        <time>2016-03-06T07:38:28Z</time>
      </trkpt>
      <trkpt lat="48.8778" lon="1.28472">
        <ele>122.5</ele>
        <time>2016-03-06T07:38:30Z</time>
      </trkpt>
      <trkpt lat="48.87777" lon="1.28457">
        <ele>122.5</ele>
        <time>2016-03-06T07:38:32Z</time>
      </trkpt>
      <trkpt lat="48.87773" lon="1.28444">
        <ele>122.4</ele>
        <time>2016-03-06T07:38:34Z</time>
      </trkpt>
      <trkpt lat="48.87769" lon="1.28432">
        <ele>122.4</ele>
        <time>2016-03-06T07:38:36Z</time>
      </trkpt>
      <trkpt lat="48.87763" lon="1.28417">
        <ele>122.3</ele>
        <time>2016-03-06T07:38:39Z</time>
      </trkpt>
      <trkpt lat="48.87759" lon="1.284">
        <ele>122.3</ele>
        <time>2016-03-06T07:38:42Z</time>
      </trkpt>
      <trkpt lat="48.87755" lon="1.28381">
        <ele>122.3</ele>
        <time>2016-03-06T07:38:45Z</time>
      </trkpt>
      <trkpt lat="48.87751" lon="1.28368">
        <ele>122.4</ele>
        <time>2016-03-06T07:38:47Z</time>
      </trkpt>
      <trkpt lat="48.87747" lon="1.28354">
        <ele>122.4</ele>
        <time>2016-03-06T07:38:49Z</time>
      </trkpt>
      <trkpt lat="48.87744" lon="1.28339">
        <ele>122.5</ele>
        <time>2016-03-06T07:38:51Z</time>
      </trkpt>
      <trkpt lat="48.87741" lon="1.28324">
        <ele>122.5</ele>
        <time>2016-03-06T07:38:53Z</time>
      </trkpt>
      <trkpt lat="48.87738" lon="1.28309">
        <ele>122.6</ele>
        <time>2016-03-06T07:38:55Z</time>
      </trkpt>
      <trkpt lat="48.87735" lon="1.28295">
        <ele>122.7</ele>
        <time>2016-03-06T07:38:57Z</time>
      </trkpt>
      <trkpt lat="48.87732" lon="1.2828">
        <ele>122.8</ele>
        <time>2016-03-06T07:38:59Z</time>
      </trkpt>
      <trkpt lat="48.87729" lon="1.28265">
        <ele>122.8</ele>
        <time>2016-03-06T07:39:01Z</time>
      </trkpt>
      <trkpt lat="48.87726" lon="1.28249">
        <ele>122.9</ele>
        <time>2016-03-06T07:39:03Z</time>
      </trkpt>
      <trkpt lat="48.87723" lon="1.28234">
        <ele>123</ele>
        <time>2016-03-06T07:39:05Z</time>
      </trkpt>
      <trkpt lat="48.87721" lon="1.28219">
        <ele>123.1</ele>
        <time>2016-03-06T07:39:07Z</time>
      </trkpt>
      <trkpt lat="48.87719" lon="1.28203">
        <ele>123.1</ele>
        <time>2016-03-06T07:39:09Z</time>
      </trkpt>
      <trkpt lat="48.87716" lon="1.28188">
        <ele>123.2</ele>
        <time>2016-03-06T07:39:11Z</time>
      </trkpt>
      <trkpt lat="48.87715" lon="1.28174">
        <ele>123.2</ele>
        <time>2016-03-06T07:39:13Z</time>
      </trkpt>
      <trkpt lat="48.87715" lon="1.28154">
        <ele>123.3</ele>
        <time>2016-03-06T07:39:16Z</time>
      </trkpt>
      <trkpt lat="48.87705" lon="1.28155">
        <ele>123.4</ele>
        <time>2016-03-06T07:39:22Z</time>
      </trkpt>
      <trkpt lat="48.87699" lon="1.28171">
        <ele>123.4</ele>
        <time>2016-03-06T07:39:25Z</time>
      </trkpt>
      <trkpt lat="48.87693" lon="1.28182">
        <ele>123.5</ele>
        <time>2016-03-06T07:39:27Z</time>
      </trkpt>
      <trkpt lat="48.87686" lon="1.28193">
        <ele>123.5</ele>
        <time>2016-03-06T07:39:29Z</time>
      </trkpt>
      <trkpt lat="48.87679" lon="1.28203">
        <ele>123.6</ele>
        <time>2016-03-06T07:39:31Z</time>
      </trkpt>
      <trkpt lat="48.87672" lon="1.28212">
        <ele>123.7</ele>
        <time>2016-03-06T07:39:33Z</time>
      </trkpt>
      <trkpt lat="48.87664" lon="1.2822">
        <ele>123.9</ele>
        <time>2016-03-06T07:39:35Z</time>
      </trkpt>
      <trkpt lat="48.87653" lon="1.2823">
        <ele>124.3</ele>
        <time>2016-03-06T07:39:38Z</time>
      </trkpt>
      <trkpt lat="48.87642" lon="1.28239">
        <ele>124.7</ele>
        <time>2016-03-06T07:39:41Z</time>
      </trkpt>
      <trkpt lat="48.87632" lon="1.2825">
        <ele>125.1</ele>
        <time>2016-03-06T07:39:44Z</time>
      </trkpt>
      <trkpt lat="48.87622" lon="1.28262">
        <ele>125.7</ele>
        <time>2016-03-06T07:39:47Z</time>
      </trkpt>
      <trkpt lat="48.87614" lon="1.28278">
        <ele>126.2</ele>
        <time>2016-03-06T07:39:50Z</time>
      </trkpt>
      <trkpt lat="48.87606" lon="1.28294">
        <ele>126.8</ele>
        <time>2016-03-06T07:39:53Z</time>
      </trkpt>
      <trkpt lat="48.876" lon="1.28306">
        <ele>127.1</ele>
        <time>2016-03-06T07:39:55Z</time>
      </trkpt>
      <trkpt lat="48.87594" lon="1.28317">
        <ele>127.4</ele>
        <time>2016-03-06T07:39:57Z</time>
      </trkpt>
      <trkpt lat="48.87587" lon="1.28329">
        <ele>127.7</ele>
        <time>2016-03-06T07:39:59Z</time>
      </trkpt>
      <trkpt lat="48.8758" lon="1.28339">
        <ele>127.9</ele>
        <time>2016-03-06T07:40:01Z</time>
      </trkpt>
      <trkpt lat="48.87572" lon="1.28349">
        <ele>128.2</ele>
        <time>2016-03-06T07:40:03Z</time>
      </trkpt>
      <trkpt lat="48.87563" lon="1.28358">
        <ele>128.4</ele>
        <time>2016-03-06T07:40:05Z</time>
      </trkpt>
      <trkpt lat="48.87552" lon="1.28368">
        <ele>128.7</ele>
        <time>2016-03-06T07:40:08Z</time>
      </trkpt>
      <trkpt lat="48.8754" lon="1.28373">
        <ele>128.9</ele>
        <time>2016-03-06T07:40:11Z</time>
      </trkpt>
      <trkpt lat="48.87532" lon="1.28368">
        <ele>129.1</ele>
        <time>2016-03-06T07:40:14Z</time>
      </trkpt>
      <trkpt lat="48.87526" lon="1.28356">
        <ele>129.3</ele>
        <time>2016-03-06T07:40:17Z</time>
      </trkpt>
      <trkpt lat="48.87521" lon="1.28341">
        <ele>129.4</ele>
        <time>2016-03-06T07:40:20Z</time>
      </trkpt>
      <trkpt lat="48.87516" lon="1.28325">
        <ele>129.5</ele>
        <time>2016-03-06T07:40:23Z</time>
      </trkpt>
      <trkpt lat="48.87509" lon="1.28308">
        <ele>129.7</ele>
        <time>2016-03-06T07:40:26Z</time>
      </trkpt>
      <trkpt lat="48.87502" lon="1.28292">
        <ele>129.9</ele>
        <time>2016-03-06T07:40:29Z</time>
      </trkpt>
      <trkpt lat="48.87496" lon="1.28275">
        <ele>130</ele>
        <time>2016-03-06T07:40:32Z</time>
      </trkpt>
      <trkpt lat="48.8749" lon="1.28258">
        <ele>130.2</ele>
        <time>2016-03-06T07:40:35Z</time>
      </trkpt>
      <trkpt lat="48.87485" lon="1.28241">
        <ele>130.5</ele>
        <time>2016-03-06T07:40:38Z</time>
      </trkpt>
      <trkpt lat="48.87479" lon="1.28224">
        <ele>130.8</ele>
        <time>2016-03-06T07:40:41Z</time>
      </trkpt>
      <trkpt lat="48.87471" lon="1.2821">
        <ele>131.1</ele>
        <time>2016-03-06T07:40:44Z</time>
      </trkpt>
      <trkpt lat="48.87465" lon="1.28196">
        <ele>131.3</ele>
        <time>2016-03-06T07:40:47Z</time>
      </trkpt>
      <trkpt lat="48.87458" lon="1.28182">
        <ele>131.4</ele>
        <time>2016-03-06T07:40:50Z</time>
      </trkpt>
      <trkpt lat="48.8745" lon="1.28167">
        <ele>131.7</ele>
        <time>2016-03-06T07:40:53Z</time>
      </trkpt>
      <trkpt lat="48.87442" lon="1.28153">
        <ele>131.9</ele>
        <time>2016-03-06T07:40:56Z</time>
      </trkpt>
      <trkpt lat="48.87434" lon="1.28139">
        <ele>132.1</ele>
        <time>2016-03-06T07:40:59Z</time>
      </trkpt>
      <trkpt lat="48.87426" lon="1.28127">
        <ele>132.4</ele>
        <time>2016-03-06T07:41:02Z</time>
      </trkpt>
      <trkpt lat="48.87418" lon="1.28116">
        <ele>132.6</ele>
        <time>2016-03-06T07:41:05Z</time>
      </trkpt>
      <trkpt lat="48.87411" lon="1.28106">
        <ele>132.9</ele>
        <time>2016-03-06T07:41:08Z</time>
      </trkpt>
      <trkpt lat="48.87403" lon="1.28097">
        <ele>133.2</ele>
        <time>2016-03-06T07:41:11Z</time>
      </trkpt>
      <trkpt lat="48.87396" lon="1.28086">
        <ele>133.4</ele>
        <time>2016-03-06T07:41:14Z</time>
      </trkpt>
      <trkpt lat="48.87387" lon="1.28076">
        <ele>133.8</ele>
        <time>2016-03-06T07:41:17Z</time>
      </trkpt>
      <trkpt lat="48.87379" lon="1.28066">
        <ele>134.2</ele>
        <time>2016-03-06T07:41:20Z</time>
      </trkpt>
      <trkpt lat="48.8737" lon="1.28058">
        <ele>134.5</ele>
        <time>2016-03-06T07:41:23Z</time>
      </trkpt>
      <trkpt lat="48.87361" lon="1.2805">
        <ele>134.7</ele>
        <time>2016-03-06T07:41:26Z</time>
      </trkpt>
      <trkpt lat="48.87352" lon="1.28043">
        <ele>134.9</ele>
        <time>2016-03-06T07:41:29Z</time>
      </trkpt>
      <trkpt lat="48.87342" lon="1.28036">
        <ele>135.1</ele>
        <time>2016-03-06T07:41:32Z</time>
      </trkpt>
      <trkpt lat="48.87331" lon="1.28031">
        <ele>135.4</ele>
        <time>2016-03-06T07:41:35Z</time>
      </trkpt>
      <trkpt lat="48.8732" lon="1.28024">
        <ele>135.6</ele>
        <time>2016-03-06T07:41:38Z</time>
      </trkpt>
      <trkpt lat="48.87311" lon="1.28018">
        <ele>135.7</ele>
        <time>2016-03-06T07:41:40Z</time>
      </trkpt>
      <trkpt lat="48.87303" lon="1.28013">
        <ele>135.9</ele>
        <time>2016-03-06T07:41:42Z</time>
      </trkpt>
      <trkpt lat="48.87291" lon="1.28006">
        <ele>136.2</ele>
        <time>2016-03-06T07:41:45Z</time>
      </trkpt>
      <trkpt lat="48.87278" lon="1.28001">
        <ele>136.4</ele>
        <time>2016-03-06T07:41:48Z</time>
      </trkpt>
      <trkpt lat="48.87269" lon="1.27998">
        <ele>136.6</ele>
        <time>2016-03-06T07:41:50Z</time>
      </trkpt>
      <trkpt lat="48.8726" lon="1.27996">
        <ele>136.7</ele>
        <time>2016-03-06T07:41:52Z</time>
      </trkpt>
      <trkpt lat="48.87251" lon="1.27995">
        <ele>136.8</ele>
        <time>2016-03-06T07:41:54Z</time>
      </trkpt>
      <trkpt lat="48.87242" lon="1.27995">
        <ele>136.9</ele>
        <time>2016-03-06T07:41:56Z</time>
      </trkpt>
      <trkpt lat="48.87229" lon="1.27997">
        <ele>137</ele>
        <time>2016-03-06T07:41:59Z</time>
      </trkpt>
      <trkpt lat="48.87217" lon="1.27999">
        <ele>137.1</ele>
        <time>2016-03-06T07:42:02Z</time>
      </trkpt>
      <trkpt lat="48.87204" lon="1.28">
        <ele>137.2</ele>
        <time>2016-03-06T07:42:05Z</time>
      </trkpt>
      <trkpt lat="48.87195" lon="1.28002">
        <ele>137.2</ele>
        <time>2016-03-06T07:42:07Z</time>
      </trkpt>
      <trkpt lat="48.87186" lon="1.28003">
        <ele>137.3</ele>
        <time>2016-03-06T07:42:09Z</time>
      </trkpt>
      <trkpt lat="48.87174" lon="1.28006">
        <ele>137.3</ele>
        <time>2016-03-06T07:42:12Z</time>
      </trkpt>
      <trkpt lat="48.8716" lon="1.28006">
        <ele>137.1</ele>
        <time>2016-03-06T07:42:15Z</time>
      </trkpt>
      <trkpt lat="48.87147" lon="1.28008">
        <ele>137</ele>
        <time>2016-03-06T07:42:18Z</time>
      </trkpt>
      <trkpt lat="48.87136" lon="1.28011">
        <ele>136.9</ele>
        <time>2016-03-06T07:42:21Z</time>
      </trkpt>
      <trkpt lat="48.87126" lon="1.28012">
        <ele>136.9</ele>
        <time>2016-03-06T07:42:24Z</time>
      </trkpt>
      <trkpt lat="48.87116" lon="1.28012">
        <ele>136.8</ele>
        <time>2016-03-06T07:42:27Z</time>
      </trkpt>
      <trkpt lat="48.87105" lon="1.28015">
        <ele>136.9</ele>
        <time>2016-03-06T07:42:30Z</time>
      </trkpt>
      <trkpt lat="48.87095" lon="1.28014">
        <ele>137</ele>
        <time>2016-03-06T07:42:33Z</time>
      </trkpt>
      <trkpt lat="48.87083" lon="1.28015">
        <ele>137.1</ele>
        <time>2016-03-06T07:42:36Z</time>
      </trkpt>
      <trkpt lat="48.87073" lon="1.28017">
        <ele>137.3</ele>
        <time>2016-03-06T07:42:39Z</time>
      </trkpt>
      <trkpt lat="48.87062" lon="1.28018">
        <ele>137.5</ele>
        <time>2016-03-06T07:42:42Z</time>
      </trkpt>
      <trkpt lat="48.87051" lon="1.28019">
        <ele>137.6</ele>
        <time>2016-03-06T07:42:45Z</time>
      </trkpt>
      <trkpt lat="48.87039" lon="1.2802">
        <ele>137.8</ele>
        <time>2016-03-06T07:42:48Z</time>
      </trkpt>
      <trkpt lat="48.87028" lon="1.28021">
        <ele>138</ele>
        <time>2016-03-06T07:42:51Z</time>
      </trkpt>
      <trkpt lat="48.87016" lon="1.28024">
        <ele>138.2</ele>
        <time>2016-03-06T07:42:54Z</time>
      </trkpt>
      <trkpt lat="48.87004" lon="1.28025">
        <ele>138.4</ele>
        <time>2016-03-06T07:42:57Z</time>
      </trkpt>
      <trkpt lat="48.86992" lon="1.28026">
        <ele>138.6</ele>
        <time>2016-03-06T07:43:00Z</time>
      </trkpt>
      <trkpt lat="48.8698" lon="1.28028">
        <ele>138.7</ele>
        <time>2016-03-06T07:43:03Z</time>
      </trkpt>
      <trkpt lat="48.86968" lon="1.2803">
        <ele>138.9</ele>
        <time>2016-03-06T07:43:06Z</time>
      </trkpt>
      <trkpt lat="48.86956" lon="1.28031">
        <ele>139.1</ele>
        <time>2016-03-06T07:43:09Z</time>
      </trkpt>
      <trkpt lat="48.86944" lon="1.28034">
        <ele>139.3</ele>
        <time>2016-03-06T07:43:12Z</time>
      </trkpt>
      <trkpt lat="48.86933" lon="1.28036">
        <ele>139.5</ele>
        <time>2016-03-06T07:43:15Z</time>
      </trkpt>
      <trkpt lat="48.86921" lon="1.28037">
        <ele>139.7</ele>
        <time>2016-03-06T07:43:18Z</time>
      </trkpt>
      <trkpt lat="48.86908" lon="1.28039">
        <ele>139.8</ele>
        <time>2016-03-06T07:43:21Z</time>
      </trkpt>
      <trkpt lat="48.86896" lon="1.28041">
        <ele>139.9</ele>
        <time>2016-03-06T07:43:24Z</time>
      </trkpt>
      <trkpt lat="48.86884" lon="1.28043">
        <ele>140</ele>
        <time>2016-03-06T07:43:27Z</time>
      </trkpt>
      <trkpt lat="48.86872" lon="1.28045">
        <ele>140.1</ele>
        <time>2016-03-06T07:43:30Z</time>
      </trkpt>
      <trkpt lat="48.86859" lon="1.28046">
        <ele>140.2</ele>
        <time>2016-03-06T07:43:33Z</time>
      </trkpt>
      <trkpt lat="48.86847" lon="1.28049">
        <ele>140.3</ele>
        <time>2016-03-06T07:43:36Z</time>
      </trkpt>
      <trkpt lat="48.86834" lon="1.28051">
        <ele>140.4</ele>
        <time>2016-03-06T07:43:39Z</time>
      </trkpt>
      <trkpt lat="48.86822" lon="1.28052">
        <ele>140.5</ele>
        <time>2016-03-06T07:43:42Z</time>
      </trkpt>
      <trkpt lat="48.86809" lon="1.28054">
        <ele>140.6</ele>
        <time>2016-03-06T07:43:45Z</time>
      </trkpt>
      <trkpt lat="48.86797" lon="1.28056">
        <ele>140.6</ele>
        <time>2016-03-06T07:43:48Z</time>
      </trkpt>
      <trkpt lat="48.86785" lon="1.28058">
        <ele>140.7</ele>
        <time>2016-03-06T07:43:51Z</time>
      </trkpt>
      <trkpt lat="48.86772" lon="1.28059">
        <ele>140.7</ele>
        <time>2016-03-06T07:43:54Z</time>
      </trkpt>
      <trkpt lat="48.8676" lon="1.28061">
        <ele>140.8</ele>
        <time>2016-03-06T07:43:57Z</time>
      </trkpt>
      <trkpt lat="48.86749" lon="1.28062">
        <ele>140.9</ele>
        <time>2016-03-06T07:44:00Z</time>
      </trkpt>
      <trkpt lat="48.86737" lon="1.28063">
        <ele>140.9</ele>
        <time>2016-03-06T07:44:03Z</time>
      </trkpt>
      <trkpt lat="48.86725" lon="1.28065">
        <ele>141</ele>
        <time>2016-03-06T07:44:06Z</time>
      </trkpt>
      <trkpt lat="48.86713" lon="1.28066">
        <ele>141</ele>
        <time>2016-03-06T07:44:09Z</time>
      </trkpt>
      <trkpt lat="48.86701" lon="1.28068">
        <ele>141.1</ele>
        <time>2016-03-06T07:44:12Z</time>
      </trkpt>
      <trkpt lat="48.86689" lon="1.28068">
        <ele>141.3</ele>
        <time>2016-03-06T07:44:15Z</time>
      </trkpt>
      <trkpt lat="48.86677" lon="1.28069">
        <ele>141</ele>
        <time>2016-03-06T07:44:18Z</time>
      </trkpt>
      <trkpt lat="48.86665" lon="1.28071">
        <ele>141.6</ele>
        <time>2016-03-06T07:44:21Z</time>
      </trkpt>
      <trkpt lat="48.86652" lon="1.28072">
        <ele>141.7</ele>
        <time>2016-03-06T07:44:24Z</time>
      </trkpt>
      <trkpt lat="48.8664" lon="1.28074">
        <ele>141.8</ele>
        <time>2016-03-06T07:44:27Z</time>
      </trkpt>
      <trkpt lat="48.86627" lon="1.28076">
        <ele>141.9</ele>
        <time>2016-03-06T07:44:30Z</time>
      </trkpt>
      <trkpt lat="48.86607" lon="1.28079">
        <ele>142</ele>
        <time>2016-03-06T07:44:35Z</time>
      </trkpt>
      <trkpt lat="48.86595" lon="1.2808">
        <ele>142</ele>
        <time>2016-03-06T07:44:38Z</time>
      </trkpt>
      <trkpt lat="48.86583" lon="1.28082">
        <ele>142.1</ele>
        <time>2016-03-06T07:44:41Z</time>
      </trkpt>
      <trkpt lat="48.8657" lon="1.28084">
        <ele>142.1</ele>
        <time>2016-03-06T07:44:44Z</time>
      </trkpt>
      <trkpt lat="48.86557" lon="1.28086">
        <ele>142.1</ele>
        <time>2016-03-06T07:44:47Z</time>
      </trkpt>
      <trkpt lat="48.86544" lon="1.28088">
        <ele>142.2</ele>
        <time>2016-03-06T07:44:50Z</time>
      </trkpt>
      <trkpt lat="48.86532" lon="1.2809">
        <ele>142.4</ele>
        <time>2016-03-06T07:44:53Z</time>
      </trkpt>
      <trkpt lat="48.8652" lon="1.28093">
        <ele>142.5</ele>
        <time>2016-03-06T07:44:56Z</time>
      </trkpt>
      <trkpt lat="48.86507" lon="1.28094">
        <ele>142.5</ele>
        <time>2016-03-06T07:44:59Z</time>
      </trkpt>
      <trkpt lat="48.86493" lon="1.28095">
        <ele>142.6</ele>
        <time>2016-03-06T07:45:02Z</time>
      </trkpt>
      <trkpt lat="48.86484" lon="1.28096">
        <ele>142.6</ele>
        <time>2016-03-06T07:45:04Z</time>
      </trkpt>
      <trkpt lat="48.86474" lon="1.28097">
        <ele>142.6</ele>
        <time>2016-03-06T07:45:06Z</time>
      </trkpt>
      <trkpt lat="48.86465" lon="1.28097">
        <ele>142.6</ele>
        <time>2016-03-06T07:45:08Z</time>
      </trkpt>
      <trkpt lat="48.86455" lon="1.28098">
        <ele>142.5</ele>
        <time>2016-03-06T07:45:10Z</time>
      </trkpt>
      <trkpt lat="48.86442" lon="1.28099">
        <ele>142.4</ele>
        <time>2016-03-06T07:45:13Z</time>
      </trkpt>
      <trkpt lat="48.8643" lon="1.28102">
        <ele>142.3</ele>
        <time>2016-03-06T07:45:16Z</time>
      </trkpt>
      <trkpt lat="48.8642" lon="1.28108">
        <ele>142.2</ele>
        <time>2016-03-06T07:45:19Z</time>
      </trkpt>
      <trkpt lat="48.86412" lon="1.28118">
        <ele>142.2</ele>
        <time>2016-03-06T07:45:22Z</time>
      </trkpt>
      <trkpt lat="48.86407" lon="1.28137">
        <ele>142</ele>
        <time>2016-03-06T07:45:25Z</time>
      </trkpt>
      <trkpt lat="48.86404" lon="1.28151">
        <ele>141.9</ele>
        <time>2016-03-06T07:45:27Z</time>
      </trkpt>
      <trkpt lat="48.86402" lon="1.28166">
        <ele>141.8</ele>
        <time>2016-03-06T07:45:29Z</time>
      </trkpt>
      <trkpt lat="48.864" lon="1.28182">
        <ele>141.6</ele>
        <time>2016-03-06T07:45:31Z</time>
      </trkpt>
      <trkpt lat="48.86397" lon="1.28197">
        <ele>141.5</ele>
        <time>2016-03-06T07:45:33Z</time>
      </trkpt>
      <trkpt lat="48.86394" lon="1.28214">
        <ele>141.3</ele>
        <time>2016-03-06T07:45:35Z</time>
      </trkpt>
      <trkpt lat="48.86393" lon="1.28229">
        <ele>141.1</ele>
        <time>2016-03-06T07:45:37Z</time>
      </trkpt>
      <trkpt lat="48.86391" lon="1.28244">
        <ele>141</ele>
        <time>2016-03-06T07:45:39Z</time>
      </trkpt>
      <trkpt lat="48.86389" lon="1.2826">
        <ele>140.9</ele>
        <time>2016-03-06T07:45:41Z</time>
      </trkpt>
      <trkpt lat="48.86386" lon="1.28276">
        <ele>140.7</ele>
        <time>2016-03-06T07:45:43Z</time>
      </trkpt>
      <trkpt lat="48.86384" lon="1.28292">
        <ele>140.6</ele>
        <time>2016-03-06T07:45:45Z</time>
      </trkpt>
      <trkpt lat="48.86382" lon="1.28308">
        <ele>140.5</ele>
        <time>2016-03-06T07:45:47Z</time>
      </trkpt>
      <trkpt lat="48.8638" lon="1.28324">
        <ele>140.4</ele>
        <time>2016-03-06T07:45:49Z</time>
      </trkpt>
      <trkpt lat="48.86378" lon="1.28339">
        <ele>140.3</ele>
        <time>2016-03-06T07:45:51Z</time>
      </trkpt>
      <trkpt lat="48.86375" lon="1.28355">
        <ele>140.2</ele>
        <time>2016-03-06T07:45:53Z</time>
      </trkpt>
      <trkpt lat="48.86373" lon="1.28371">
        <ele>140.1</ele>
        <time>2016-03-06T07:45:55Z</time>
      </trkpt>
      <trkpt lat="48.86371" lon="1.28387">
        <ele>140</ele>
        <time>2016-03-06T07:45:57Z</time>
      </trkpt>
      <trkpt lat="48.86369" lon="1.28404">
        <ele>139.9</ele>
        <time>2016-03-06T07:45:59Z</time>
      </trkpt>
      <trkpt lat="48.86367" lon="1.28419">
        <ele>139.8</ele>
        <time>2016-03-06T07:46:01Z</time>
      </trkpt>
      <trkpt lat="48.86364" lon="1.28436">
        <ele>139.6</ele>
        <time>2016-03-06T07:46:03Z</time>
      </trkpt>
      <trkpt lat="48.86361" lon="1.28452">
        <ele>139.5</ele>
        <time>2016-03-06T07:46:05Z</time>
      </trkpt>
      <trkpt lat="48.86359" lon="1.28469">
        <ele>139.4</ele>
        <time>2016-03-06T07:46:07Z</time>
      </trkpt>
      <trkpt lat="48.86356" lon="1.28486">
        <ele>139.3</ele>
        <time>2016-03-06T07:46:09Z</time>
      </trkpt>
      <trkpt lat="48.86353" lon="1.28503">
        <ele>139.2</ele>
        <time>2016-03-06T07:46:11Z</time>
      </trkpt>
      <trkpt lat="48.8635" lon="1.28521">
        <ele>139</ele>
        <time>2016-03-06T07:46:13Z</time>
      </trkpt>
      <trkpt lat="48.86346" lon="1.28538">
        <ele>138.9</ele>
        <time>2016-03-06T07:46:15Z</time>
      </trkpt>
      <trkpt lat="48.86343" lon="1.28556">
        <ele>138.8</ele>
        <time>2016-03-06T07:46:17Z</time>
      </trkpt>
      <trkpt lat="48.86339" lon="1.28573">
        <ele>138.6</ele>
        <time>2016-03-06T07:46:19Z</time>
      </trkpt>
      <trkpt lat="48.86335" lon="1.2859">
        <ele>138.5</ele>
        <time>2016-03-06T07:46:21Z</time>
      </trkpt>
      <trkpt lat="48.86331" lon="1.28607">
        <ele>138.4</ele>
        <time>2016-03-06T07:46:23Z</time>
      </trkpt>
      <trkpt lat="48.86327" lon="1.28625">
        <ele>138.3</ele>
        <time>2016-03-06T07:46:25Z</time>
      </trkpt>
      <trkpt lat="48.86323" lon="1.28642">
        <ele>138.2</ele>
        <time>2016-03-06T07:46:27Z</time>
      </trkpt>
      <trkpt lat="48.86319" lon="1.2866">
        <ele>138.1</ele>
        <time>2016-03-06T07:46:29Z</time>
      </trkpt>
      <trkpt lat="48.86316" lon="1.28677">
        <ele>138</ele>
        <time>2016-03-06T07:46:31Z</time>
      </trkpt>
      <trkpt lat="48.86312" lon="1.28694">
        <ele>137.9</ele>
        <time>2016-03-06T07:46:33Z</time>
      </trkpt>
      <trkpt lat="48.86309" lon="1.28711">
        <ele>137.8</ele>
        <time>2016-03-06T07:46:35Z</time>
      </trkpt>
      <trkpt lat="48.86305" lon="1.28728">
        <ele>137.7</ele>
        <time>2016-03-06T07:46:37Z</time>
      </trkpt>
      <trkpt lat="48.86302" lon="1.28745">
        <ele>137.6</ele>
        <time>2016-03-06T07:46:39Z</time>
      </trkpt>
      <trkpt lat="48.86299" lon="1.28762">
        <ele>137.6</ele>
        <time>2016-03-06T07:46:41Z</time>
      </trkpt>
      <trkpt lat="48.86296" lon="1.2878">
        <ele>137.5</ele>
        <time>2016-03-06T07:46:43Z</time>
      </trkpt>
      <trkpt lat="48.86293" lon="1.28798">
        <ele>137.5</ele>
        <time>2016-03-06T07:46:45Z</time>
      </trkpt>
      <trkpt lat="48.86291" lon="1.28816">
        <ele>137.4</ele>
        <time>2016-03-06T07:46:47Z</time>
      </trkpt>
      <trkpt lat="48.86289" lon="1.28835">
        <ele>137.4</ele>
        <time>2016-03-06T07:46:49Z</time>
      </trkpt>
      <trkpt lat="48.86287" lon="1.28853">
        <ele>137.3</ele>
        <time>2016-03-06T07:46:51Z</time>
      </trkpt>
      <trkpt lat="48.86285" lon="1.28871">
        <ele>137.3</ele>
        <time>2016-03-06T07:46:53Z</time>
      </trkpt>
      <trkpt lat="48.86284" lon="1.28889">
        <ele>137.2</ele>
        <time>2016-03-06T07:46:55Z</time>
      </trkpt>
      <trkpt lat="48.86284" lon="1.28908">
        <ele>137.2</ele>
        <time>2016-03-06T07:46:57Z</time>
      </trkpt>
      <trkpt lat="48.86283" lon="1.28926">
        <ele>137.2</ele>
        <time>2016-03-06T07:46:59Z</time>
      </trkpt>
      <trkpt lat="48.86282" lon="1.28943">
        <ele>137.1</ele>
        <time>2016-03-06T07:47:01Z</time>
      </trkpt>
      <trkpt lat="48.8628" lon="1.2896">
        <ele>137.1</ele>
        <time>2016-03-06T07:47:03Z</time>
      </trkpt>
      <trkpt lat="48.86278" lon="1.28977">
        <ele>137.1</ele>
        <time>2016-03-06T07:47:05Z</time>
      </trkpt>
      <trkpt lat="48.86276" lon="1.28994">
        <ele>137.1</ele>
        <time>2016-03-06T07:47:07Z</time>
      </trkpt>
      <trkpt lat="48.86275" lon="1.2901">
        <ele>137.1</ele>
        <time>2016-03-06T07:47:09Z</time>
      </trkpt>
      <trkpt lat="48.86273" lon="1.29027">
        <ele>137.1</ele>
        <time>2016-03-06T07:47:11Z</time>
      </trkpt>
      <trkpt lat="48.86272" lon="1.29043">
        <ele>137.1</ele>
        <time>2016-03-06T07:47:13Z</time>
      </trkpt>
      <trkpt lat="48.86271" lon="1.29059">
        <ele>137.2</ele>
        <time>2016-03-06T07:47:15Z</time>
      </trkpt>
      <trkpt lat="48.86269" lon="1.29076">
        <ele>137.2</ele>
        <time>2016-03-06T07:47:17Z</time>
      </trkpt>
      <trkpt lat="48.86269" lon="1.29094">
        <ele>137.2</ele>
        <time>2016-03-06T07:47:19Z</time>
      </trkpt>
      <trkpt lat="48.86268" lon="1.29112">
        <ele>137.2</ele>
        <time>2016-03-06T07:47:21Z</time>
      </trkpt>
      <trkpt lat="48.86269" lon="1.2913">
        <ele>137.3</ele>
        <time>2016-03-06T07:47:23Z</time>
      </trkpt>
      <trkpt lat="48.8627" lon="1.29148">
        <ele>137.3</ele>
        <time>2016-03-06T07:47:25Z</time>
      </trkpt>
      <trkpt lat="48.86273" lon="1.29166">
        <ele>137.3</ele>
        <time>2016-03-06T07:47:27Z</time>
      </trkpt>
      <trkpt lat="48.86276" lon="1.29184">
        <ele>137.3</ele>
        <time>2016-03-06T07:47:29Z</time>
      </trkpt>
      <trkpt lat="48.8628" lon="1.29202">
        <ele>137.3</ele>
        <time>2016-03-06T07:47:31Z</time>
      </trkpt>
      <trkpt lat="48.86286" lon="1.29219">
        <ele>137.3</ele>
        <time>2016-03-06T07:47:33Z</time>
      </trkpt>
      <trkpt lat="48.86291" lon="1.29236">
        <ele>137.3</ele>
        <time>2016-03-06T07:47:35Z</time>
      </trkpt>
      <trkpt lat="48.86297" lon="1.29252">
        <ele>137.3</ele>
        <time>2016-03-06T07:47:37Z</time>
      </trkpt>
      <trkpt lat="48.86303" lon="1.29268">
        <ele>137.4</ele>
        <time>2016-03-06T07:47:39Z</time>
      </trkpt>
      <trkpt lat="48.8631" lon="1.29285">
        <ele>137.3</ele>
        <time>2016-03-06T07:47:42Z</time>
      </trkpt>
      <trkpt lat="48.86313" lon="1.29299">
        <ele>137.3</ele>
        <time>2016-03-06T07:47:44Z</time>
      </trkpt>
      <trkpt lat="48.86316" lon="1.29315">
        <ele>137.3</ele>
        <time>2016-03-06T07:47:46Z</time>
      </trkpt>
      <trkpt lat="48.86319" lon="1.29332">
        <ele>137.2</ele>
        <time>2016-03-06T07:47:48Z</time>
      </trkpt>
      <trkpt lat="48.86319" lon="1.2935">
        <ele>137.2</ele>
        <time>2016-03-06T07:47:50Z</time>
      </trkpt>
      <trkpt lat="48.86315" lon="1.29368">
        <ele>137.2</ele>
        <time>2016-03-06T07:47:52Z</time>
      </trkpt>
      <trkpt lat="48.86311" lon="1.29385">
        <ele>137.2</ele>
        <time>2016-03-06T07:47:54Z</time>
      </trkpt>
      <trkpt lat="48.86306" lon="1.29401">
        <ele>137.1</ele>
        <time>2016-03-06T07:47:56Z</time>
      </trkpt>
      <trkpt lat="48.86299" lon="1.29416">
        <ele>137.1</ele>
        <time>2016-03-06T07:47:58Z</time>
      </trkpt>
      <trkpt lat="48.86292" lon="1.2943">
        <ele>137</ele>
        <time>2016-03-06T07:48:00Z</time>
      </trkpt>
      <trkpt lat="48.86278" lon="1.29454">
        <ele>137</ele>
        <time>2016-03-06T07:48:04Z</time>
      </trkpt>
      <trkpt lat="48.86268" lon="1.29474">
        <ele>137</ele>
        <time>2016-03-06T07:48:07Z</time>
      </trkpt>
      <trkpt lat="48.86265" lon="1.2949">
        <ele>137</ele>
        <time>2016-03-06T07:48:09Z</time>
      </trkpt>
      <trkpt lat="48.86266" lon="1.29505">
        <ele>137</ele>
        <time>2016-03-06T07:48:11Z</time>
      </trkpt>
      <trkpt lat="48.86269" lon="1.2952">
        <ele>137</ele>
        <time>2016-03-06T07:48:13Z</time>
      </trkpt>
      <trkpt lat="48.86266" lon="1.29538">
        <ele>137</ele>
        <time>2016-03-06T07:48:16Z</time>
      </trkpt>
      <trkpt lat="48.86258" lon="1.29544">
        <ele>137</ele>
        <time>2016-03-06T07:48:18Z</time>
      </trkpt>
      <trkpt lat="48.86247" lon="1.29545">
        <ele>137.1</ele>
        <time>2016-03-06T07:48:20Z</time>
      </trkpt>
      <trkpt lat="48.86236" lon="1.29543">
        <ele>137.1</ele>
        <time>2016-03-06T07:48:22Z</time>
      </trkpt>
      <trkpt lat="48.86224" lon="1.29542">
        <ele>137.1</ele>
        <time>2016-03-06T07:48:24Z</time>
      </trkpt>
      <trkpt lat="48.86211" lon="1.29542">
        <ele>137.1</ele>
        <time>2016-03-06T07:48:26Z</time>
      </trkpt>
      <trkpt lat="48.86199" lon="1.29542">
        <ele>137.1</ele>
        <time>2016-03-06T07:48:28Z</time>
      </trkpt>
      <trkpt lat="48.86187" lon="1.29542">
        <ele>137.1</ele>
        <time>2016-03-06T07:48:30Z</time>
      </trkpt>
      <trkpt lat="48.86176" lon="1.29542">
        <ele>137.2</ele>
        <time>2016-03-06T07:48:32Z</time>
      </trkpt>
      <trkpt lat="48.86164" lon="1.29543">
        <ele>137.2</ele>
        <time>2016-03-06T07:48:34Z</time>
      </trkpt>
      <trkpt lat="48.86153" lon="1.29544">
        <ele>137.2</ele>
        <time>2016-03-06T07:48:36Z</time>
      </trkpt>
      <trkpt lat="48.86142" lon="1.29546">
        <ele>137.2</ele>
        <time>2016-03-06T07:48:38Z</time>
      </trkpt>
      <trkpt lat="48.86132" lon="1.29549">
        <ele>137.2</ele>
        <time>2016-03-06T07:48:40Z</time>
      </trkpt>
      <trkpt lat="48.86122" lon="1.29553">
        <ele>137.2</ele>
        <time>2016-03-06T07:48:42Z</time>
      </trkpt>
      <trkpt lat="48.86111" lon="1.29557">
        <ele>137.2</ele>
        <time>2016-03-06T07:48:44Z</time>
      </trkpt>
      <trkpt lat="48.86101" lon="1.29563">
        <ele>137.2</ele>
        <time>2016-03-06T07:48:46Z</time>
      </trkpt>
      <trkpt lat="48.8609" lon="1.2957">
        <ele>137.2</ele>
        <time>2016-03-06T07:48:48Z</time>
      </trkpt>
      <trkpt lat="48.8608" lon="1.29576">
        <ele>137.2</ele>
        <time>2016-03-06T07:48:50Z</time>
      </trkpt>
      <trkpt lat="48.86072" lon="1.29583">
        <ele>137.2</ele>
        <time>2016-03-06T07:48:52Z</time>
      </trkpt>
      <trkpt lat="48.86063" lon="1.2959">
        <ele>137.2</ele>
        <time>2016-03-06T07:48:54Z</time>
      </trkpt>
      <trkpt lat="48.86053" lon="1.296">
        <ele>137.2</ele>
        <time>2016-03-06T07:48:57Z</time>
      </trkpt>
      <trkpt lat="48.86044" lon="1.29606">
        <ele>137.2</ele>
        <time>2016-03-06T07:49:00Z</time>
      </trkpt>
      <trkpt lat="48.86035" lon="1.29613">
        <ele>137.2</ele>
        <time>2016-03-06T07:49:03Z</time>
      </trkpt>
      <trkpt lat="48.86023" lon="1.29623">
        <ele>137.2</ele>
        <time>2016-03-06T07:49:06Z</time>
      </trkpt>
      <trkpt lat="48.86014" lon="1.2963">
        <ele>137.3</ele>
        <time>2016-03-06T07:49:08Z</time>
      </trkpt>
      <trkpt lat="48.86005" lon="1.29636">
        <ele>137.3</ele>
        <time>2016-03-06T07:49:10Z</time>
      </trkpt>
      <trkpt lat="48.85995" lon="1.29643">
        <ele>137.3</ele>
        <time>2016-03-06T07:49:12Z</time>
      </trkpt>
      <trkpt lat="48.85986" lon="1.29649">
        <ele>137.4</ele>
        <time>2016-03-06T07:49:14Z</time>
      </trkpt>
      <trkpt lat="48.85976" lon="1.29656">
        <ele>137.5</ele>
        <time>2016-03-06T07:49:16Z</time>
      </trkpt>
      <trkpt lat="48.85967" lon="1.29663">
        <ele>137.5</ele>
        <time>2016-03-06T07:49:18Z</time>
      </trkpt>
      <trkpt lat="48.85957" lon="1.2967">
        <ele>137.6</ele>
        <time>2016-03-06T07:49:20Z</time>
      </trkpt>
      <trkpt lat="48.85948" lon="1.29677">
        <ele>137.7</ele>
        <time>2016-03-06T07:49:22Z</time>
      </trkpt>
      <trkpt lat="48.85938" lon="1.29684">
        <ele>137.8</ele>
        <time>2016-03-06T07:49:24Z</time>
      </trkpt>
      <trkpt lat="48.85929" lon="1.29691">
        <ele>137.9</ele>
        <time>2016-03-06T07:49:26Z</time>
      </trkpt>
      <trkpt lat="48.85919" lon="1.29698">
        <ele>138</ele>
        <time>2016-03-06T07:49:28Z</time>
      </trkpt>
      <trkpt lat="48.8591" lon="1.29705">
        <ele>138</ele>
        <time>2016-03-06T07:49:30Z</time>
      </trkpt>
      <trkpt lat="48.859" lon="1.29712">
        <ele>138.1</ele>
        <time>2016-03-06T07:49:32Z</time>
      </trkpt>
      <trkpt lat="48.8589" lon="1.29719">
        <ele>138.2</ele>
        <time>2016-03-06T07:49:34Z</time>
      </trkpt>
      <trkpt lat="48.85881" lon="1.29729">
        <ele>138.3</ele>
        <time>2016-03-06T07:49:36Z</time>
      </trkpt>
      <trkpt lat="48.85872" lon="1.29739">
        <ele>138.4</ele>
        <time>2016-03-06T07:49:38Z</time>
      </trkpt>
      <trkpt lat="48.85865" lon="1.29752">
        <ele>138.4</ele>
        <time>2016-03-06T07:49:40Z</time>
      </trkpt>
      <trkpt lat="48.85859" lon="1.29766">
        <ele>138.6</ele>
        <time>2016-03-06T07:49:42Z</time>
      </trkpt>
      <trkpt lat="48.85854" lon="1.29782">
        <ele>138.7</ele>
        <time>2016-03-06T07:49:44Z</time>
      </trkpt>
      <trkpt lat="48.85849" lon="1.29798">
        <ele>138.8</ele>
        <time>2016-03-06T07:49:46Z</time>
      </trkpt>
      <trkpt lat="48.85844" lon="1.29813">
        <ele>138.9</ele>
        <time>2016-03-06T07:49:48Z</time>
      </trkpt>
      <trkpt lat="48.85839" lon="1.29827">
        <ele>139</ele>
        <time>2016-03-06T07:49:50Z</time>
      </trkpt>
      <trkpt lat="48.85833" lon="1.29839">
        <ele>139.1</ele>
        <time>2016-03-06T07:49:52Z</time>
      </trkpt>
      <trkpt lat="48.85825" lon="1.29832">
        <ele>139.3</ele>
        <time>2016-03-06T07:49:57Z</time>
      </trkpt>
      <trkpt lat="48.85816" lon="1.29823">
        <ele>139.4</ele>
        <time>2016-03-06T07:50:00Z</time>
      </trkpt>
      <trkpt lat="48.85804" lon="1.29824">
        <ele>139.5</ele>
        <time>2016-03-06T07:50:03Z</time>
      </trkpt>
      <trkpt lat="48.85794" lon="1.29825">
        <ele>139.5</ele>
        <time>2016-03-06T07:50:05Z</time>
      </trkpt>
      <trkpt lat="48.85784" lon="1.29826">
        <ele>139.5</ele>
        <time>2016-03-06T07:50:07Z</time>
      </trkpt>
      <trkpt lat="48.85774" lon="1.29827">
        <ele>139.5</ele>
        <time>2016-03-06T07:50:09Z</time>
      </trkpt>
      <trkpt lat="48.85764" lon="1.29826">
        <ele>139.5</ele>
        <time>2016-03-06T07:50:11Z</time>
      </trkpt>
      <trkpt lat="48.85754" lon="1.29826">
        <ele>139.5</ele>
        <time>2016-03-06T07:50:13Z</time>
      </trkpt>
      <trkpt lat="48.85743" lon="1.29826">
        <ele>139.5</ele>
        <time>2016-03-06T07:50:15Z</time>
      </trkpt>
      <trkpt lat="48.85733" lon="1.29827">
        <ele>139.4</ele>
        <time>2016-03-06T07:50:17Z</time>
      </trkpt>
      <trkpt lat="48.85723" lon="1.29827">
        <ele>139.3</ele>
        <time>2016-03-06T07:50:19Z</time>
      </trkpt>
      <trkpt lat="48.85712" lon="1.29828">
        <ele>139.2</ele>
        <time>2016-03-06T07:50:21Z</time>
      </trkpt>
      <trkpt lat="48.85703" lon="1.2983">
        <ele>139.1</ele>
        <time>2016-03-06T07:50:23Z</time>
      </trkpt>
      <trkpt lat="48.85693" lon="1.2983">
        <ele>138.9</ele>
        <time>2016-03-06T07:50:25Z</time>
      </trkpt>
      <trkpt lat="48.85684" lon="1.2983">
        <ele>138.8</ele>
        <time>2016-03-06T07:50:27Z</time>
      </trkpt>
      <trkpt lat="48.85671" lon="1.29831">
        <ele>138.6</ele>
        <time>2016-03-06T07:50:30Z</time>
      </trkpt>
      <trkpt lat="48.85662" lon="1.29834">
        <ele>138.4</ele>
        <time>2016-03-06T07:50:32Z</time>
      </trkpt>
      <trkpt lat="48.85652" lon="1.29836">
        <ele>138.2</ele>
        <time>2016-03-06T07:50:34Z</time>
      </trkpt>
      <trkpt lat="48.85642" lon="1.29839">
        <ele>138.1</ele>
        <time>2016-03-06T07:50:36Z</time>
      </trkpt>
      <trkpt lat="48.85632" lon="1.29842">
        <ele>137.9</ele>
        <time>2016-03-06T07:50:38Z</time>
      </trkpt>
      <trkpt lat="48.85622" lon="1.29846">
        <ele>137.8</ele>
        <time>2016-03-06T07:50:40Z</time>
      </trkpt>
      <trkpt lat="48.8561" lon="1.29849">
        <ele>137.6</ele>
        <time>2016-03-06T07:50:42Z</time>
      </trkpt>
      <trkpt lat="48.85598" lon="1.29852">
        <ele>137.5</ele>
        <time>2016-03-06T07:50:44Z</time>
      </trkpt>
      <trkpt lat="48.85587" lon="1.29855">
        <ele>137.3</ele>
        <time>2016-03-06T07:50:46Z</time>
      </trkpt>
      <trkpt lat="48.85575" lon="1.29857">
        <ele>137.1</ele>
        <time>2016-03-06T07:50:48Z</time>
      </trkpt>
      <trkpt lat="48.85563" lon="1.29859">
        <ele>136.8</ele>
        <time>2016-03-06T07:50:50Z</time>
      </trkpt>
      <trkpt lat="48.85551" lon="1.2986">
        <ele>136.6</ele>
        <time>2016-03-06T07:50:52Z</time>
      </trkpt>
      <trkpt lat="48.85539" lon="1.29859">
        <ele>136.4</ele>
        <time>2016-03-06T07:50:54Z</time>
      </trkpt>
      <trkpt lat="48.85528" lon="1.29856">
        <ele>136.2</ele>
        <time>2016-03-06T07:50:56Z</time>
      </trkpt>
      <trkpt lat="48.85516" lon="1.29853">
        <ele>136.1</ele>
        <time>2016-03-06T07:50:58Z</time>
      </trkpt>
      <trkpt lat="48.85505" lon="1.29849">
        <ele>135.9</ele>
        <time>2016-03-06T07:51:00Z</time>
      </trkpt>
      <trkpt lat="48.85495" lon="1.29844">
        <ele>135.6</ele>
        <time>2016-03-06T07:51:02Z</time>
      </trkpt>
      <trkpt lat="48.85485" lon="1.29841">
        <ele>135.4</ele>
        <time>2016-03-06T07:51:04Z</time>
      </trkpt>
      <trkpt lat="48.85474" lon="1.29837">
        <ele>135.2</ele>
        <time>2016-03-06T07:51:06Z</time>
      </trkpt>
      <trkpt lat="48.85464" lon="1.29833">
        <ele>134.9</ele>
        <time>2016-03-06T07:51:08Z</time>
      </trkpt>
      <trkpt lat="48.85453" lon="1.2983">
        <ele>134.7</ele>
        <time>2016-03-06T07:51:10Z</time>
      </trkpt>
      <trkpt lat="48.85443" lon="1.29827">
        <ele>134.6</ele>
        <time>2016-03-06T07:51:12Z</time>
      </trkpt>
      <trkpt lat="48.85431" lon="1.29822">
        <ele>134.4</ele>
        <time>2016-03-06T07:51:15Z</time>
      </trkpt>
      <trkpt lat="48.85419" lon="1.29819">
        <ele>134.2</ele>
        <time>2016-03-06T07:51:18Z</time>
      </trkpt>
      <trkpt lat="48.85409" lon="1.29816">
        <ele>134</ele>
        <time>2016-03-06T07:51:21Z</time>
      </trkpt>
      <trkpt lat="48.85396" lon="1.2981">
        <ele>133.9</ele>
        <time>2016-03-06T07:51:24Z</time>
      </trkpt>
      <trkpt lat="48.85387" lon="1.29807">
        <ele>133.8</ele>
        <time>2016-03-06T07:51:26Z</time>
      </trkpt>
      <trkpt lat="48.85378" lon="1.29805">
        <ele>133.8</ele>
        <time>2016-03-06T07:51:28Z</time>
      </trkpt>
      <trkpt lat="48.85365" lon="1.298">
        <ele>133.7</ele>
        <time>2016-03-06T07:51:31Z</time>
      </trkpt>
      <trkpt lat="48.85356" lon="1.29797">
        <ele>133.7</ele>
        <time>2016-03-06T07:51:33Z</time>
      </trkpt>
      <trkpt lat="48.85343" lon="1.29792">
        <ele>133.6</ele>
        <time>2016-03-06T07:51:36Z</time>
      </trkpt>
      <trkpt lat="48.8533" lon="1.29788">
        <ele>133.6</ele>
        <time>2016-03-06T07:51:39Z</time>
      </trkpt>
      <trkpt lat="48.85317" lon="1.29783">
        <ele>133.8</ele>
        <time>2016-03-06T07:51:42Z</time>
      </trkpt>
      <trkpt lat="48.85305" lon="1.29779">
        <ele>133.9</ele>
        <time>2016-03-06T07:51:45Z</time>
      </trkpt>
      <trkpt lat="48.85292" lon="1.29775">
        <ele>134.1</ele>
        <time>2016-03-06T07:51:48Z</time>
      </trkpt>
      <trkpt lat="48.8528" lon="1.29771">
        <ele>134.3</ele>
        <time>2016-03-06T07:51:51Z</time>
      </trkpt>
      <trkpt lat="48.85269" lon="1.29767">
        <ele>134.5</ele>
        <time>2016-03-06T07:51:54Z</time>
      </trkpt>
      <trkpt lat="48.85257" lon="1.29764">
        <ele>134.8</ele>
        <time>2016-03-06T07:51:57Z</time>
      </trkpt>
      <trkpt lat="48.85246" lon="1.29761">
        <ele>135.1</ele>
        <time>2016-03-06T07:52:00Z</time>
      </trkpt>
      <trkpt lat="48.85235" lon="1.29758">
        <ele>135.4</ele>
        <time>2016-03-06T07:52:03Z</time>
      </trkpt>
      <trkpt lat="48.85223" lon="1.29755">
        <ele>135.7</ele>
        <time>2016-03-06T07:52:06Z</time>
      </trkpt>
      <trkpt lat="48.85213" lon="1.29752">
        <ele>135.9</ele>
        <time>2016-03-06T07:52:09Z</time>
      </trkpt>
      <trkpt lat="48.85203" lon="1.29749">
        <ele>136.1</ele>
        <time>2016-03-06T07:52:12Z</time>
      </trkpt>
      <trkpt lat="48.85192" lon="1.29746">
        <ele>136.3</ele>
        <time>2016-03-06T07:52:15Z</time>
      </trkpt>
      <trkpt lat="48.85181" lon="1.29743">
        <ele>136.4</ele>
        <time>2016-03-06T07:52:18Z</time>
      </trkpt>
      <trkpt lat="48.85172" lon="1.29735">
        <ele>136.6</ele>
        <time>2016-03-06T07:52:21Z</time>
      </trkpt>
      <trkpt lat="48.85162" lon="1.29726">
        <ele>136.8</ele>
        <time>2016-03-06T07:52:24Z</time>
      </trkpt>
      <trkpt lat="48.85152" lon="1.29716">
        <ele>137</ele>
        <time>2016-03-06T07:52:27Z</time>
      </trkpt>
      <trkpt lat="48.85143" lon="1.29705">
        <ele>137.1</ele>
        <time>2016-03-06T07:52:30Z</time>
      </trkpt>
      <trkpt lat="48.85136" lon="1.29695">
        <ele>137.2</ele>
        <time>2016-03-06T07:52:32Z</time>
      </trkpt>
      <trkpt lat="48.85131" lon="1.29684">
        <ele>137.3</ele>
        <time>2016-03-06T07:52:34Z</time>
      </trkpt>
      <trkpt lat="48.85126" lon="1.29672">
        <ele>137.4</ele>
        <time>2016-03-06T07:52:36Z</time>
      </trkpt>
      <trkpt lat="48.85121" lon="1.29656">
        <ele>137.6</ele>
        <time>2016-03-06T07:52:39Z</time>
      </trkpt>
      <trkpt lat="48.85116" lon="1.29641">
        <ele>137.8</ele>
        <time>2016-03-06T07:52:42Z</time>
      </trkpt>
      <trkpt lat="48.85113" lon="1.29624">
        <ele>137.9</ele>
        <time>2016-03-06T07:52:45Z</time>
      </trkpt>
      <trkpt lat="48.85111" lon="1.29607">
        <ele>138</ele>
        <time>2016-03-06T07:52:48Z</time>
      </trkpt>
      <trkpt lat="48.85109" lon="1.29591">
        <ele>138.1</ele>
        <time>2016-03-06T07:52:51Z</time>
      </trkpt>
      <trkpt lat="48.85108" lon="1.29576">
        <ele>138.2</ele>
        <time>2016-03-06T07:52:54Z</time>
      </trkpt>
      <trkpt lat="48.85105" lon="1.29561">
        <ele>138.3</ele>
        <time>2016-03-06T07:52:57Z</time>
      </trkpt>
      <trkpt lat="48.85102" lon="1.29544">
        <ele>138.5</ele>
        <time>2016-03-06T07:53:00Z</time>
      </trkpt>
      <trkpt lat="48.85098" lon="1.29526">
        <ele>138.6</ele>
        <time>2016-03-06T07:53:03Z</time>
      </trkpt>
      <trkpt lat="48.85093" lon="1.2951">
        <ele>138.8</ele>
        <time>2016-03-06T07:53:06Z</time>
      </trkpt>
      <trkpt lat="48.85087" lon="1.29495">
        <ele>138.9</ele>
        <time>2016-03-06T07:53:09Z</time>
      </trkpt>
      <trkpt lat="48.85081" lon="1.29479">
        <ele>139</ele>
        <time>2016-03-06T07:53:12Z</time>
      </trkpt>
      <trkpt lat="48.85074" lon="1.29463">
        <ele>139</ele>
        <time>2016-03-06T07:53:15Z</time>
      </trkpt>
      <trkpt lat="48.85068" lon="1.29447">
        <ele>139.1</ele>
        <time>2016-03-06T07:53:18Z</time>
      </trkpt>
      <trkpt lat="48.85062" lon="1.2943">
        <ele>139.1</ele>
        <time>2016-03-06T07:53:21Z</time>
      </trkpt>
      <trkpt lat="48.85055" lon="1.29414">
        <ele>139.2</ele>
        <time>2016-03-06T07:53:24Z</time>
      </trkpt>
      <trkpt lat="48.85049" lon="1.29398">
        <ele>139.2</ele>
        <time>2016-03-06T07:53:27Z</time>
      </trkpt>
      <trkpt lat="48.85043" lon="1.29382">
        <ele>139.3</ele>
        <time>2016-03-06T07:53:30Z</time>
      </trkpt>
      <trkpt lat="48.85036" lon="1.29366">
        <ele>139.4</ele>
        <time>2016-03-06T07:53:33Z</time>
      </trkpt>
      <trkpt lat="48.8503" lon="1.29353">
        <ele>139.4</ele>
        <time>2016-03-06T07:53:36Z</time>
      </trkpt>
      <trkpt lat="48.85023" lon="1.29338">
        <ele>139.4</ele>
        <time>2016-03-06T07:53:39Z</time>
      </trkpt>
      <trkpt lat="48.85019" lon="1.29322">
        <ele>139.5</ele>
        <time>2016-03-06T07:53:42Z</time>
      </trkpt>
      <trkpt lat="48.85017" lon="1.29305">
        <ele>139.6</ele>
        <time>2016-03-06T07:53:45Z</time>
      </trkpt>
      <trkpt lat="48.85016" lon="1.29287">
        <ele>139.6</ele>
        <time>2016-03-06T07:53:48Z</time>
      </trkpt>
      <trkpt lat="48.85015" lon="1.2927">
        <ele>139.6</ele>
        <time>2016-03-06T07:53:51Z</time>
      </trkpt>
      <trkpt lat="48.85014" lon="1.29253">
        <ele>139.7</ele>
        <time>2016-03-06T07:53:54Z</time>
      </trkpt>
      <trkpt lat="48.85012" lon="1.29235">
        <ele>139.7</ele>
        <time>2016-03-06T07:53:57Z</time>
      </trkpt>
      <trkpt lat="48.85011" lon="1.29217">
        <ele>139.8</ele>
        <time>2016-03-06T07:54:00Z</time>
      </trkpt>
      <trkpt lat="48.85011" lon="1.29198">
        <ele>139.9</ele>
        <time>2016-03-06T07:54:03Z</time>
      </trkpt>
      <trkpt lat="48.8501" lon="1.29179">
        <ele>139.9</ele>
        <time>2016-03-06T07:54:06Z</time>
      </trkpt>
      <trkpt lat="48.85008" lon="1.2916">
        <ele>140</ele>
        <time>2016-03-06T07:54:09Z</time>
      </trkpt>
      <trkpt lat="48.85008" lon="1.29141">
        <ele>140.1</ele>
        <time>2016-03-06T07:54:12Z</time>
      </trkpt>
      <trkpt lat="48.85007" lon="1.29123">
        <ele>140.2</ele>
        <time>2016-03-06T07:54:15Z</time>
      </trkpt>
      <trkpt lat="48.85007" lon="1.29105">
        <ele>140.3</ele>
        <time>2016-03-06T07:54:18Z</time>
      </trkpt>
      <trkpt lat="48.85006" lon="1.29086">
        <ele>140.4</ele>
        <time>2016-03-06T07:54:21Z</time>
      </trkpt>
      <trkpt lat="48.85006" lon="1.29066">
        <ele>140.4</ele>
        <time>2016-03-06T07:54:24Z</time>
      </trkpt>
      <trkpt lat="48.85005" lon="1.29052">
        <ele>140.5</ele>
        <time>2016-03-06T07:54:26Z</time>
      </trkpt>
      <trkpt lat="48.85004" lon="1.29032">
        <ele>140.5</ele>
        <time>2016-03-06T07:54:29Z</time>
      </trkpt>
      <trkpt lat="48.85003" lon="1.29012">
        <ele>140.5</ele>
        <time>2016-03-06T07:54:32Z</time>
      </trkpt>
      <trkpt lat="48.85003" lon="1.28993">
        <ele>140.5</ele>
        <time>2016-03-06T07:54:35Z</time>
      </trkpt>
      <trkpt lat="48.85002" lon="1.28976">
        <ele>140.5</ele>
        <time>2016-03-06T07:54:38Z</time>
      </trkpt>
      <trkpt lat="48.84992" lon="1.28982">
        <ele>140.4</ele>
        <time>2016-03-06T07:54:44Z</time>
      </trkpt>
      <trkpt lat="48.84987" lon="1.28994">
        <ele>140.4</ele>
        <time>2016-03-06T07:54:47Z</time>
      </trkpt>
      <trkpt lat="48.84982" lon="1.29009">
        <ele>140.3</ele>
        <time>2016-03-06T07:54:50Z</time>
      </trkpt>
      <trkpt lat="48.84978" lon="1.29025">
        <ele>140.3</ele>
        <time>2016-03-06T07:54:53Z</time>
      </trkpt>
      <trkpt lat="48.84973" lon="1.29038">
        <ele>140.2</ele>
        <time>2016-03-06T07:54:56Z</time>
      </trkpt>
      <trkpt lat="48.84968" lon="1.29054">
        <ele>140.1</ele>
        <time>2016-03-06T07:54:59Z</time>
      </trkpt>
      <trkpt lat="48.84963" lon="1.29066">
        <ele>140.1</ele>
        <time>2016-03-06T07:55:01Z</time>
      </trkpt>
      <trkpt lat="48.84959" lon="1.29082">
        <ele>140</ele>
        <time>2016-03-06T07:55:04Z</time>
      </trkpt>
      <trkpt lat="48.84953" lon="1.29099">
        <ele>140</ele>
        <time>2016-03-06T07:55:07Z</time>
      </trkpt>
      <trkpt lat="48.84949" lon="1.29112">
        <ele>140</ele>
        <time>2016-03-06T07:55:09Z</time>
      </trkpt>
      <trkpt lat="48.84943" lon="1.29125">
        <ele>140</ele>
        <time>2016-03-06T07:55:11Z</time>
      </trkpt>
      <trkpt lat="48.84938" lon="1.29143">
        <ele>139.9</ele>
        <time>2016-03-06T07:55:14Z</time>
      </trkpt>
      <trkpt lat="48.84933" lon="1.29158">
        <ele>139.9</ele>
        <time>2016-03-06T07:55:17Z</time>
      </trkpt>
      <trkpt lat="48.84927" lon="1.29175">
        <ele>139.8</ele>
        <time>2016-03-06T07:55:20Z</time>
      </trkpt>
      <trkpt lat="48.84922" lon="1.29189">
        <ele>139.8</ele>
        <time>2016-03-06T07:55:22Z</time>
      </trkpt>
      <trkpt lat="48.84917" lon="1.29207">
        <ele>139.7</ele>
        <time>2016-03-06T07:55:25Z</time>
      </trkpt>
      <trkpt lat="48.84913" lon="1.29225">
        <ele>139.6</ele>
        <time>2016-03-06T07:55:28Z</time>
      </trkpt>
      <trkpt lat="48.84908" lon="1.29241">
        <ele>139.6</ele>
        <time>2016-03-06T07:55:31Z</time>
      </trkpt>
      <trkpt lat="48.84904" lon="1.29254">
        <ele>139.5</ele>
        <time>2016-03-06T07:55:33Z</time>
      </trkpt>
      <trkpt lat="48.84897" lon="1.2927">
        <ele>139.5</ele>
        <time>2016-03-06T07:55:35Z</time>
      </trkpt>
      <trkpt lat="48.84892" lon="1.29284">
        <ele>139.4</ele>
        <time>2016-03-06T07:55:37Z</time>
      </trkpt>
      <trkpt lat="48.84887" lon="1.29302">
        <ele>139.4</ele>
        <time>2016-03-06T07:55:40Z</time>
      </trkpt>
      <trkpt lat="48.8488" lon="1.29319">
        <ele>139.3</ele>
        <time>2016-03-06T07:55:43Z</time>
      </trkpt>
      <trkpt lat="48.84874" lon="1.29332">
        <ele>139.3</ele>
        <time>2016-03-06T07:55:45Z</time>
      </trkpt>
      <trkpt lat="48.84869" lon="1.29344">
        <ele>139.2</ele>
        <time>2016-03-06T07:55:47Z</time>
      </trkpt>
      <trkpt lat="48.84863" lon="1.29359">
        <ele>139</ele>
        <time>2016-03-06T07:55:49Z</time>
      </trkpt>
      <trkpt lat="48.84858" lon="1.29372">
        <ele>138.9</ele>
        <time>2016-03-06T07:55:51Z</time>
      </trkpt>
      <trkpt lat="48.84853" lon="1.29385">
        <ele>138.8</ele>
        <time>2016-03-06T07:55:53Z</time>
      </trkpt>
      <trkpt lat="48.84847" lon="1.294">
        <ele>138.6</ele>
        <time>2016-03-06T07:55:55Z</time>
      </trkpt>
      <trkpt lat="48.84843" lon="1.29415">
        <ele>138.5</ele>
        <time>2016-03-06T07:55:57Z</time>
      </trkpt>
      <trkpt lat="48.84838" lon="1.2943">
        <ele>138.4</ele>
        <time>2016-03-06T07:55:59Z</time>
      </trkpt>
      <trkpt lat="48.84833" lon="1.29445">
        <ele>138.2</ele>
        <time>2016-03-06T07:56:01Z</time>
      </trkpt>
      <trkpt lat="48.84829" lon="1.29459">
        <ele>138</ele>
        <time>2016-03-06T07:56:03Z</time>
      </trkpt>
      <trkpt lat="48.84823" lon="1.29477">
        <ele>137.6</ele>
        <time>2016-03-06T07:56:06Z</time>
      </trkpt>
      <trkpt lat="48.84819" lon="1.2949">
        <ele>137.4</ele>
        <time>2016-03-06T07:56:08Z</time>
      </trkpt>
      <trkpt lat="48.84812" lon="1.29506">
        <ele>137.1</ele>
        <time>2016-03-06T07:56:11Z</time>
      </trkpt>
      <trkpt lat="48.84808" lon="1.29518">
        <ele>136.7</ele>
        <time>2016-03-06T07:56:14Z</time>
      </trkpt>
      <trkpt lat="48.84803" lon="1.29534">
        <ele>136.2</ele>
        <time>2016-03-06T07:56:18Z</time>
      </trkpt>
      <trkpt lat="48.84796" lon="1.29546">
        <ele>134.8</ele>
        <time>2016-03-06T07:56:27Z</time>
      </trkpt>
      <trkpt lat="48.84789" lon="1.29561">
        <ele>134.5</ele>
        <time>2016-03-06T07:56:31Z</time>
      </trkpt>
      <trkpt lat="48.84783" lon="1.29571">
        <ele>134.4</ele>
        <time>2016-03-06T07:56:33Z</time>
      </trkpt>
      <trkpt lat="48.84778" lon="1.29585">
        <ele>134.2</ele>
        <time>2016-03-06T07:56:37Z</time>
      </trkpt>
      <trkpt lat="48.84773" lon="1.29598">
        <ele>134</ele>
        <time>2016-03-06T07:56:40Z</time>
      </trkpt>
      <trkpt lat="48.84768" lon="1.2961">
        <ele>133.9</ele>
        <time>2016-03-06T07:56:44Z</time>
      </trkpt>
      <trkpt lat="48.84764" lon="1.29625">
        <ele>133.7</ele>
        <time>2016-03-06T07:56:48Z</time>
      </trkpt>
      <trkpt lat="48.8476" lon="1.29638">
        <ele>133.6</ele>
        <time>2016-03-06T07:56:52Z</time>
      </trkpt>
      <trkpt lat="48.84755" lon="1.29652">
        <ele>133.3</ele>
        <time>2016-03-06T07:56:57Z</time>
      </trkpt>
      <trkpt lat="48.84751" lon="1.29667">
        <ele>133</ele>
        <time>2016-03-06T07:57:02Z</time>
      </trkpt>
      <trkpt lat="48.84748" lon="1.29681">
        <ele>132.7</ele>
        <time>2016-03-06T07:57:08Z</time>
      </trkpt>
      <trkpt lat="48.84746" lon="1.29694">
        <ele>132.5</ele>
        <time>2016-03-06T07:57:14Z</time>
      </trkpt>
      <trkpt lat="48.84743" lon="1.29709">
        <ele>132.3</ele>
        <time>2016-03-06T07:57:20Z</time>
      </trkpt>
      <trkpt lat="48.84739" lon="1.29722">
        <ele>132.3</ele>
        <time>2016-03-06T07:57:24Z</time>
      </trkpt>
      <trkpt lat="48.84734" lon="1.29734">
        <ele>132.2</ele>
        <time>2016-03-06T07:57:29Z</time>
      </trkpt>
      <trkpt lat="48.84729" lon="1.29746">
        <ele>132.3</ele>
        <time>2016-03-06T07:57:33Z</time>
      </trkpt>
      <trkpt lat="48.84724" lon="1.29758">
        <ele>132.5</ele>
        <time>2016-03-06T07:57:37Z</time>
      </trkpt>
      <trkpt lat="48.8472" lon="1.29771">
        <ele>132.7</ele>
        <time>2016-03-06T07:57:41Z</time>
      </trkpt>
      <trkpt lat="48.84717" lon="1.29784">
        <ele>132.9</ele>
        <time>2016-03-06T07:57:44Z</time>
      </trkpt>
      <trkpt lat="48.84711" lon="1.29799">
        <ele>133.1</ele>
        <time>2016-03-06T07:57:47Z</time>
      </trkpt>
      <trkpt lat="48.84706" lon="1.29812">
        <ele>133.4</ele>
        <time>2016-03-06T07:57:50Z</time>
      </trkpt>
      <trkpt lat="48.84701" lon="1.29827">
        <ele>133.6</ele>
        <time>2016-03-06T07:57:53Z</time>
      </trkpt>
      <trkpt lat="48.84694" lon="1.29841">
        <ele>133.8</ele>
        <time>2016-03-06T07:57:56Z</time>
      </trkpt>
      <trkpt lat="48.84687" lon="1.29849">
        <ele>134</ele>
        <time>2016-03-06T07:57:59Z</time>
      </trkpt>
      <trkpt lat="48.84677" lon="1.29857">
        <ele>134.1</ele>
        <time>2016-03-06T07:58:01Z</time>
      </trkpt>
      <trkpt lat="48.8467" lon="1.29866">
        <ele>134.2</ele>
        <time>2016-03-06T07:58:03Z</time>
      </trkpt>
      <trkpt lat="48.84663" lon="1.29874">
        <ele>134.3</ele>
        <time>2016-03-06T07:58:05Z</time>
      </trkpt>
      <trkpt lat="48.84655" lon="1.29886">
        <ele>134.6</ele>
        <time>2016-03-06T07:58:08Z</time>
      </trkpt>
      <trkpt lat="48.84649" lon="1.29901">
        <ele>134.9</ele>
        <time>2016-03-06T07:58:12Z</time>
      </trkpt>
      <trkpt lat="48.84644" lon="1.29913">
        <ele>135.1</ele>
        <time>2016-03-06T07:58:15Z</time>
      </trkpt>
      <trkpt lat="48.84638" lon="1.29926">
        <ele>135.4</ele>
        <time>2016-03-06T07:58:18Z</time>
      </trkpt>
      <trkpt lat="48.84631" lon="1.29939">
        <ele>135.5</ele>
        <time>2016-03-06T07:58:21Z</time>
      </trkpt>
      <trkpt lat="48.84622" lon="1.29951">
        <ele>135.8</ele>
        <time>2016-03-06T07:58:24Z</time>
      </trkpt>
      <trkpt lat="48.84614" lon="1.2996">
        <ele>136</ele>
        <time>2016-03-06T07:58:27Z</time>
      </trkpt>
      <trkpt lat="48.84607" lon="1.29971">
        <ele>136.2</ele>
        <time>2016-03-06T07:58:30Z</time>
      </trkpt>
      <trkpt lat="48.846" lon="1.29983">
        <ele>136.3</ele>
        <time>2016-03-06T07:58:33Z</time>
      </trkpt>
      <trkpt lat="48.84592" lon="1.29995">
        <ele>136.5</ele>
        <time>2016-03-06T07:58:36Z</time>
      </trkpt>
      <trkpt lat="48.84582" lon="1.30007">
        <ele>136.7</ele>
        <time>2016-03-06T07:58:39Z</time>
      </trkpt>
      <trkpt lat="48.84574" lon="1.30018">
        <ele>136.8</ele>
        <time>2016-03-06T07:58:41Z</time>
      </trkpt>
      <trkpt lat="48.84564" lon="1.30032">
        <ele>137</ele>
        <time>2016-03-06T07:58:43Z</time>
      </trkpt>
      <trkpt lat="48.84555" lon="1.30043">
        <ele>137.1</ele>
        <time>2016-03-06T07:58:45Z</time>
      </trkpt>
      <trkpt lat="48.84546" lon="1.30051">
        <ele>137.2</ele>
        <time>2016-03-06T07:58:47Z</time>
      </trkpt>
      <trkpt lat="48.84538" lon="1.30059">
        <ele>137.4</ele>
        <time>2016-03-06T07:58:49Z</time>
      </trkpt>
      <trkpt lat="48.84527" lon="1.3007">
        <ele>137.5</ele>
        <time>2016-03-06T07:58:52Z</time>
      </trkpt>
      <trkpt lat="48.8452" lon="1.30084">
        <ele>137.7</ele>
        <time>2016-03-06T07:58:55Z</time>
      </trkpt>
      <trkpt lat="48.8452" lon="1.30105">
        <ele>137.8</ele>
        <time>2016-03-06T07:58:58Z</time>
      </trkpt>
      <trkpt lat="48.84519" lon="1.3012">
        <ele>137.9</ele>
        <time>2016-03-06T07:59:00Z</time>
      </trkpt>
      <trkpt lat="48.84519" lon="1.30134">
        <ele>138</ele>
        <time>2016-03-06T07:59:02Z</time>
      </trkpt>
      <trkpt lat="48.8452" lon="1.30149">
        <ele>138</ele>
        <time>2016-03-06T07:59:04Z</time>
      </trkpt>
      <trkpt lat="48.8452" lon="1.30164">
        <ele>138.1</ele>
        <time>2016-03-06T07:59:06Z</time>
      </trkpt>
      <trkpt lat="48.84521" lon="1.30179">
        <ele>138.1</ele>
        <time>2016-03-06T07:59:08Z</time>
      </trkpt>
      <trkpt lat="48.84522" lon="1.30198">
        <ele>138.2</ele>
        <time>2016-03-06T07:59:11Z</time>
      </trkpt>
      <trkpt lat="48.84516" lon="1.30209">
        <ele>138.2</ele>
        <time>2016-03-06T07:59:14Z</time>
      </trkpt>
      <trkpt lat="48.84504" lon="1.30212">
        <ele>138.2</ele>
        <time>2016-03-06T07:59:17Z</time>
      </trkpt>
      <trkpt lat="48.84492" lon="1.30214">
        <ele>138.3</ele>
        <time>2016-03-06T07:59:20Z</time>
      </trkpt>
      <trkpt lat="48.84483" lon="1.30215">
        <ele>138.3</ele>
        <time>2016-03-06T07:59:22Z</time>
      </trkpt>
      <trkpt lat="48.84473" lon="1.30216">
        <ele>138.3</ele>
        <time>2016-03-06T07:59:24Z</time>
      </trkpt>
      <trkpt lat="48.84464" lon="1.30216">
        <ele>138.3</ele>
        <time>2016-03-06T07:59:26Z</time>
      </trkpt>
      <trkpt lat="48.84454" lon="1.30218">
        <ele>138.3</ele>
        <time>2016-03-06T07:59:28Z</time>
      </trkpt>
      <trkpt lat="48.84445" lon="1.30221">
        <ele>138.3</ele>
        <time>2016-03-06T07:59:30Z</time>
      </trkpt>
      <trkpt lat="48.84434" lon="1.3023">
        <ele>138.3</ele>
        <time>2016-03-06T07:59:33Z</time>
      </trkpt>
      <trkpt lat="48.84426" lon="1.30238">
        <ele>138.4</ele>
        <time>2016-03-06T07:59:35Z</time>
      </trkpt>
      <trkpt lat="48.84419" lon="1.30248">
        <ele>138.4</ele>
        <time>2016-03-06T07:59:37Z</time>
      </trkpt>
      <trkpt lat="48.84412" lon="1.30258">
        <ele>138.5</ele>
        <time>2016-03-06T07:59:39Z</time>
      </trkpt>
      <trkpt lat="48.84405" lon="1.30267">
        <ele>138.5</ele>
        <time>2016-03-06T07:59:41Z</time>
      </trkpt>
      <trkpt lat="48.84395" lon="1.3028">
        <ele>138.6</ele>
        <time>2016-03-06T07:59:44Z</time>
      </trkpt>
      <trkpt lat="48.84385" lon="1.30293">
        <ele>138.7</ele>
        <time>2016-03-06T07:59:47Z</time>
      </trkpt>
      <trkpt lat="48.84375" lon="1.30306">
        <ele>138.8</ele>
        <time>2016-03-06T07:59:50Z</time>
      </trkpt>
      <trkpt lat="48.84365" lon="1.30319">
        <ele>138.8</ele>
        <time>2016-03-06T07:59:53Z</time>
      </trkpt>
      <trkpt lat="48.84355" lon="1.30331">
        <ele>138.9</ele>
        <time>2016-03-06T07:59:56Z</time>
      </trkpt>
      <trkpt lat="48.84345" lon="1.30342">
        <ele>139</ele>
        <time>2016-03-06T07:59:59Z</time>
      </trkpt>
      <trkpt lat="48.84336" lon="1.30354">
        <ele>139</ele>
        <time>2016-03-06T08:00:02Z</time>
      </trkpt>
      <trkpt lat="48.84326" lon="1.30367">
        <ele>139</ele>
        <time>2016-03-06T08:00:05Z</time>
      </trkpt>
      <trkpt lat="48.84316" lon="1.30379">
        <ele>139.1</ele>
        <time>2016-03-06T08:00:08Z</time>
      </trkpt>
      <trkpt lat="48.84305" lon="1.30392">
        <ele>139.1</ele>
        <time>2016-03-06T08:00:11Z</time>
      </trkpt>
      <trkpt lat="48.84298" lon="1.30401">
        <ele>139.1</ele>
        <time>2016-03-06T08:00:13Z</time>
      </trkpt>
      <trkpt lat="48.84288" lon="1.30414">
        <ele>139.1</ele>
        <time>2016-03-06T08:00:16Z</time>
      </trkpt>
      <trkpt lat="48.8428" lon="1.30423">
        <ele>139.1</ele>
        <time>2016-03-06T08:00:18Z</time>
      </trkpt>
      <trkpt lat="48.84273" lon="1.30431">
        <ele>139.1</ele>
        <time>2016-03-06T08:00:20Z</time>
      </trkpt>
      <trkpt lat="48.84263" lon="1.30444">
        <ele>139.1</ele>
        <time>2016-03-06T08:00:23Z</time>
      </trkpt>
      <trkpt lat="48.84253" lon="1.30457">
        <ele>139.1</ele>
        <time>2016-03-06T08:00:26Z</time>
      </trkpt>
      <trkpt lat="48.84243" lon="1.3047">
        <ele>139</ele>
        <time>2016-03-06T08:00:29Z</time>
      </trkpt>
      <trkpt lat="48.84235" lon="1.30478">
        <ele>139</ele>
        <time>2016-03-06T08:00:31Z</time>
      </trkpt>
      <trkpt lat="48.84228" lon="1.30487">
        <ele>138.9</ele>
        <time>2016-03-06T08:00:33Z</time>
      </trkpt>
      <trkpt lat="48.84222" lon="1.30496">
        <ele>138.9</ele>
        <time>2016-03-06T08:00:35Z</time>
      </trkpt>
      <trkpt lat="48.84215" lon="1.30506">
        <ele>138.8</ele>
        <time>2016-03-06T08:00:37Z</time>
      </trkpt>
      <trkpt lat="48.84208" lon="1.30515">
        <ele>138.8</ele>
        <time>2016-03-06T08:00:39Z</time>
      </trkpt>
      <trkpt lat="48.84198" lon="1.30528">
        <ele>138.7</ele>
        <time>2016-03-06T08:00:42Z</time>
      </trkpt>
      <trkpt lat="48.84188" lon="1.30541">
        <ele>138.6</ele>
        <time>2016-03-06T08:00:45Z</time>
      </trkpt>
      <trkpt lat="48.84181" lon="1.3055">
        <ele>138.5</ele>
        <time>2016-03-06T08:00:47Z</time>
      </trkpt>
      <trkpt lat="48.84174" lon="1.3056">
        <ele>138.5</ele>
        <time>2016-03-06T08:00:49Z</time>
      </trkpt>
      <trkpt lat="48.84167" lon="1.3057">
        <ele>138.5</ele>
        <time>2016-03-06T08:00:51Z</time>
      </trkpt>
      <trkpt lat="48.8416" lon="1.3058">
        <ele>138.4</ele>
        <time>2016-03-06T08:00:53Z</time>
      </trkpt>
      <trkpt lat="48.84153" lon="1.30589">
        <ele>138.3</ele>
        <time>2016-03-06T08:00:55Z</time>
      </trkpt>
      <trkpt lat="48.84147" lon="1.30599">
        <ele>138.2</ele>
        <time>2016-03-06T08:00:57Z</time>
      </trkpt>
      <trkpt lat="48.8414" lon="1.30609">
        <ele>138.1</ele>
        <time>2016-03-06T08:00:59Z</time>
      </trkpt>
      <trkpt lat="48.84133" lon="1.30619">
        <ele>138</ele>
        <time>2016-03-06T08:01:01Z</time>
      </trkpt>
      <trkpt lat="48.84126" lon="1.30629">
        <ele>137.9</ele>
        <time>2016-03-06T08:01:03Z</time>
      </trkpt>
      <trkpt lat="48.84119" lon="1.30639">
        <ele>137.8</ele>
        <time>2016-03-06T08:01:05Z</time>
      </trkpt>
      <trkpt lat="48.84112" lon="1.30648">
        <ele>137.7</ele>
        <time>2016-03-06T08:01:07Z</time>
      </trkpt>
      <trkpt lat="48.84105" lon="1.30659">
        <ele>137.6</ele>
        <time>2016-03-06T08:01:09Z</time>
      </trkpt>
      <trkpt lat="48.84098" lon="1.30669">
        <ele>137.5</ele>
        <time>2016-03-06T08:01:11Z</time>
      </trkpt>
      <trkpt lat="48.84091" lon="1.30679">
        <ele>137.3</ele>
        <time>2016-03-06T08:01:13Z</time>
      </trkpt>
      <trkpt lat="48.84084" lon="1.30689">
        <ele>137.2</ele>
        <time>2016-03-06T08:01:15Z</time>
      </trkpt>
      <trkpt lat="48.84077" lon="1.30699">
        <ele>137</ele>
        <time>2016-03-06T08:01:17Z</time>
      </trkpt>
      <trkpt lat="48.84069" lon="1.30709">
        <ele>136.8</ele>
        <time>2016-03-06T08:01:19Z</time>
      </trkpt>
      <trkpt lat="48.84062" lon="1.30719">
        <ele>136.7</ele>
        <time>2016-03-06T08:01:21Z</time>
      </trkpt>
      <trkpt lat="48.84053" lon="1.30729">
        <ele>136.5</ele>
        <time>2016-03-06T08:01:23Z</time>
      </trkpt>
      <trkpt lat="48.84045" lon="1.30739">
        <ele>136.4</ele>
        <time>2016-03-06T08:01:25Z</time>
      </trkpt>
      <trkpt lat="48.84037" lon="1.30747">
        <ele>136.3</ele>
        <time>2016-03-06T08:01:27Z</time>
      </trkpt>
      <trkpt lat="48.84029" lon="1.30756">
        <ele>136.2</ele>
        <time>2016-03-06T08:01:29Z</time>
      </trkpt>
      <trkpt lat="48.84021" lon="1.30764">
        <ele>136.1</ele>
        <time>2016-03-06T08:01:31Z</time>
      </trkpt>
      <trkpt lat="48.84013" lon="1.30772">
        <ele>136</ele>
        <time>2016-03-06T08:01:33Z</time>
      </trkpt>
      <trkpt lat="48.84006" lon="1.3078">
        <ele>135.9</ele>
        <time>2016-03-06T08:01:35Z</time>
      </trkpt>
      <trkpt lat="48.83995" lon="1.30793">
        <ele>135.8</ele>
        <time>2016-03-06T08:01:38Z</time>
      </trkpt>
      <trkpt lat="48.83983" lon="1.308">
        <ele>135.8</ele>
        <time>2016-03-06T08:01:41Z</time>
      </trkpt>
      <trkpt lat="48.83972" lon="1.30809">
        <ele>135.7</ele>
        <time>2016-03-06T08:01:44Z</time>
      </trkpt>
      <trkpt lat="48.83963" lon="1.30817">
        <ele>135.6</ele>
        <time>2016-03-06T08:01:46Z</time>
      </trkpt>
      <trkpt lat="48.83954" lon="1.30827">
        <ele>135.4</ele>
        <time>2016-03-06T08:01:49Z</time>
      </trkpt>
      <trkpt lat="48.83946" lon="1.30837">
        <ele>135.3</ele>
        <time>2016-03-06T08:01:51Z</time>
      </trkpt>
      <trkpt lat="48.8394" lon="1.30848">
        <ele>135.1</ele>
        <time>2016-03-06T08:01:53Z</time>
      </trkpt>
      <trkpt lat="48.83932" lon="1.30856">
        <ele>134.9</ele>
        <time>2016-03-06T08:01:55Z</time>
      </trkpt>
      <trkpt lat="48.83925" lon="1.30865">
        <ele>134.7</ele>
        <time>2016-03-06T08:01:57Z</time>
      </trkpt>
      <trkpt lat="48.83919" lon="1.30877">
        <ele>134.5</ele>
        <time>2016-03-06T08:01:59Z</time>
      </trkpt>
      <trkpt lat="48.8391" lon="1.30889">
        <ele>134.3</ele>
        <time>2016-03-06T08:02:02Z</time>
      </trkpt>
      <trkpt lat="48.83903" lon="1.30899">
        <ele>134.2</ele>
        <time>2016-03-06T08:02:04Z</time>
      </trkpt>
      <trkpt lat="48.83896" lon="1.3091">
        <ele>134.1</ele>
        <time>2016-03-06T08:02:06Z</time>
      </trkpt>
      <trkpt lat="48.83893" lon="1.30924">
        <ele>134</ele>
        <time>2016-03-06T08:02:08Z</time>
      </trkpt>
      <trkpt lat="48.83887" lon="1.30939">
        <ele>133.7</ele>
        <time>2016-03-06T08:02:10Z</time>
      </trkpt>
      <trkpt lat="48.83878" lon="1.30958">
        <ele>133.5</ele>
        <time>2016-03-06T08:02:12Z</time>
      </trkpt>
      <trkpt lat="48.83875" lon="1.30976">
        <ele>133.3</ele>
        <time>2016-03-06T08:02:14Z</time>
      </trkpt>
      <trkpt lat="48.83868" lon="1.30999">
        <ele>133.2</ele>
        <time>2016-03-06T08:02:16Z</time>
      </trkpt>
      <trkpt lat="48.83864" lon="1.31018">
        <ele>133</ele>
        <time>2016-03-06T08:02:18Z</time>
      </trkpt>
      <trkpt lat="48.83861" lon="1.31034">
        <ele>132.9</ele>
        <time>2016-03-06T08:02:20Z</time>
      </trkpt>
      <trkpt lat="48.83858" lon="1.31048">
        <ele>132.8</ele>
        <time>2016-03-06T08:02:22Z</time>
      </trkpt>
      <trkpt lat="48.83853" lon="1.31063">
        <ele>132.7</ele>
        <time>2016-03-06T08:02:25Z</time>
      </trkpt>
      <trkpt lat="48.83845" lon="1.31072">
        <ele>132.5</ele>
        <time>2016-03-06T08:02:30Z</time>
      </trkpt>
      <trkpt lat="48.83835" lon="1.31071">
        <ele>132.4</ele>
        <time>2016-03-06T08:02:34Z</time>
      </trkpt>
      <trkpt lat="48.83825" lon="1.31068">
        <ele>132.4</ele>
        <time>2016-03-06T08:02:37Z</time>
      </trkpt>
      <trkpt lat="48.83813" lon="1.31063">
        <ele>132.3</ele>
        <time>2016-03-06T08:02:40Z</time>
      </trkpt>
      <trkpt lat="48.83803" lon="1.3106">
        <ele>132.3</ele>
        <time>2016-03-06T08:02:42Z</time>
      </trkpt>
      <trkpt lat="48.83794" lon="1.31058">
        <ele>132.2</ele>
        <time>2016-03-06T08:02:44Z</time>
      </trkpt>
      <trkpt lat="48.83781" lon="1.31052">
        <ele>132.2</ele>
        <time>2016-03-06T08:02:47Z</time>
      </trkpt>
      <trkpt lat="48.83772" lon="1.31047">
        <ele>132.2</ele>
        <time>2016-03-06T08:02:49Z</time>
      </trkpt>
      <trkpt lat="48.83762" lon="1.3104">
        <ele>132.2</ele>
        <time>2016-03-06T08:02:51Z</time>
      </trkpt>
      <trkpt lat="48.83752" lon="1.31034">
        <ele>132.2</ele>
        <time>2016-03-06T08:02:53Z</time>
      </trkpt>
      <trkpt lat="48.83742" lon="1.31027">
        <ele>132.2</ele>
        <time>2016-03-06T08:02:55Z</time>
      </trkpt>
      <trkpt lat="48.83732" lon="1.31021">
        <ele>132.1</ele>
        <time>2016-03-06T08:02:57Z</time>
      </trkpt>
      <trkpt lat="48.83721" lon="1.31015">
        <ele>132.1</ele>
        <time>2016-03-06T08:02:59Z</time>
      </trkpt>
      <trkpt lat="48.83712" lon="1.31007">
        <ele>132.1</ele>
        <time>2016-03-06T08:03:01Z</time>
      </trkpt>
      <trkpt lat="48.83703" lon="1.30997">
        <ele>132.1</ele>
        <time>2016-03-06T08:03:03Z</time>
      </trkpt>
      <trkpt lat="48.83698" lon="1.30983">
        <ele>132.1</ele>
        <time>2016-03-06T08:03:05Z</time>
      </trkpt>
      <trkpt lat="48.83693" lon="1.30968">
        <ele>132.1</ele>
        <time>2016-03-06T08:03:07Z</time>
      </trkpt>
      <trkpt lat="48.8369" lon="1.30953">
        <ele>132.1</ele>
        <time>2016-03-06T08:03:09Z</time>
      </trkpt>
      <trkpt lat="48.83686" lon="1.30939">
        <ele>132.1</ele>
        <time>2016-03-06T08:03:11Z</time>
      </trkpt>
      <trkpt lat="48.83683" lon="1.30925">
        <ele>132.1</ele>
        <time>2016-03-06T08:03:13Z</time>
      </trkpt>
      <trkpt lat="48.83678" lon="1.30912">
        <ele>132.1</ele>
        <time>2016-03-06T08:03:15Z</time>
      </trkpt>
      <trkpt lat="48.83672" lon="1.309">
        <ele>132.1</ele>
        <time>2016-03-06T08:03:17Z</time>
      </trkpt>
      <trkpt lat="48.83667" lon="1.30888">
        <ele>132.1</ele>
        <time>2016-03-06T08:03:19Z</time>
      </trkpt>
      <trkpt lat="48.8366" lon="1.30878">
        <ele>132.1</ele>
        <time>2016-03-06T08:03:21Z</time>
      </trkpt>
      <trkpt lat="48.83651" lon="1.30864">
        <ele>132.1</ele>
        <time>2016-03-06T08:03:24Z</time>
      </trkpt>
      <trkpt lat="48.83645" lon="1.30854">
        <ele>132.2</ele>
        <time>2016-03-06T08:03:26Z</time>
      </trkpt>
      <trkpt lat="48.83638" lon="1.30844">
        <ele>132.2</ele>
        <time>2016-03-06T08:03:28Z</time>
      </trkpt>
      <trkpt lat="48.83629" lon="1.3083">
        <ele>132.3</ele>
        <time>2016-03-06T08:03:31Z</time>
      </trkpt>
      <trkpt lat="48.8362" lon="1.30815">
        <ele>132.3</ele>
        <time>2016-03-06T08:03:34Z</time>
      </trkpt>
      <trkpt lat="48.83611" lon="1.308">
        <ele>132.4</ele>
        <time>2016-03-06T08:03:37Z</time>
      </trkpt>
      <trkpt lat="48.83605" lon="1.3079">
        <ele>132.5</ele>
        <time>2016-03-06T08:03:39Z</time>
      </trkpt>
      <trkpt lat="48.83599" lon="1.30779">
        <ele>132.5</ele>
        <time>2016-03-06T08:03:41Z</time>
      </trkpt>
      <trkpt lat="48.83593" lon="1.30769">
        <ele>132.6</ele>
        <time>2016-03-06T08:03:43Z</time>
      </trkpt>
      <trkpt lat="48.83584" lon="1.30753">
        <ele>132.7</ele>
        <time>2016-03-06T08:03:46Z</time>
      </trkpt>
      <trkpt lat="48.83578" lon="1.30742">
        <ele>132.7</ele>
        <time>2016-03-06T08:03:48Z</time>
      </trkpt>
      <trkpt lat="48.83572" lon="1.30731">
        <ele>132.8</ele>
        <time>2016-03-06T08:03:50Z</time>
      </trkpt>
      <trkpt lat="48.83565" lon="1.30721">
        <ele>132.8</ele>
        <time>2016-03-06T08:03:52Z</time>
      </trkpt>
      <trkpt lat="48.83558" lon="1.3071">
        <ele>132.8</ele>
        <time>2016-03-06T08:03:54Z</time>
      </trkpt>
      <trkpt lat="48.83551" lon="1.307">
        <ele>132.9</ele>
        <time>2016-03-06T08:03:56Z</time>
      </trkpt>
      <trkpt lat="48.83544" lon="1.30689">
        <ele>132.9</ele>
        <time>2016-03-06T08:03:58Z</time>
      </trkpt>
      <trkpt lat="48.83537" lon="1.30679">
        <ele>133</ele>
        <time>2016-03-06T08:04:00Z</time>
      </trkpt>
      <trkpt lat="48.83531" lon="1.30667">
        <ele>133</ele>
        <time>2016-03-06T08:04:02Z</time>
      </trkpt>
      <trkpt lat="48.83525" lon="1.30656">
        <ele>133.1</ele>
        <time>2016-03-06T08:04:04Z</time>
      </trkpt>
      <trkpt lat="48.83519" lon="1.30644">
        <ele>133.2</ele>
        <time>2016-03-06T08:04:07Z</time>
      </trkpt>
      <trkpt lat="48.83514" lon="1.30631">
        <ele>133.3</ele>
        <time>2016-03-06T08:04:11Z</time>
      </trkpt>
      <trkpt lat="48.83509" lon="1.30619">
        <ele>133.4</ele>
        <time>2016-03-06T08:04:22Z</time>
      </trkpt>
      <trkpt lat="48.83504" lon="1.30607">
        <ele>133.2</ele>
        <time>2016-03-06T08:04:55Z</time>
      </trkpt>
      <trkpt lat="48.83497" lon="1.30599">
        <ele>132.7</ele>
        <time>2016-03-06T08:05:43Z</time>
      </trkpt>
      <trkpt lat="48.83496" lon="1.30582">
        <ele>132.2</ele>
        <time>2016-03-06T08:07:36Z</time>
      </trkpt>
      <trkpt lat="48.83496" lon="1.30565">
        <ele>132.2</ele>
        <time>2016-03-06T08:07:39Z</time>
      </trkpt>
      <trkpt lat="48.83493" lon="1.3055">
        <ele>132.2</ele>
        <time>2016-03-06T08:07:41Z</time>
      </trkpt>
      <trkpt lat="48.8349" lon="1.30534">
        <ele>132.2</ele>
        <time>2016-03-06T08:07:43Z</time>
      </trkpt>
      <trkpt lat="48.83487" lon="1.30519">
        <ele>132.1</ele>
        <time>2016-03-06T08:07:45Z</time>
      </trkpt>
      <trkpt lat="48.83485" lon="1.30503">
        <ele>132.1</ele>
        <time>2016-03-06T08:07:47Z</time>
      </trkpt>
      <trkpt lat="48.83482" lon="1.30488">
        <ele>132.1</ele>
        <time>2016-03-06T08:07:49Z</time>
      </trkpt>
      <trkpt lat="48.83481" lon="1.30472">
        <ele>132.1</ele>
        <time>2016-03-06T08:07:51Z</time>
      </trkpt>
      <trkpt lat="48.8348" lon="1.30458">
        <ele>132</ele>
        <time>2016-03-06T08:07:53Z</time>
      </trkpt>
      <trkpt lat="48.83478" lon="1.30438">
        <ele>131.9</ele>
        <time>2016-03-06T08:07:56Z</time>
      </trkpt>
      <trkpt lat="48.83475" lon="1.30419">
        <ele>131.7</ele>
        <time>2016-03-06T08:07:59Z</time>
      </trkpt>
      <trkpt lat="48.83472" lon="1.304">
        <ele>131.4</ele>
        <time>2016-03-06T08:08:02Z</time>
      </trkpt>
      <trkpt lat="48.83469" lon="1.30381">
        <ele>131</ele>
        <time>2016-03-06T08:08:05Z</time>
      </trkpt>
      <trkpt lat="48.83468" lon="1.30366">
        <ele>130.8</ele>
        <time>2016-03-06T08:08:07Z</time>
      </trkpt>
      <trkpt lat="48.83466" lon="1.30352">
        <ele>130.5</ele>
        <time>2016-03-06T08:08:09Z</time>
      </trkpt>
      <trkpt lat="48.83463" lon="1.30337">
        <ele>130.3</ele>
        <time>2016-03-06T08:08:11Z</time>
      </trkpt>
      <trkpt lat="48.83461" lon="1.3032">
        <ele>130.1</ele>
        <time>2016-03-06T08:08:13Z</time>
      </trkpt>
      <trkpt lat="48.83457" lon="1.30303">
        <ele>129.9</ele>
        <time>2016-03-06T08:08:15Z</time>
      </trkpt>
      <trkpt lat="48.83452" lon="1.30284">
        <ele>129.5</ele>
        <time>2016-03-06T08:08:17Z</time>
      </trkpt>
      <trkpt lat="48.83444" lon="1.30265">
        <ele>129.1</ele>
        <time>2016-03-06T08:08:19Z</time>
      </trkpt>
      <trkpt lat="48.83435" lon="1.30249">
        <ele>128.8</ele>
        <time>2016-03-06T08:08:21Z</time>
      </trkpt>
      <trkpt lat="48.83425" lon="1.30236">
        <ele>128.5</ele>
        <time>2016-03-06T08:08:23Z</time>
      </trkpt>
      <trkpt lat="48.83414" lon="1.30227">
        <ele>128.2</ele>
        <time>2016-03-06T08:08:25Z</time>
      </trkpt>
      <trkpt lat="48.83405" lon="1.3022">
        <ele>127.9</ele>
        <time>2016-03-06T08:08:27Z</time>
      </trkpt>
      <trkpt lat="48.83395" lon="1.30214">
        <ele>127.7</ele>
        <time>2016-03-06T08:08:29Z</time>
      </trkpt>
      <trkpt lat="48.83386" lon="1.30209">
        <ele>127.4</ele>
        <time>2016-03-06T08:08:31Z</time>
      </trkpt>
      <trkpt lat="48.83377" lon="1.30204">
        <ele>127.3</ele>
        <time>2016-03-06T08:08:33Z</time>
      </trkpt>
      <trkpt lat="48.83364" lon="1.302">
        <ele>127</ele>
        <time>2016-03-06T08:08:36Z</time>
      </trkpt>
      <trkpt lat="48.83352" lon="1.30198">
        <ele>126.9</ele>
        <time>2016-03-06T08:08:39Z</time>
      </trkpt>
      <trkpt lat="48.83341" lon="1.30197">
        <ele>126.7</ele>
        <time>2016-03-06T08:08:42Z</time>
      </trkpt>
      <trkpt lat="48.83331" lon="1.30206">
        <ele>126.6</ele>
        <time>2016-03-06T08:08:45Z</time>
      </trkpt>
      <trkpt lat="48.83324" lon="1.30222">
        <ele>126.6</ele>
        <time>2016-03-06T08:08:48Z</time>
      </trkpt>
      <trkpt lat="48.83317" lon="1.30238">
        <ele>126.6</ele>
        <time>2016-03-06T08:08:51Z</time>
      </trkpt>
      <trkpt lat="48.8331" lon="1.30252">
        <ele>126.8</ele>
        <time>2016-03-06T08:08:54Z</time>
      </trkpt>
      <trkpt lat="48.83303" lon="1.30269">
        <ele>127.1</ele>
        <time>2016-03-06T08:08:57Z</time>
      </trkpt>
      <trkpt lat="48.83296" lon="1.30284">
        <ele>127.4</ele>
        <time>2016-03-06T08:09:00Z</time>
      </trkpt>
      <trkpt lat="48.83288" lon="1.303">
        <ele>127.6</ele>
        <time>2016-03-06T08:09:03Z</time>
      </trkpt>
      <trkpt lat="48.83282" lon="1.3031">
        <ele>127.7</ele>
        <time>2016-03-06T08:09:05Z</time>
      </trkpt>
      <trkpt lat="48.83275" lon="1.30323">
        <ele>127.9</ele>
        <time>2016-03-06T08:09:08Z</time>
      </trkpt>
      <trkpt lat="48.83268" lon="1.30337">
        <ele>128</ele>
        <time>2016-03-06T08:09:11Z</time>
      </trkpt>
      <trkpt lat="48.8326" lon="1.30352">
        <ele>128.2</ele>
        <time>2016-03-06T08:09:14Z</time>
      </trkpt>
      <trkpt lat="48.83253" lon="1.30364">
        <ele>128.3</ele>
        <time>2016-03-06T08:09:17Z</time>
      </trkpt>
      <trkpt lat="48.83247" lon="1.30377">
        <ele>128.4</ele>
        <time>2016-03-06T08:09:20Z</time>
      </trkpt>
      <trkpt lat="48.83242" lon="1.30389">
        <ele>128.5</ele>
        <time>2016-03-06T08:09:23Z</time>
      </trkpt>
      <trkpt lat="48.83237" lon="1.304">
        <ele>128.7</ele>
        <time>2016-03-06T08:09:26Z</time>
      </trkpt>
      <trkpt lat="48.83231" lon="1.30411">
        <ele>128.8</ele>
        <time>2016-03-06T08:09:29Z</time>
      </trkpt>
      <trkpt lat="48.83225" lon="1.30424">
        <ele>128.9</ele>
        <time>2016-03-06T08:09:32Z</time>
      </trkpt>
      <trkpt lat="48.83219" lon="1.30437">
        <ele>128.9</ele>
        <time>2016-03-06T08:09:35Z</time>
      </trkpt>
      <trkpt lat="48.83214" lon="1.30449">
        <ele>129</ele>
        <time>2016-03-06T08:09:38Z</time>
      </trkpt>
      <trkpt lat="48.83208" lon="1.30463">
        <ele>129</ele>
        <time>2016-03-06T08:09:41Z</time>
      </trkpt>
      <trkpt lat="48.83204" lon="1.30477">
        <ele>129.1</ele>
        <time>2016-03-06T08:09:44Z</time>
      </trkpt>
      <trkpt lat="48.83199" lon="1.30491">
        <ele>129.1</ele>
        <time>2016-03-06T08:09:47Z</time>
      </trkpt>
      <trkpt lat="48.83194" lon="1.30506">
        <ele>129</ele>
        <time>2016-03-06T08:09:50Z</time>
      </trkpt>
      <trkpt lat="48.83188" lon="1.3052">
        <ele>129</ele>
        <time>2016-03-06T08:09:53Z</time>
      </trkpt>
      <trkpt lat="48.83181" lon="1.30536">
        <ele>129</ele>
        <time>2016-03-06T08:09:56Z</time>
      </trkpt>
      <trkpt lat="48.83174" lon="1.30552">
        <ele>128.9</ele>
        <time>2016-03-06T08:09:59Z</time>
      </trkpt>
      <trkpt lat="48.83168" lon="1.30568">
        <ele>128.8</ele>
        <time>2016-03-06T08:10:02Z</time>
      </trkpt>
      <trkpt lat="48.83161" lon="1.30585">
        <ele>128.5</ele>
        <time>2016-03-06T08:10:05Z</time>
      </trkpt>
      <trkpt lat="48.83157" lon="1.306">
        <ele>128.3</ele>
        <time>2016-03-06T08:10:08Z</time>
      </trkpt>
      <trkpt lat="48.83152" lon="1.30616">
        <ele>128</ele>
        <time>2016-03-06T08:10:11Z</time>
      </trkpt>
      <trkpt lat="48.83147" lon="1.30628">
        <ele>127.9</ele>
        <time>2016-03-06T08:10:13Z</time>
      </trkpt>
      <trkpt lat="48.83137" lon="1.30642">
        <ele>127.7</ele>
        <time>2016-03-06T08:10:16Z</time>
      </trkpt>
      <trkpt lat="48.83126" lon="1.30651">
        <ele>127.5</ele>
        <time>2016-03-06T08:10:19Z</time>
      </trkpt>
      <trkpt lat="48.83115" lon="1.30658">
        <ele>127.3</ele>
        <time>2016-03-06T08:10:22Z</time>
      </trkpt>
      <trkpt lat="48.83102" lon="1.30665">
        <ele>127.1</ele>
        <time>2016-03-06T08:10:25Z</time>
      </trkpt>
      <trkpt lat="48.83091" lon="1.3067">
        <ele>126.9</ele>
        <time>2016-03-06T08:10:28Z</time>
      </trkpt>
      <trkpt lat="48.8308" lon="1.30677">
        <ele>126.6</ele>
        <time>2016-03-06T08:10:31Z</time>
      </trkpt>
      <trkpt lat="48.8307" lon="1.30683">
        <ele>126.4</ele>
        <time>2016-03-06T08:10:34Z</time>
      </trkpt>
      <trkpt lat="48.8306" lon="1.30688">
        <ele>126.3</ele>
        <time>2016-03-06T08:10:37Z</time>
      </trkpt>
      <trkpt lat="48.83049" lon="1.30693">
        <ele>126.1</ele>
        <time>2016-03-06T08:10:40Z</time>
      </trkpt>
      <trkpt lat="48.83037" lon="1.307">
        <ele>126</ele>
        <time>2016-03-06T08:10:43Z</time>
      </trkpt>
      <trkpt lat="48.83025" lon="1.30706">
        <ele>125.9</ele>
        <time>2016-03-06T08:10:46Z</time>
      </trkpt>
      <trkpt lat="48.83014" lon="1.30711">
        <ele>125.8</ele>
        <time>2016-03-06T08:10:49Z</time>
      </trkpt>
      <trkpt lat="48.83003" lon="1.30719">
        <ele>125.8</ele>
        <time>2016-03-06T08:10:52Z</time>
      </trkpt>
      <trkpt lat="48.82994" lon="1.30729">
        <ele>125.9</ele>
        <time>2016-03-06T08:10:55Z</time>
      </trkpt>
      <trkpt lat="48.82983" lon="1.30738">
        <ele>125.9</ele>
        <time>2016-03-06T08:10:58Z</time>
      </trkpt>
      <trkpt lat="48.82971" lon="1.30746">
        <ele>126.2</ele>
        <time>2016-03-06T08:11:01Z</time>
      </trkpt>
      <trkpt lat="48.82959" lon="1.30752">
        <ele>126.4</ele>
        <time>2016-03-06T08:11:04Z</time>
      </trkpt>
      <trkpt lat="48.82948" lon="1.30757">
        <ele>126.8</ele>
        <time>2016-03-06T08:11:07Z</time>
      </trkpt>
      <trkpt lat="48.82938" lon="1.30761">
        <ele>127.1</ele>
        <time>2016-03-06T08:11:10Z</time>
      </trkpt>
      <trkpt lat="48.82928" lon="1.30765">
        <ele>127.4</ele>
        <time>2016-03-06T08:11:13Z</time>
      </trkpt>
      <trkpt lat="48.82917" lon="1.30768">
        <ele>127.8</ele>
        <time>2016-03-06T08:11:16Z</time>
      </trkpt>
      <trkpt lat="48.82905" lon="1.30772">
        <ele>128.2</ele>
        <time>2016-03-06T08:11:19Z</time>
      </trkpt>
      <trkpt lat="48.82894" lon="1.30774">
        <ele>128.5</ele>
        <time>2016-03-06T08:11:22Z</time>
      </trkpt>
      <trkpt lat="48.82883" lon="1.30777">
        <ele>128.9</ele>
        <time>2016-03-06T08:11:25Z</time>
      </trkpt>
      <trkpt lat="48.82872" lon="1.3078">
        <ele>129.2</ele>
        <time>2016-03-06T08:11:28Z</time>
      </trkpt>
      <trkpt lat="48.82861" lon="1.30785">
        <ele>129.5</ele>
        <time>2016-03-06T08:11:31Z</time>
      </trkpt>
      <trkpt lat="48.82851" lon="1.3079">
        <ele>129.8</ele>
        <time>2016-03-06T08:11:34Z</time>
      </trkpt>
      <trkpt lat="48.82841" lon="1.30795">
        <ele>130</ele>
        <time>2016-03-06T08:11:37Z</time>
      </trkpt>
      <trkpt lat="48.82831" lon="1.308">
        <ele>130.2</ele>
        <time>2016-03-06T08:11:40Z</time>
      </trkpt>
      <trkpt lat="48.8282" lon="1.30806">
        <ele>130.6</ele>
        <time>2016-03-06T08:11:43Z</time>
      </trkpt>
      <trkpt lat="48.82811" lon="1.30812">
        <ele>130.9</ele>
        <time>2016-03-06T08:11:46Z</time>
      </trkpt>
      <trkpt lat="48.82801" lon="1.30818">
        <ele>131.1</ele>
        <time>2016-03-06T08:11:49Z</time>
      </trkpt>
      <trkpt lat="48.82792" lon="1.30826">
        <ele>131.3</ele>
        <time>2016-03-06T08:11:52Z</time>
      </trkpt>
      <trkpt lat="48.82782" lon="1.30832">
        <ele>131.5</ele>
        <time>2016-03-06T08:11:55Z</time>
      </trkpt>
      <trkpt lat="48.82772" lon="1.30837">
        <ele>131.6</ele>
        <time>2016-03-06T08:11:58Z</time>
      </trkpt>
      <trkpt lat="48.82762" lon="1.30843">
        <ele>131.7</ele>
        <time>2016-03-06T08:12:01Z</time>
      </trkpt>
      <trkpt lat="48.82752" lon="1.30849">
        <ele>131.8</ele>
        <time>2016-03-06T08:12:04Z</time>
      </trkpt>
      <trkpt lat="48.82741" lon="1.30855">
        <ele>131.9</ele>
        <time>2016-03-06T08:12:07Z</time>
      </trkpt>
      <trkpt lat="48.82729" lon="1.3086">
        <ele>132</ele>
        <time>2016-03-06T08:12:10Z</time>
      </trkpt>
      <trkpt lat="48.82719" lon="1.30865">
        <ele>132.2</ele>
        <time>2016-03-06T08:12:13Z</time>
      </trkpt>
      <trkpt lat="48.82707" lon="1.3087">
        <ele>132.3</ele>
        <time>2016-03-06T08:12:16Z</time>
      </trkpt>
      <trkpt lat="48.82695" lon="1.30876">
        <ele>132.5</ele>
        <time>2016-03-06T08:12:19Z</time>
      </trkpt>
      <trkpt lat="48.82683" lon="1.30882">
        <ele>132.6</ele>
        <time>2016-03-06T08:12:22Z</time>
      </trkpt>
      <trkpt lat="48.82671" lon="1.30889">
        <ele>132.6</ele>
        <time>2016-03-06T08:12:25Z</time>
      </trkpt>
      <trkpt lat="48.82662" lon="1.30892">
        <ele>132.7</ele>
        <time>2016-03-06T08:12:27Z</time>
      </trkpt>
      <trkpt lat="48.8265" lon="1.30899">
        <ele>132.7</ele>
        <time>2016-03-06T08:12:30Z</time>
      </trkpt>
      <trkpt lat="48.82638" lon="1.30905">
        <ele>132.7</ele>
        <time>2016-03-06T08:12:33Z</time>
      </trkpt>
      <trkpt lat="48.82627" lon="1.30911">
        <ele>132.8</ele>
        <time>2016-03-06T08:12:36Z</time>
      </trkpt>
      <trkpt lat="48.82615" lon="1.30917">
        <ele>132.7</ele>
        <time>2016-03-06T08:12:39Z</time>
      </trkpt>
      <trkpt lat="48.82603" lon="1.30924">
        <ele>132.6</ele>
        <time>2016-03-06T08:12:42Z</time>
      </trkpt>
      <trkpt lat="48.8259" lon="1.3093">
        <ele>132.5</ele>
        <time>2016-03-06T08:12:45Z</time>
      </trkpt>
      <trkpt lat="48.82577" lon="1.30935">
        <ele>132.4</ele>
        <time>2016-03-06T08:12:48Z</time>
      </trkpt>
      <trkpt lat="48.82565" lon="1.3094">
        <ele>132.2</ele>
        <time>2016-03-06T08:12:51Z</time>
      </trkpt>
      <trkpt lat="48.82552" lon="1.30945">
        <ele>132.1</ele>
        <time>2016-03-06T08:12:54Z</time>
      </trkpt>
      <trkpt lat="48.82539" lon="1.30949">
        <ele>132</ele>
        <time>2016-03-06T08:12:57Z</time>
      </trkpt>
      <trkpt lat="48.82526" lon="1.30954">
        <ele>131.9</ele>
        <time>2016-03-06T08:13:00Z</time>
      </trkpt>
      <trkpt lat="48.82513" lon="1.30959">
        <ele>131.8</ele>
        <time>2016-03-06T08:13:03Z</time>
      </trkpt>
      <trkpt lat="48.825" lon="1.30965">
        <ele>131.7</ele>
        <time>2016-03-06T08:13:06Z</time>
      </trkpt>
      <trkpt lat="48.82492" lon="1.3098">
        <ele>131.6</ele>
        <time>2016-03-06T08:13:09Z</time>
      </trkpt>
      <trkpt lat="48.82491" lon="1.30995">
        <ele>131.5</ele>
        <time>2016-03-06T08:13:11Z</time>
      </trkpt>
      <trkpt lat="48.82491" lon="1.31012">
        <ele>131.4</ele>
        <time>2016-03-06T08:13:13Z</time>
      </trkpt>
      <trkpt lat="48.82491" lon="1.31028">
        <ele>131.3</ele>
        <time>2016-03-06T08:13:15Z</time>
      </trkpt>
      <trkpt lat="48.8249" lon="1.31043">
        <ele>131.2</ele>
        <time>2016-03-06T08:13:17Z</time>
      </trkpt>
      <trkpt lat="48.82491" lon="1.31059">
        <ele>131.1</ele>
        <time>2016-03-06T08:13:19Z</time>
      </trkpt>
      <trkpt lat="48.82491" lon="1.31074">
        <ele>131.1</ele>
        <time>2016-03-06T08:13:21Z</time>
      </trkpt>
      <trkpt lat="48.82491" lon="1.3109">
        <ele>131</ele>
        <time>2016-03-06T08:13:23Z</time>
      </trkpt>
      <trkpt lat="48.82492" lon="1.31105">
        <ele>131</ele>
        <time>2016-03-06T08:13:25Z</time>
      </trkpt>
      <trkpt lat="48.82493" lon="1.3112">
        <ele>130.9</ele>
        <time>2016-03-06T08:13:27Z</time>
      </trkpt>
      <trkpt lat="48.82493" lon="1.31136">
        <ele>130.9</ele>
        <time>2016-03-06T08:13:29Z</time>
      </trkpt>
      <trkpt lat="48.82494" lon="1.31151">
        <ele>130.8</ele>
        <time>2016-03-06T08:13:31Z</time>
      </trkpt>
      <trkpt lat="48.82495" lon="1.31167">
        <ele>130.7</ele>
        <time>2016-03-06T08:13:33Z</time>
      </trkpt>
      <trkpt lat="48.82496" lon="1.31183">
        <ele>130.7</ele>
        <time>2016-03-06T08:13:35Z</time>
      </trkpt>
      <trkpt lat="48.82497" lon="1.31199">
        <ele>130.6</ele>
        <time>2016-03-06T08:13:37Z</time>
      </trkpt>
      <trkpt lat="48.82498" lon="1.31214">
        <ele>130.6</ele>
        <time>2016-03-06T08:13:39Z</time>
      </trkpt>
      <trkpt lat="48.82497" lon="1.31228">
        <ele>130.5</ele>
        <time>2016-03-06T08:13:41Z</time>
      </trkpt>
      <trkpt lat="48.82496" lon="1.31242">
        <ele>130.5</ele>
        <time>2016-03-06T08:13:43Z</time>
      </trkpt>
      <trkpt lat="48.82492" lon="1.31256">
        <ele>130.4</ele>
        <time>2016-03-06T08:13:45Z</time>
      </trkpt>
      <trkpt lat="48.82488" lon="1.31268">
        <ele>130.3</ele>
        <time>2016-03-06T08:13:47Z</time>
      </trkpt>
      <trkpt lat="48.82481" lon="1.31278">
        <ele>130.2</ele>
        <time>2016-03-06T08:13:49Z</time>
      </trkpt>
      <trkpt lat="48.82469" lon="1.31289">
        <ele>130</ele>
        <time>2016-03-06T08:13:52Z</time>
      </trkpt>
      <trkpt lat="48.82458" lon="1.31294">
        <ele>129.9</ele>
        <time>2016-03-06T08:13:54Z</time>
      </trkpt>
      <trkpt lat="48.82447" lon="1.31298">
        <ele>129.8</ele>
        <time>2016-03-06T08:13:56Z</time>
      </trkpt>
      <trkpt lat="48.82436" lon="1.31303">
        <ele>129.7</ele>
        <time>2016-03-06T08:13:58Z</time>
      </trkpt>
      <trkpt lat="48.82424" lon="1.31309">
        <ele>129.6</ele>
        <time>2016-03-06T08:14:00Z</time>
      </trkpt>
      <trkpt lat="48.82412" lon="1.31315">
        <ele>129.4</ele>
        <time>2016-03-06T08:14:02Z</time>
      </trkpt>
      <trkpt lat="48.82399" lon="1.31322">
        <ele>129.3</ele>
        <time>2016-03-06T08:14:04Z</time>
      </trkpt>
      <trkpt lat="48.82387" lon="1.31329">
        <ele>129.1</ele>
        <time>2016-03-06T08:14:06Z</time>
      </trkpt>
      <trkpt lat="48.82374" lon="1.31335">
        <ele>128.8</ele>
        <time>2016-03-06T08:14:08Z</time>
      </trkpt>
      <trkpt lat="48.82363" lon="1.3134">
        <ele>128.5</ele>
        <time>2016-03-06T08:14:10Z</time>
      </trkpt>
      <trkpt lat="48.82352" lon="1.31343">
        <ele>128.1</ele>
        <time>2016-03-06T08:14:12Z</time>
      </trkpt>
      <trkpt lat="48.8234" lon="1.3134">
        <ele>127.8</ele>
        <time>2016-03-06T08:14:14Z</time>
      </trkpt>
      <trkpt lat="48.82331" lon="1.31334">
        <ele>127.5</ele>
        <time>2016-03-06T08:14:16Z</time>
      </trkpt>
      <trkpt lat="48.82323" lon="1.31338">
        <ele>126.9</ele>
        <time>2016-03-06T08:14:19Z</time>
      </trkpt>
      <trkpt lat="48.8232" lon="1.31352">
        <ele>126.5</ele>
        <time>2016-03-06T08:14:21Z</time>
      </trkpt>
      <trkpt lat="48.82319" lon="1.31369">
        <ele>126.2</ele>
        <time>2016-03-06T08:14:23Z</time>
      </trkpt>
      <trkpt lat="48.82318" lon="1.31386">
        <ele>125.8</ele>
        <time>2016-03-06T08:14:25Z</time>
      </trkpt>
      <trkpt lat="48.82317" lon="1.31402">
        <ele>125.4</ele>
        <time>2016-03-06T08:14:27Z</time>
      </trkpt>
      <trkpt lat="48.82315" lon="1.31418">
        <ele>125.1</ele>
        <time>2016-03-06T08:14:29Z</time>
      </trkpt>
      <trkpt lat="48.82313" lon="1.31434">
        <ele>124.7</ele>
        <time>2016-03-06T08:14:31Z</time>
      </trkpt>
      <trkpt lat="48.82309" lon="1.31449">
        <ele>124.3</ele>
        <time>2016-03-06T08:14:33Z</time>
      </trkpt>
      <trkpt lat="48.82304" lon="1.31462">
        <ele>124</ele>
        <time>2016-03-06T08:14:35Z</time>
      </trkpt>
      <trkpt lat="48.82299" lon="1.31474">
        <ele>123.7</ele>
        <time>2016-03-06T08:14:37Z</time>
      </trkpt>
      <trkpt lat="48.82292" lon="1.31491">
        <ele>123.3</ele>
        <time>2016-03-06T08:14:40Z</time>
      </trkpt>
      <trkpt lat="48.82286" lon="1.31508">
        <ele>123</ele>
        <time>2016-03-06T08:14:43Z</time>
      </trkpt>
      <trkpt lat="48.82279" lon="1.31525">
        <ele>122.7</ele>
        <time>2016-03-06T08:14:46Z</time>
      </trkpt>
      <trkpt lat="48.82272" lon="1.3154">
        <ele>122.4</ele>
        <time>2016-03-06T08:14:49Z</time>
      </trkpt>
      <trkpt lat="48.82266" lon="1.31549">
        <ele>122.2</ele>
        <time>2016-03-06T08:14:51Z</time>
      </trkpt>
      <trkpt lat="48.82257" lon="1.31556">
        <ele>122</ele>
        <time>2016-03-06T08:14:53Z</time>
      </trkpt>
      <trkpt lat="48.82247" lon="1.31559">
        <ele>121.8</ele>
        <time>2016-03-06T08:14:55Z</time>
      </trkpt>
      <trkpt lat="48.82238" lon="1.3156">
        <ele>121.6</ele>
        <time>2016-03-06T08:14:57Z</time>
      </trkpt>
      <trkpt lat="48.82224" lon="1.31557">
        <ele>121.5</ele>
        <time>2016-03-06T08:15:00Z</time>
      </trkpt>
      <trkpt lat="48.82211" lon="1.31556">
        <ele>121.7</ele>
        <time>2016-03-06T08:15:03Z</time>
      </trkpt>
      <trkpt lat="48.82198" lon="1.31555">
        <ele>121.8</ele>
        <time>2016-03-06T08:15:06Z</time>
      </trkpt>
      <trkpt lat="48.82185" lon="1.31558">
        <ele>121.9</ele>
        <time>2016-03-06T08:15:09Z</time>
      </trkpt>
      <trkpt lat="48.82174" lon="1.31568">
        <ele>122</ele>
        <time>2016-03-06T08:15:12Z</time>
      </trkpt>
      <trkpt lat="48.82164" lon="1.31583">
        <ele>122.1</ele>
        <time>2016-03-06T08:15:15Z</time>
      </trkpt>
      <trkpt lat="48.82155" lon="1.31597">
        <ele>122.2</ele>
        <time>2016-03-06T08:15:18Z</time>
      </trkpt>
      <trkpt lat="48.82145" lon="1.31611">
        <ele>122.4</ele>
        <time>2016-03-06T08:15:21Z</time>
      </trkpt>
      <trkpt lat="48.82137" lon="1.31619">
        <ele>122.5</ele>
        <time>2016-03-06T08:15:23Z</time>
      </trkpt>
      <trkpt lat="48.82129" lon="1.31624">
        <ele>122.6</ele>
        <time>2016-03-06T08:15:25Z</time>
      </trkpt>
      <trkpt lat="48.82118" lon="1.31634">
        <ele>122.8</ele>
        <time>2016-03-06T08:15:28Z</time>
      </trkpt>
      <trkpt lat="48.82114" lon="1.31649">
        <ele>123</ele>
        <time>2016-03-06T08:15:31Z</time>
      </trkpt>
      <trkpt lat="48.82115" lon="1.31668">
        <ele>123.2</ele>
        <time>2016-03-06T08:15:34Z</time>
      </trkpt>
      <trkpt lat="48.82115" lon="1.31688">
        <ele>123.3</ele>
        <time>2016-03-06T08:15:37Z</time>
      </trkpt>
      <trkpt lat="48.82115" lon="1.31707">
        <ele>123.4</ele>
        <time>2016-03-06T08:15:40Z</time>
      </trkpt>
      <trkpt lat="48.82114" lon="1.31725">
        <ele>123.7</ele>
        <time>2016-03-06T08:15:43Z</time>
      </trkpt>
      <trkpt lat="48.82113" lon="1.31743">
        <ele>124</ele>
        <time>2016-03-06T08:15:46Z</time>
      </trkpt>
      <trkpt lat="48.8211" lon="1.31761">
        <ele>124.3</ele>
        <time>2016-03-06T08:15:49Z</time>
      </trkpt>
      <trkpt lat="48.82103" lon="1.3178">
        <ele>124.5</ele>
        <time>2016-03-06T08:15:52Z</time>
      </trkpt>
      <trkpt lat="48.82097" lon="1.31797">
        <ele>124.9</ele>
        <time>2016-03-06T08:15:55Z</time>
      </trkpt>
      <trkpt lat="48.82092" lon="1.31809">
        <ele>125.1</ele>
        <time>2016-03-06T08:15:57Z</time>
      </trkpt>
      <trkpt lat="48.82086" lon="1.3182">
        <ele>125.3</ele>
        <time>2016-03-06T08:15:59Z</time>
      </trkpt>
      <trkpt lat="48.82077" lon="1.31834">
        <ele>125.6</ele>
        <time>2016-03-06T08:16:02Z</time>
      </trkpt>
      <trkpt lat="48.82067" lon="1.31848">
        <ele>125.9</ele>
        <time>2016-03-06T08:16:05Z</time>
      </trkpt>
      <trkpt lat="48.8206" lon="1.31859">
        <ele>126.2</ele>
        <time>2016-03-06T08:16:08Z</time>
      </trkpt>
      <trkpt lat="48.82053" lon="1.3187">
        <ele>126.4</ele>
        <time>2016-03-06T08:16:11Z</time>
      </trkpt>
      <trkpt lat="48.82044" lon="1.31884">
        <ele>126.7</ele>
        <time>2016-03-06T08:16:15Z</time>
      </trkpt>
      <trkpt lat="48.82037" lon="1.31895">
        <ele>126.9</ele>
        <time>2016-03-06T08:16:18Z</time>
      </trkpt>
      <trkpt lat="48.8203" lon="1.31909">
        <ele>127</ele>
        <time>2016-03-06T08:16:21Z</time>
      </trkpt>
      <trkpt lat="48.82023" lon="1.31923">
        <ele>127.3</ele>
        <time>2016-03-06T08:16:24Z</time>
      </trkpt>
      <trkpt lat="48.82016" lon="1.31938">
        <ele>127.5</ele>
        <time>2016-03-06T08:16:27Z</time>
      </trkpt>
      <trkpt lat="48.82009" lon="1.31954">
        <ele>127.8</ele>
        <time>2016-03-06T08:16:30Z</time>
      </trkpt>
      <trkpt lat="48.82003" lon="1.3197">
        <ele>128</ele>
        <time>2016-03-06T08:16:33Z</time>
      </trkpt>
      <trkpt lat="48.81998" lon="1.31983">
        <ele>128.1</ele>
        <time>2016-03-06T08:16:35Z</time>
      </trkpt>
      <trkpt lat="48.81993" lon="1.31994">
        <ele>128.2</ele>
        <time>2016-03-06T08:16:37Z</time>
      </trkpt>
      <trkpt lat="48.81988" lon="1.32007">
        <ele>128.3</ele>
        <time>2016-03-06T08:16:39Z</time>
      </trkpt>
      <trkpt lat="48.81982" lon="1.32024">
        <ele>128.5</ele>
        <time>2016-03-06T08:16:42Z</time>
      </trkpt>
      <trkpt lat="48.81977" lon="1.32039">
        <ele>128.6</ele>
        <time>2016-03-06T08:16:45Z</time>
      </trkpt>
      <trkpt lat="48.81971" lon="1.32054">
        <ele>128.6</ele>
        <time>2016-03-06T08:16:48Z</time>
      </trkpt>
      <trkpt lat="48.81966" lon="1.32071">
        <ele>128.7</ele>
        <time>2016-03-06T08:16:51Z</time>
      </trkpt>
      <trkpt lat="48.8196" lon="1.32087">
        <ele>128.8</ele>
        <time>2016-03-06T08:16:54Z</time>
      </trkpt>
      <trkpt lat="48.81954" lon="1.32102">
        <ele>128.8</ele>
        <time>2016-03-06T08:16:57Z</time>
      </trkpt>
      <trkpt lat="48.81948" lon="1.32117">
        <ele>128.8</ele>
        <time>2016-03-06T08:17:00Z</time>
      </trkpt>
      <trkpt lat="48.81943" lon="1.32131">
        <ele>128.9</ele>
        <time>2016-03-06T08:17:03Z</time>
      </trkpt>
      <trkpt lat="48.81937" lon="1.32146">
        <ele>128.9</ele>
        <time>2016-03-06T08:17:06Z</time>
      </trkpt>
      <trkpt lat="48.81932" lon="1.3216">
        <ele>129</ele>
        <time>2016-03-06T08:17:09Z</time>
      </trkpt>
      <trkpt lat="48.81927" lon="1.32174">
        <ele>129.1</ele>
        <time>2016-03-06T08:17:12Z</time>
      </trkpt>
      <trkpt lat="48.81921" lon="1.3219">
        <ele>129.1</ele>
        <time>2016-03-06T08:17:15Z</time>
      </trkpt>
      <trkpt lat="48.81915" lon="1.32206">
        <ele>129.1</ele>
        <time>2016-03-06T08:17:18Z</time>
      </trkpt>
      <trkpt lat="48.81909" lon="1.32222">
        <ele>129.2</ele>
        <time>2016-03-06T08:17:21Z</time>
      </trkpt>
      <trkpt lat="48.81902" lon="1.32238">
        <ele>129.2</ele>
        <time>2016-03-06T08:17:24Z</time>
      </trkpt>
      <trkpt lat="48.81896" lon="1.32255">
        <ele>129.2</ele>
        <time>2016-03-06T08:17:27Z</time>
      </trkpt>
      <trkpt lat="48.8189" lon="1.32269">
        <ele>129.2</ele>
        <time>2016-03-06T08:17:30Z</time>
      </trkpt>
      <trkpt lat="48.81884" lon="1.32283">
        <ele>129.2</ele>
        <time>2016-03-06T08:17:33Z</time>
      </trkpt>
      <trkpt lat="48.81878" lon="1.32297">
        <ele>129.2</ele>
        <time>2016-03-06T08:17:36Z</time>
      </trkpt>
      <trkpt lat="48.81872" lon="1.32311">
        <ele>129.2</ele>
        <time>2016-03-06T08:17:39Z</time>
      </trkpt>
      <trkpt lat="48.81866" lon="1.32325">
        <ele>129.2</ele>
        <time>2016-03-06T08:17:42Z</time>
      </trkpt>
      <trkpt lat="48.81859" lon="1.32339">
        <ele>129.2</ele>
        <time>2016-03-06T08:17:45Z</time>
      </trkpt>
      <trkpt lat="48.81851" lon="1.32353">
        <ele>129.2</ele>
        <time>2016-03-06T08:17:48Z</time>
      </trkpt>
      <trkpt lat="48.81843" lon="1.32365">
        <ele>129.2</ele>
        <time>2016-03-06T08:17:51Z</time>
      </trkpt>
      <trkpt lat="48.81834" lon="1.32376">
        <ele>129.3</ele>
        <time>2016-03-06T08:17:54Z</time>
      </trkpt>
      <trkpt lat="48.81825" lon="1.32387">
        <ele>129.3</ele>
        <time>2016-03-06T08:17:57Z</time>
      </trkpt>
      <trkpt lat="48.81815" lon="1.32395">
        <ele>129.3</ele>
        <time>2016-03-06T08:18:00Z</time>
      </trkpt>
      <trkpt lat="48.81803" lon="1.32404">
        <ele>129.3</ele>
        <time>2016-03-06T08:18:03Z</time>
      </trkpt>
      <trkpt lat="48.81794" lon="1.3241">
        <ele>129.3</ele>
        <time>2016-03-06T08:18:05Z</time>
      </trkpt>
      <trkpt lat="48.81786" lon="1.32416">
        <ele>129.2</ele>
        <time>2016-03-06T08:18:07Z</time>
      </trkpt>
      <trkpt lat="48.81777" lon="1.32422">
        <ele>129.2</ele>
        <time>2016-03-06T08:18:09Z</time>
      </trkpt>
      <trkpt lat="48.81769" lon="1.32428">
        <ele>129.1</ele>
        <time>2016-03-06T08:18:11Z</time>
      </trkpt>
      <trkpt lat="48.8176" lon="1.32436">
        <ele>129.1</ele>
        <time>2016-03-06T08:18:13Z</time>
      </trkpt>
      <trkpt lat="48.81751" lon="1.32444">
        <ele>129.1</ele>
        <time>2016-03-06T08:18:15Z</time>
      </trkpt>
      <trkpt lat="48.81743" lon="1.32453">
        <ele>129</ele>
        <time>2016-03-06T08:18:17Z</time>
      </trkpt>
      <trkpt lat="48.81734" lon="1.32462">
        <ele>129</ele>
        <time>2016-03-06T08:18:19Z</time>
      </trkpt>
      <trkpt lat="48.81726" lon="1.32471">
        <ele>129</ele>
        <time>2016-03-06T08:18:21Z</time>
      </trkpt>
      <trkpt lat="48.81718" lon="1.32481">
        <ele>129</ele>
        <time>2016-03-06T08:18:23Z</time>
      </trkpt>
      <trkpt lat="48.8171" lon="1.3249">
        <ele>129</ele>
        <time>2016-03-06T08:18:25Z</time>
      </trkpt>
      <trkpt lat="48.81702" lon="1.325">
        <ele>129</ele>
        <time>2016-03-06T08:18:27Z</time>
      </trkpt>
      <trkpt lat="48.81694" lon="1.32509">
        <ele>129</ele>
        <time>2016-03-06T08:18:29Z</time>
      </trkpt>
      <trkpt lat="48.81686" lon="1.32519">
        <ele>129</ele>
        <time>2016-03-06T08:18:31Z</time>
      </trkpt>
      <trkpt lat="48.81678" lon="1.32529">
        <ele>129</ele>
        <time>2016-03-06T08:18:33Z</time>
      </trkpt>
      <trkpt lat="48.8167" lon="1.3254">
        <ele>128.9</ele>
        <time>2016-03-06T08:18:35Z</time>
      </trkpt>
      <trkpt lat="48.81662" lon="1.32552">
        <ele>128.9</ele>
        <time>2016-03-06T08:18:37Z</time>
      </trkpt>
      <trkpt lat="48.81654" lon="1.32564">
        <ele>128.8</ele>
        <time>2016-03-06T08:18:39Z</time>
      </trkpt>
      <trkpt lat="48.81646" lon="1.32576">
        <ele>128.6</ele>
        <time>2016-03-06T08:18:41Z</time>
      </trkpt>
      <trkpt lat="48.81638" lon="1.32588">
        <ele>128.4</ele>
        <time>2016-03-06T08:18:43Z</time>
      </trkpt>
      <trkpt lat="48.81629" lon="1.32599">
        <ele>128.2</ele>
        <time>2016-03-06T08:18:45Z</time>
      </trkpt>
      <trkpt lat="48.81622" lon="1.3261">
        <ele>128.1</ele>
        <time>2016-03-06T08:18:47Z</time>
      </trkpt>
      <trkpt lat="48.81615" lon="1.32621">
        <ele>128</ele>
        <time>2016-03-06T08:18:50Z</time>
      </trkpt>
      <trkpt lat="48.81604" lon="1.32633">
        <ele>128</ele>
        <time>2016-03-06T08:18:53Z</time>
      </trkpt>
      <trkpt lat="48.81592" lon="1.32642">
        <ele>127.9</ele>
        <time>2016-03-06T08:18:56Z</time>
      </trkpt>
      <trkpt lat="48.81582" lon="1.32647">
        <ele>127.8</ele>
        <time>2016-03-06T08:18:59Z</time>
      </trkpt>
      <trkpt lat="48.81569" lon="1.32651">
        <ele>127.7</ele>
        <time>2016-03-06T08:19:03Z</time>
      </trkpt>
      <trkpt lat="48.8156" lon="1.32653">
        <ele>127.7</ele>
        <time>2016-03-06T08:19:05Z</time>
      </trkpt>
      <trkpt lat="48.81551" lon="1.32655">
        <ele>127.7</ele>
        <time>2016-03-06T08:19:07Z</time>
      </trkpt>
      <trkpt lat="48.81541" lon="1.32658">
        <ele>127.7</ele>
        <time>2016-03-06T08:19:09Z</time>
      </trkpt>
      <trkpt lat="48.81529" lon="1.32662">
        <ele>127.8</ele>
        <time>2016-03-06T08:19:12Z</time>
      </trkpt>
      <trkpt lat="48.81518" lon="1.32673">
        <ele>127.9</ele>
        <time>2016-03-06T08:19:15Z</time>
      </trkpt>
      <trkpt lat="48.81509" lon="1.32686">
        <ele>128.1</ele>
        <time>2016-03-06T08:19:18Z</time>
      </trkpt>
      <trkpt lat="48.815" lon="1.32698">
        <ele>128.3</ele>
        <time>2016-03-06T08:19:21Z</time>
      </trkpt>
      <trkpt lat="48.81492" lon="1.32706">
        <ele>128.4</ele>
        <time>2016-03-06T08:19:23Z</time>
      </trkpt>
      <trkpt lat="48.81485" lon="1.32716">
        <ele>128.6</ele>
        <time>2016-03-06T08:19:26Z</time>
      </trkpt>
      <trkpt lat="48.81475" lon="1.32727">
        <ele>128.9</ele>
        <time>2016-03-06T08:19:29Z</time>
      </trkpt>
      <trkpt lat="48.81465" lon="1.32738">
        <ele>129.2</ele>
        <time>2016-03-06T08:19:32Z</time>
      </trkpt>
      <trkpt lat="48.81456" lon="1.32749">
        <ele>129.4</ele>
        <time>2016-03-06T08:19:34Z</time>
      </trkpt>
      <trkpt lat="48.81447" lon="1.32761">
        <ele>129.6</ele>
        <time>2016-03-06T08:19:37Z</time>
      </trkpt>
      <trkpt lat="48.81438" lon="1.3277">
        <ele>129.8</ele>
        <time>2016-03-06T08:19:39Z</time>
      </trkpt>
      <trkpt lat="48.8143" lon="1.32777">
        <ele>129.9</ele>
        <time>2016-03-06T08:19:41Z</time>
      </trkpt>
      <trkpt lat="48.81421" lon="1.32785">
        <ele>130.1</ele>
        <time>2016-03-06T08:19:43Z</time>
      </trkpt>
      <trkpt lat="48.81407" lon="1.32794">
        <ele>130.3</ele>
        <time>2016-03-06T08:19:46Z</time>
      </trkpt>
      <trkpt lat="48.81396" lon="1.32799">
        <ele>130.4</ele>
        <time>2016-03-06T08:19:48Z</time>
      </trkpt>
      <trkpt lat="48.81386" lon="1.328">
        <ele>130.5</ele>
        <time>2016-03-06T08:19:50Z</time>
      </trkpt>
      <trkpt lat="48.81372" lon="1.32801">
        <ele>130.6</ele>
        <time>2016-03-06T08:19:53Z</time>
      </trkpt>
      <trkpt lat="48.81361" lon="1.32803">
        <ele>130.7</ele>
        <time>2016-03-06T08:19:55Z</time>
      </trkpt>
      <trkpt lat="48.81349" lon="1.32809">
        <ele>130.8</ele>
        <time>2016-03-06T08:19:57Z</time>
      </trkpt>
      <trkpt lat="48.81339" lon="1.32814">
        <ele>130.9</ele>
        <time>2016-03-06T08:19:59Z</time>
      </trkpt>
      <trkpt lat="48.8133" lon="1.32817">
        <ele>131</ele>
        <time>2016-03-06T08:20:01Z</time>
      </trkpt>
      <trkpt lat="48.81322" lon="1.32823">
        <ele>131.1</ele>
        <time>2016-03-06T08:20:03Z</time>
      </trkpt>
      <trkpt lat="48.81312" lon="1.3283">
        <ele>131.1</ele>
        <time>2016-03-06T08:20:05Z</time>
      </trkpt>
      <trkpt lat="48.813" lon="1.32839">
        <ele>131.2</ele>
        <time>2016-03-06T08:20:08Z</time>
      </trkpt>
      <trkpt lat="48.81285" lon="1.32849">
        <ele>131.1</ele>
        <time>2016-03-06T08:20:11Z</time>
      </trkpt>
      <trkpt lat="48.81274" lon="1.32855">
        <ele>131</ele>
        <time>2016-03-06T08:20:13Z</time>
      </trkpt>
      <trkpt lat="48.81264" lon="1.32859">
        <ele>130.9</ele>
        <time>2016-03-06T08:20:15Z</time>
      </trkpt>
      <trkpt lat="48.81254" lon="1.32861">
        <ele>130.8</ele>
        <time>2016-03-06T08:20:17Z</time>
      </trkpt>
      <trkpt lat="48.81241" lon="1.32866">
        <ele>130.7</ele>
        <time>2016-03-06T08:20:19Z</time>
      </trkpt>
      <trkpt lat="48.8123" lon="1.32868">
        <ele>130.7</ele>
        <time>2016-03-06T08:20:21Z</time>
      </trkpt>
      <trkpt lat="48.8122" lon="1.32871">
        <ele>130.6</ele>
        <time>2016-03-06T08:20:23Z</time>
      </trkpt>
      <trkpt lat="48.81208" lon="1.32877">
        <ele>130.6</ele>
        <time>2016-03-06T08:20:26Z</time>
      </trkpt>
      <trkpt lat="48.81195" lon="1.32886">
        <ele>130.5</ele>
        <time>2016-03-06T08:20:29Z</time>
      </trkpt>
      <trkpt lat="48.81185" lon="1.32893">
        <ele>130.5</ele>
        <time>2016-03-06T08:20:31Z</time>
      </trkpt>
      <trkpt lat="48.81175" lon="1.32894">
        <ele>130.5</ele>
        <time>2016-03-06T08:20:33Z</time>
      </trkpt>
      <trkpt lat="48.81164" lon="1.32893">
        <ele>130.5</ele>
        <time>2016-03-06T08:20:35Z</time>
      </trkpt>
      <trkpt lat="48.81149" lon="1.32894">
        <ele>130.5</ele>
        <time>2016-03-06T08:20:37Z</time>
      </trkpt>
      <trkpt lat="48.81139" lon="1.32897">
        <ele>130.4</ele>
        <time>2016-03-06T08:20:39Z</time>
      </trkpt>
      <trkpt lat="48.8113" lon="1.32902">
        <ele>130.4</ele>
        <time>2016-03-06T08:20:41Z</time>
      </trkpt>
      <trkpt lat="48.81116" lon="1.32902">
        <ele>130.4</ele>
        <time>2016-03-06T08:20:44Z</time>
      </trkpt>
      <trkpt lat="48.81104" lon="1.32901">
        <ele>130.4</ele>
        <time>2016-03-06T08:20:47Z</time>
      </trkpt>
      <trkpt lat="48.81093" lon="1.32902">
        <ele>130.4</ele>
        <time>2016-03-06T08:20:49Z</time>
      </trkpt>
      <trkpt lat="48.81082" lon="1.32904">
        <ele>130.4</ele>
        <time>2016-03-06T08:20:51Z</time>
      </trkpt>
      <trkpt lat="48.81072" lon="1.32905">
        <ele>130.4</ele>
        <time>2016-03-06T08:20:53Z</time>
      </trkpt>
      <trkpt lat="48.81059" lon="1.32907">
        <ele>130.5</ele>
        <time>2016-03-06T08:20:55Z</time>
      </trkpt>
      <trkpt lat="48.81048" lon="1.32907">
        <ele>130.5</ele>
        <time>2016-03-06T08:20:57Z</time>
      </trkpt>
      <trkpt lat="48.81038" lon="1.32905">
        <ele>130.5</ele>
        <time>2016-03-06T08:20:59Z</time>
      </trkpt>
      <trkpt lat="48.81026" lon="1.32905">
        <ele>130.6</ele>
        <time>2016-03-06T08:21:02Z</time>
      </trkpt>
      <trkpt lat="48.81013" lon="1.32911">
        <ele>130.6</ele>
        <time>2016-03-06T08:21:04Z</time>
      </trkpt>
      <trkpt lat="48.81005" lon="1.32916">
        <ele>130.6</ele>
        <time>2016-03-06T08:21:06Z</time>
      </trkpt>
      <trkpt lat="48.80995" lon="1.32927">
        <ele>130.8</ele>
        <time>2016-03-06T08:21:09Z</time>
      </trkpt>
      <trkpt lat="48.80988" lon="1.32937">
        <ele>130.8</ele>
        <time>2016-03-06T08:21:11Z</time>
      </trkpt>
      <trkpt lat="48.80982" lon="1.32949">
        <ele>130.9</ele>
        <time>2016-03-06T08:21:13Z</time>
      </trkpt>
      <trkpt lat="48.80975" lon="1.3296">
        <ele>130.9</ele>
        <time>2016-03-06T08:21:15Z</time>
      </trkpt>
      <trkpt lat="48.80965" lon="1.32973">
        <ele>131</ele>
        <time>2016-03-06T08:21:18Z</time>
      </trkpt>
      <trkpt lat="48.80958" lon="1.32982">
        <ele>131</ele>
        <time>2016-03-06T08:21:20Z</time>
      </trkpt>
      <trkpt lat="48.80949" lon="1.3299">
        <ele>131</ele>
        <time>2016-03-06T08:21:22Z</time>
      </trkpt>
      <trkpt lat="48.80944" lon="1.33001">
        <ele>131</ele>
        <time>2016-03-06T08:21:25Z</time>
      </trkpt>
      <trkpt lat="48.80935" lon="1.33019">
        <ele>131</ele>
        <time>2016-03-06T08:21:28Z</time>
      </trkpt>
      <trkpt lat="48.8093" lon="1.33033">
        <ele>131</ele>
        <time>2016-03-06T08:21:30Z</time>
      </trkpt>
      <trkpt lat="48.80926" lon="1.33046">
        <ele>131</ele>
        <time>2016-03-06T08:21:32Z</time>
      </trkpt>
      <trkpt lat="48.80923" lon="1.33059">
        <ele>131.1</ele>
        <time>2016-03-06T08:21:34Z</time>
      </trkpt>
      <trkpt lat="48.80919" lon="1.33073">
        <ele>131.1</ele>
        <time>2016-03-06T08:21:36Z</time>
      </trkpt>
      <trkpt lat="48.80915" lon="1.33086">
        <ele>131.1</ele>
        <time>2016-03-06T08:21:38Z</time>
      </trkpt>
      <trkpt lat="48.80907" lon="1.33098">
        <ele>131.1</ele>
        <time>2016-03-06T08:21:40Z</time>
      </trkpt>
      <trkpt lat="48.80899" lon="1.33108">
        <ele>131.2</ele>
        <time>2016-03-06T08:21:42Z</time>
      </trkpt>
      <trkpt lat="48.80886" lon="1.3312">
        <ele>131.2</ele>
        <time>2016-03-06T08:21:44Z</time>
      </trkpt>
      <trkpt lat="48.80874" lon="1.33128">
        <ele>131.3</ele>
        <time>2016-03-06T08:21:46Z</time>
      </trkpt>
      <trkpt lat="48.80863" lon="1.33136">
        <ele>131.2</ele>
        <time>2016-03-06T08:21:48Z</time>
      </trkpt>
      <trkpt lat="48.80849" lon="1.33137">
        <ele>131.2</ele>
        <time>2016-03-06T08:21:51Z</time>
      </trkpt>
      <trkpt lat="48.80839" lon="1.33137">
        <ele>131.2</ele>
        <time>2016-03-06T08:21:53Z</time>
      </trkpt>
      <trkpt lat="48.80827" lon="1.33137">
        <ele>131.2</ele>
        <time>2016-03-06T08:21:55Z</time>
      </trkpt>
      <trkpt lat="48.80817" lon="1.33135">
        <ele>131.1</ele>
        <time>2016-03-06T08:21:57Z</time>
      </trkpt>
      <trkpt lat="48.80805" lon="1.33132">
        <ele>131</ele>
        <time>2016-03-06T08:22:00Z</time>
      </trkpt>
      <trkpt lat="48.80794" lon="1.33129">
        <ele>130.9</ele>
        <time>2016-03-06T08:22:03Z</time>
      </trkpt>
      <trkpt lat="48.80781" lon="1.33133">
        <ele>130.8</ele>
        <time>2016-03-06T08:22:05Z</time>
      </trkpt>
      <trkpt lat="48.80769" lon="1.33136">
        <ele>130.7</ele>
        <time>2016-03-06T08:22:07Z</time>
      </trkpt>
      <trkpt lat="48.80758" lon="1.33138">
        <ele>130.6</ele>
        <time>2016-03-06T08:22:09Z</time>
      </trkpt>
      <trkpt lat="48.80749" lon="1.33136">
        <ele>130.6</ele>
        <time>2016-03-06T08:22:11Z</time>
      </trkpt>
      <trkpt lat="48.80738" lon="1.33132">
        <ele>130.5</ele>
        <time>2016-03-06T08:22:13Z</time>
      </trkpt>
      <trkpt lat="48.80728" lon="1.33131">
        <ele>130.4</ele>
        <time>2016-03-06T08:22:15Z</time>
      </trkpt>
      <trkpt lat="48.80718" lon="1.33131">
        <ele>130.2</ele>
        <time>2016-03-06T08:22:17Z</time>
      </trkpt>
      <trkpt lat="48.80708" lon="1.3313">
        <ele>129.8</ele>
        <time>2016-03-06T08:22:25Z</time>
      </trkpt>
      <trkpt lat="48.80719" lon="1.33134">
        <ele>129.4</ele>
        <time>2016-03-06T08:22:40Z</time>
      </trkpt>
      <trkpt lat="48.8073" lon="1.33136">
        <ele>129.3</ele>
        <time>2016-03-06T08:22:45Z</time>
      </trkpt>
      <trkpt lat="48.80739" lon="1.33135">
        <ele>129.4</ele>
        <time>2016-03-06T08:23:29Z</time>
      </trkpt>
      <trkpt lat="48.80748" lon="1.33138">
        <ele>128.8</ele>
        <time>2016-03-06T08:30:47Z</time>
      </trkpt>
      <trkpt lat="48.80739" lon="1.33137">
        <ele>128.6</ele>
        <time>2016-03-06T08:32:47Z</time>
      </trkpt>
      <trkpt lat="48.80729" lon="1.33134">
        <ele>129.2</ele>
        <time>2016-03-06T08:34:27Z</time>
      </trkpt>
      <trkpt lat="48.8072" lon="1.33134">
        <ele>129.2</ele>
        <time>2016-03-06T08:34:31Z</time>
      </trkpt>
      <trkpt lat="48.80708" lon="1.33132">
        <ele>129.2</ele>
        <time>2016-03-06T08:34:35Z</time>
      </trkpt>
      <trkpt lat="48.80698" lon="1.33133">
        <ele>129.2</ele>
        <time>2016-03-06T08:34:38Z</time>
      </trkpt>
      <trkpt lat="48.80687" lon="1.33133">
        <ele>129.2</ele>
        <time>2016-03-06T08:34:41Z</time>
      </trkpt>
      <trkpt lat="48.80676" lon="1.3313">
        <ele>129.2</ele>
        <time>2016-03-06T08:34:44Z</time>
      </trkpt>
      <trkpt lat="48.80664" lon="1.33126">
        <ele>129.2</ele>
        <time>2016-03-06T08:34:47Z</time>
      </trkpt>
      <trkpt lat="48.80652" lon="1.3312">
        <ele>129.2</ele>
        <time>2016-03-06T08:34:50Z</time>
      </trkpt>
      <trkpt lat="48.80641" lon="1.33113">
        <ele>129.2</ele>
        <time>2016-03-06T08:34:53Z</time>
      </trkpt>
      <trkpt lat="48.80631" lon="1.33108">
        <ele>129.1</ele>
        <time>2016-03-06T08:34:56Z</time>
      </trkpt>
      <trkpt lat="48.80621" lon="1.33109">
        <ele>129.1</ele>
        <time>2016-03-06T08:34:58Z</time>
      </trkpt>
      <trkpt lat="48.8061" lon="1.33114">
        <ele>129</ele>
        <time>2016-03-06T08:35:01Z</time>
      </trkpt>
      <trkpt lat="48.80599" lon="1.33119">
        <ele>129</ele>
        <time>2016-03-06T08:35:05Z</time>
      </trkpt>
      <trkpt lat="48.80587" lon="1.33123">
        <ele>129</ele>
        <time>2016-03-06T08:35:08Z</time>
      </trkpt>
      <trkpt lat="48.80576" lon="1.33127">
        <ele>128.9</ele>
        <time>2016-03-06T08:35:11Z</time>
      </trkpt>
      <trkpt lat="48.80565" lon="1.33129">
        <ele>128.9</ele>
        <time>2016-03-06T08:35:15Z</time>
      </trkpt>
      <trkpt lat="48.80554" lon="1.33135">
        <ele>128.9</ele>
        <time>2016-03-06T08:35:19Z</time>
      </trkpt>
      <trkpt lat="48.80545" lon="1.33144">
        <ele>128.9</ele>
        <time>2016-03-06T08:35:23Z</time>
      </trkpt>
      <trkpt lat="48.80532" lon="1.3315">
        <ele>128.9</ele>
        <time>2016-03-06T08:35:26Z</time>
      </trkpt>
      <trkpt lat="48.80524" lon="1.33155">
        <ele>129</ele>
        <time>2016-03-06T08:35:29Z</time>
      </trkpt>
      <trkpt lat="48.80514" lon="1.33162">
        <ele>129.1</ele>
        <time>2016-03-06T08:35:32Z</time>
      </trkpt>
      <trkpt lat="48.80504" lon="1.33169">
        <ele>129.3</ele>
        <time>2016-03-06T08:35:36Z</time>
      </trkpt>
      <trkpt lat="48.80493" lon="1.33177">
        <ele>129.4</ele>
        <time>2016-03-06T08:35:40Z</time>
      </trkpt>
      <trkpt lat="48.80484" lon="1.33184">
        <ele>129.5</ele>
        <time>2016-03-06T08:35:43Z</time>
      </trkpt>
      <trkpt lat="48.80474" lon="1.33192">
        <ele>129.5</ele>
        <time>2016-03-06T08:35:46Z</time>
      </trkpt>
      <trkpt lat="48.80464" lon="1.332">
        <ele>129.6</ele>
        <time>2016-03-06T08:35:49Z</time>
      </trkpt>
      <trkpt lat="48.80456" lon="1.33208">
        <ele>129.6</ele>
        <time>2016-03-06T08:35:52Z</time>
      </trkpt>
      <trkpt lat="48.80444" lon="1.33214">
        <ele>129.6</ele>
        <time>2016-03-06T08:35:56Z</time>
      </trkpt>
      <trkpt lat="48.80433" lon="1.3322">
        <ele>129.7</ele>
        <time>2016-03-06T08:35:59Z</time>
      </trkpt>
      <trkpt lat="48.80425" lon="1.33228">
        <ele>129.7</ele>
        <time>2016-03-06T08:36:03Z</time>
      </trkpt>
      <trkpt lat="48.80418" lon="1.3324">
        <ele>129.7</ele>
        <time>2016-03-06T08:36:06Z</time>
      </trkpt>
      <trkpt lat="48.8041" lon="1.33256">
        <ele>129.7</ele>
        <time>2016-03-06T08:36:09Z</time>
      </trkpt>
      <trkpt lat="48.80405" lon="1.33268">
        <ele>129.8</ele>
        <time>2016-03-06T08:36:11Z</time>
      </trkpt>
      <trkpt lat="48.804" lon="1.33279">
        <ele>129.9</ele>
        <time>2016-03-06T08:36:13Z</time>
      </trkpt>
      <trkpt lat="48.80391" lon="1.33296">
        <ele>129.9</ele>
        <time>2016-03-06T08:36:16Z</time>
      </trkpt>
      <trkpt lat="48.80383" lon="1.33311">
        <ele>130</ele>
        <time>2016-03-06T08:36:19Z</time>
      </trkpt>
      <trkpt lat="48.80376" lon="1.33325">
        <ele>130</ele>
        <time>2016-03-06T08:36:21Z</time>
      </trkpt>
      <trkpt lat="48.80371" lon="1.33337">
        <ele>130.1</ele>
        <time>2016-03-06T08:36:23Z</time>
      </trkpt>
      <trkpt lat="48.80365" lon="1.33354">
        <ele>130.2</ele>
        <time>2016-03-06T08:36:26Z</time>
      </trkpt>
      <trkpt lat="48.80358" lon="1.33365">
        <ele>130.3</ele>
        <time>2016-03-06T08:36:28Z</time>
      </trkpt>
      <trkpt lat="48.8035" lon="1.33374">
        <ele>130.4</ele>
        <time>2016-03-06T08:36:30Z</time>
      </trkpt>
      <trkpt lat="48.80341" lon="1.3338">
        <ele>130.5</ele>
        <time>2016-03-06T08:36:32Z</time>
      </trkpt>
      <trkpt lat="48.80329" lon="1.33386">
        <ele>130.7</ele>
        <time>2016-03-06T08:36:35Z</time>
      </trkpt>
      <trkpt lat="48.80317" lon="1.33394">
        <ele>130.8</ele>
        <time>2016-03-06T08:36:38Z</time>
      </trkpt>
      <trkpt lat="48.80308" lon="1.334">
        <ele>130.9</ele>
        <time>2016-03-06T08:36:40Z</time>
      </trkpt>
      <trkpt lat="48.80299" lon="1.33405">
        <ele>131</ele>
        <time>2016-03-06T08:36:42Z</time>
      </trkpt>
      <trkpt lat="48.80289" lon="1.33412">
        <ele>131</ele>
        <time>2016-03-06T08:36:44Z</time>
      </trkpt>
      <trkpt lat="48.80276" lon="1.33416">
        <ele>131.1</ele>
        <time>2016-03-06T08:36:47Z</time>
      </trkpt>
      <trkpt lat="48.80263" lon="1.33423">
        <ele>131.2</ele>
        <time>2016-03-06T08:36:50Z</time>
      </trkpt>
      <trkpt lat="48.80251" lon="1.33428">
        <ele>131.3</ele>
        <time>2016-03-06T08:36:53Z</time>
      </trkpt>
      <trkpt lat="48.80241" lon="1.33433">
        <ele>131.3</ele>
        <time>2016-03-06T08:36:56Z</time>
      </trkpt>
      <trkpt lat="48.80232" lon="1.33438">
        <ele>131.3</ele>
        <time>2016-03-06T08:36:58Z</time>
      </trkpt>
      <trkpt lat="48.80222" lon="1.33443">
        <ele>131.4</ele>
        <time>2016-03-06T08:37:00Z</time>
      </trkpt>
      <trkpt lat="48.80213" lon="1.33447">
        <ele>131.5</ele>
        <time>2016-03-06T08:37:02Z</time>
      </trkpt>
      <trkpt lat="48.80204" lon="1.33453">
        <ele>131.6</ele>
        <time>2016-03-06T08:37:04Z</time>
      </trkpt>
      <trkpt lat="48.80195" lon="1.33462">
        <ele>131.7</ele>
        <time>2016-03-06T08:37:06Z</time>
      </trkpt>
      <trkpt lat="48.80186" lon="1.3347">
        <ele>131.7</ele>
        <time>2016-03-06T08:37:08Z</time>
      </trkpt>
      <trkpt lat="48.80176" lon="1.33479">
        <ele>131.8</ele>
        <time>2016-03-06T08:37:10Z</time>
      </trkpt>
      <trkpt lat="48.80168" lon="1.33489">
        <ele>131.8</ele>
        <time>2016-03-06T08:37:12Z</time>
      </trkpt>
      <trkpt lat="48.8016" lon="1.335">
        <ele>131.9</ele>
        <time>2016-03-06T08:37:14Z</time>
      </trkpt>
      <trkpt lat="48.80153" lon="1.33511">
        <ele>131.9</ele>
        <time>2016-03-06T08:37:16Z</time>
      </trkpt>
      <trkpt lat="48.80148" lon="1.33522">
        <ele>131.9</ele>
        <time>2016-03-06T08:37:18Z</time>
      </trkpt>
      <trkpt lat="48.80141" lon="1.33534">
        <ele>132</ele>
        <time>2016-03-06T08:37:20Z</time>
      </trkpt>
      <trkpt lat="48.80136" lon="1.33546">
        <ele>132</ele>
        <time>2016-03-06T08:37:22Z</time>
      </trkpt>
      <trkpt lat="48.80129" lon="1.33558">
        <ele>132</ele>
        <time>2016-03-06T08:37:24Z</time>
      </trkpt>
      <trkpt lat="48.80124" lon="1.33571">
        <ele>132</ele>
        <time>2016-03-06T08:37:26Z</time>
      </trkpt>
      <trkpt lat="48.80117" lon="1.33589">
        <ele>131.9</ele>
        <time>2016-03-06T08:37:29Z</time>
      </trkpt>
      <trkpt lat="48.8011" lon="1.33604">
        <ele>131.8</ele>
        <time>2016-03-06T08:37:31Z</time>
      </trkpt>
      <trkpt lat="48.80103" lon="1.33616">
        <ele>131.8</ele>
        <time>2016-03-06T08:37:33Z</time>
      </trkpt>
      <trkpt lat="48.80096" lon="1.33627">
        <ele>131.7</ele>
        <time>2016-03-06T08:37:35Z</time>
      </trkpt>
      <trkpt lat="48.80089" lon="1.3364">
        <ele>131.7</ele>
        <time>2016-03-06T08:37:37Z</time>
      </trkpt>
      <trkpt lat="48.80084" lon="1.33652">
        <ele>131.6</ele>
        <time>2016-03-06T08:37:39Z</time>
      </trkpt>
      <trkpt lat="48.80077" lon="1.33668">
        <ele>131.6</ele>
        <time>2016-03-06T08:37:42Z</time>
      </trkpt>
      <trkpt lat="48.80072" lon="1.33681">
        <ele>131.5</ele>
        <time>2016-03-06T08:37:44Z</time>
      </trkpt>
      <trkpt lat="48.8007" lon="1.337">
        <ele>131.2</ele>
        <time>2016-03-06T08:37:47Z</time>
      </trkpt>
      <trkpt lat="48.80068" lon="1.33714">
        <ele>131.1</ele>
        <time>2016-03-06T08:37:49Z</time>
      </trkpt>
      <trkpt lat="48.80066" lon="1.33728">
        <ele>130.9</ele>
        <time>2016-03-06T08:37:51Z</time>
      </trkpt>
      <trkpt lat="48.80063" lon="1.33742">
        <ele>130.8</ele>
        <time>2016-03-06T08:37:53Z</time>
      </trkpt>
      <trkpt lat="48.80061" lon="1.33759">
        <ele>130.7</ele>
        <time>2016-03-06T08:37:55Z</time>
      </trkpt>
      <trkpt lat="48.80059" lon="1.33777">
        <ele>130.6</ele>
        <time>2016-03-06T08:37:57Z</time>
      </trkpt>
      <trkpt lat="48.80058" lon="1.33795">
        <ele>130.4</ele>
        <time>2016-03-06T08:37:59Z</time>
      </trkpt>
      <trkpt lat="48.80059" lon="1.33811">
        <ele>130.3</ele>
        <time>2016-03-06T08:38:01Z</time>
      </trkpt>
      <trkpt lat="48.80061" lon="1.3383">
        <ele>130.1</ele>
        <time>2016-03-06T08:38:03Z</time>
      </trkpt>
      <trkpt lat="48.80063" lon="1.33847">
        <ele>129.8</ele>
        <time>2016-03-06T08:38:05Z</time>
      </trkpt>
      <trkpt lat="48.80064" lon="1.33865">
        <ele>129.5</ele>
        <time>2016-03-06T08:38:08Z</time>
      </trkpt>
      <trkpt lat="48.80065" lon="1.33883">
        <ele>129.2</ele>
        <time>2016-03-06T08:38:11Z</time>
      </trkpt>
      <trkpt lat="48.80067" lon="1.33897">
        <ele>129</ele>
        <time>2016-03-06T08:38:13Z</time>
      </trkpt>
      <trkpt lat="48.8007" lon="1.33916">
        <ele>128.8</ele>
        <time>2016-03-06T08:38:16Z</time>
      </trkpt>
      <trkpt lat="48.80069" lon="1.3393">
        <ele>128.7</ele>
        <time>2016-03-06T08:38:18Z</time>
      </trkpt>
      <trkpt lat="48.80067" lon="1.33944">
        <ele>128.5</ele>
        <time>2016-03-06T08:38:20Z</time>
      </trkpt>
      <trkpt lat="48.80064" lon="1.33959">
        <ele>128.4</ele>
        <time>2016-03-06T08:38:22Z</time>
      </trkpt>
      <trkpt lat="48.80061" lon="1.33974">
        <ele>128.2</ele>
        <time>2016-03-06T08:38:24Z</time>
      </trkpt>
      <trkpt lat="48.80059" lon="1.3399">
        <ele>128.1</ele>
        <time>2016-03-06T08:38:26Z</time>
      </trkpt>
      <trkpt lat="48.80057" lon="1.34005">
        <ele>127.9</ele>
        <time>2016-03-06T08:38:28Z</time>
      </trkpt>
      <trkpt lat="48.80058" lon="1.3402">
        <ele>127.8</ele>
        <time>2016-03-06T08:38:30Z</time>
      </trkpt>
      <trkpt lat="48.80059" lon="1.34037">
        <ele>127.7</ele>
        <time>2016-03-06T08:38:32Z</time>
      </trkpt>
      <trkpt lat="48.80059" lon="1.34054">
        <ele>127.6</ele>
        <time>2016-03-06T08:38:34Z</time>
      </trkpt>
      <trkpt lat="48.80058" lon="1.34071">
        <ele>127.6</ele>
        <time>2016-03-06T08:38:36Z</time>
      </trkpt>
      <trkpt lat="48.80059" lon="1.34087">
        <ele>127.4</ele>
        <time>2016-03-06T08:38:38Z</time>
      </trkpt>
      <trkpt lat="48.8006" lon="1.34109">
        <ele>127.2</ele>
        <time>2016-03-06T08:38:41Z</time>
      </trkpt>
      <trkpt lat="48.80058" lon="1.34131">
        <ele>127</ele>
        <time>2016-03-06T08:38:43Z</time>
      </trkpt>
      <trkpt lat="48.80059" lon="1.34148">
        <ele>126.9</ele>
        <time>2016-03-06T08:38:45Z</time>
      </trkpt>
      <trkpt lat="48.80061" lon="1.34168">
        <ele>126.8</ele>
        <time>2016-03-06T08:38:47Z</time>
      </trkpt>
      <trkpt lat="48.80061" lon="1.34185">
        <ele>126.7</ele>
        <time>2016-03-06T08:38:49Z</time>
      </trkpt>
      <trkpt lat="48.80062" lon="1.34201">
        <ele>126.6</ele>
        <time>2016-03-06T08:38:51Z</time>
      </trkpt>
      <trkpt lat="48.80062" lon="1.34219">
        <ele>126.5</ele>
        <time>2016-03-06T08:38:53Z</time>
      </trkpt>
      <trkpt lat="48.80063" lon="1.3424">
        <ele>126.4</ele>
        <time>2016-03-06T08:38:55Z</time>
      </trkpt>
      <trkpt lat="48.80065" lon="1.34257">
        <ele>126.4</ele>
        <time>2016-03-06T08:38:57Z</time>
      </trkpt>
      <trkpt lat="48.80065" lon="1.34275">
        <ele>126.2</ele>
        <time>2016-03-06T08:38:59Z</time>
      </trkpt>
      <trkpt lat="48.80064" lon="1.34294">
        <ele>126.1</ele>
        <time>2016-03-06T08:39:01Z</time>
      </trkpt>
      <trkpt lat="48.80063" lon="1.34312">
        <ele>125.9</ele>
        <time>2016-03-06T08:39:03Z</time>
      </trkpt>
      <trkpt lat="48.80059" lon="1.34331">
        <ele>125.5</ele>
        <time>2016-03-06T08:39:05Z</time>
      </trkpt>
      <trkpt lat="48.80055" lon="1.34348">
        <ele>125.1</ele>
        <time>2016-03-06T08:39:07Z</time>
      </trkpt>
      <trkpt lat="48.80051" lon="1.34365">
        <ele>124.6</ele>
        <time>2016-03-06T08:39:09Z</time>
      </trkpt>
      <trkpt lat="48.80046" lon="1.34382">
        <ele>124.1</ele>
        <time>2016-03-06T08:39:11Z</time>
      </trkpt>
      <trkpt lat="48.80042" lon="1.344">
        <ele>123.5</ele>
        <time>2016-03-06T08:39:13Z</time>
      </trkpt>
      <trkpt lat="48.80038" lon="1.34417">
        <ele>123</ele>
        <time>2016-03-06T08:39:15Z</time>
      </trkpt>
      <trkpt lat="48.80033" lon="1.34434">
        <ele>122.4</ele>
        <time>2016-03-06T08:39:17Z</time>
      </trkpt>
      <trkpt lat="48.80029" lon="1.34452">
        <ele>121.7</ele>
        <time>2016-03-06T08:39:19Z</time>
      </trkpt>
      <trkpt lat="48.80024" lon="1.3447">
        <ele>121</ele>
        <time>2016-03-06T08:39:21Z</time>
      </trkpt>
      <trkpt lat="48.80019" lon="1.34488">
        <ele>120.1</ele>
        <time>2016-03-06T08:39:23Z</time>
      </trkpt>
      <trkpt lat="48.80015" lon="1.34507">
        <ele>119.2</ele>
        <time>2016-03-06T08:39:25Z</time>
      </trkpt>
      <trkpt lat="48.8001" lon="1.34523">
        <ele>118.3</ele>
        <time>2016-03-06T08:39:27Z</time>
      </trkpt>
      <trkpt lat="48.80007" lon="1.34538">
        <ele>116.9</ele>
        <time>2016-03-06T08:39:30Z</time>
      </trkpt>
      <trkpt lat="48.80003" lon="1.34553">
        <ele>115.6</ele>
        <time>2016-03-06T08:39:33Z</time>
      </trkpt>
      <trkpt lat="48.79999" lon="1.34569">
        <ele>114.4</ele>
        <time>2016-03-06T08:39:36Z</time>
      </trkpt>
      <trkpt lat="48.79996" lon="1.34584">
        <ele>113.6</ele>
        <time>2016-03-06T08:39:38Z</time>
      </trkpt>
      <trkpt lat="48.79992" lon="1.34597">
        <ele>112.7</ele>
        <time>2016-03-06T08:39:40Z</time>
      </trkpt>
      <trkpt lat="48.79989" lon="1.34616">
        <ele>111.5</ele>
        <time>2016-03-06T08:39:43Z</time>
      </trkpt>
      <trkpt lat="48.79992" lon="1.3463">
        <ele>110.6</ele>
        <time>2016-03-06T08:39:45Z</time>
      </trkpt>
      <trkpt lat="48.79998" lon="1.34645">
        <ele>109.6</ele>
        <time>2016-03-06T08:39:47Z</time>
      </trkpt>
      <trkpt lat="48.80003" lon="1.34659">
        <ele>108.4</ele>
        <time>2016-03-06T08:39:49Z</time>
      </trkpt>
      <trkpt lat="48.80008" lon="1.34673">
        <ele>107.1</ele>
        <time>2016-03-06T08:39:51Z</time>
      </trkpt>
      <trkpt lat="48.80012" lon="1.34687">
        <ele>105.8</ele>
        <time>2016-03-06T08:39:53Z</time>
      </trkpt>
      <trkpt lat="48.80018" lon="1.34703">
        <ele>103.7</ele>
        <time>2016-03-06T08:39:56Z</time>
      </trkpt>
      <trkpt lat="48.80022" lon="1.34717">
        <ele>102.3</ele>
        <time>2016-03-06T08:39:58Z</time>
      </trkpt>
      <trkpt lat="48.80027" lon="1.34732">
        <ele>100.9</ele>
        <time>2016-03-06T08:40:00Z</time>
      </trkpt>
      <trkpt lat="48.80032" lon="1.34747">
        <ele>99.4</ele>
        <time>2016-03-06T08:40:02Z</time>
      </trkpt>
      <trkpt lat="48.80037" lon="1.34762">
        <ele>97.9</ele>
        <time>2016-03-06T08:40:04Z</time>
      </trkpt>
      <trkpt lat="48.80042" lon="1.34775">
        <ele>96.5</ele>
        <time>2016-03-06T08:40:06Z</time>
      </trkpt>
      <trkpt lat="48.80047" lon="1.34788">
        <ele>95</ele>
        <time>2016-03-06T08:40:08Z</time>
      </trkpt>
      <trkpt lat="48.80052" lon="1.34803">
        <ele>93.5</ele>
        <time>2016-03-06T08:40:10Z</time>
      </trkpt>
      <trkpt lat="48.80057" lon="1.3482">
        <ele>92.1</ele>
        <time>2016-03-06T08:40:12Z</time>
      </trkpt>
      <trkpt lat="48.80062" lon="1.34837">
        <ele>90.9</ele>
        <time>2016-03-06T08:40:14Z</time>
      </trkpt>
      <trkpt lat="48.80065" lon="1.34852">
        <ele>89.6</ele>
        <time>2016-03-06T08:40:16Z</time>
      </trkpt>
      <trkpt lat="48.8006" lon="1.34868">
        <ele>88</ele>
        <time>2016-03-06T08:40:19Z</time>
      </trkpt>
      <trkpt lat="48.80052" lon="1.34881">
        <ele>86.3</ele>
        <time>2016-03-06T08:40:22Z</time>
      </trkpt>
      <trkpt lat="48.80045" lon="1.34891">
        <ele>85.5</ele>
        <time>2016-03-06T08:40:24Z</time>
      </trkpt>
      <trkpt lat="48.80039" lon="1.34902">
        <ele>84.7</ele>
        <time>2016-03-06T08:40:26Z</time>
      </trkpt>
      <trkpt lat="48.80032" lon="1.34913">
        <ele>84</ele>
        <time>2016-03-06T08:40:28Z</time>
      </trkpt>
      <trkpt lat="48.80025" lon="1.34925">
        <ele>83.3</ele>
        <time>2016-03-06T08:40:30Z</time>
      </trkpt>
      <trkpt lat="48.80018" lon="1.34936">
        <ele>82.8</ele>
        <time>2016-03-06T08:40:32Z</time>
      </trkpt>
      <trkpt lat="48.8001" lon="1.34948">
        <ele>82.3</ele>
        <time>2016-03-06T08:40:34Z</time>
      </trkpt>
      <trkpt lat="48.80003" lon="1.34959">
        <ele>81.9</ele>
        <time>2016-03-06T08:40:36Z</time>
      </trkpt>
      <trkpt lat="48.79996" lon="1.3497">
        <ele>81.5</ele>
        <time>2016-03-06T08:40:38Z</time>
      </trkpt>
      <trkpt lat="48.79989" lon="1.34981">
        <ele>81.1</ele>
        <time>2016-03-06T08:40:40Z</time>
      </trkpt>
      <trkpt lat="48.79982" lon="1.34992">
        <ele>80.8</ele>
        <time>2016-03-06T08:40:42Z</time>
      </trkpt>
      <trkpt lat="48.79975" lon="1.35004">
        <ele>80.6</ele>
        <time>2016-03-06T08:40:44Z</time>
      </trkpt>
      <trkpt lat="48.79967" lon="1.35016">
        <ele>80.3</ele>
        <time>2016-03-06T08:40:46Z</time>
      </trkpt>
      <trkpt lat="48.79959" lon="1.35028">
        <ele>80</ele>
        <time>2016-03-06T08:40:48Z</time>
      </trkpt>
      <trkpt lat="48.79952" lon="1.3504">
        <ele>79.7</ele>
        <time>2016-03-06T08:40:50Z</time>
      </trkpt>
      <trkpt lat="48.79944" lon="1.35052">
        <ele>79.5</ele>
        <time>2016-03-06T08:40:52Z</time>
      </trkpt>
      <trkpt lat="48.79936" lon="1.35063">
        <ele>79.2</ele>
        <time>2016-03-06T08:40:54Z</time>
      </trkpt>
      <trkpt lat="48.79928" lon="1.35075">
        <ele>79</ele>
        <time>2016-03-06T08:40:56Z</time>
      </trkpt>
      <trkpt lat="48.79921" lon="1.35087">
        <ele>78.8</ele>
        <time>2016-03-06T08:40:58Z</time>
      </trkpt>
      <trkpt lat="48.79913" lon="1.35098">
        <ele>78.6</ele>
        <time>2016-03-06T08:41:00Z</time>
      </trkpt>
      <trkpt lat="48.79906" lon="1.35109">
        <ele>78.4</ele>
        <time>2016-03-06T08:41:02Z</time>
      </trkpt>
      <trkpt lat="48.79899" lon="1.3512">
        <ele>78.3</ele>
        <time>2016-03-06T08:41:04Z</time>
      </trkpt>
      <trkpt lat="48.79892" lon="1.35131">
        <ele>78.1</ele>
        <time>2016-03-06T08:41:06Z</time>
      </trkpt>
      <trkpt lat="48.79885" lon="1.35141">
        <ele>78</ele>
        <time>2016-03-06T08:41:08Z</time>
      </trkpt>
      <trkpt lat="48.79877" lon="1.35152">
        <ele>77.9</ele>
        <time>2016-03-06T08:41:10Z</time>
      </trkpt>
      <trkpt lat="48.7987" lon="1.35164">
        <ele>77.8</ele>
        <time>2016-03-06T08:41:12Z</time>
      </trkpt>
      <trkpt lat="48.79862" lon="1.35175">
        <ele>77.7</ele>
        <time>2016-03-06T08:41:14Z</time>
      </trkpt>
      <trkpt lat="48.79854" lon="1.35186">
        <ele>77.7</ele>
        <time>2016-03-06T08:41:16Z</time>
      </trkpt>
      <trkpt lat="48.79847" lon="1.35197">
        <ele>77.6</ele>
        <time>2016-03-06T08:41:18Z</time>
      </trkpt>
      <trkpt lat="48.79839" lon="1.3521">
        <ele>77.6</ele>
        <time>2016-03-06T08:41:20Z</time>
      </trkpt>
      <trkpt lat="48.79831" lon="1.35222">
        <ele>77.5</ele>
        <time>2016-03-06T08:41:22Z</time>
      </trkpt>
      <trkpt lat="48.79824" lon="1.35234">
        <ele>77.5</ele>
        <time>2016-03-06T08:41:24Z</time>
      </trkpt>
      <trkpt lat="48.79815" lon="1.35248">
        <ele>77.3</ele>
        <time>2016-03-06T08:41:26Z</time>
      </trkpt>
      <trkpt lat="48.79807" lon="1.3526">
        <ele>77.1</ele>
        <time>2016-03-06T08:41:28Z</time>
      </trkpt>
      <trkpt lat="48.79799" lon="1.35273">
        <ele>77</ele>
        <time>2016-03-06T08:41:30Z</time>
      </trkpt>
      <trkpt lat="48.79791" lon="1.35285">
        <ele>77</ele>
        <time>2016-03-06T08:41:32Z</time>
      </trkpt>
      <trkpt lat="48.79783" lon="1.35297">
        <ele>76.9</ele>
        <time>2016-03-06T08:41:34Z</time>
      </trkpt>
      <trkpt lat="48.79775" lon="1.35308">
        <ele>76.9</ele>
        <time>2016-03-06T08:41:36Z</time>
      </trkpt>
      <trkpt lat="48.79768" lon="1.35319">
        <ele>76.8</ele>
        <time>2016-03-06T08:41:38Z</time>
      </trkpt>
      <trkpt lat="48.79761" lon="1.35329">
        <ele>76.7</ele>
        <time>2016-03-06T08:41:40Z</time>
      </trkpt>
      <trkpt lat="48.79755" lon="1.35339">
        <ele>76.6</ele>
        <time>2016-03-06T08:41:42Z</time>
      </trkpt>
      <trkpt lat="48.79748" lon="1.35349">
        <ele>76.5</ele>
        <time>2016-03-06T08:41:44Z</time>
      </trkpt>
      <trkpt lat="48.79741" lon="1.35358">
        <ele>76.4</ele>
        <time>2016-03-06T08:41:46Z</time>
      </trkpt>
      <trkpt lat="48.79734" lon="1.35368">
        <ele>76.3</ele>
        <time>2016-03-06T08:41:48Z</time>
      </trkpt>
      <trkpt lat="48.79727" lon="1.3538">
        <ele>76.3</ele>
        <time>2016-03-06T08:41:50Z</time>
      </trkpt>
      <trkpt lat="48.79719" lon="1.35391">
        <ele>76.2</ele>
        <time>2016-03-06T08:41:52Z</time>
      </trkpt>
      <trkpt lat="48.79712" lon="1.35402">
        <ele>76.1</ele>
        <time>2016-03-06T08:41:54Z</time>
      </trkpt>
      <trkpt lat="48.79704" lon="1.35413">
        <ele>76.1</ele>
        <time>2016-03-06T08:41:56Z</time>
      </trkpt>
      <trkpt lat="48.79696" lon="1.35424">
        <ele>76.1</ele>
        <time>2016-03-06T08:41:58Z</time>
      </trkpt>
      <trkpt lat="48.79689" lon="1.35435">
        <ele>76</ele>
        <time>2016-03-06T08:42:00Z</time>
      </trkpt>
      <trkpt lat="48.79682" lon="1.35447">
        <ele>76</ele>
        <time>2016-03-06T08:42:02Z</time>
      </trkpt>
      <trkpt lat="48.79674" lon="1.35458">
        <ele>75.9</ele>
        <time>2016-03-06T08:42:04Z</time>
      </trkpt>
      <trkpt lat="48.79667" lon="1.35471">
        <ele>75.9</ele>
        <time>2016-03-06T08:42:06Z</time>
      </trkpt>
      <trkpt lat="48.7966" lon="1.35483">
        <ele>75.8</ele>
        <time>2016-03-06T08:42:08Z</time>
      </trkpt>
      <trkpt lat="48.79652" lon="1.35494">
        <ele>75.8</ele>
        <time>2016-03-06T08:42:10Z</time>
      </trkpt>
      <trkpt lat="48.79645" lon="1.35506">
        <ele>75.7</ele>
        <time>2016-03-06T08:42:12Z</time>
      </trkpt>
      <trkpt lat="48.79637" lon="1.35518">
        <ele>75.7</ele>
        <time>2016-03-06T08:42:14Z</time>
      </trkpt>
      <trkpt lat="48.7963" lon="1.35529">
        <ele>75.6</ele>
        <time>2016-03-06T08:42:16Z</time>
      </trkpt>
      <trkpt lat="48.79622" lon="1.35541">
        <ele>75.6</ele>
        <time>2016-03-06T08:42:18Z</time>
      </trkpt>
      <trkpt lat="48.79615" lon="1.35552">
        <ele>75.6</ele>
        <time>2016-03-06T08:42:20Z</time>
      </trkpt>
      <trkpt lat="48.79607" lon="1.35564">
        <ele>75.6</ele>
        <time>2016-03-06T08:42:22Z</time>
      </trkpt>
      <trkpt lat="48.796" lon="1.35575">
        <ele>75.5</ele>
        <time>2016-03-06T08:42:24Z</time>
      </trkpt>
      <trkpt lat="48.79593" lon="1.35586">
        <ele>75.5</ele>
        <time>2016-03-06T08:42:26Z</time>
      </trkpt>
      <trkpt lat="48.79585" lon="1.35596">
        <ele>75.5</ele>
        <time>2016-03-06T08:42:28Z</time>
      </trkpt>
      <trkpt lat="48.79578" lon="1.35608">
        <ele>75.5</ele>
        <time>2016-03-06T08:42:30Z</time>
      </trkpt>
      <trkpt lat="48.79572" lon="1.35619">
        <ele>75.4</ele>
        <time>2016-03-06T08:42:32Z</time>
      </trkpt>
      <trkpt lat="48.79565" lon="1.3563">
        <ele>75.4</ele>
        <time>2016-03-06T08:42:34Z</time>
      </trkpt>
      <trkpt lat="48.79557" lon="1.35644">
        <ele>75.3</ele>
        <time>2016-03-06T08:42:37Z</time>
      </trkpt>
      <trkpt lat="48.79551" lon="1.35655">
        <ele>75.3</ele>
        <time>2016-03-06T08:42:39Z</time>
      </trkpt>
      <trkpt lat="48.79544" lon="1.35665">
        <ele>75.3</ele>
        <time>2016-03-06T08:42:41Z</time>
      </trkpt>
      <trkpt lat="48.79537" lon="1.35676">
        <ele>75.3</ele>
        <time>2016-03-06T08:42:43Z</time>
      </trkpt>
      <trkpt lat="48.79531" lon="1.35686">
        <ele>75.3</ele>
        <time>2016-03-06T08:42:45Z</time>
      </trkpt>
      <trkpt lat="48.79522" lon="1.35701">
        <ele>75.3</ele>
        <time>2016-03-06T08:42:48Z</time>
      </trkpt>
      <trkpt lat="48.79516" lon="1.35711">
        <ele>75.3</ele>
        <time>2016-03-06T08:42:50Z</time>
      </trkpt>
      <trkpt lat="48.79507" lon="1.35724">
        <ele>75.5</ele>
        <time>2016-03-06T08:42:53Z</time>
      </trkpt>
      <trkpt lat="48.79497" lon="1.35737">
        <ele>75.7</ele>
        <time>2016-03-06T08:42:56Z</time>
      </trkpt>
      <trkpt lat="48.79487" lon="1.35751">
        <ele>75.9</ele>
        <time>2016-03-06T08:42:59Z</time>
      </trkpt>
      <trkpt lat="48.79481" lon="1.3576">
        <ele>76</ele>
        <time>2016-03-06T08:43:01Z</time>
      </trkpt>
      <trkpt lat="48.79474" lon="1.3577">
        <ele>76.1</ele>
        <time>2016-03-06T08:43:03Z</time>
      </trkpt>
      <trkpt lat="48.79467" lon="1.35778">
        <ele>76.2</ele>
        <time>2016-03-06T08:43:05Z</time>
      </trkpt>
      <trkpt lat="48.79456" lon="1.35788">
        <ele>76.5</ele>
        <time>2016-03-06T08:43:08Z</time>
      </trkpt>
      <trkpt lat="48.79448" lon="1.35795">
        <ele>76.7</ele>
        <time>2016-03-06T08:43:10Z</time>
      </trkpt>
      <trkpt lat="48.79439" lon="1.35811">
        <ele>76.9</ele>
        <time>2016-03-06T08:43:13Z</time>
      </trkpt>
      <trkpt lat="48.79439" lon="1.35825">
        <ele>76.9</ele>
        <time>2016-03-06T08:43:15Z</time>
      </trkpt>
      <trkpt lat="48.79444" lon="1.35838">
        <ele>77</ele>
        <time>2016-03-06T08:43:17Z</time>
      </trkpt>
      <trkpt lat="48.79451" lon="1.35849">
        <ele>77.1</ele>
        <time>2016-03-06T08:43:19Z</time>
      </trkpt>
      <trkpt lat="48.79458" lon="1.3586">
        <ele>77.1</ele>
        <time>2016-03-06T08:43:21Z</time>
      </trkpt>
      <trkpt lat="48.79466" lon="1.35872">
        <ele>77</ele>
        <time>2016-03-06T08:43:23Z</time>
      </trkpt>
      <trkpt lat="48.79474" lon="1.35884">
        <ele>76.9</ele>
        <time>2016-03-06T08:43:25Z</time>
      </trkpt>
      <trkpt lat="48.79483" lon="1.35898">
        <ele>76.8</ele>
        <time>2016-03-06T08:43:27Z</time>
      </trkpt>
      <trkpt lat="48.79491" lon="1.35913">
        <ele>76.7</ele>
        <time>2016-03-06T08:43:29Z</time>
      </trkpt>
      <trkpt lat="48.795" lon="1.35929">
        <ele>76.4</ele>
        <time>2016-03-06T08:43:31Z</time>
      </trkpt>
      <trkpt lat="48.79508" lon="1.35946">
        <ele>76.1</ele>
        <time>2016-03-06T08:43:33Z</time>
      </trkpt>
      <trkpt lat="48.79515" lon="1.35963">
        <ele>75.8</ele>
        <time>2016-03-06T08:43:35Z</time>
      </trkpt>
      <trkpt lat="48.79516" lon="1.35983">
        <ele>75.5</ele>
        <time>2016-03-06T08:43:37Z</time>
      </trkpt>
      <trkpt lat="48.7951" lon="1.36002">
        <ele>75.1</ele>
        <time>2016-03-06T08:43:39Z</time>
      </trkpt>
      <trkpt lat="48.79499" lon="1.36019">
        <ele>74.8</ele>
        <time>2016-03-06T08:43:41Z</time>
      </trkpt>
      <trkpt lat="48.79488" lon="1.36035">
        <ele>74.3</ele>
        <time>2016-03-06T08:43:43Z</time>
      </trkpt>
      <trkpt lat="48.79476" lon="1.36048">
        <ele>73.9</ele>
        <time>2016-03-06T08:43:45Z</time>
      </trkpt>
      <trkpt lat="48.79464" lon="1.36059">
        <ele>73.5</ele>
        <time>2016-03-06T08:43:47Z</time>
      </trkpt>
      <trkpt lat="48.79451" lon="1.36068">
        <ele>73.2</ele>
        <time>2016-03-06T08:43:49Z</time>
      </trkpt>
      <trkpt lat="48.79439" lon="1.36076">
        <ele>72.9</ele>
        <time>2016-03-06T08:43:51Z</time>
      </trkpt>
      <trkpt lat="48.79427" lon="1.36083">
        <ele>72.7</ele>
        <time>2016-03-06T08:43:53Z</time>
      </trkpt>
      <trkpt lat="48.79414" lon="1.3609">
        <ele>72.5</ele>
        <time>2016-03-06T08:43:55Z</time>
      </trkpt>
      <trkpt lat="48.79401" lon="1.36099">
        <ele>72.3</ele>
        <time>2016-03-06T08:43:57Z</time>
      </trkpt>
      <trkpt lat="48.7939" lon="1.36107">
        <ele>72.1</ele>
        <time>2016-03-06T08:43:59Z</time>
      </trkpt>
      <trkpt lat="48.79379" lon="1.36115">
        <ele>72.1</ele>
        <time>2016-03-06T08:44:01Z</time>
      </trkpt>
      <trkpt lat="48.79368" lon="1.36123">
        <ele>72.1</ele>
        <time>2016-03-06T08:44:03Z</time>
      </trkpt>
      <trkpt lat="48.79359" lon="1.36131">
        <ele>72.1</ele>
        <time>2016-03-06T08:44:05Z</time>
      </trkpt>
      <trkpt lat="48.7935" lon="1.36139">
        <ele>72.1</ele>
        <time>2016-03-06T08:44:07Z</time>
      </trkpt>
      <trkpt lat="48.7934" lon="1.36148">
        <ele>72.1</ele>
        <time>2016-03-06T08:44:09Z</time>
      </trkpt>
      <trkpt lat="48.7933" lon="1.36157">
        <ele>72.1</ele>
        <time>2016-03-06T08:44:11Z</time>
      </trkpt>
      <trkpt lat="48.7932" lon="1.36167">
        <ele>72.1</ele>
        <time>2016-03-06T08:44:13Z</time>
      </trkpt>
      <trkpt lat="48.7931" lon="1.36177">
        <ele>72.1</ele>
        <time>2016-03-06T08:44:15Z</time>
      </trkpt>
      <trkpt lat="48.79301" lon="1.36186">
        <ele>72.1</ele>
        <time>2016-03-06T08:44:17Z</time>
      </trkpt>
      <trkpt lat="48.7929" lon="1.36194">
        <ele>72.1</ele>
        <time>2016-03-06T08:44:19Z</time>
      </trkpt>
      <trkpt lat="48.7928" lon="1.36202">
        <ele>72.1</ele>
        <time>2016-03-06T08:44:21Z</time>
      </trkpt>
      <trkpt lat="48.7927" lon="1.3621">
        <ele>72.1</ele>
        <time>2016-03-06T08:44:23Z</time>
      </trkpt>
      <trkpt lat="48.7926" lon="1.36218">
        <ele>72.2</ele>
        <time>2016-03-06T08:44:25Z</time>
      </trkpt>
      <trkpt lat="48.7925" lon="1.36226">
        <ele>72.3</ele>
        <time>2016-03-06T08:44:27Z</time>
      </trkpt>
      <trkpt lat="48.79239" lon="1.36234">
        <ele>72.4</ele>
        <time>2016-03-06T08:44:29Z</time>
      </trkpt>
      <trkpt lat="48.79229" lon="1.36241">
        <ele>72.5</ele>
        <time>2016-03-06T08:44:31Z</time>
      </trkpt>
      <trkpt lat="48.79219" lon="1.36249">
        <ele>72.6</ele>
        <time>2016-03-06T08:44:33Z</time>
      </trkpt>
      <trkpt lat="48.79209" lon="1.36256">
        <ele>72.8</ele>
        <time>2016-03-06T08:44:35Z</time>
      </trkpt>
      <trkpt lat="48.79199" lon="1.36264">
        <ele>73</ele>
        <time>2016-03-06T08:44:37Z</time>
      </trkpt>
      <trkpt lat="48.79189" lon="1.36271">
        <ele>73.2</ele>
        <time>2016-03-06T08:44:39Z</time>
      </trkpt>
      <trkpt lat="48.79179" lon="1.36277">
        <ele>73.4</ele>
        <time>2016-03-06T08:44:41Z</time>
      </trkpt>
      <trkpt lat="48.79169" lon="1.36284">
        <ele>73.6</ele>
        <time>2016-03-06T08:44:43Z</time>
      </trkpt>
      <trkpt lat="48.79159" lon="1.3629">
        <ele>73.7</ele>
        <time>2016-03-06T08:44:45Z</time>
      </trkpt>
      <trkpt lat="48.79148" lon="1.36295">
        <ele>73.9</ele>
        <time>2016-03-06T08:44:47Z</time>
      </trkpt>
      <trkpt lat="48.79138" lon="1.363">
        <ele>74.1</ele>
        <time>2016-03-06T08:44:49Z</time>
      </trkpt>
      <trkpt lat="48.79127" lon="1.36306">
        <ele>74.3</ele>
        <time>2016-03-06T08:44:51Z</time>
      </trkpt>
      <trkpt lat="48.79116" lon="1.36311">
        <ele>74.6</ele>
        <time>2016-03-06T08:44:53Z</time>
      </trkpt>
      <trkpt lat="48.79105" lon="1.36317">
        <ele>74.9</ele>
        <time>2016-03-06T08:44:55Z</time>
      </trkpt>
      <trkpt lat="48.79095" lon="1.36322">
        <ele>75.1</ele>
        <time>2016-03-06T08:44:57Z</time>
      </trkpt>
      <trkpt lat="48.79084" lon="1.36326">
        <ele>75.3</ele>
        <time>2016-03-06T08:44:59Z</time>
      </trkpt>
      <trkpt lat="48.79073" lon="1.36331">
        <ele>75.5</ele>
        <time>2016-03-06T08:45:01Z</time>
      </trkpt>
      <trkpt lat="48.79062" lon="1.36337">
        <ele>75.7</ele>
        <time>2016-03-06T08:45:03Z</time>
      </trkpt>
      <trkpt lat="48.7905" lon="1.36342">
        <ele>75.9</ele>
        <time>2016-03-06T08:45:05Z</time>
      </trkpt>
      <trkpt lat="48.79039" lon="1.36347">
        <ele>76.1</ele>
        <time>2016-03-06T08:45:07Z</time>
      </trkpt>
      <trkpt lat="48.79028" lon="1.36351">
        <ele>76.3</ele>
        <time>2016-03-06T08:45:09Z</time>
      </trkpt>
      <trkpt lat="48.79017" lon="1.36356">
        <ele>76.4</ele>
        <time>2016-03-06T08:45:11Z</time>
      </trkpt>
      <trkpt lat="48.79005" lon="1.3636">
        <ele>76.5</ele>
        <time>2016-03-06T08:45:13Z</time>
      </trkpt>
      <trkpt lat="48.78995" lon="1.36363">
        <ele>76.7</ele>
        <time>2016-03-06T08:45:15Z</time>
      </trkpt>
      <trkpt lat="48.78982" lon="1.36366">
        <ele>76.9</ele>
        <time>2016-03-06T08:45:18Z</time>
      </trkpt>
      <trkpt lat="48.78981" lon="1.3638">
        <ele>77.1</ele>
        <time>2016-03-06T08:45:21Z</time>
      </trkpt>
      <trkpt lat="48.78988" lon="1.3639">
        <ele>77.2</ele>
        <time>2016-03-06T08:45:23Z</time>
      </trkpt>
      <trkpt lat="48.78999" lon="1.36397">
        <ele>77.4</ele>
        <time>2016-03-06T08:45:25Z</time>
      </trkpt>
      <trkpt lat="48.79012" lon="1.36405">
        <ele>77.5</ele>
        <time>2016-03-06T08:45:27Z</time>
      </trkpt>
      <trkpt lat="48.79025" lon="1.36412">
        <ele>77.5</ele>
        <time>2016-03-06T08:45:29Z</time>
      </trkpt>
      <trkpt lat="48.79039" lon="1.36419">
        <ele>77.4</ele>
        <time>2016-03-06T08:45:31Z</time>
      </trkpt>
      <trkpt lat="48.79052" lon="1.36428">
        <ele>77.3</ele>
        <time>2016-03-06T08:45:33Z</time>
      </trkpt>
      <trkpt lat="48.79066" lon="1.36437">
        <ele>77.1</ele>
        <time>2016-03-06T08:45:35Z</time>
      </trkpt>
      <trkpt lat="48.79078" lon="1.36446">
        <ele>77</ele>
        <time>2016-03-06T08:45:37Z</time>
      </trkpt>
      <trkpt lat="48.7909" lon="1.36457">
        <ele>76.8</ele>
        <time>2016-03-06T08:45:39Z</time>
      </trkpt>
      <trkpt lat="48.79102" lon="1.36469">
        <ele>76.6</ele>
        <time>2016-03-06T08:45:41Z</time>
      </trkpt>
      <trkpt lat="48.79114" lon="1.3648">
        <ele>76.4</ele>
        <time>2016-03-06T08:45:43Z</time>
      </trkpt>
      <trkpt lat="48.79126" lon="1.36491">
        <ele>76</ele>
        <time>2016-03-06T08:45:45Z</time>
      </trkpt>
      <trkpt lat="48.7914" lon="1.36498">
        <ele>75.7</ele>
        <time>2016-03-06T08:45:47Z</time>
      </trkpt>
      <trkpt lat="48.79154" lon="1.36501">
        <ele>75.3</ele>
        <time>2016-03-06T08:45:49Z</time>
      </trkpt>
      <trkpt lat="48.79166" lon="1.36504">
        <ele>75</ele>
        <time>2016-03-06T08:45:51Z</time>
      </trkpt>
      <trkpt lat="48.79176" lon="1.36511">
        <ele>74.7</ele>
        <time>2016-03-06T08:45:53Z</time>
      </trkpt>
      <trkpt lat="48.79183" lon="1.36527">
        <ele>74.4</ele>
        <time>2016-03-06T08:45:55Z</time>
      </trkpt>
      <trkpt lat="48.7919" lon="1.36544">
        <ele>74.1</ele>
        <time>2016-03-06T08:45:57Z</time>
      </trkpt>
      <trkpt lat="48.79196" lon="1.36564">
        <ele>73.8</ele>
        <time>2016-03-06T08:45:59Z</time>
      </trkpt>
      <trkpt lat="48.79203" lon="1.36586">
        <ele>73.5</ele>
        <time>2016-03-06T08:46:01Z</time>
      </trkpt>
      <trkpt lat="48.7921" lon="1.36608">
        <ele>73.1</ele>
        <time>2016-03-06T08:46:03Z</time>
      </trkpt>
      <trkpt lat="48.79216" lon="1.3663">
        <ele>72.7</ele>
        <time>2016-03-06T08:46:05Z</time>
      </trkpt>
      <trkpt lat="48.79219" lon="1.36652">
        <ele>72.3</ele>
        <time>2016-03-06T08:46:07Z</time>
      </trkpt>
      <trkpt lat="48.79223" lon="1.36674">
        <ele>71.8</ele>
        <time>2016-03-06T08:46:09Z</time>
      </trkpt>
      <trkpt lat="48.79227" lon="1.36694">
        <ele>71.5</ele>
        <time>2016-03-06T08:46:11Z</time>
      </trkpt>
      <trkpt lat="48.7923" lon="1.36715">
        <ele>71.1</ele>
        <time>2016-03-06T08:46:13Z</time>
      </trkpt>
      <trkpt lat="48.79234" lon="1.36734">
        <ele>70.7</ele>
        <time>2016-03-06T08:46:15Z</time>
      </trkpt>
      <trkpt lat="48.79237" lon="1.36754">
        <ele>70.4</ele>
        <time>2016-03-06T08:46:17Z</time>
      </trkpt>
      <trkpt lat="48.79241" lon="1.36773">
        <ele>70.1</ele>
        <time>2016-03-06T08:46:19Z</time>
      </trkpt>
      <trkpt lat="48.79244" lon="1.36793">
        <ele>69.9</ele>
        <time>2016-03-06T08:46:21Z</time>
      </trkpt>
      <trkpt lat="48.79248" lon="1.36812">
        <ele>69.7</ele>
        <time>2016-03-06T08:46:23Z</time>
      </trkpt>
      <trkpt lat="48.79251" lon="1.36831">
        <ele>69.5</ele>
        <time>2016-03-06T08:46:25Z</time>
      </trkpt>
      <trkpt lat="48.79256" lon="1.36851">
        <ele>69.3</ele>
        <time>2016-03-06T08:46:27Z</time>
      </trkpt>
      <trkpt lat="48.79261" lon="1.3687">
        <ele>69.1</ele>
        <time>2016-03-06T08:46:29Z</time>
      </trkpt>
      <trkpt lat="48.79266" lon="1.36888">
        <ele>69</ele>
        <time>2016-03-06T08:46:31Z</time>
      </trkpt>
      <trkpt lat="48.79272" lon="1.36906">
        <ele>68.9</ele>
        <time>2016-03-06T08:46:33Z</time>
      </trkpt>
      <trkpt lat="48.79279" lon="1.36924">
        <ele>68.8</ele>
        <time>2016-03-06T08:46:35Z</time>
      </trkpt>
      <trkpt lat="48.79286" lon="1.36941">
        <ele>68.7</ele>
        <time>2016-03-06T08:46:37Z</time>
      </trkpt>
      <trkpt lat="48.79292" lon="1.36958">
        <ele>68.6</ele>
        <time>2016-03-06T08:46:39Z</time>
      </trkpt>
      <trkpt lat="48.79298" lon="1.36975">
        <ele>68.5</ele>
        <time>2016-03-06T08:46:41Z</time>
      </trkpt>
      <trkpt lat="48.79304" lon="1.36994">
        <ele>68.5</ele>
        <time>2016-03-06T08:46:43Z</time>
      </trkpt>
      <trkpt lat="48.7931" lon="1.37013">
        <ele>68.4</ele>
        <time>2016-03-06T08:46:45Z</time>
      </trkpt>
      <trkpt lat="48.79316" lon="1.37033">
        <ele>68.3</ele>
        <time>2016-03-06T08:46:47Z</time>
      </trkpt>
      <trkpt lat="48.7932" lon="1.37052">
        <ele>68.2</ele>
        <time>2016-03-06T08:46:49Z</time>
      </trkpt>
      <trkpt lat="48.79323" lon="1.37072">
        <ele>68.1</ele>
        <time>2016-03-06T08:46:51Z</time>
      </trkpt>
      <trkpt lat="48.79327" lon="1.3709">
        <ele>68</ele>
        <time>2016-03-06T08:46:53Z</time>
      </trkpt>
      <trkpt lat="48.7933" lon="1.37109">
        <ele>67.8</ele>
        <time>2016-03-06T08:46:55Z</time>
      </trkpt>
      <trkpt lat="48.79334" lon="1.37127">
        <ele>67.7</ele>
        <time>2016-03-06T08:46:57Z</time>
      </trkpt>
      <trkpt lat="48.79336" lon="1.37145">
        <ele>67.6</ele>
        <time>2016-03-06T08:46:59Z</time>
      </trkpt>
      <trkpt lat="48.79337" lon="1.37165">
        <ele>67.5</ele>
        <time>2016-03-06T08:47:01Z</time>
      </trkpt>
      <trkpt lat="48.79338" lon="1.37184">
        <ele>67.5</ele>
        <time>2016-03-06T08:47:03Z</time>
      </trkpt>
      <trkpt lat="48.79339" lon="1.37203">
        <ele>67.4</ele>
        <time>2016-03-06T08:47:05Z</time>
      </trkpt>
      <trkpt lat="48.79338" lon="1.37223">
        <ele>67.3</ele>
        <time>2016-03-06T08:47:07Z</time>
      </trkpt>
      <trkpt lat="48.79338" lon="1.37242">
        <ele>67.3</ele>
        <time>2016-03-06T08:47:09Z</time>
      </trkpt>
      <trkpt lat="48.79337" lon="1.37263">
        <ele>67.3</ele>
        <time>2016-03-06T08:47:11Z</time>
      </trkpt>
      <trkpt lat="48.79336" lon="1.37284">
        <ele>67.3</ele>
        <time>2016-03-06T08:47:13Z</time>
      </trkpt>
      <trkpt lat="48.79334" lon="1.37304">
        <ele>67.3</ele>
        <time>2016-03-06T08:47:15Z</time>
      </trkpt>
      <trkpt lat="48.79333" lon="1.37325">
        <ele>67.4</ele>
        <time>2016-03-06T08:47:17Z</time>
      </trkpt>
      <trkpt lat="48.79332" lon="1.37344">
        <ele>67.4</ele>
        <time>2016-03-06T08:47:19Z</time>
      </trkpt>
      <trkpt lat="48.79328" lon="1.37365">
        <ele>67.3</ele>
        <time>2016-03-06T08:47:21Z</time>
      </trkpt>
      <trkpt lat="48.79323" lon="1.37385">
        <ele>67.3</ele>
        <time>2016-03-06T08:47:23Z</time>
      </trkpt>
      <trkpt lat="48.79316" lon="1.37403">
        <ele>67.3</ele>
        <time>2016-03-06T08:47:25Z</time>
      </trkpt>
      <trkpt lat="48.79308" lon="1.37419">
        <ele>67.2</ele>
        <time>2016-03-06T08:47:27Z</time>
      </trkpt>
      <trkpt lat="48.79299" lon="1.37434">
        <ele>67.1</ele>
        <time>2016-03-06T08:47:29Z</time>
      </trkpt>
      <trkpt lat="48.7929" lon="1.37447">
        <ele>67.1</ele>
        <time>2016-03-06T08:47:31Z</time>
      </trkpt>
      <trkpt lat="48.79281" lon="1.37459">
        <ele>67.1</ele>
        <time>2016-03-06T08:47:33Z</time>
      </trkpt>
      <trkpt lat="48.79272" lon="1.3747">
        <ele>67</ele>
        <time>2016-03-06T08:47:35Z</time>
      </trkpt>
      <trkpt lat="48.79263" lon="1.37482">
        <ele>67</ele>
        <time>2016-03-06T08:47:37Z</time>
      </trkpt>
      <trkpt lat="48.79254" lon="1.37494">
        <ele>67</ele>
        <time>2016-03-06T08:47:39Z</time>
      </trkpt>
      <trkpt lat="48.79245" lon="1.37507">
        <ele>67</ele>
        <time>2016-03-06T08:47:41Z</time>
      </trkpt>
      <trkpt lat="48.79234" lon="1.37522">
        <ele>67</ele>
        <time>2016-03-06T08:47:43Z</time>
      </trkpt>
      <trkpt lat="48.79223" lon="1.37537">
        <ele>67</ele>
        <time>2016-03-06T08:47:45Z</time>
      </trkpt>
      <trkpt lat="48.79214" lon="1.3755">
        <ele>66.9</ele>
        <time>2016-03-06T08:47:47Z</time>
      </trkpt>
      <trkpt lat="48.79207" lon="1.37563">
        <ele>66.9</ele>
        <time>2016-03-06T08:47:49Z</time>
      </trkpt>
      <trkpt lat="48.79201" lon="1.37579">
        <ele>66.9</ele>
        <time>2016-03-06T08:47:51Z</time>
      </trkpt>
      <trkpt lat="48.79199" lon="1.37594">
        <ele>66.9</ele>
        <time>2016-03-06T08:47:53Z</time>
      </trkpt>
      <trkpt lat="48.79197" lon="1.37615">
        <ele>66.9</ele>
        <time>2016-03-06T08:47:55Z</time>
      </trkpt>
      <trkpt lat="48.79198" lon="1.37633">
        <ele>67</ele>
        <time>2016-03-06T08:47:57Z</time>
      </trkpt>
      <trkpt lat="48.79198" lon="1.37649">
        <ele>67.1</ele>
        <time>2016-03-06T08:47:59Z</time>
      </trkpt>
      <trkpt lat="48.79201" lon="1.37663">
        <ele>67.2</ele>
        <time>2016-03-06T08:48:01Z</time>
      </trkpt>
      <trkpt lat="48.79204" lon="1.37677">
        <ele>67.3</ele>
        <time>2016-03-06T08:48:03Z</time>
      </trkpt>
      <trkpt lat="48.79207" lon="1.37692">
        <ele>67.5</ele>
        <time>2016-03-06T08:48:05Z</time>
      </trkpt>
      <trkpt lat="48.79211" lon="1.37707">
        <ele>67.7</ele>
        <time>2016-03-06T08:48:07Z</time>
      </trkpt>
      <trkpt lat="48.79215" lon="1.37722">
        <ele>67.9</ele>
        <time>2016-03-06T08:48:09Z</time>
      </trkpt>
      <trkpt lat="48.7922" lon="1.37737">
        <ele>68</ele>
        <time>2016-03-06T08:48:11Z</time>
      </trkpt>
      <trkpt lat="48.79224" lon="1.3775">
        <ele>68.1</ele>
        <time>2016-03-06T08:48:13Z</time>
      </trkpt>
      <trkpt lat="48.7923" lon="1.37768">
        <ele>68.5</ele>
        <time>2016-03-06T08:48:16Z</time>
      </trkpt>
      <trkpt lat="48.79236" lon="1.37784">
        <ele>68.9</ele>
        <time>2016-03-06T08:48:19Z</time>
      </trkpt>
      <trkpt lat="48.79241" lon="1.378">
        <ele>69.5</ele>
        <time>2016-03-06T08:48:22Z</time>
      </trkpt>
      <trkpt lat="48.79246" lon="1.37814">
        <ele>70</ele>
        <time>2016-03-06T08:48:25Z</time>
      </trkpt>
      <trkpt lat="48.79252" lon="1.37829">
        <ele>70.6</ele>
        <time>2016-03-06T08:48:28Z</time>
      </trkpt>
      <trkpt lat="48.79257" lon="1.37844">
        <ele>71.3</ele>
        <time>2016-03-06T08:48:31Z</time>
      </trkpt>
      <trkpt lat="48.7926" lon="1.3786">
        <ele>72</ele>
        <time>2016-03-06T08:48:34Z</time>
      </trkpt>
      <trkpt lat="48.79263" lon="1.37876">
        <ele>72.6</ele>
        <time>2016-03-06T08:48:37Z</time>
      </trkpt>
      <trkpt lat="48.79266" lon="1.37892">
        <ele>73.3</ele>
        <time>2016-03-06T08:48:40Z</time>
      </trkpt>
      <trkpt lat="48.79268" lon="1.37908">
        <ele>74</ele>
        <time>2016-03-06T08:48:43Z</time>
      </trkpt>
      <trkpt lat="48.7927" lon="1.37924">
        <ele>74.6</ele>
        <time>2016-03-06T08:48:46Z</time>
      </trkpt>
      <trkpt lat="48.79272" lon="1.3794">
        <ele>75.4</ele>
        <time>2016-03-06T08:48:49Z</time>
      </trkpt>
      <trkpt lat="48.79274" lon="1.37957">
        <ele>76</ele>
        <time>2016-03-06T08:48:52Z</time>
      </trkpt>
      <trkpt lat="48.79276" lon="1.37975">
        <ele>76.7</ele>
        <time>2016-03-06T08:48:55Z</time>
      </trkpt>
      <trkpt lat="48.79277" lon="1.37993">
        <ele>77.4</ele>
        <time>2016-03-06T08:48:58Z</time>
      </trkpt>
      <trkpt lat="48.79279" lon="1.38011">
        <ele>78</ele>
        <time>2016-03-06T08:49:01Z</time>
      </trkpt>
      <trkpt lat="48.79281" lon="1.38028">
        <ele>78.7</ele>
        <time>2016-03-06T08:49:04Z</time>
      </trkpt>
      <trkpt lat="48.79283" lon="1.38044">
        <ele>79.3</ele>
        <time>2016-03-06T08:49:07Z</time>
      </trkpt>
      <trkpt lat="48.79285" lon="1.38061">
        <ele>80</ele>
        <time>2016-03-06T08:49:10Z</time>
      </trkpt>
      <trkpt lat="48.79286" lon="1.3808">
        <ele>80.6</ele>
        <time>2016-03-06T08:49:13Z</time>
      </trkpt>
      <trkpt lat="48.79287" lon="1.38097">
        <ele>81.3</ele>
        <time>2016-03-06T08:49:16Z</time>
      </trkpt>
      <trkpt lat="48.79286" lon="1.38115">
        <ele>82.1</ele>
        <time>2016-03-06T08:49:19Z</time>
      </trkpt>
      <trkpt lat="48.79286" lon="1.38129">
        <ele>82.6</ele>
        <time>2016-03-06T08:49:21Z</time>
      </trkpt>
      <trkpt lat="48.79285" lon="1.38148">
        <ele>83.2</ele>
        <time>2016-03-06T08:49:24Z</time>
      </trkpt>
      <trkpt lat="48.79284" lon="1.38162">
        <ele>83.6</ele>
        <time>2016-03-06T08:49:26Z</time>
      </trkpt>
      <trkpt lat="48.79283" lon="1.38176">
        <ele>84</ele>
        <time>2016-03-06T08:49:28Z</time>
      </trkpt>
      <trkpt lat="48.79283" lon="1.3819">
        <ele>84.4</ele>
        <time>2016-03-06T08:49:30Z</time>
      </trkpt>
      <trkpt lat="48.79282" lon="1.38204">
        <ele>84.8</ele>
        <time>2016-03-06T08:49:32Z</time>
      </trkpt>
      <trkpt lat="48.79281" lon="1.38219">
        <ele>85.1</ele>
        <time>2016-03-06T08:49:34Z</time>
      </trkpt>
      <trkpt lat="48.79279" lon="1.38234">
        <ele>85.4</ele>
        <time>2016-03-06T08:49:36Z</time>
      </trkpt>
      <trkpt lat="48.79276" lon="1.38249">
        <ele>85.8</ele>
        <time>2016-03-06T08:49:38Z</time>
      </trkpt>
      <trkpt lat="48.79273" lon="1.38264">
        <ele>86.1</ele>
        <time>2016-03-06T08:49:40Z</time>
      </trkpt>
      <trkpt lat="48.79269" lon="1.38279">
        <ele>86.5</ele>
        <time>2016-03-06T08:49:42Z</time>
      </trkpt>
      <trkpt lat="48.79265" lon="1.38293">
        <ele>86.7</ele>
        <time>2016-03-06T08:49:44Z</time>
      </trkpt>
      <trkpt lat="48.79262" lon="1.38307">
        <ele>87</ele>
        <time>2016-03-06T08:49:46Z</time>
      </trkpt>
      <trkpt lat="48.79258" lon="1.38321">
        <ele>87.2</ele>
        <time>2016-03-06T08:49:48Z</time>
      </trkpt>
      <trkpt lat="48.79254" lon="1.38335">
        <ele>87.5</ele>
        <time>2016-03-06T08:49:50Z</time>
      </trkpt>
      <trkpt lat="48.79249" lon="1.38348">
        <ele>87.7</ele>
        <time>2016-03-06T08:49:52Z</time>
      </trkpt>
      <trkpt lat="48.79245" lon="1.38362">
        <ele>88</ele>
        <time>2016-03-06T08:49:54Z</time>
      </trkpt>
      <trkpt lat="48.79241" lon="1.38375">
        <ele>88.3</ele>
        <time>2016-03-06T08:49:56Z</time>
      </trkpt>
      <trkpt lat="48.79236" lon="1.38388">
        <ele>88.5</ele>
        <time>2016-03-06T08:49:58Z</time>
      </trkpt>
      <trkpt lat="48.79231" lon="1.384">
        <ele>88.7</ele>
        <time>2016-03-06T08:50:00Z</time>
      </trkpt>
      <trkpt lat="48.79227" lon="1.38413">
        <ele>89</ele>
        <time>2016-03-06T08:50:02Z</time>
      </trkpt>
      <trkpt lat="48.79222" lon="1.38424">
        <ele>89.2</ele>
        <time>2016-03-06T08:50:04Z</time>
      </trkpt>
      <trkpt lat="48.79217" lon="1.38437">
        <ele>89.5</ele>
        <time>2016-03-06T08:50:06Z</time>
      </trkpt>
      <trkpt lat="48.79211" lon="1.38449">
        <ele>89.7</ele>
        <time>2016-03-06T08:50:08Z</time>
      </trkpt>
      <trkpt lat="48.79206" lon="1.38461">
        <ele>90</ele>
        <time>2016-03-06T08:50:10Z</time>
      </trkpt>
      <trkpt lat="48.792" lon="1.38473">
        <ele>90.2</ele>
        <time>2016-03-06T08:50:12Z</time>
      </trkpt>
      <trkpt lat="48.79194" lon="1.38484">
        <ele>90.5</ele>
        <time>2016-03-06T08:50:14Z</time>
      </trkpt>
      <trkpt lat="48.79188" lon="1.38497">
        <ele>90.7</ele>
        <time>2016-03-06T08:50:16Z</time>
      </trkpt>
      <trkpt lat="48.79182" lon="1.38509">
        <ele>90.9</ele>
        <time>2016-03-06T08:50:18Z</time>
      </trkpt>
      <trkpt lat="48.79177" lon="1.38521">
        <ele>91.1</ele>
        <time>2016-03-06T08:50:20Z</time>
      </trkpt>
      <trkpt lat="48.79171" lon="1.38533">
        <ele>91.4</ele>
        <time>2016-03-06T08:50:22Z</time>
      </trkpt>
      <trkpt lat="48.79165" lon="1.38545">
        <ele>91.7</ele>
        <time>2016-03-06T08:50:24Z</time>
      </trkpt>
      <trkpt lat="48.79159" lon="1.38557">
        <ele>91.9</ele>
        <time>2016-03-06T08:50:26Z</time>
      </trkpt>
      <trkpt lat="48.79153" lon="1.38567">
        <ele>92.1</ele>
        <time>2016-03-06T08:50:28Z</time>
      </trkpt>
      <trkpt lat="48.79146" lon="1.38578">
        <ele>92.2</ele>
        <time>2016-03-06T08:50:30Z</time>
      </trkpt>
      <trkpt lat="48.79138" lon="1.38588">
        <ele>92.4</ele>
        <time>2016-03-06T08:50:32Z</time>
      </trkpt>
      <trkpt lat="48.7913" lon="1.38596">
        <ele>92.6</ele>
        <time>2016-03-06T08:50:34Z</time>
      </trkpt>
      <trkpt lat="48.79122" lon="1.38603">
        <ele>92.8</ele>
        <time>2016-03-06T08:50:36Z</time>
      </trkpt>
      <trkpt lat="48.79114" lon="1.38609">
        <ele>93</ele>
        <time>2016-03-06T08:50:38Z</time>
      </trkpt>
      <trkpt lat="48.79106" lon="1.38614">
        <ele>93.2</ele>
        <time>2016-03-06T08:50:40Z</time>
      </trkpt>
      <trkpt lat="48.79094" lon="1.38622">
        <ele>93.5</ele>
        <time>2016-03-06T08:50:43Z</time>
      </trkpt>
      <trkpt lat="48.79084" lon="1.38627">
        <ele>93.8</ele>
        <time>2016-03-06T08:50:46Z</time>
      </trkpt>
      <trkpt lat="48.79075" lon="1.38632">
        <ele>94.1</ele>
        <time>2016-03-06T08:50:49Z</time>
      </trkpt>
      <trkpt lat="48.79075" lon="1.38647">
        <ele>96.1</ele>
        <time>2016-03-06T08:51:07Z</time>
      </trkpt>
      <trkpt lat="48.79081" lon="1.38656">
        <ele>97.7</ele>
        <time>2016-03-06T08:51:17Z</time>
      </trkpt>
      <trkpt lat="48.79089" lon="1.38665">
        <ele>100.3</ele>
        <time>2016-03-06T08:51:28Z</time>
      </trkpt>
      <trkpt lat="48.79095" lon="1.38675">
        <ele>103.8</ele>
        <time>2016-03-06T08:51:42Z</time>
      </trkpt>
      <trkpt lat="48.79102" lon="1.38685">
        <ele>107.3</ele>
        <time>2016-03-06T08:51:58Z</time>
      </trkpt>
      <trkpt lat="48.79109" lon="1.38693">
        <ele>111</ele>
        <time>2016-03-06T08:52:16Z</time>
      </trkpt>
      <trkpt lat="48.79119" lon="1.38688">
        <ele>112.6</ele>
        <time>2016-03-06T08:52:25Z</time>
      </trkpt>
      <trkpt lat="48.79128" lon="1.38682">
        <ele>113.1</ele>
        <time>2016-03-06T08:52:29Z</time>
      </trkpt>
      <trkpt lat="48.79137" lon="1.38677">
        <ele>113.5</ele>
        <time>2016-03-06T08:52:33Z</time>
      </trkpt>
      <trkpt lat="48.79147" lon="1.38673">
        <ele>113.9</ele>
        <time>2016-03-06T08:52:37Z</time>
      </trkpt>
      <trkpt lat="48.79157" lon="1.38667">
        <ele>114.2</ele>
        <time>2016-03-06T08:52:41Z</time>
      </trkpt>
      <trkpt lat="48.79167" lon="1.38662">
        <ele>114.7</ele>
        <time>2016-03-06T08:52:45Z</time>
      </trkpt>
      <trkpt lat="48.79177" lon="1.38658">
        <ele>115.2</ele>
        <time>2016-03-06T08:52:49Z</time>
      </trkpt>
      <trkpt lat="48.79186" lon="1.38652">
        <ele>115.8</ele>
        <time>2016-03-06T08:52:53Z</time>
      </trkpt>
      <trkpt lat="48.79195" lon="1.38647">
        <ele>116.6</ele>
        <time>2016-03-06T08:52:57Z</time>
      </trkpt>
      <trkpt lat="48.79204" lon="1.38643">
        <ele>117.4</ele>
        <time>2016-03-06T08:53:01Z</time>
      </trkpt>
      <trkpt lat="48.79212" lon="1.38639">
        <ele>118.5</ele>
        <time>2016-03-06T08:53:06Z</time>
      </trkpt>
      <trkpt lat="48.79223" lon="1.38634">
        <ele>119.6</ele>
        <time>2016-03-06T08:53:11Z</time>
      </trkpt>
      <trkpt lat="48.79231" lon="1.38628">
        <ele>120.7</ele>
        <time>2016-03-06T08:53:15Z</time>
      </trkpt>
      <trkpt lat="48.7924" lon="1.38623">
        <ele>122.4</ele>
        <time>2016-03-06T08:53:21Z</time>
      </trkpt>
      <trkpt lat="48.7925" lon="1.38618">
        <ele>124.3</ele>
        <time>2016-03-06T08:53:27Z</time>
      </trkpt>
      <trkpt lat="48.79258" lon="1.38611">
        <ele>125.5</ele>
        <time>2016-03-06T08:53:31Z</time>
      </trkpt>
      <trkpt lat="48.79269" lon="1.38605">
        <ele>126.9</ele>
        <time>2016-03-06T08:53:37Z</time>
      </trkpt>
      <trkpt lat="48.79278" lon="1.38601">
        <ele>127.5</ele>
        <time>2016-03-06T08:53:40Z</time>
      </trkpt>
      <trkpt lat="48.79289" lon="1.38595">
        <ele>128.2</ele>
        <time>2016-03-06T08:53:44Z</time>
      </trkpt>
      <trkpt lat="48.79295" lon="1.38581">
        <ele>128.7</ele>
        <time>2016-03-06T08:53:48Z</time>
      </trkpt>
      <trkpt lat="48.79296" lon="1.38566">
        <ele>129.1</ele>
        <time>2016-03-06T08:53:52Z</time>
      </trkpt>
      <trkpt lat="48.79302" lon="1.38552">
        <ele>129.4</ele>
        <time>2016-03-06T08:53:56Z</time>
      </trkpt>
      <trkpt lat="48.7931" lon="1.38541">
        <ele>129.6</ele>
        <time>2016-03-06T08:53:59Z</time>
      </trkpt>
      <trkpt lat="48.79319" lon="1.38532">
        <ele>129.8</ele>
        <time>2016-03-06T08:54:02Z</time>
      </trkpt>
      <trkpt lat="48.79325" lon="1.38519">
        <ele>130</ele>
        <time>2016-03-06T08:54:05Z</time>
      </trkpt>
      <trkpt lat="48.79332" lon="1.3851">
        <ele>130.1</ele>
        <time>2016-03-06T08:54:08Z</time>
      </trkpt>
      <trkpt lat="48.79343" lon="1.38502">
        <ele>130.2</ele>
        <time>2016-03-06T08:54:12Z</time>
      </trkpt>
      <trkpt lat="48.79353" lon="1.38492">
        <ele>130.3</ele>
        <time>2016-03-06T08:54:15Z</time>
      </trkpt>
      <trkpt lat="48.79362" lon="1.38479">
        <ele>130.4</ele>
        <time>2016-03-06T08:54:18Z</time>
      </trkpt>
      <trkpt lat="48.7937" lon="1.38466">
        <ele>130.4</ele>
        <time>2016-03-06T08:54:21Z</time>
      </trkpt>
      <trkpt lat="48.79377" lon="1.38453">
        <ele>130.5</ele>
        <time>2016-03-06T08:54:24Z</time>
      </trkpt>
      <trkpt lat="48.79381" lon="1.38436">
        <ele>130.5</ele>
        <time>2016-03-06T08:54:27Z</time>
      </trkpt>
      <trkpt lat="48.79383" lon="1.38419">
        <ele>130.4</ele>
        <time>2016-03-06T08:54:30Z</time>
      </trkpt>
      <trkpt lat="48.79383" lon="1.38402">
        <ele>130.5</ele>
        <time>2016-03-06T08:54:33Z</time>
      </trkpt>
      <trkpt lat="48.79386" lon="1.38386">
        <ele>130.5</ele>
        <time>2016-03-06T08:54:38Z</time>
      </trkpt>
      <trkpt lat="48.79387" lon="1.38369">
        <ele>130.5</ele>
        <time>2016-03-06T08:54:41Z</time>
      </trkpt>
      <trkpt lat="48.79386" lon="1.38355">
        <ele>130.4</ele>
        <time>2016-03-06T08:54:44Z</time>
      </trkpt>
      <trkpt lat="48.79387" lon="1.38341">
        <ele>130.4</ele>
        <time>2016-03-06T08:54:46Z</time>
      </trkpt>
      <trkpt lat="48.79387" lon="1.38324">
        <ele>130.3</ele>
        <time>2016-03-06T08:54:48Z</time>
      </trkpt>
      <trkpt lat="48.79388" lon="1.38308">
        <ele>130.2</ele>
        <time>2016-03-06T08:54:50Z</time>
      </trkpt>
      <trkpt lat="48.79388" lon="1.38292">
        <ele>130</ele>
        <time>2016-03-06T08:54:52Z</time>
      </trkpt>
      <trkpt lat="48.79388" lon="1.38273">
        <ele>129.8</ele>
        <time>2016-03-06T08:54:54Z</time>
      </trkpt>
      <trkpt lat="48.79388" lon="1.38253">
        <ele>129.6</ele>
        <time>2016-03-06T08:54:56Z</time>
      </trkpt>
      <trkpt lat="48.79388" lon="1.38234">
        <ele>129.4</ele>
        <time>2016-03-06T08:54:58Z</time>
      </trkpt>
      <trkpt lat="48.79388" lon="1.38214">
        <ele>129.1</ele>
        <time>2016-03-06T08:55:00Z</time>
      </trkpt>
      <trkpt lat="48.79388" lon="1.38196">
        <ele>128.8</ele>
        <time>2016-03-06T08:55:02Z</time>
      </trkpt>
      <trkpt lat="48.79388" lon="1.38176">
        <ele>128.5</ele>
        <time>2016-03-06T08:55:04Z</time>
      </trkpt>
      <trkpt lat="48.79388" lon="1.38155">
        <ele>128.2</ele>
        <time>2016-03-06T08:55:06Z</time>
      </trkpt>
      <trkpt lat="48.79389" lon="1.38135">
        <ele>127.9</ele>
        <time>2016-03-06T08:55:08Z</time>
      </trkpt>
      <trkpt lat="48.79391" lon="1.38118">
        <ele>127.5</ele>
        <time>2016-03-06T08:55:10Z</time>
      </trkpt>
      <trkpt lat="48.79391" lon="1.38101">
        <ele>127.1</ele>
        <time>2016-03-06T08:55:13Z</time>
      </trkpt>
      <trkpt lat="48.79401" lon="1.38104">
        <ele>125.6</ele>
        <time>2016-03-06T08:55:30Z</time>
      </trkpt>
      <trkpt lat="48.79411" lon="1.38115">
        <ele>126</ele>
        <time>2016-03-06T08:55:35Z</time>
      </trkpt>
      <trkpt lat="48.79419" lon="1.3812">
        <ele>126.2</ele>
        <time>2016-03-06T08:55:37Z</time>
      </trkpt>
      <trkpt lat="48.79431" lon="1.38128">
        <ele>126.7</ele>
        <time>2016-03-06T08:55:40Z</time>
      </trkpt>
      <trkpt lat="48.7944" lon="1.38134">
        <ele>126.9</ele>
        <time>2016-03-06T08:55:42Z</time>
      </trkpt>
      <trkpt lat="48.79449" lon="1.38141">
        <ele>127.1</ele>
        <time>2016-03-06T08:55:44Z</time>
      </trkpt>
      <trkpt lat="48.79459" lon="1.38146">
        <ele>127.3</ele>
        <time>2016-03-06T08:55:46Z</time>
      </trkpt>
      <trkpt lat="48.79469" lon="1.38152">
        <ele>127.5</ele>
        <time>2016-03-06T08:55:48Z</time>
      </trkpt>
      <trkpt lat="48.7948" lon="1.38159">
        <ele>127.7</ele>
        <time>2016-03-06T08:55:50Z</time>
      </trkpt>
      <trkpt lat="48.79489" lon="1.38165">
        <ele>127.8</ele>
        <time>2016-03-06T08:55:52Z</time>
      </trkpt>
      <trkpt lat="48.79498" lon="1.3817">
        <ele>127.9</ele>
        <time>2016-03-06T08:55:54Z</time>
      </trkpt>
      <trkpt lat="48.7951" lon="1.38178">
        <ele>128.1</ele>
        <time>2016-03-06T08:55:57Z</time>
      </trkpt>
      <trkpt lat="48.79521" lon="1.38184">
        <ele>128.2</ele>
        <time>2016-03-06T08:55:59Z</time>
      </trkpt>
      <trkpt lat="48.79531" lon="1.3819">
        <ele>128.3</ele>
        <time>2016-03-06T08:56:01Z</time>
      </trkpt>
      <trkpt lat="48.7954" lon="1.38197">
        <ele>128.4</ele>
        <time>2016-03-06T08:56:03Z</time>
      </trkpt>
      <trkpt lat="48.7955" lon="1.38203">
        <ele>128.5</ele>
        <time>2016-03-06T08:56:05Z</time>
      </trkpt>
      <trkpt lat="48.79562" lon="1.38214">
        <ele>128.6</ele>
        <time>2016-03-06T08:56:08Z</time>
      </trkpt>
      <trkpt lat="48.79571" lon="1.3822">
        <ele>128.6</ele>
        <time>2016-03-06T08:56:10Z</time>
      </trkpt>
      <trkpt lat="48.79581" lon="1.38228">
        <ele>128.7</ele>
        <time>2016-03-06T08:56:12Z</time>
      </trkpt>
      <trkpt lat="48.79589" lon="1.38234">
        <ele>128.7</ele>
        <time>2016-03-06T08:56:14Z</time>
      </trkpt>
      <trkpt lat="48.79598" lon="1.38241">
        <ele>128.8</ele>
        <time>2016-03-06T08:56:16Z</time>
      </trkpt>
      <trkpt lat="48.79607" lon="1.38247">
        <ele>128.8</ele>
        <time>2016-03-06T08:56:18Z</time>
      </trkpt>
      <trkpt lat="48.79616" lon="1.38253">
        <ele>128.9</ele>
        <time>2016-03-06T08:56:20Z</time>
      </trkpt>
      <trkpt lat="48.79626" lon="1.38259">
        <ele>128.9</ele>
        <time>2016-03-06T08:56:22Z</time>
      </trkpt>
      <trkpt lat="48.79637" lon="1.38265">
        <ele>128.9</ele>
        <time>2016-03-06T08:56:24Z</time>
      </trkpt>
      <trkpt lat="48.79646" lon="1.38272">
        <ele>128.9</ele>
        <time>2016-03-06T08:56:26Z</time>
      </trkpt>
      <trkpt lat="48.79657" lon="1.38279">
        <ele>129</ele>
        <time>2016-03-06T08:56:28Z</time>
      </trkpt>
      <trkpt lat="48.79668" lon="1.38285">
        <ele>129.1</ele>
        <time>2016-03-06T08:56:30Z</time>
      </trkpt>
      <trkpt lat="48.79677" lon="1.38292">
        <ele>129.2</ele>
        <time>2016-03-06T08:56:32Z</time>
      </trkpt>
      <trkpt lat="48.79685" lon="1.383">
        <ele>129.3</ele>
        <time>2016-03-06T08:56:34Z</time>
      </trkpt>
      <trkpt lat="48.79699" lon="1.3831">
        <ele>129.4</ele>
        <time>2016-03-06T08:56:37Z</time>
      </trkpt>
      <trkpt lat="48.7971" lon="1.38316">
        <ele>129.5</ele>
        <time>2016-03-06T08:56:39Z</time>
      </trkpt>
      <trkpt lat="48.7972" lon="1.38323">
        <ele>129.6</ele>
        <time>2016-03-06T08:56:41Z</time>
      </trkpt>
      <trkpt lat="48.79728" lon="1.3833">
        <ele>129.7</ele>
        <time>2016-03-06T08:56:43Z</time>
      </trkpt>
      <trkpt lat="48.79738" lon="1.38332">
        <ele>129.8</ele>
        <time>2016-03-06T08:56:45Z</time>
      </trkpt>
      <trkpt lat="48.79748" lon="1.38331">
        <ele>129.9</ele>
        <time>2016-03-06T08:56:47Z</time>
      </trkpt>
      <trkpt lat="48.79759" lon="1.3833">
        <ele>130.1</ele>
        <time>2016-03-06T08:56:49Z</time>
      </trkpt>
      <trkpt lat="48.79769" lon="1.38328">
        <ele>130.2</ele>
        <time>2016-03-06T08:56:51Z</time>
      </trkpt>
      <trkpt lat="48.79779" lon="1.38325">
        <ele>130.3</ele>
        <time>2016-03-06T08:56:53Z</time>
      </trkpt>
      <trkpt lat="48.79789" lon="1.38321">
        <ele>130.4</ele>
        <time>2016-03-06T08:56:55Z</time>
      </trkpt>
      <trkpt lat="48.79799" lon="1.38315">
        <ele>130.5</ele>
        <time>2016-03-06T08:56:57Z</time>
      </trkpt>
      <trkpt lat="48.7981" lon="1.38309">
        <ele>130.6</ele>
        <time>2016-03-06T08:56:59Z</time>
      </trkpt>
      <trkpt lat="48.79822" lon="1.38304">
        <ele>130.8</ele>
        <time>2016-03-06T08:57:01Z</time>
      </trkpt>
      <trkpt lat="48.79833" lon="1.38298">
        <ele>130.9</ele>
        <time>2016-03-06T08:57:03Z</time>
      </trkpt>
      <trkpt lat="48.79843" lon="1.38291">
        <ele>131</ele>
        <time>2016-03-06T08:57:05Z</time>
      </trkpt>
      <trkpt lat="48.79855" lon="1.38285">
        <ele>131.1</ele>
        <time>2016-03-06T08:57:07Z</time>
      </trkpt>
      <trkpt lat="48.79867" lon="1.3828">
        <ele>131.2</ele>
        <time>2016-03-06T08:57:09Z</time>
      </trkpt>
      <trkpt lat="48.79877" lon="1.38278">
        <ele>131.3</ele>
        <time>2016-03-06T08:57:11Z</time>
      </trkpt>
      <trkpt lat="48.79888" lon="1.38272">
        <ele>131.4</ele>
        <time>2016-03-06T08:57:13Z</time>
      </trkpt>
      <trkpt lat="48.79899" lon="1.38267">
        <ele>131.5</ele>
        <time>2016-03-06T08:57:15Z</time>
      </trkpt>
      <trkpt lat="48.79912" lon="1.38261">
        <ele>131.5</ele>
        <time>2016-03-06T08:57:17Z</time>
      </trkpt>
      <trkpt lat="48.79922" lon="1.38253">
        <ele>131.6</ele>
        <time>2016-03-06T08:57:19Z</time>
      </trkpt>
      <trkpt lat="48.79932" lon="1.38251">
        <ele>131.6</ele>
        <time>2016-03-06T08:57:21Z</time>
      </trkpt>
      <trkpt lat="48.79943" lon="1.38247">
        <ele>131.7</ele>
        <time>2016-03-06T08:57:23Z</time>
      </trkpt>
      <trkpt lat="48.79957" lon="1.38238">
        <ele>131.7</ele>
        <time>2016-03-06T08:57:25Z</time>
      </trkpt>
      <trkpt lat="48.7997" lon="1.38231">
        <ele>131.7</ele>
        <time>2016-03-06T08:57:27Z</time>
      </trkpt>
      <trkpt lat="48.79985" lon="1.38223">
        <ele>131.8</ele>
        <time>2016-03-06T08:57:29Z</time>
      </trkpt>
      <trkpt lat="48.79996" lon="1.38218">
        <ele>131.8</ele>
        <time>2016-03-06T08:57:31Z</time>
      </trkpt>
      <trkpt lat="48.80009" lon="1.38214">
        <ele>131.8</ele>
        <time>2016-03-06T08:57:33Z</time>
      </trkpt>
      <trkpt lat="48.80017" lon="1.38205">
        <ele>131.8</ele>
        <time>2016-03-06T08:57:35Z</time>
      </trkpt>
      <trkpt lat="48.80027" lon="1.38201">
        <ele>131.9</ele>
        <time>2016-03-06T08:57:37Z</time>
      </trkpt>
      <trkpt lat="48.80039" lon="1.38195">
        <ele>131.9</ele>
        <time>2016-03-06T08:57:39Z</time>
      </trkpt>
      <trkpt lat="48.80053" lon="1.38189">
        <ele>131.9</ele>
        <time>2016-03-06T08:57:41Z</time>
      </trkpt>
      <trkpt lat="48.80065" lon="1.38184">
        <ele>131.9</ele>
        <time>2016-03-06T08:57:43Z</time>
      </trkpt>
      <trkpt lat="48.80077" lon="1.38179">
        <ele>131.9</ele>
        <time>2016-03-06T08:57:45Z</time>
      </trkpt>
      <trkpt lat="48.80087" lon="1.38174">
        <ele>132</ele>
        <time>2016-03-06T08:57:47Z</time>
      </trkpt>
      <trkpt lat="48.80098" lon="1.3817">
        <ele>132</ele>
        <time>2016-03-06T08:57:49Z</time>
      </trkpt>
      <trkpt lat="48.80109" lon="1.38164">
        <ele>132</ele>
        <time>2016-03-06T08:57:51Z</time>
      </trkpt>
      <trkpt lat="48.80119" lon="1.38158">
        <ele>132.1</ele>
        <time>2016-03-06T08:57:53Z</time>
      </trkpt>
      <trkpt lat="48.80129" lon="1.38153">
        <ele>132.1</ele>
        <time>2016-03-06T08:57:55Z</time>
      </trkpt>
      <trkpt lat="48.80141" lon="1.38147">
        <ele>132.1</ele>
        <time>2016-03-06T08:57:57Z</time>
      </trkpt>
      <trkpt lat="48.8015" lon="1.38142">
        <ele>132.1</ele>
        <time>2016-03-06T08:57:59Z</time>
      </trkpt>
      <trkpt lat="48.80163" lon="1.38138">
        <ele>132.1</ele>
        <time>2016-03-06T08:58:01Z</time>
      </trkpt>
      <trkpt lat="48.80178" lon="1.38132">
        <ele>132.1</ele>
        <time>2016-03-06T08:58:03Z</time>
      </trkpt>
      <trkpt lat="48.80191" lon="1.38126">
        <ele>132.2</ele>
        <time>2016-03-06T08:58:05Z</time>
      </trkpt>
      <trkpt lat="48.80205" lon="1.38122">
        <ele>132.2</ele>
        <time>2016-03-06T08:58:07Z</time>
      </trkpt>
      <trkpt lat="48.80217" lon="1.38115">
        <ele>132.2</ele>
        <time>2016-03-06T08:58:09Z</time>
      </trkpt>
      <trkpt lat="48.80227" lon="1.3811">
        <ele>132.2</ele>
        <time>2016-03-06T08:58:11Z</time>
      </trkpt>
      <trkpt lat="48.80236" lon="1.38105">
        <ele>132.2</ele>
        <time>2016-03-06T08:58:13Z</time>
      </trkpt>
      <trkpt lat="48.80246" lon="1.38099">
        <ele>132.2</ele>
        <time>2016-03-06T08:58:15Z</time>
      </trkpt>
      <trkpt lat="48.80259" lon="1.38093">
        <ele>132.2</ele>
        <time>2016-03-06T08:58:17Z</time>
      </trkpt>
      <trkpt lat="48.80272" lon="1.38087">
        <ele>132.2</ele>
        <time>2016-03-06T08:58:19Z</time>
      </trkpt>
      <trkpt lat="48.80283" lon="1.38082">
        <ele>132.2</ele>
        <time>2016-03-06T08:58:21Z</time>
      </trkpt>
      <trkpt lat="48.80296" lon="1.38075">
        <ele>132.2</ele>
        <time>2016-03-06T08:58:23Z</time>
      </trkpt>
      <trkpt lat="48.80307" lon="1.38068">
        <ele>132.2</ele>
        <time>2016-03-06T08:58:25Z</time>
      </trkpt>
      <trkpt lat="48.80317" lon="1.38062">
        <ele>132.2</ele>
        <time>2016-03-06T08:58:27Z</time>
      </trkpt>
      <trkpt lat="48.8033" lon="1.38055">
        <ele>132.1</ele>
        <time>2016-03-06T08:58:29Z</time>
      </trkpt>
      <trkpt lat="48.80345" lon="1.38047">
        <ele>132</ele>
        <time>2016-03-06T08:58:31Z</time>
      </trkpt>
      <trkpt lat="48.80359" lon="1.38039">
        <ele>131.9</ele>
        <time>2016-03-06T08:58:33Z</time>
      </trkpt>
      <trkpt lat="48.80374" lon="1.38032">
        <ele>131.8</ele>
        <time>2016-03-06T08:58:35Z</time>
      </trkpt>
      <trkpt lat="48.80387" lon="1.38026">
        <ele>131.7</ele>
        <time>2016-03-06T08:58:37Z</time>
      </trkpt>
      <trkpt lat="48.804" lon="1.38019">
        <ele>131.6</ele>
        <time>2016-03-06T08:58:39Z</time>
      </trkpt>
      <trkpt lat="48.80414" lon="1.38013">
        <ele>131.6</ele>
        <time>2016-03-06T08:58:41Z</time>
      </trkpt>
      <trkpt lat="48.80427" lon="1.38006">
        <ele>131.5</ele>
        <time>2016-03-06T08:58:43Z</time>
      </trkpt>
      <trkpt lat="48.8044" lon="1.37998">
        <ele>131.4</ele>
        <time>2016-03-06T08:58:45Z</time>
      </trkpt>
      <trkpt lat="48.80453" lon="1.37992">
        <ele>131.4</ele>
        <time>2016-03-06T08:58:47Z</time>
      </trkpt>
      <trkpt lat="48.80467" lon="1.37985">
        <ele>131.4</ele>
        <time>2016-03-06T08:58:49Z</time>
      </trkpt>
      <trkpt lat="48.80481" lon="1.37978">
        <ele>131.3</ele>
        <time>2016-03-06T08:58:51Z</time>
      </trkpt>
      <trkpt lat="48.80493" lon="1.37972">
        <ele>131.3</ele>
        <time>2016-03-06T08:58:53Z</time>
      </trkpt>
      <trkpt lat="48.80503" lon="1.37967">
        <ele>131.2</ele>
        <time>2016-03-06T08:58:55Z</time>
      </trkpt>
      <trkpt lat="48.80514" lon="1.37962">
        <ele>131.2</ele>
        <time>2016-03-06T08:58:57Z</time>
      </trkpt>
      <trkpt lat="48.80527" lon="1.37957">
        <ele>131.1</ele>
        <time>2016-03-06T08:58:59Z</time>
      </trkpt>
      <trkpt lat="48.80539" lon="1.3795">
        <ele>131.1</ele>
        <time>2016-03-06T08:59:01Z</time>
      </trkpt>
      <trkpt lat="48.80548" lon="1.37945">
        <ele>131.1</ele>
        <time>2016-03-06T08:59:03Z</time>
      </trkpt>
      <trkpt lat="48.80556" lon="1.37939">
        <ele>131</ele>
        <time>2016-03-06T08:59:05Z</time>
      </trkpt>
      <trkpt lat="48.80568" lon="1.37932">
        <ele>131</ele>
        <time>2016-03-06T08:59:08Z</time>
      </trkpt>
      <trkpt lat="48.80577" lon="1.37926">
        <ele>131</ele>
        <time>2016-03-06T08:59:10Z</time>
      </trkpt>
      <trkpt lat="48.80587" lon="1.3792">
        <ele>130.9</ele>
        <time>2016-03-06T08:59:12Z</time>
      </trkpt>
      <trkpt lat="48.80597" lon="1.37915">
        <ele>130.8</ele>
        <time>2016-03-06T08:59:14Z</time>
      </trkpt>
      <trkpt lat="48.80607" lon="1.3791">
        <ele>130.7</ele>
        <time>2016-03-06T08:59:16Z</time>
      </trkpt>
      <trkpt lat="48.80621" lon="1.37906">
        <ele>130.6</ele>
        <time>2016-03-06T08:59:18Z</time>
      </trkpt>
      <trkpt lat="48.80634" lon="1.37901">
        <ele>130.4</ele>
        <time>2016-03-06T08:59:20Z</time>
      </trkpt>
      <trkpt lat="48.80647" lon="1.37895">
        <ele>130.2</ele>
        <time>2016-03-06T08:59:22Z</time>
      </trkpt>
      <trkpt lat="48.8066" lon="1.37889">
        <ele>130</ele>
        <time>2016-03-06T08:59:24Z</time>
      </trkpt>
      <trkpt lat="48.80672" lon="1.37883">
        <ele>129.8</ele>
        <time>2016-03-06T08:59:26Z</time>
      </trkpt>
      <trkpt lat="48.80687" lon="1.37876">
        <ele>129.5</ele>
        <time>2016-03-06T08:59:28Z</time>
      </trkpt>
      <trkpt lat="48.80701" lon="1.3787">
        <ele>129.3</ele>
        <time>2016-03-06T08:59:30Z</time>
      </trkpt>
      <trkpt lat="48.80715" lon="1.37864">
        <ele>128.9</ele>
        <time>2016-03-06T08:59:32Z</time>
      </trkpt>
      <trkpt lat="48.80728" lon="1.37858">
        <ele>128.6</ele>
        <time>2016-03-06T08:59:34Z</time>
      </trkpt>
      <trkpt lat="48.80742" lon="1.37851">
        <ele>128.2</ele>
        <time>2016-03-06T08:59:36Z</time>
      </trkpt>
      <trkpt lat="48.80756" lon="1.37845">
        <ele>127.8</ele>
        <time>2016-03-06T08:59:38Z</time>
      </trkpt>
      <trkpt lat="48.8077" lon="1.37839">
        <ele>127.5</ele>
        <time>2016-03-06T08:59:40Z</time>
      </trkpt>
      <trkpt lat="48.80784" lon="1.37832">
        <ele>127.1</ele>
        <time>2016-03-06T08:59:42Z</time>
      </trkpt>
      <trkpt lat="48.80798" lon="1.37826">
        <ele>126.7</ele>
        <time>2016-03-06T08:59:44Z</time>
      </trkpt>
      <trkpt lat="48.80812" lon="1.3782">
        <ele>126.4</ele>
        <time>2016-03-06T08:59:46Z</time>
      </trkpt>
      <trkpt lat="48.80826" lon="1.37813">
        <ele>126.1</ele>
        <time>2016-03-06T08:59:48Z</time>
      </trkpt>
      <trkpt lat="48.8084" lon="1.37806">
        <ele>125.7</ele>
        <time>2016-03-06T08:59:50Z</time>
      </trkpt>
      <trkpt lat="48.80855" lon="1.37799">
        <ele>125.2</ele>
        <time>2016-03-06T08:59:52Z</time>
      </trkpt>
      <trkpt lat="48.8087" lon="1.37792">
        <ele>124.8</ele>
        <time>2016-03-06T08:59:54Z</time>
      </trkpt>
      <trkpt lat="48.80886" lon="1.37786">
        <ele>124.4</ele>
        <time>2016-03-06T08:59:56Z</time>
      </trkpt>
      <trkpt lat="48.80901" lon="1.37779">
        <ele>123.9</ele>
        <time>2016-03-06T08:59:58Z</time>
      </trkpt>
      <trkpt lat="48.80913" lon="1.37773">
        <ele>123.4</ele>
        <time>2016-03-06T09:00:00Z</time>
      </trkpt>
      <trkpt lat="48.80926" lon="1.37767">
        <ele>122.9</ele>
        <time>2016-03-06T09:00:02Z</time>
      </trkpt>
      <trkpt lat="48.80938" lon="1.3776">
        <ele>122.4</ele>
        <time>2016-03-06T09:00:04Z</time>
      </trkpt>
      <trkpt lat="48.8095" lon="1.37754">
        <ele>122</ele>
        <time>2016-03-06T09:00:06Z</time>
      </trkpt>
      <trkpt lat="48.80961" lon="1.37747">
        <ele>121.7</ele>
        <time>2016-03-06T09:00:08Z</time>
      </trkpt>
      <trkpt lat="48.80971" lon="1.37743">
        <ele>121.5</ele>
        <time>2016-03-06T09:00:10Z</time>
      </trkpt>
      <trkpt lat="48.80981" lon="1.37739">
        <ele>121.4</ele>
        <time>2016-03-06T09:00:12Z</time>
      </trkpt>
      <trkpt lat="48.80991" lon="1.37734">
        <ele>121.3</ele>
        <time>2016-03-06T09:00:14Z</time>
      </trkpt>
      <trkpt lat="48.81" lon="1.37729">
        <ele>121.3</ele>
        <time>2016-03-06T09:00:16Z</time>
      </trkpt>
      <trkpt lat="48.81009" lon="1.37725">
        <ele>121.4</ele>
        <time>2016-03-06T09:00:18Z</time>
      </trkpt>
      <trkpt lat="48.81019" lon="1.3772">
        <ele>121.5</ele>
        <time>2016-03-06T09:00:20Z</time>
      </trkpt>
      <trkpt lat="48.81028" lon="1.37716">
        <ele>121.6</ele>
        <time>2016-03-06T09:00:22Z</time>
      </trkpt>
      <trkpt lat="48.81038" lon="1.37711">
        <ele>121.6</ele>
        <time>2016-03-06T09:00:24Z</time>
      </trkpt>
      <trkpt lat="48.81047" lon="1.37706">
        <ele>121.8</ele>
        <time>2016-03-06T09:00:26Z</time>
      </trkpt>
      <trkpt lat="48.81058" lon="1.37701">
        <ele>121.9</ele>
        <time>2016-03-06T09:00:28Z</time>
      </trkpt>
      <trkpt lat="48.81068" lon="1.37696">
        <ele>122</ele>
        <time>2016-03-06T09:00:30Z</time>
      </trkpt>
      <trkpt lat="48.81078" lon="1.37691">
        <ele>122.2</ele>
        <time>2016-03-06T09:00:32Z</time>
      </trkpt>
      <trkpt lat="48.81087" lon="1.37686">
        <ele>122.3</ele>
        <time>2016-03-06T09:00:34Z</time>
      </trkpt>
      <trkpt lat="48.81096" lon="1.37683">
        <ele>122.4</ele>
        <time>2016-03-06T09:00:36Z</time>
      </trkpt>
      <trkpt lat="48.81106" lon="1.37678">
        <ele>122.6</ele>
        <time>2016-03-06T09:00:38Z</time>
      </trkpt>
      <trkpt lat="48.81116" lon="1.37674">
        <ele>122.7</ele>
        <time>2016-03-06T09:00:40Z</time>
      </trkpt>
      <trkpt lat="48.81127" lon="1.37669">
        <ele>122.9</ele>
        <time>2016-03-06T09:00:43Z</time>
      </trkpt>
      <trkpt lat="48.81138" lon="1.37665">
        <ele>123.2</ele>
        <time>2016-03-06T09:00:46Z</time>
      </trkpt>
      <trkpt lat="48.81149" lon="1.37658">
        <ele>123.4</ele>
        <time>2016-03-06T09:00:49Z</time>
      </trkpt>
      <trkpt lat="48.81159" lon="1.37653">
        <ele>123.5</ele>
        <time>2016-03-06T09:00:52Z</time>
      </trkpt>
      <trkpt lat="48.81169" lon="1.3765">
        <ele>123.8</ele>
        <time>2016-03-06T09:00:57Z</time>
      </trkpt>
      <trkpt lat="48.81178" lon="1.37648">
        <ele>124.5</ele>
        <time>2016-03-06T09:01:47Z</time>
      </trkpt>
      <trkpt lat="48.81172" lon="1.37637">
        <ele>124.5</ele>
        <time>2016-03-06T09:02:48Z</time>
      </trkpt>
      <trkpt lat="48.81162" lon="1.37631">
        <ele>124.5</ele>
        <time>2016-03-06T09:02:51Z</time>
      </trkpt>
      <trkpt lat="48.81157" lon="1.37619">
        <ele>124.5</ele>
        <time>2016-03-06T09:02:54Z</time>
      </trkpt>
      <trkpt lat="48.8115" lon="1.37611">
        <ele>124.5</ele>
        <time>2016-03-06T09:02:57Z</time>
      </trkpt>
      <trkpt lat="48.81141" lon="1.37596">
        <ele>124.5</ele>
        <time>2016-03-06T09:03:00Z</time>
      </trkpt>
      <trkpt lat="48.81135" lon="1.37584">
        <ele>124.5</ele>
        <time>2016-03-06T09:03:02Z</time>
      </trkpt>
      <trkpt lat="48.81129" lon="1.37573">
        <ele>124.5</ele>
        <time>2016-03-06T09:03:04Z</time>
      </trkpt>
      <trkpt lat="48.81123" lon="1.37563">
        <ele>124.4</ele>
        <time>2016-03-06T09:03:06Z</time>
      </trkpt>
      <trkpt lat="48.81116" lon="1.37552">
        <ele>124.4</ele>
        <time>2016-03-06T09:03:08Z</time>
      </trkpt>
      <trkpt lat="48.8111" lon="1.37541">
        <ele>124.4</ele>
        <time>2016-03-06T09:03:10Z</time>
      </trkpt>
      <trkpt lat="48.81103" lon="1.37528">
        <ele>124.3</ele>
        <time>2016-03-06T09:03:12Z</time>
      </trkpt>
      <trkpt lat="48.81096" lon="1.37515">
        <ele>124.1</ele>
        <time>2016-03-06T09:03:14Z</time>
      </trkpt>
      <trkpt lat="48.81089" lon="1.37502">
        <ele>123.9</ele>
        <time>2016-03-06T09:03:16Z</time>
      </trkpt>
      <trkpt lat="48.81082" lon="1.37489">
        <ele>123.7</ele>
        <time>2016-03-06T09:03:18Z</time>
      </trkpt>
      <trkpt lat="48.81075" lon="1.37477">
        <ele>123.5</ele>
        <time>2016-03-06T09:03:20Z</time>
      </trkpt>
      <trkpt lat="48.81068" lon="1.37465">
        <ele>123.2</ele>
        <time>2016-03-06T09:03:22Z</time>
      </trkpt>
      <trkpt lat="48.81059" lon="1.37449">
        <ele>122.8</ele>
        <time>2016-03-06T09:03:24Z</time>
      </trkpt>
      <trkpt lat="48.8105" lon="1.37433">
        <ele>122.4</ele>
        <time>2016-03-06T09:03:26Z</time>
      </trkpt>
      <trkpt lat="48.81042" lon="1.37417">
        <ele>122</ele>
        <time>2016-03-06T09:03:28Z</time>
      </trkpt>
      <trkpt lat="48.81035" lon="1.37403">
        <ele>121.6</ele>
        <time>2016-03-06T09:03:30Z</time>
      </trkpt>
      <trkpt lat="48.81028" lon="1.3739">
        <ele>121.3</ele>
        <time>2016-03-06T09:03:32Z</time>
      </trkpt>
      <trkpt lat="48.81021" lon="1.37379">
        <ele>120.9</ele>
        <time>2016-03-06T09:03:34Z</time>
      </trkpt>
      <trkpt lat="48.81013" lon="1.37366">
        <ele>120.5</ele>
        <time>2016-03-06T09:03:37Z</time>
      </trkpt>
      <trkpt lat="48.81004" lon="1.37352">
        <ele>120.1</ele>
        <time>2016-03-06T09:03:40Z</time>
      </trkpt>
      <trkpt lat="48.80998" lon="1.37338">
        <ele>119.9</ele>
        <time>2016-03-06T09:03:43Z</time>
      </trkpt>
      <trkpt lat="48.80989" lon="1.37324">
        <ele>119.5</ele>
        <time>2016-03-06T09:03:46Z</time>
      </trkpt>
      <trkpt lat="48.80981" lon="1.3731">
        <ele>119.1</ele>
        <time>2016-03-06T09:03:49Z</time>
      </trkpt>
      <trkpt lat="48.80974" lon="1.37298">
        <ele>118.4</ele>
        <time>2016-03-06T09:03:52Z</time>
      </trkpt>
      <trkpt lat="48.80967" lon="1.37284">
        <ele>117.2</ele>
        <time>2016-03-06T09:03:55Z</time>
      </trkpt>
      <trkpt lat="48.80961" lon="1.37272">
        <ele>116.2</ele>
        <time>2016-03-06T09:03:57Z</time>
      </trkpt>
      <trkpt lat="48.80954" lon="1.3726">
        <ele>115</ele>
        <time>2016-03-06T09:03:59Z</time>
      </trkpt>
      <trkpt lat="48.80948" lon="1.37249">
        <ele>113.7</ele>
        <time>2016-03-06T09:04:01Z</time>
      </trkpt>
      <trkpt lat="48.80941" lon="1.37237">
        <ele>112.5</ele>
        <time>2016-03-06T09:04:03Z</time>
      </trkpt>
      <trkpt lat="48.80933" lon="1.37226">
        <ele>111.4</ele>
        <time>2016-03-06T09:04:05Z</time>
      </trkpt>
      <trkpt lat="48.80926" lon="1.37212">
        <ele>110.2</ele>
        <time>2016-03-06T09:04:07Z</time>
      </trkpt>
      <trkpt lat="48.80922" lon="1.37197">
        <ele>109.2</ele>
        <time>2016-03-06T09:04:09Z</time>
      </trkpt>
      <trkpt lat="48.80918" lon="1.37181">
        <ele>108.1</ele>
        <time>2016-03-06T09:04:11Z</time>
      </trkpt>
      <trkpt lat="48.80913" lon="1.37165">
        <ele>107.1</ele>
        <time>2016-03-06T09:04:13Z</time>
      </trkpt>
      <trkpt lat="48.80908" lon="1.37149">
        <ele>106.3</ele>
        <time>2016-03-06T09:04:15Z</time>
      </trkpt>
      <trkpt lat="48.80903" lon="1.37132">
        <ele>105.4</ele>
        <time>2016-03-06T09:04:17Z</time>
      </trkpt>
      <trkpt lat="48.80898" lon="1.37117">
        <ele>104.6</ele>
        <time>2016-03-06T09:04:19Z</time>
      </trkpt>
      <trkpt lat="48.80891" lon="1.37104">
        <ele>103.8</ele>
        <time>2016-03-06T09:04:21Z</time>
      </trkpt>
      <trkpt lat="48.80882" lon="1.37093">
        <ele>103.1</ele>
        <time>2016-03-06T09:04:23Z</time>
      </trkpt>
      <trkpt lat="48.80873" lon="1.37085">
        <ele>102.4</ele>
        <time>2016-03-06T09:04:25Z</time>
      </trkpt>
      <trkpt lat="48.80863" lon="1.37075">
        <ele>101.7</ele>
        <time>2016-03-06T09:04:27Z</time>
      </trkpt>
      <trkpt lat="48.80854" lon="1.37064">
        <ele>101.1</ele>
        <time>2016-03-06T09:04:29Z</time>
      </trkpt>
      <trkpt lat="48.80844" lon="1.37054">
        <ele>100.4</ele>
        <time>2016-03-06T09:04:31Z</time>
      </trkpt>
      <trkpt lat="48.80834" lon="1.37047">
        <ele>99.8</ele>
        <time>2016-03-06T09:04:33Z</time>
      </trkpt>
      <trkpt lat="48.80825" lon="1.37039">
        <ele>99.3</ele>
        <time>2016-03-06T09:04:35Z</time>
      </trkpt>
      <trkpt lat="48.80817" lon="1.37027">
        <ele>98.5</ele>
        <time>2016-03-06T09:04:38Z</time>
      </trkpt>
      <trkpt lat="48.80808" lon="1.37021">
        <ele>97.4</ele>
        <time>2016-03-06T09:04:42Z</time>
      </trkpt>
      <trkpt lat="48.808" lon="1.37014">
        <ele>96.4</ele>
        <time>2016-03-06T09:04:47Z</time>
      </trkpt>
      <trkpt lat="48.80795" lon="1.37002">
        <ele>95</ele>
        <time>2016-03-06T09:04:54Z</time>
      </trkpt>
      <trkpt lat="48.80797" lon="1.36988">
        <ele>94.3</ele>
        <time>2016-03-06T09:05:01Z</time>
      </trkpt>
      <trkpt lat="48.80804" lon="1.36979">
        <ele>94.3</ele>
        <time>2016-03-06T09:05:10Z</time>
      </trkpt>
      <trkpt lat="48.80814" lon="1.36977">
        <ele>95.6</ele>
        <time>2016-03-06T09:05:19Z</time>
      </trkpt>
      <trkpt lat="48.80824" lon="1.36978">
        <ele>96.9</ele>
        <time>2016-03-06T09:05:25Z</time>
      </trkpt>
      <trkpt lat="48.80833" lon="1.36978">
        <ele>98.3</ele>
        <time>2016-03-06T09:05:32Z</time>
      </trkpt>
      <trkpt lat="48.80842" lon="1.36968">
        <ele>99.7</ele>
        <time>2016-03-06T09:05:39Z</time>
      </trkpt>
      <trkpt lat="48.80847" lon="1.36955">
        <ele>100.6</ele>
        <time>2016-03-06T09:05:45Z</time>
      </trkpt>
      <trkpt lat="48.80849" lon="1.36942">
        <ele>101.7</ele>
        <time>2016-03-06T09:05:51Z</time>
      </trkpt>
      <trkpt lat="48.80851" lon="1.36927">
        <ele>102.9</ele>
        <time>2016-03-06T09:05:57Z</time>
      </trkpt>
      <trkpt lat="48.80853" lon="1.36913">
        <ele>104.1</ele>
        <time>2016-03-06T09:06:03Z</time>
      </trkpt>
      <trkpt lat="48.80857" lon="1.36898">
        <ele>105.3</ele>
        <time>2016-03-06T09:06:09Z</time>
      </trkpt>
      <trkpt lat="48.80864" lon="1.36887">
        <ele>106.3</ele>
        <time>2016-03-06T09:06:14Z</time>
      </trkpt>
      <trkpt lat="48.8087" lon="1.36874">
        <ele>107.4</ele>
        <time>2016-03-06T09:06:19Z</time>
      </trkpt>
      <trkpt lat="48.80876" lon="1.36861">
        <ele>108.4</ele>
        <time>2016-03-06T09:06:24Z</time>
      </trkpt>
      <trkpt lat="48.80884" lon="1.36848">
        <ele>109.4</ele>
        <time>2016-03-06T09:06:29Z</time>
      </trkpt>
      <trkpt lat="48.80891" lon="1.36836">
        <ele>110</ele>
        <time>2016-03-06T09:06:33Z</time>
      </trkpt>
      <trkpt lat="48.80898" lon="1.36824">
        <ele>110.6</ele>
        <time>2016-03-06T09:06:37Z</time>
      </trkpt>
      <trkpt lat="48.80898" lon="1.36807">
        <ele>111.3</ele>
        <time>2016-03-06T09:06:42Z</time>
      </trkpt>
      <trkpt lat="48.80895" lon="1.36793">
        <ele>112.1</ele>
        <time>2016-03-06T09:06:46Z</time>
      </trkpt>
      <trkpt lat="48.80896" lon="1.36779">
        <ele>112.8</ele>
        <time>2016-03-06T09:06:50Z</time>
      </trkpt>
      <trkpt lat="48.80898" lon="1.36765">
        <ele>113.5</ele>
        <time>2016-03-06T09:06:54Z</time>
      </trkpt>
      <trkpt lat="48.80903" lon="1.36753">
        <ele>114.3</ele>
        <time>2016-03-06T09:06:58Z</time>
      </trkpt>
      <trkpt lat="48.8091" lon="1.3674">
        <ele>114.9</ele>
        <time>2016-03-06T09:07:02Z</time>
      </trkpt>
      <trkpt lat="48.80914" lon="1.36728">
        <ele>115.4</ele>
        <time>2016-03-06T09:07:05Z</time>
      </trkpt>
      <trkpt lat="48.8092" lon="1.36716">
        <ele>115.8</ele>
        <time>2016-03-06T09:07:08Z</time>
      </trkpt>
      <trkpt lat="48.80926" lon="1.36704">
        <ele>116.1</ele>
        <time>2016-03-06T09:07:11Z</time>
      </trkpt>
      <trkpt lat="48.80932" lon="1.3669">
        <ele>116.4</ele>
        <time>2016-03-06T09:07:14Z</time>
      </trkpt>
      <trkpt lat="48.80937" lon="1.36676">
        <ele>116.8</ele>
        <time>2016-03-06T09:07:17Z</time>
      </trkpt>
      <trkpt lat="48.80943" lon="1.36662">
        <ele>117.2</ele>
        <time>2016-03-06T09:07:20Z</time>
      </trkpt>
      <trkpt lat="48.80951" lon="1.3665">
        <ele>117.7</ele>
        <time>2016-03-06T09:07:23Z</time>
      </trkpt>
      <trkpt lat="48.80959" lon="1.36641">
        <ele>118.1</ele>
        <time>2016-03-06T09:07:26Z</time>
      </trkpt>
      <trkpt lat="48.80964" lon="1.3663">
        <ele>118.4</ele>
        <time>2016-03-06T09:07:29Z</time>
      </trkpt>
      <trkpt lat="48.80973" lon="1.3662">
        <ele>118.8</ele>
        <time>2016-03-06T09:07:33Z</time>
      </trkpt>
      <trkpt lat="48.80983" lon="1.3661">
        <ele>119.1</ele>
        <time>2016-03-06T09:07:37Z</time>
      </trkpt>
      <trkpt lat="48.80991" lon="1.36599">
        <ele>119.3</ele>
        <time>2016-03-06T09:07:41Z</time>
      </trkpt>
      <trkpt lat="48.80998" lon="1.3659">
        <ele>119.6</ele>
        <time>2016-03-06T09:07:44Z</time>
      </trkpt>
      <trkpt lat="48.81005" lon="1.36579">
        <ele>119.9</ele>
        <time>2016-03-06T09:07:47Z</time>
      </trkpt>
      <trkpt lat="48.81005" lon="1.36564">
        <ele>120.3</ele>
        <time>2016-03-06T09:07:50Z</time>
      </trkpt>
      <trkpt lat="48.81001" lon="1.36552">
        <ele>120.6</ele>
        <time>2016-03-06T09:07:53Z</time>
      </trkpt>
      <trkpt lat="48.80994" lon="1.36539">
        <ele>120.9</ele>
        <time>2016-03-06T09:07:57Z</time>
      </trkpt>
      <trkpt lat="48.80985" lon="1.36534">
        <ele>121.1</ele>
        <time>2016-03-06T09:08:00Z</time>
      </trkpt>
      <trkpt lat="48.80976" lon="1.36524">
        <ele>121.3</ele>
        <time>2016-03-06T09:08:04Z</time>
      </trkpt>
      <trkpt lat="48.8098" lon="1.36507">
        <ele>121.5</ele>
        <time>2016-03-06T09:08:08Z</time>
      </trkpt>
      <trkpt lat="48.80988" lon="1.36498">
        <ele>121.5</ele>
        <time>2016-03-06T09:08:11Z</time>
      </trkpt>
      <trkpt lat="48.80997" lon="1.36492">
        <ele>121.6</ele>
        <time>2016-03-06T09:08:14Z</time>
      </trkpt>
      <trkpt lat="48.81006" lon="1.36482">
        <ele>121.8</ele>
        <time>2016-03-06T09:08:18Z</time>
      </trkpt>
      <trkpt lat="48.81015" lon="1.36475">
        <ele>121.9</ele>
        <time>2016-03-06T09:08:21Z</time>
      </trkpt>
      <trkpt lat="48.81025" lon="1.36469">
        <ele>122</ele>
        <time>2016-03-06T09:08:24Z</time>
      </trkpt>
      <trkpt lat="48.81035" lon="1.36463">
        <ele>122.1</ele>
        <time>2016-03-06T09:08:27Z</time>
      </trkpt>
      <trkpt lat="48.81045" lon="1.36458">
        <ele>122.2</ele>
        <time>2016-03-06T09:08:30Z</time>
      </trkpt>
      <trkpt lat="48.81055" lon="1.36453">
        <ele>122.4</ele>
        <time>2016-03-06T09:08:33Z</time>
      </trkpt>
      <trkpt lat="48.81063" lon="1.36448">
        <ele>122.6</ele>
        <time>2016-03-06T09:08:36Z</time>
      </trkpt>
      <trkpt lat="48.81072" lon="1.36444">
        <ele>122.8</ele>
        <time>2016-03-06T09:08:39Z</time>
      </trkpt>
      <trkpt lat="48.81081" lon="1.36435">
        <ele>123</ele>
        <time>2016-03-06T09:08:42Z</time>
      </trkpt>
      <trkpt lat="48.81091" lon="1.36425">
        <ele>123.2</ele>
        <time>2016-03-06T09:08:45Z</time>
      </trkpt>
      <trkpt lat="48.81101" lon="1.36421">
        <ele>123.4</ele>
        <time>2016-03-06T09:08:48Z</time>
      </trkpt>
      <trkpt lat="48.81112" lon="1.36427">
        <ele>123.6</ele>
        <time>2016-03-06T09:08:52Z</time>
      </trkpt>
      <trkpt lat="48.81124" lon="1.36422">
        <ele>123.7</ele>
        <time>2016-03-06T09:08:55Z</time>
      </trkpt>
      <trkpt lat="48.81135" lon="1.36412">
        <ele>123.8</ele>
        <time>2016-03-06T09:08:57Z</time>
      </trkpt>
      <trkpt lat="48.81141" lon="1.36401">
        <ele>123.9</ele>
        <time>2016-03-06T09:08:59Z</time>
      </trkpt>
      <trkpt lat="48.81148" lon="1.3639">
        <ele>123.9</ele>
        <time>2016-03-06T09:09:01Z</time>
      </trkpt>
      <trkpt lat="48.81155" lon="1.36381">
        <ele>123.9</ele>
        <time>2016-03-06T09:09:03Z</time>
      </trkpt>
      <trkpt lat="48.81164" lon="1.36375">
        <ele>123.9</ele>
        <time>2016-03-06T09:09:05Z</time>
      </trkpt>
      <trkpt lat="48.81176" lon="1.36371">
        <ele>124</ele>
        <time>2016-03-06T09:09:08Z</time>
      </trkpt>
      <trkpt lat="48.81188" lon="1.36365">
        <ele>124.1</ele>
        <time>2016-03-06T09:09:11Z</time>
      </trkpt>
      <trkpt lat="48.81197" lon="1.36361">
        <ele>124.2</ele>
        <time>2016-03-06T09:09:14Z</time>
      </trkpt>
      <trkpt lat="48.81209" lon="1.36359">
        <ele>124.3</ele>
        <time>2016-03-06T09:09:17Z</time>
      </trkpt>
      <trkpt lat="48.81218" lon="1.36357">
        <ele>124.3</ele>
        <time>2016-03-06T09:09:19Z</time>
      </trkpt>
      <trkpt lat="48.81227" lon="1.36351">
        <ele>124.4</ele>
        <time>2016-03-06T09:09:21Z</time>
      </trkpt>
      <trkpt lat="48.81234" lon="1.36342">
        <ele>124.5</ele>
        <time>2016-03-06T09:09:23Z</time>
      </trkpt>
      <trkpt lat="48.81244" lon="1.36333">
        <ele>124.7</ele>
        <time>2016-03-06T09:09:26Z</time>
      </trkpt>
      <trkpt lat="48.81256" lon="1.36329">
        <ele>125</ele>
        <time>2016-03-06T09:09:29Z</time>
      </trkpt>
      <trkpt lat="48.81265" lon="1.36324">
        <ele>125.2</ele>
        <time>2016-03-06T09:09:31Z</time>
      </trkpt>
      <trkpt lat="48.81277" lon="1.36314">
        <ele>125.4</ele>
        <time>2016-03-06T09:09:34Z</time>
      </trkpt>
      <trkpt lat="48.81286" lon="1.36308">
        <ele>125.5</ele>
        <time>2016-03-06T09:09:36Z</time>
      </trkpt>
      <trkpt lat="48.81298" lon="1.36303">
        <ele>125.7</ele>
        <time>2016-03-06T09:09:39Z</time>
      </trkpt>
      <trkpt lat="48.81308" lon="1.36305">
        <ele>125.8</ele>
        <time>2016-03-06T09:09:42Z</time>
      </trkpt>
      <trkpt lat="48.81317" lon="1.36313">
        <ele>126</ele>
        <time>2016-03-06T09:09:45Z</time>
      </trkpt>
      <trkpt lat="48.81328" lon="1.36314">
        <ele>126.3</ele>
        <time>2016-03-06T09:09:48Z</time>
      </trkpt>
      <trkpt lat="48.81337" lon="1.36316">
        <ele>126.6</ele>
        <time>2016-03-06T09:09:51Z</time>
      </trkpt>
      <trkpt lat="48.81347" lon="1.36315">
        <ele>127</ele>
        <time>2016-03-06T09:09:54Z</time>
      </trkpt>
      <trkpt lat="48.81357" lon="1.36319">
        <ele>127.3</ele>
        <time>2016-03-06T09:09:57Z</time>
      </trkpt>
      <trkpt lat="48.81367" lon="1.36323">
        <ele>127.6</ele>
        <time>2016-03-06T09:10:00Z</time>
      </trkpt>
      <trkpt lat="48.8138" lon="1.36317">
        <ele>127.8</ele>
        <time>2016-03-06T09:10:03Z</time>
      </trkpt>
      <trkpt lat="48.8139" lon="1.36312">
        <ele>128</ele>
        <time>2016-03-06T09:10:06Z</time>
      </trkpt>
      <trkpt lat="48.814" lon="1.36312">
        <ele>128.2</ele>
        <time>2016-03-06T09:10:09Z</time>
      </trkpt>
      <trkpt lat="48.8141" lon="1.36311">
        <ele>128.4</ele>
        <time>2016-03-06T09:10:12Z</time>
      </trkpt>
      <trkpt lat="48.81419" lon="1.36304">
        <ele>128.6</ele>
        <time>2016-03-06T09:10:15Z</time>
      </trkpt>
      <trkpt lat="48.81426" lon="1.36292">
        <ele>128.6</ele>
        <time>2016-03-06T09:10:17Z</time>
      </trkpt>
      <trkpt lat="48.81433" lon="1.36275">
        <ele>128.5</ele>
        <time>2016-03-06T09:10:20Z</time>
      </trkpt>
      <trkpt lat="48.8144" lon="1.36266">
        <ele>128.4</ele>
        <time>2016-03-06T09:10:22Z</time>
      </trkpt>
      <trkpt lat="48.81449" lon="1.36258">
        <ele>128.2</ele>
        <time>2016-03-06T09:10:24Z</time>
      </trkpt>
      <trkpt lat="48.81459" lon="1.3625">
        <ele>127.9</ele>
        <time>2016-03-06T09:10:26Z</time>
      </trkpt>
      <trkpt lat="48.81472" lon="1.36244">
        <ele>127.4</ele>
        <time>2016-03-06T09:10:28Z</time>
      </trkpt>
      <trkpt lat="48.81487" lon="1.36241">
        <ele>126.8</ele>
        <time>2016-03-06T09:10:30Z</time>
      </trkpt>
      <trkpt lat="48.815" lon="1.3624">
        <ele>126.2</ele>
        <time>2016-03-06T09:10:32Z</time>
      </trkpt>
      <trkpt lat="48.8151" lon="1.36237">
        <ele>125.6</ele>
        <time>2016-03-06T09:10:34Z</time>
      </trkpt>
      <trkpt lat="48.81521" lon="1.36234">
        <ele>125.1</ele>
        <time>2016-03-06T09:10:36Z</time>
      </trkpt>
      <trkpt lat="48.81531" lon="1.36234">
        <ele>124.5</ele>
        <time>2016-03-06T09:10:38Z</time>
      </trkpt>
      <trkpt lat="48.81542" lon="1.36232">
        <ele>124</ele>
        <time>2016-03-06T09:10:40Z</time>
      </trkpt>
      <trkpt lat="48.81555" lon="1.36229">
        <ele>123.6</ele>
        <time>2016-03-06T09:10:42Z</time>
      </trkpt>
      <trkpt lat="48.81567" lon="1.36227">
        <ele>123.2</ele>
        <time>2016-03-06T09:10:44Z</time>
      </trkpt>
      <trkpt lat="48.81578" lon="1.36225">
        <ele>122.8</ele>
        <time>2016-03-06T09:10:46Z</time>
      </trkpt>
      <trkpt lat="48.8159" lon="1.36223">
        <ele>122.4</ele>
        <time>2016-03-06T09:10:48Z</time>
      </trkpt>
      <trkpt lat="48.81605" lon="1.36221">
        <ele>122</ele>
        <time>2016-03-06T09:10:50Z</time>
      </trkpt>
      <trkpt lat="48.81619" lon="1.36218">
        <ele>121.5</ele>
        <time>2016-03-06T09:10:52Z</time>
      </trkpt>
      <trkpt lat="48.81633" lon="1.36215">
        <ele>121.1</ele>
        <time>2016-03-06T09:10:54Z</time>
      </trkpt>
      <trkpt lat="48.81646" lon="1.36213">
        <ele>120.7</ele>
        <time>2016-03-06T09:10:56Z</time>
      </trkpt>
      <trkpt lat="48.81657" lon="1.36212">
        <ele>120.4</ele>
        <time>2016-03-06T09:10:58Z</time>
      </trkpt>
      <trkpt lat="48.81668" lon="1.36211">
        <ele>120.1</ele>
        <time>2016-03-06T09:11:00Z</time>
      </trkpt>
      <trkpt lat="48.81678" lon="1.36212">
        <ele>119.8</ele>
        <time>2016-03-06T09:11:02Z</time>
      </trkpt>
      <trkpt lat="48.8169" lon="1.3621">
        <ele>119.6</ele>
        <time>2016-03-06T09:11:04Z</time>
      </trkpt>
      <trkpt lat="48.817" lon="1.36209">
        <ele>119.4</ele>
        <time>2016-03-06T09:11:06Z</time>
      </trkpt>
      <trkpt lat="48.81713" lon="1.36207">
        <ele>119.2</ele>
        <time>2016-03-06T09:11:08Z</time>
      </trkpt>
      <trkpt lat="48.81723" lon="1.36205">
        <ele>119</ele>
        <time>2016-03-06T09:11:10Z</time>
      </trkpt>
      <trkpt lat="48.81733" lon="1.36205">
        <ele>118.8</ele>
        <time>2016-03-06T09:11:12Z</time>
      </trkpt>
      <trkpt lat="48.81742" lon="1.36204">
        <ele>118.6</ele>
        <time>2016-03-06T09:11:15Z</time>
      </trkpt>
      <trkpt lat="48.81752" lon="1.36203">
        <ele>118.4</ele>
        <time>2016-03-06T09:11:19Z</time>
      </trkpt>
      <trkpt lat="48.81764" lon="1.36203">
        <ele>118.3</ele>
        <time>2016-03-06T09:11:22Z</time>
      </trkpt>
      <trkpt lat="48.81774" lon="1.362">
        <ele>118.2</ele>
        <time>2016-03-06T09:11:25Z</time>
      </trkpt>
      <trkpt lat="48.81785" lon="1.36197">
        <ele>118</ele>
        <time>2016-03-06T09:11:27Z</time>
      </trkpt>
      <trkpt lat="48.81794" lon="1.36198">
        <ele>117.8</ele>
        <time>2016-03-06T09:11:29Z</time>
      </trkpt>
      <trkpt lat="48.81805" lon="1.36202">
        <ele>116.9</ele>
        <time>2016-03-06T09:11:33Z</time>
      </trkpt>
      <trkpt lat="48.81814" lon="1.36209">
        <ele>115.9</ele>
        <time>2016-03-06T09:11:38Z</time>
      </trkpt>
      <trkpt lat="48.81824" lon="1.36216">
        <ele>115</ele>
        <time>2016-03-06T09:11:41Z</time>
      </trkpt>
      <trkpt lat="48.81833" lon="1.3622">
        <ele>113.9</ele>
        <time>2016-03-06T09:11:44Z</time>
      </trkpt>
      <trkpt lat="48.81841" lon="1.36227">
        <ele>111.9</ele>
        <time>2016-03-06T09:11:48Z</time>
      </trkpt>
      <trkpt lat="48.81851" lon="1.36231">
        <ele>107.8</ele>
        <time>2016-03-06T09:11:58Z</time>
      </trkpt>
      <trkpt lat="48.81861" lon="1.36234">
        <ele>103.8</ele>
        <time>2016-03-06T09:12:15Z</time>
      </trkpt>
      <trkpt lat="48.8187" lon="1.36237">
        <ele>102</ele>
        <time>2016-03-06T09:12:22Z</time>
      </trkpt>
      <trkpt lat="48.81878" lon="1.36226">
        <ele>100.1</ele>
        <time>2016-03-06T09:12:27Z</time>
      </trkpt>
      <trkpt lat="48.81888" lon="1.36228">
        <ele>98</ele>
        <time>2016-03-06T09:12:32Z</time>
      </trkpt>
      <trkpt lat="48.81894" lon="1.36238">
        <ele>96.1</ele>
        <time>2016-03-06T09:12:37Z</time>
      </trkpt>
      <trkpt lat="48.819" lon="1.36251">
        <ele>95</ele>
        <time>2016-03-06T09:12:41Z</time>
      </trkpt>
      <trkpt lat="48.81908" lon="1.36264">
        <ele>94.1</ele>
        <time>2016-03-06T09:12:45Z</time>
      </trkpt>
      <trkpt lat="48.81911" lon="1.36279">
        <ele>93.5</ele>
        <time>2016-03-06T09:12:49Z</time>
      </trkpt>
      <trkpt lat="48.81909" lon="1.36294">
        <ele>93</ele>
        <time>2016-03-06T09:12:54Z</time>
      </trkpt>
      <trkpt lat="48.8191" lon="1.36308">
        <ele>93.1</ele>
        <time>2016-03-06T09:13:00Z</time>
      </trkpt>
      <trkpt lat="48.8191" lon="1.36322">
        <ele>94</ele>
        <time>2016-03-06T09:13:12Z</time>
      </trkpt>
      <trkpt lat="48.81909" lon="1.36336">
        <ele>95.9</ele>
        <time>2016-03-06T09:13:28Z</time>
      </trkpt>
      <trkpt lat="48.81909" lon="1.36351">
        <ele>97.2</ele>
        <time>2016-03-06T09:13:38Z</time>
      </trkpt>
      <trkpt lat="48.81908" lon="1.36365">
        <ele>98.9</ele>
        <time>2016-03-06T09:13:49Z</time>
      </trkpt>
      <trkpt lat="48.81908" lon="1.36379">
        <ele>100.5</ele>
        <time>2016-03-06T09:14:00Z</time>
      </trkpt>
      <trkpt lat="48.81909" lon="1.36393">
        <ele>101.6</ele>
        <time>2016-03-06T09:14:07Z</time>
      </trkpt>
      <trkpt lat="48.81908" lon="1.36407">
        <ele>103.6</ele>
        <time>2016-03-06T09:14:18Z</time>
      </trkpt>
      <trkpt lat="48.81906" lon="1.36422">
        <ele>105.5</ele>
        <time>2016-03-06T09:14:30Z</time>
      </trkpt>
      <trkpt lat="48.81905" lon="1.36436">
        <ele>107.7</ele>
        <time>2016-03-06T09:14:41Z</time>
      </trkpt>
      <trkpt lat="48.81904" lon="1.3645">
        <ele>110.7</ele>
        <time>2016-03-06T09:14:57Z</time>
      </trkpt>
      <trkpt lat="48.81904" lon="1.36464">
        <ele>113.1</ele>
        <time>2016-03-06T09:15:11Z</time>
      </trkpt>
      <trkpt lat="48.81905" lon="1.36478">
        <ele>115.6</ele>
        <time>2016-03-06T09:15:26Z</time>
      </trkpt>
      <trkpt lat="48.81904" lon="1.36493">
        <ele>118</ele>
        <time>2016-03-06T09:15:41Z</time>
      </trkpt>
      <trkpt lat="48.81902" lon="1.36507">
        <ele>119.5</ele>
        <time>2016-03-06T09:15:50Z</time>
      </trkpt>
      <trkpt lat="48.819" lon="1.36522">
        <ele>121</ele>
        <time>2016-03-06T09:15:59Z</time>
      </trkpt>
      <trkpt lat="48.81899" lon="1.36536">
        <ele>122.3</ele>
        <time>2016-03-06T09:16:08Z</time>
      </trkpt>
      <trkpt lat="48.81898" lon="1.3655">
        <ele>123</ele>
        <time>2016-03-06T09:16:14Z</time>
      </trkpt>
      <trkpt lat="48.81899" lon="1.36567">
        <ele>123.8</ele>
        <time>2016-03-06T09:16:20Z</time>
      </trkpt>
      <trkpt lat="48.81899" lon="1.36581">
        <ele>124.2</ele>
        <time>2016-03-06T09:16:24Z</time>
      </trkpt>
      <trkpt lat="48.81898" lon="1.366">
        <ele>124.7</ele>
        <time>2016-03-06T09:16:29Z</time>
      </trkpt>
      <trkpt lat="48.81897" lon="1.36616">
        <ele>124.8</ele>
        <time>2016-03-06T09:16:32Z</time>
      </trkpt>
      <trkpt lat="48.81897" lon="1.36632">
        <ele>125</ele>
        <time>2016-03-06T09:16:35Z</time>
      </trkpt>
      <trkpt lat="48.81898" lon="1.36649">
        <ele>125.3</ele>
        <time>2016-03-06T09:16:39Z</time>
      </trkpt>
      <trkpt lat="48.81898" lon="1.36667">
        <ele>125.5</ele>
        <time>2016-03-06T09:16:42Z</time>
      </trkpt>
      <trkpt lat="48.81895" lon="1.36683">
        <ele>125.7</ele>
        <time>2016-03-06T09:16:44Z</time>
      </trkpt>
      <trkpt lat="48.81895" lon="1.36697">
        <ele>125.8</ele>
        <time>2016-03-06T09:16:47Z</time>
      </trkpt>
      <trkpt lat="48.81897" lon="1.36711">
        <ele>126</ele>
        <time>2016-03-06T09:16:50Z</time>
      </trkpt>
      <trkpt lat="48.81896" lon="1.3673">
        <ele>126.2</ele>
        <time>2016-03-06T09:16:53Z</time>
      </trkpt>
      <trkpt lat="48.81896" lon="1.3675">
        <ele>126.3</ele>
        <time>2016-03-06T09:16:56Z</time>
      </trkpt>
      <trkpt lat="48.81894" lon="1.36764">
        <ele>126.4</ele>
        <time>2016-03-06T09:16:58Z</time>
      </trkpt>
      <trkpt lat="48.81892" lon="1.36784">
        <ele>126.5</ele>
        <time>2016-03-06T09:17:01Z</time>
      </trkpt>
      <trkpt lat="48.81893" lon="1.36798">
        <ele>126.6</ele>
        <time>2016-03-06T09:17:03Z</time>
      </trkpt>
      <trkpt lat="48.819" lon="1.36811">
        <ele>126.7</ele>
        <time>2016-03-06T09:17:07Z</time>
      </trkpt>
      <trkpt lat="48.81911" lon="1.36815">
        <ele>126.7</ele>
        <time>2016-03-06T09:17:11Z</time>
      </trkpt>
      <trkpt lat="48.81922" lon="1.36817">
        <ele>126.7</ele>
        <time>2016-03-06T09:17:14Z</time>
      </trkpt>
      <trkpt lat="48.81932" lon="1.3682">
        <ele>126.8</ele>
        <time>2016-03-06T09:17:16Z</time>
      </trkpt>
      <trkpt lat="48.81944" lon="1.36822">
        <ele>126.8</ele>
        <time>2016-03-06T09:17:19Z</time>
      </trkpt>
      <trkpt lat="48.81954" lon="1.36825">
        <ele>126.8</ele>
        <time>2016-03-06T09:17:22Z</time>
      </trkpt>
      <trkpt lat="48.81964" lon="1.36826">
        <ele>126.8</ele>
        <time>2016-03-06T09:17:24Z</time>
      </trkpt>
      <trkpt lat="48.81974" lon="1.36827">
        <ele>126.8</ele>
        <time>2016-03-06T09:17:26Z</time>
      </trkpt>
      <trkpt lat="48.81985" lon="1.36828">
        <ele>126.7</ele>
        <time>2016-03-06T09:17:28Z</time>
      </trkpt>
      <trkpt lat="48.81995" lon="1.36829">
        <ele>126.7</ele>
        <time>2016-03-06T09:17:30Z</time>
      </trkpt>
      <trkpt lat="48.82004" lon="1.36831">
        <ele>126.7</ele>
        <time>2016-03-06T09:17:32Z</time>
      </trkpt>
      <trkpt lat="48.82016" lon="1.36833">
        <ele>126.6</ele>
        <time>2016-03-06T09:17:35Z</time>
      </trkpt>
      <trkpt lat="48.82025" lon="1.36835">
        <ele>126.6</ele>
        <time>2016-03-06T09:17:38Z</time>
      </trkpt>
      <trkpt lat="48.82039" lon="1.36838">
        <ele>126.5</ele>
        <time>2016-03-06T09:17:41Z</time>
      </trkpt>
      <trkpt lat="48.82052" lon="1.36838">
        <ele>126.5</ele>
        <time>2016-03-06T09:17:43Z</time>
      </trkpt>
      <trkpt lat="48.82066" lon="1.36837">
        <ele>126.5</ele>
        <time>2016-03-06T09:17:45Z</time>
      </trkpt>
      <trkpt lat="48.82079" lon="1.36838">
        <ele>126.5</ele>
        <time>2016-03-06T09:17:47Z</time>
      </trkpt>
      <trkpt lat="48.8209" lon="1.36838">
        <ele>126.4</ele>
        <time>2016-03-06T09:17:49Z</time>
      </trkpt>
      <trkpt lat="48.82105" lon="1.3684">
        <ele>126.3</ele>
        <time>2016-03-06T09:17:52Z</time>
      </trkpt>
      <trkpt lat="48.82115" lon="1.36842">
        <ele>126.3</ele>
        <time>2016-03-06T09:17:54Z</time>
      </trkpt>
      <trkpt lat="48.82127" lon="1.36843">
        <ele>126.1</ele>
        <time>2016-03-06T09:17:56Z</time>
      </trkpt>
      <trkpt lat="48.82136" lon="1.36844">
        <ele>125.9</ele>
        <time>2016-03-06T09:17:58Z</time>
      </trkpt>
      <trkpt lat="48.82145" lon="1.36847">
        <ele>125.7</ele>
        <time>2016-03-06T09:18:01Z</time>
      </trkpt>
      <trkpt lat="48.82154" lon="1.3685">
        <ele>125.4</ele>
        <time>2016-03-06T09:18:04Z</time>
      </trkpt>
      <trkpt lat="48.82165" lon="1.36851">
        <ele>125.2</ele>
        <time>2016-03-06T09:18:06Z</time>
      </trkpt>
      <trkpt lat="48.82176" lon="1.36855">
        <ele>125</ele>
        <time>2016-03-06T09:18:09Z</time>
      </trkpt>
      <trkpt lat="48.82186" lon="1.36856">
        <ele>124.9</ele>
        <time>2016-03-06T09:18:11Z</time>
      </trkpt>
      <trkpt lat="48.82203" lon="1.36856">
        <ele>124.5</ele>
        <time>2016-03-06T09:18:13Z</time>
      </trkpt>
      <trkpt lat="48.82215" lon="1.36856">
        <ele>124.2</ele>
        <time>2016-03-06T09:18:15Z</time>
      </trkpt>
      <trkpt lat="48.82228" lon="1.36857">
        <ele>123.9</ele>
        <time>2016-03-06T09:18:17Z</time>
      </trkpt>
      <trkpt lat="48.82242" lon="1.36857">
        <ele>123.5</ele>
        <time>2016-03-06T09:18:19Z</time>
      </trkpt>
      <trkpt lat="48.82253" lon="1.36857">
        <ele>122.5</ele>
        <time>2016-03-06T09:18:22Z</time>
      </trkpt>
      <trkpt lat="48.82262" lon="1.36858">
        <ele>121.7</ele>
        <time>2016-03-06T09:18:24Z</time>
      </trkpt>
      <trkpt lat="48.82272" lon="1.36856">
        <ele>119.4</ele>
        <time>2016-03-06T09:18:31Z</time>
      </trkpt>
      <trkpt lat="48.82282" lon="1.36856">
        <ele>118.1</ele>
        <time>2016-03-06T09:18:37Z</time>
      </trkpt>
      <trkpt lat="48.82292" lon="1.36857">
        <ele>117.6</ele>
        <time>2016-03-06T09:18:40Z</time>
      </trkpt>
      <trkpt lat="48.82302" lon="1.36858">
        <ele>116.7</ele>
        <time>2016-03-06T09:18:46Z</time>
      </trkpt>
      <trkpt lat="48.82312" lon="1.36858">
        <ele>116.3</ele>
        <time>2016-03-06T09:18:50Z</time>
      </trkpt>
      <trkpt lat="48.82322" lon="1.36858">
        <ele>116.6</ele>
        <time>2016-03-06T09:18:55Z</time>
      </trkpt>
      <trkpt lat="48.82331" lon="1.3686">
        <ele>117.4</ele>
        <time>2016-03-06T09:19:03Z</time>
      </trkpt>
      <trkpt lat="48.82342" lon="1.36861">
        <ele>118.5</ele>
        <time>2016-03-06T09:19:09Z</time>
      </trkpt>
      <trkpt lat="48.82352" lon="1.36862">
        <ele>119.9</ele>
        <time>2016-03-06T09:19:17Z</time>
      </trkpt>
      <trkpt lat="48.82362" lon="1.36865">
        <ele>120.7</ele>
        <time>2016-03-06T09:19:23Z</time>
      </trkpt>
      <trkpt lat="48.82371" lon="1.36867">
        <ele>121.3</ele>
        <time>2016-03-06T09:19:28Z</time>
      </trkpt>
      <trkpt lat="48.8238" lon="1.36869">
        <ele>121.5</ele>
        <time>2016-03-06T09:19:31Z</time>
      </trkpt>
      <trkpt lat="48.82391" lon="1.36868">
        <ele>121.5</ele>
        <time>2016-03-06T09:19:33Z</time>
      </trkpt>
      <trkpt lat="48.82401" lon="1.36868">
        <ele>121.6</ele>
        <time>2016-03-06T09:19:35Z</time>
      </trkpt>
      <trkpt lat="48.82414" lon="1.36871">
        <ele>121.6</ele>
        <time>2016-03-06T09:19:38Z</time>
      </trkpt>
      <trkpt lat="48.82426" lon="1.36872">
        <ele>121.8</ele>
        <time>2016-03-06T09:19:41Z</time>
      </trkpt>
      <trkpt lat="48.82436" lon="1.36873">
        <ele>121.9</ele>
        <time>2016-03-06T09:19:43Z</time>
      </trkpt>
      <trkpt lat="48.82445" lon="1.36874">
        <ele>122</ele>
        <time>2016-03-06T09:19:45Z</time>
      </trkpt>
      <trkpt lat="48.82455" lon="1.36875">
        <ele>122.3</ele>
        <time>2016-03-06T09:19:48Z</time>
      </trkpt>
      <trkpt lat="48.82464" lon="1.36873">
        <ele>122.5</ele>
        <time>2016-03-06T09:19:51Z</time>
      </trkpt>
      <trkpt lat="48.82472" lon="1.36862">
        <ele>122.9</ele>
        <time>2016-03-06T09:19:54Z</time>
      </trkpt>
      <trkpt lat="48.82479" lon="1.36846">
        <ele>123.1</ele>
        <time>2016-03-06T09:19:57Z</time>
      </trkpt>
      <trkpt lat="48.82482" lon="1.36831">
        <ele>123.3</ele>
        <time>2016-03-06T09:20:00Z</time>
      </trkpt>
      <trkpt lat="48.82482" lon="1.36817">
        <ele>123.5</ele>
        <time>2016-03-06T09:20:02Z</time>
      </trkpt>
      <trkpt lat="48.82484" lon="1.36796">
        <ele>123.7</ele>
        <time>2016-03-06T09:20:05Z</time>
      </trkpt>
      <trkpt lat="48.82484" lon="1.36782">
        <ele>123.9</ele>
        <time>2016-03-06T09:20:07Z</time>
      </trkpt>
      <trkpt lat="48.82485" lon="1.36763">
        <ele>124.2</ele>
        <time>2016-03-06T09:20:10Z</time>
      </trkpt>
      <trkpt lat="48.82485" lon="1.36742">
        <ele>124.5</ele>
        <time>2016-03-06T09:20:13Z</time>
      </trkpt>
      <trkpt lat="48.82485" lon="1.36728">
        <ele>124.8</ele>
        <time>2016-03-06T09:20:15Z</time>
      </trkpt>
      <trkpt lat="48.82487" lon="1.36708">
        <ele>125</ele>
        <time>2016-03-06T09:20:18Z</time>
      </trkpt>
      <trkpt lat="48.82488" lon="1.36689">
        <ele>125.3</ele>
        <time>2016-03-06T09:20:21Z</time>
      </trkpt>
      <trkpt lat="48.82487" lon="1.36669">
        <ele>125.5</ele>
        <time>2016-03-06T09:20:24Z</time>
      </trkpt>
      <trkpt lat="48.82487" lon="1.36654">
        <ele>125.6</ele>
        <time>2016-03-06T09:20:26Z</time>
      </trkpt>
      <trkpt lat="48.82487" lon="1.36638">
        <ele>125.7</ele>
        <time>2016-03-06T09:20:28Z</time>
      </trkpt>
      <trkpt lat="48.82486" lon="1.36623">
        <ele>125.8</ele>
        <time>2016-03-06T09:20:30Z</time>
      </trkpt>
      <trkpt lat="48.82486" lon="1.36608">
        <ele>125.9</ele>
        <time>2016-03-06T09:20:32Z</time>
      </trkpt>
      <trkpt lat="48.82486" lon="1.36592">
        <ele>126</ele>
        <time>2016-03-06T09:20:34Z</time>
      </trkpt>
      <trkpt lat="48.82487" lon="1.36577">
        <ele>126.1</ele>
        <time>2016-03-06T09:20:36Z</time>
      </trkpt>
      <trkpt lat="48.82486" lon="1.3656">
        <ele>126.1</ele>
        <time>2016-03-06T09:20:38Z</time>
      </trkpt>
      <trkpt lat="48.82486" lon="1.36544">
        <ele>126.2</ele>
        <time>2016-03-06T09:20:40Z</time>
      </trkpt>
      <trkpt lat="48.82486" lon="1.36529">
        <ele>126.2</ele>
        <time>2016-03-06T09:20:42Z</time>
      </trkpt>
      <trkpt lat="48.82486" lon="1.36515">
        <ele>126.3</ele>
        <time>2016-03-06T09:20:44Z</time>
      </trkpt>
      <trkpt lat="48.82486" lon="1.36499">
        <ele>126.3</ele>
        <time>2016-03-06T09:20:46Z</time>
      </trkpt>
      <trkpt lat="48.82486" lon="1.36484">
        <ele>126.4</ele>
        <time>2016-03-06T09:20:48Z</time>
      </trkpt>
      <trkpt lat="48.82485" lon="1.36467">
        <ele>126.5</ele>
        <time>2016-03-06T09:20:50Z</time>
      </trkpt>
      <trkpt lat="48.82485" lon="1.36451">
        <ele>126.7</ele>
        <time>2016-03-06T09:20:52Z</time>
      </trkpt>
      <trkpt lat="48.82484" lon="1.36437">
        <ele>126.8</ele>
        <time>2016-03-06T09:20:54Z</time>
      </trkpt>
      <trkpt lat="48.82484" lon="1.36416">
        <ele>126.9</ele>
        <time>2016-03-06T09:20:57Z</time>
      </trkpt>
      <trkpt lat="48.82484" lon="1.36402">
        <ele>127</ele>
        <time>2016-03-06T09:20:59Z</time>
      </trkpt>
      <trkpt lat="48.82484" lon="1.36387">
        <ele>127</ele>
        <time>2016-03-06T09:21:01Z</time>
      </trkpt>
      <trkpt lat="48.82484" lon="1.36372">
        <ele>127</ele>
        <time>2016-03-06T09:21:03Z</time>
      </trkpt>
      <trkpt lat="48.82484" lon="1.36357">
        <ele>127.1</ele>
        <time>2016-03-06T09:21:05Z</time>
      </trkpt>
      <trkpt lat="48.82485" lon="1.36343">
        <ele>127.1</ele>
        <time>2016-03-06T09:21:07Z</time>
      </trkpt>
      <trkpt lat="48.82486" lon="1.36329">
        <ele>127.1</ele>
        <time>2016-03-06T09:21:09Z</time>
      </trkpt>
      <trkpt lat="48.82485" lon="1.3631">
        <ele>127.2</ele>
        <time>2016-03-06T09:21:12Z</time>
      </trkpt>
      <trkpt lat="48.82489" lon="1.36294">
        <ele>127.2</ele>
        <time>2016-03-06T09:21:15Z</time>
      </trkpt>
      <trkpt lat="48.825" lon="1.36292">
        <ele>127.2</ele>
        <time>2016-03-06T09:21:19Z</time>
      </trkpt>
      <trkpt lat="48.8251" lon="1.36294">
        <ele>127.3</ele>
        <time>2016-03-06T09:21:22Z</time>
      </trkpt>
      <trkpt lat="48.82519" lon="1.36297">
        <ele>127.4</ele>
        <time>2016-03-06T09:21:25Z</time>
      </trkpt>
      <trkpt lat="48.82529" lon="1.36301">
        <ele>127.4</ele>
        <time>2016-03-06T09:21:28Z</time>
      </trkpt>
      <trkpt lat="48.8254" lon="1.36304">
        <ele>127.5</ele>
        <time>2016-03-06T09:21:31Z</time>
      </trkpt>
      <trkpt lat="48.82553" lon="1.36306">
        <ele>127.5</ele>
        <time>2016-03-06T09:21:34Z</time>
      </trkpt>
      <trkpt lat="48.82566" lon="1.36306">
        <ele>127.7</ele>
        <time>2016-03-06T09:21:37Z</time>
      </trkpt>
      <trkpt lat="48.82578" lon="1.36308">
        <ele>127.7</ele>
        <time>2016-03-06T09:21:40Z</time>
      </trkpt>
      <trkpt lat="48.82589" lon="1.36309">
        <ele>127.7</ele>
        <time>2016-03-06T09:21:42Z</time>
      </trkpt>
      <trkpt lat="48.82598" lon="1.36311">
        <ele>127.7</ele>
        <time>2016-03-06T09:21:44Z</time>
      </trkpt>
      <trkpt lat="48.8261" lon="1.36313">
        <ele>127.7</ele>
        <time>2016-03-06T09:21:46Z</time>
      </trkpt>
      <trkpt lat="48.82619" lon="1.36315">
        <ele>127.7</ele>
        <time>2016-03-06T09:21:48Z</time>
      </trkpt>
      <trkpt lat="48.82631" lon="1.36316">
        <ele>127.7</ele>
        <time>2016-03-06T09:21:50Z</time>
      </trkpt>
      <trkpt lat="48.82643" lon="1.36319">
        <ele>127.7</ele>
        <time>2016-03-06T09:21:53Z</time>
      </trkpt>
      <trkpt lat="48.82657" lon="1.36321">
        <ele>127.7</ele>
        <time>2016-03-06T09:21:56Z</time>
      </trkpt>
      <trkpt lat="48.82668" lon="1.36323">
        <ele>127.7</ele>
        <time>2016-03-06T09:21:58Z</time>
      </trkpt>
      <trkpt lat="48.82681" lon="1.36324">
        <ele>127.8</ele>
        <time>2016-03-06T09:22:00Z</time>
      </trkpt>
      <trkpt lat="48.82691" lon="1.36326">
        <ele>127.8</ele>
        <time>2016-03-06T09:22:02Z</time>
      </trkpt>
      <trkpt lat="48.82703" lon="1.36327">
        <ele>127.9</ele>
        <time>2016-03-06T09:22:04Z</time>
      </trkpt>
      <trkpt lat="48.82713" lon="1.36329">
        <ele>127.9</ele>
        <time>2016-03-06T09:22:06Z</time>
      </trkpt>
      <trkpt lat="48.82724" lon="1.36337">
        <ele>128</ele>
        <time>2016-03-06T09:22:09Z</time>
      </trkpt>
      <trkpt lat="48.82734" lon="1.36338">
        <ele>128</ele>
        <time>2016-03-06T09:22:12Z</time>
      </trkpt>
      <trkpt lat="48.82745" lon="1.36337">
        <ele>128.1</ele>
        <time>2016-03-06T09:22:14Z</time>
      </trkpt>
      <trkpt lat="48.82757" lon="1.36341">
        <ele>128.1</ele>
        <time>2016-03-06T09:22:17Z</time>
      </trkpt>
      <trkpt lat="48.82771" lon="1.36343">
        <ele>128.1</ele>
        <time>2016-03-06T09:22:19Z</time>
      </trkpt>
      <trkpt lat="48.82781" lon="1.36344">
        <ele>128.1</ele>
        <time>2016-03-06T09:22:21Z</time>
      </trkpt>
      <trkpt lat="48.8279" lon="1.36347">
        <ele>128.1</ele>
        <time>2016-03-06T09:22:23Z</time>
      </trkpt>
      <trkpt lat="48.82803" lon="1.36352">
        <ele>128.2</ele>
        <time>2016-03-06T09:22:26Z</time>
      </trkpt>
      <trkpt lat="48.82815" lon="1.36355">
        <ele>128.2</ele>
        <time>2016-03-06T09:22:28Z</time>
      </trkpt>
      <trkpt lat="48.82823" lon="1.36359">
        <ele>128.2</ele>
        <time>2016-03-06T09:22:30Z</time>
      </trkpt>
      <trkpt lat="48.82835" lon="1.3636">
        <ele>128.2</ele>
        <time>2016-03-06T09:22:32Z</time>
      </trkpt>
      <trkpt lat="48.82844" lon="1.36363">
        <ele>128.2</ele>
        <time>2016-03-06T09:22:34Z</time>
      </trkpt>
      <trkpt lat="48.82856" lon="1.36365">
        <ele>128.1</ele>
        <time>2016-03-06T09:22:36Z</time>
      </trkpt>
      <trkpt lat="48.8287" lon="1.36367">
        <ele>128.1</ele>
        <time>2016-03-06T09:22:38Z</time>
      </trkpt>
      <trkpt lat="48.82882" lon="1.36368">
        <ele>128.1</ele>
        <time>2016-03-06T09:22:40Z</time>
      </trkpt>
      <trkpt lat="48.82894" lon="1.36369">
        <ele>128</ele>
        <time>2016-03-06T09:22:42Z</time>
      </trkpt>
      <trkpt lat="48.82911" lon="1.36372">
        <ele>127.8</ele>
        <time>2016-03-06T09:22:44Z</time>
      </trkpt>
      <trkpt lat="48.8292" lon="1.36373">
        <ele>127.7</ele>
        <time>2016-03-06T09:22:45Z</time>
      </trkpt>
      <trkpt lat="48.82933" lon="1.36376">
        <ele>127.4</ele>
        <time>2016-03-06T09:22:47Z</time>
      </trkpt>
      <trkpt lat="48.82944" lon="1.36377">
        <ele>127.1</ele>
        <time>2016-03-06T09:22:49Z</time>
      </trkpt>
      <trkpt lat="48.82954" lon="1.3638">
        <ele>126.8</ele>
        <time>2016-03-06T09:22:51Z</time>
      </trkpt>
      <trkpt lat="48.82962" lon="1.36392">
        <ele>126.1</ele>
        <time>2016-03-06T09:22:54Z</time>
      </trkpt>
      <trkpt lat="48.82965" lon="1.36406">
        <ele>125.4</ele>
        <time>2016-03-06T09:22:57Z</time>
      </trkpt>
      <trkpt lat="48.82967" lon="1.36421">
        <ele>124.9</ele>
        <time>2016-03-06T09:23:00Z</time>
      </trkpt>
      <trkpt lat="48.8297" lon="1.36436">
        <ele>124.4</ele>
        <time>2016-03-06T09:23:04Z</time>
      </trkpt>
      <trkpt lat="48.82979" lon="1.36442">
        <ele>123.7</ele>
        <time>2016-03-06T09:23:14Z</time>
      </trkpt>
      <trkpt lat="48.82988" lon="1.36445">
        <ele>122.9</ele>
        <time>2016-03-06T09:23:45Z</time>
      </trkpt>
      <trkpt lat="48.82997" lon="1.36446">
        <ele>122.2</ele>
        <time>2016-03-06T09:28:15Z</time>
      </trkpt>
      <trkpt lat="48.83008" lon="1.36439">
        <ele>122.2</ele>
        <time>2016-03-06T09:28:19Z</time>
      </trkpt>
      <trkpt lat="48.8302" lon="1.36433">
        <ele>122</ele>
        <time>2016-03-06T09:28:22Z</time>
      </trkpt>
      <trkpt lat="48.83029" lon="1.3643">
        <ele>121.9</ele>
        <time>2016-03-06T09:28:24Z</time>
      </trkpt>
      <trkpt lat="48.83041" lon="1.36429">
        <ele>121.7</ele>
        <time>2016-03-06T09:28:26Z</time>
      </trkpt>
      <trkpt lat="48.83052" lon="1.36435">
        <ele>121.2</ele>
        <time>2016-03-06T09:28:28Z</time>
      </trkpt>
      <trkpt lat="48.8306" lon="1.36445">
        <ele>120.8</ele>
        <time>2016-03-06T09:28:30Z</time>
      </trkpt>
      <trkpt lat="48.83068" lon="1.36456">
        <ele>120.4</ele>
        <time>2016-03-06T09:28:32Z</time>
      </trkpt>
      <trkpt lat="48.83075" lon="1.36468">
        <ele>120</ele>
        <time>2016-03-06T09:28:34Z</time>
      </trkpt>
      <trkpt lat="48.83085" lon="1.36478">
        <ele>119.4</ele>
        <time>2016-03-06T09:28:36Z</time>
      </trkpt>
      <trkpt lat="48.83094" lon="1.36492">
        <ele>118.6</ele>
        <time>2016-03-06T09:28:38Z</time>
      </trkpt>
      <trkpt lat="48.83099" lon="1.36511">
        <ele>117.8</ele>
        <time>2016-03-06T09:28:40Z</time>
      </trkpt>
      <trkpt lat="48.83107" lon="1.36529">
        <ele>116.7</ele>
        <time>2016-03-06T09:28:42Z</time>
      </trkpt>
      <trkpt lat="48.83115" lon="1.36545">
        <ele>115.4</ele>
        <time>2016-03-06T09:28:44Z</time>
      </trkpt>
      <trkpt lat="48.8312" lon="1.36559">
        <ele>114</ele>
        <time>2016-03-06T09:28:46Z</time>
      </trkpt>
      <trkpt lat="48.83127" lon="1.36572">
        <ele>112</ele>
        <time>2016-03-06T09:28:49Z</time>
      </trkpt>
      <trkpt lat="48.83134" lon="1.36582">
        <ele>109.3</ele>
        <time>2016-03-06T09:28:53Z</time>
      </trkpt>
      <trkpt lat="48.83134" lon="1.36598">
        <ele>104.2</ele>
        <time>2016-03-06T09:29:03Z</time>
      </trkpt>
      <trkpt lat="48.8313" lon="1.36613">
        <ele>102</ele>
        <time>2016-03-06T09:29:10Z</time>
      </trkpt>
      <trkpt lat="48.83129" lon="1.36628">
        <ele>101.3</ele>
        <time>2016-03-06T09:29:19Z</time>
      </trkpt>
      <trkpt lat="48.83124" lon="1.36641">
        <ele>101.5</ele>
        <time>2016-03-06T09:29:27Z</time>
      </trkpt>
      <trkpt lat="48.83118" lon="1.36652">
        <ele>101.9</ele>
        <time>2016-03-06T09:29:34Z</time>
      </trkpt>
      <trkpt lat="48.83112" lon="1.36664">
        <ele>103.1</ele>
        <time>2016-03-06T09:29:42Z</time>
      </trkpt>
      <trkpt lat="48.83105" lon="1.36674">
        <ele>104.9</ele>
        <time>2016-03-06T09:29:53Z</time>
      </trkpt>
      <trkpt lat="48.831" lon="1.36687">
        <ele>106.3</ele>
        <time>2016-03-06T09:30:01Z</time>
      </trkpt>
      <trkpt lat="48.83096" lon="1.36699">
        <ele>107.7</ele>
        <time>2016-03-06T09:30:09Z</time>
      </trkpt>
      <trkpt lat="48.83089" lon="1.3671">
        <ele>109.4</ele>
        <time>2016-03-06T09:30:20Z</time>
      </trkpt>
      <trkpt lat="48.83084" lon="1.36723">
        <ele>110.6</ele>
        <time>2016-03-06T09:30:29Z</time>
      </trkpt>
      <trkpt lat="48.8308" lon="1.36736">
        <ele>111.2</ele>
        <time>2016-03-06T09:30:34Z</time>
      </trkpt>
      <trkpt lat="48.83076" lon="1.36749">
        <ele>112.1</ele>
        <time>2016-03-06T09:30:42Z</time>
      </trkpt>
      <trkpt lat="48.83073" lon="1.36763">
        <ele>112.6</ele>
        <time>2016-03-06T09:30:46Z</time>
      </trkpt>
      <trkpt lat="48.83069" lon="1.36779">
        <ele>113.1</ele>
        <time>2016-03-06T09:30:50Z</time>
      </trkpt>
      <trkpt lat="48.83063" lon="1.36794">
        <ele>113.8</ele>
        <time>2016-03-06T09:30:56Z</time>
      </trkpt>
      <trkpt lat="48.8306" lon="1.36807">
        <ele>115.7</ele>
        <time>2016-03-06T09:31:51Z</time>
      </trkpt>
      <trkpt lat="48.8306" lon="1.36822">
        <ele>115.9</ele>
        <time>2016-03-06T09:31:57Z</time>
      </trkpt>
      <trkpt lat="48.83059" lon="1.36839">
        <ele>116</ele>
        <time>2016-03-06T09:32:01Z</time>
      </trkpt>
      <trkpt lat="48.83058" lon="1.36856">
        <ele>116.1</ele>
        <time>2016-03-06T09:32:05Z</time>
      </trkpt>
      <trkpt lat="48.83056" lon="1.3687">
        <ele>116.2</ele>
        <time>2016-03-06T09:32:09Z</time>
      </trkpt>
      <trkpt lat="48.83057" lon="1.36885">
        <ele>116.2</ele>
        <time>2016-03-06T09:32:14Z</time>
      </trkpt>
      <trkpt lat="48.83056" lon="1.36901">
        <ele>116.3</ele>
        <time>2016-03-06T09:32:18Z</time>
      </trkpt>
      <trkpt lat="48.83053" lon="1.36915">
        <ele>116.3</ele>
        <time>2016-03-06T09:32:22Z</time>
      </trkpt>
      <trkpt lat="48.83047" lon="1.36926">
        <ele>116.5</ele>
        <time>2016-03-06T09:32:27Z</time>
      </trkpt>
      <trkpt lat="48.83037" lon="1.36932">
        <ele>116.8</ele>
        <time>2016-03-06T09:32:33Z</time>
      </trkpt>
      <trkpt lat="48.83028" lon="1.36938">
        <ele>117.2</ele>
        <time>2016-03-06T09:32:37Z</time>
      </trkpt>
      <trkpt lat="48.83019" lon="1.36942">
        <ele>117.6</ele>
        <time>2016-03-06T09:32:41Z</time>
      </trkpt>
      <trkpt lat="48.83009" lon="1.36946">
        <ele>118.1</ele>
        <time>2016-03-06T09:32:45Z</time>
      </trkpt>
      <trkpt lat="48.83" lon="1.36948">
        <ele>118.6</ele>
        <time>2016-03-06T09:32:50Z</time>
      </trkpt>
      <trkpt lat="48.82991" lon="1.36952">
        <ele>119.3</ele>
        <time>2016-03-06T09:32:55Z</time>
      </trkpt>
      <trkpt lat="48.82981" lon="1.36953">
        <ele>119.9</ele>
        <time>2016-03-06T09:32:59Z</time>
      </trkpt>
      <trkpt lat="48.82972" lon="1.36955">
        <ele>120.5</ele>
        <time>2016-03-06T09:33:03Z</time>
      </trkpt>
      <trkpt lat="48.82962" lon="1.36956">
        <ele>121.1</ele>
        <time>2016-03-06T09:33:07Z</time>
      </trkpt>
      <trkpt lat="48.82952" lon="1.36959">
        <ele>121.9</ele>
        <time>2016-03-06T09:33:11Z</time>
      </trkpt>
      <trkpt lat="48.8294" lon="1.36961">
        <ele>122.6</ele>
        <time>2016-03-06T09:33:15Z</time>
      </trkpt>
      <trkpt lat="48.8293" lon="1.36963">
        <ele>123.2</ele>
        <time>2016-03-06T09:33:19Z</time>
      </trkpt>
      <trkpt lat="48.82921" lon="1.36965">
        <ele>123.6</ele>
        <time>2016-03-06T09:33:22Z</time>
      </trkpt>
      <trkpt lat="48.8291" lon="1.36966">
        <ele>124.2</ele>
        <time>2016-03-06T09:33:26Z</time>
      </trkpt>
      <trkpt lat="48.82899" lon="1.36969">
        <ele>124.5</ele>
        <time>2016-03-06T09:33:29Z</time>
      </trkpt>
      <trkpt lat="48.82889" lon="1.36969">
        <ele>124.8</ele>
        <time>2016-03-06T09:33:32Z</time>
      </trkpt>
      <trkpt lat="48.8288" lon="1.36969">
        <ele>125.1</ele>
        <time>2016-03-06T09:33:35Z</time>
      </trkpt>
      <trkpt lat="48.82869" lon="1.36971">
        <ele>125.3</ele>
        <time>2016-03-06T09:33:39Z</time>
      </trkpt>
      <trkpt lat="48.82858" lon="1.36974">
        <ele>125.6</ele>
        <time>2016-03-06T09:33:42Z</time>
      </trkpt>
      <trkpt lat="48.82846" lon="1.36977">
        <ele>125.8</ele>
        <time>2016-03-06T09:33:45Z</time>
      </trkpt>
      <trkpt lat="48.82834" lon="1.36979">
        <ele>126</ele>
        <time>2016-03-06T09:33:48Z</time>
      </trkpt>
      <trkpt lat="48.82822" lon="1.36978">
        <ele>126.2</ele>
        <time>2016-03-06T09:33:51Z</time>
      </trkpt>
      <trkpt lat="48.82813" lon="1.3698">
        <ele>126.3</ele>
        <time>2016-03-06T09:33:53Z</time>
      </trkpt>
      <trkpt lat="48.82799" lon="1.36982">
        <ele>126.5</ele>
        <time>2016-03-06T09:33:56Z</time>
      </trkpt>
      <trkpt lat="48.8279" lon="1.36983">
        <ele>126.6</ele>
        <time>2016-03-06T09:33:58Z</time>
      </trkpt>
      <trkpt lat="48.8278" lon="1.36984">
        <ele>126.7</ele>
        <time>2016-03-06T09:34:00Z</time>
      </trkpt>
      <trkpt lat="48.82771" lon="1.36986">
        <ele>126.8</ele>
        <time>2016-03-06T09:34:02Z</time>
      </trkpt>
      <trkpt lat="48.82761" lon="1.36987">
        <ele>126.9</ele>
        <time>2016-03-06T09:34:04Z</time>
      </trkpt>
      <trkpt lat="48.82751" lon="1.36989">
        <ele>127</ele>
        <time>2016-03-06T09:34:06Z</time>
      </trkpt>
      <trkpt lat="48.82741" lon="1.3699">
        <ele>127</ele>
        <time>2016-03-06T09:34:08Z</time>
      </trkpt>
      <trkpt lat="48.82732" lon="1.36991">
        <ele>127.1</ele>
        <time>2016-03-06T09:34:10Z</time>
      </trkpt>
      <trkpt lat="48.82723" lon="1.36991">
        <ele>127.1</ele>
        <time>2016-03-06T09:34:12Z</time>
      </trkpt>
      <trkpt lat="48.82713" lon="1.36992">
        <ele>127.2</ele>
        <time>2016-03-06T09:34:14Z</time>
      </trkpt>
      <trkpt lat="48.82703" lon="1.36994">
        <ele>127.2</ele>
        <time>2016-03-06T09:34:16Z</time>
      </trkpt>
      <trkpt lat="48.82692" lon="1.36995">
        <ele>127.2</ele>
        <time>2016-03-06T09:34:18Z</time>
      </trkpt>
      <trkpt lat="48.82682" lon="1.36996">
        <ele>127.2</ele>
        <time>2016-03-06T09:34:20Z</time>
      </trkpt>
      <trkpt lat="48.82672" lon="1.36995">
        <ele>127.2</ele>
        <time>2016-03-06T09:34:22Z</time>
      </trkpt>
      <trkpt lat="48.82661" lon="1.36997">
        <ele>127.2</ele>
        <time>2016-03-06T09:34:24Z</time>
      </trkpt>
      <trkpt lat="48.82651" lon="1.36998">
        <ele>127.2</ele>
        <time>2016-03-06T09:34:26Z</time>
      </trkpt>
      <trkpt lat="48.8264" lon="1.36999">
        <ele>127.3</ele>
        <time>2016-03-06T09:34:28Z</time>
      </trkpt>
      <trkpt lat="48.82629" lon="1.37001">
        <ele>127.3</ele>
        <time>2016-03-06T09:34:30Z</time>
      </trkpt>
      <trkpt lat="48.82618" lon="1.37002">
        <ele>127.3</ele>
        <time>2016-03-06T09:34:32Z</time>
      </trkpt>
      <trkpt lat="48.82608" lon="1.37003">
        <ele>127.3</ele>
        <time>2016-03-06T09:34:34Z</time>
      </trkpt>
      <trkpt lat="48.82598" lon="1.37004">
        <ele>127.3</ele>
        <time>2016-03-06T09:34:36Z</time>
      </trkpt>
      <trkpt lat="48.82587" lon="1.37004">
        <ele>127.4</ele>
        <time>2016-03-06T09:34:38Z</time>
      </trkpt>
      <trkpt lat="48.82577" lon="1.37005">
        <ele>127.4</ele>
        <time>2016-03-06T09:34:40Z</time>
      </trkpt>
      <trkpt lat="48.82567" lon="1.37006">
        <ele>127.4</ele>
        <time>2016-03-06T09:34:42Z</time>
      </trkpt>
      <trkpt lat="48.82557" lon="1.37006">
        <ele>127.4</ele>
        <time>2016-03-06T09:34:44Z</time>
      </trkpt>
      <trkpt lat="48.82546" lon="1.37007">
        <ele>127.4</ele>
        <time>2016-03-06T09:34:46Z</time>
      </trkpt>
      <trkpt lat="48.82535" lon="1.37007">
        <ele>127.4</ele>
        <time>2016-03-06T09:34:48Z</time>
      </trkpt>
      <trkpt lat="48.82522" lon="1.37006">
        <ele>127.3</ele>
        <time>2016-03-06T09:34:51Z</time>
      </trkpt>
      <trkpt lat="48.82512" lon="1.37006">
        <ele>127.2</ele>
        <time>2016-03-06T09:34:53Z</time>
      </trkpt>
      <trkpt lat="48.82501" lon="1.37008">
        <ele>127.1</ele>
        <time>2016-03-06T09:34:55Z</time>
      </trkpt>
      <trkpt lat="48.8249" lon="1.3701">
        <ele>126.9</ele>
        <time>2016-03-06T09:34:57Z</time>
      </trkpt>
      <trkpt lat="48.82478" lon="1.3701">
        <ele>126.8</ele>
        <time>2016-03-06T09:34:59Z</time>
      </trkpt>
      <trkpt lat="48.82464" lon="1.37012">
        <ele>126.5</ele>
        <time>2016-03-06T09:35:01Z</time>
      </trkpt>
      <trkpt lat="48.82451" lon="1.37014">
        <ele>126.2</ele>
        <time>2016-03-06T09:35:03Z</time>
      </trkpt>
      <trkpt lat="48.82438" lon="1.37017">
        <ele>125.8</ele>
        <time>2016-03-06T09:35:05Z</time>
      </trkpt>
      <trkpt lat="48.82426" lon="1.37018">
        <ele>125.5</ele>
        <time>2016-03-06T09:35:07Z</time>
      </trkpt>
      <trkpt lat="48.82416" lon="1.37019">
        <ele>125.1</ele>
        <time>2016-03-06T09:35:09Z</time>
      </trkpt>
      <trkpt lat="48.82404" lon="1.3702">
        <ele>124.6</ele>
        <time>2016-03-06T09:35:12Z</time>
      </trkpt>
      <trkpt lat="48.82391" lon="1.3702">
        <ele>124.2</ele>
        <time>2016-03-06T09:35:15Z</time>
      </trkpt>
      <trkpt lat="48.82382" lon="1.37021">
        <ele>123.9</ele>
        <time>2016-03-06T09:35:17Z</time>
      </trkpt>
      <trkpt lat="48.82373" lon="1.37022">
        <ele>123.6</ele>
        <time>2016-03-06T09:35:19Z</time>
      </trkpt>
      <trkpt lat="48.82363" lon="1.37022">
        <ele>123.4</ele>
        <time>2016-03-06T09:35:21Z</time>
      </trkpt>
      <trkpt lat="48.82353" lon="1.37024">
        <ele>123.1</ele>
        <time>2016-03-06T09:35:23Z</time>
      </trkpt>
      <trkpt lat="48.82343" lon="1.37028">
        <ele>122.7</ele>
        <time>2016-03-06T09:35:26Z</time>
      </trkpt>
      <trkpt lat="48.82333" lon="1.37027">
        <ele>122.3</ele>
        <time>2016-03-06T09:35:29Z</time>
      </trkpt>
      <trkpt lat="48.82323" lon="1.37028">
        <ele>122</ele>
        <time>2016-03-06T09:35:32Z</time>
      </trkpt>
      <trkpt lat="48.82313" lon="1.3703">
        <ele>121.7</ele>
        <time>2016-03-06T09:35:35Z</time>
      </trkpt>
      <trkpt lat="48.82302" lon="1.3703">
        <ele>121.5</ele>
        <time>2016-03-06T09:35:38Z</time>
      </trkpt>
      <trkpt lat="48.82293" lon="1.37032">
        <ele>121.4</ele>
        <time>2016-03-06T09:35:40Z</time>
      </trkpt>
      <trkpt lat="48.82283" lon="1.37032">
        <ele>121.3</ele>
        <time>2016-03-06T09:35:42Z</time>
      </trkpt>
      <trkpt lat="48.82273" lon="1.37035">
        <ele>121.2</ele>
        <time>2016-03-06T09:35:44Z</time>
      </trkpt>
      <trkpt lat="48.82263" lon="1.37036">
        <ele>121.2</ele>
        <time>2016-03-06T09:35:46Z</time>
      </trkpt>
      <trkpt lat="48.82253" lon="1.37038">
        <ele>121.2</ele>
        <time>2016-03-06T09:35:48Z</time>
      </trkpt>
      <trkpt lat="48.82244" lon="1.37039">
        <ele>121.2</ele>
        <time>2016-03-06T09:35:50Z</time>
      </trkpt>
      <trkpt lat="48.82235" lon="1.37039">
        <ele>121.2</ele>
        <time>2016-03-06T09:35:52Z</time>
      </trkpt>
      <trkpt lat="48.82225" lon="1.37041">
        <ele>121.2</ele>
        <time>2016-03-06T09:35:54Z</time>
      </trkpt>
      <trkpt lat="48.82215" lon="1.37044">
        <ele>121.3</ele>
        <time>2016-03-06T09:35:56Z</time>
      </trkpt>
      <trkpt lat="48.82206" lon="1.37044">
        <ele>121.3</ele>
        <time>2016-03-06T09:35:58Z</time>
      </trkpt>
      <trkpt lat="48.82195" lon="1.37044">
        <ele>121.4</ele>
        <time>2016-03-06T09:36:01Z</time>
      </trkpt>
      <trkpt lat="48.82186" lon="1.37044">
        <ele>121.5</ele>
        <time>2016-03-06T09:36:04Z</time>
      </trkpt>
      <trkpt lat="48.82177" lon="1.37042">
        <ele>121.6</ele>
        <time>2016-03-06T09:36:07Z</time>
      </trkpt>
      <trkpt lat="48.82166" lon="1.37043">
        <ele>121.6</ele>
        <time>2016-03-06T09:36:10Z</time>
      </trkpt>
      <trkpt lat="48.82154" lon="1.37044">
        <ele>121.6</ele>
        <time>2016-03-06T09:36:13Z</time>
      </trkpt>
      <trkpt lat="48.82142" lon="1.37045">
        <ele>121.7</ele>
        <time>2016-03-06T09:36:16Z</time>
      </trkpt>
      <trkpt lat="48.8213" lon="1.37048">
        <ele>121.8</ele>
        <time>2016-03-06T09:36:19Z</time>
      </trkpt>
      <trkpt lat="48.82117" lon="1.37051">
        <ele>121.8</ele>
        <time>2016-03-06T09:36:22Z</time>
      </trkpt>
      <trkpt lat="48.82105" lon="1.37051">
        <ele>121.8</ele>
        <time>2016-03-06T09:36:25Z</time>
      </trkpt>
      <trkpt lat="48.82093" lon="1.37051">
        <ele>121.9</ele>
        <time>2016-03-06T09:36:28Z</time>
      </trkpt>
      <trkpt lat="48.82084" lon="1.37053">
        <ele>121.9</ele>
        <time>2016-03-06T09:36:30Z</time>
      </trkpt>
      <trkpt lat="48.82075" lon="1.37054">
        <ele>122</ele>
        <time>2016-03-06T09:36:32Z</time>
      </trkpt>
      <trkpt lat="48.82061" lon="1.37057">
        <ele>122.1</ele>
        <time>2016-03-06T09:36:35Z</time>
      </trkpt>
      <trkpt lat="48.82048" lon="1.37058">
        <ele>122.2</ele>
        <time>2016-03-06T09:36:38Z</time>
      </trkpt>
      <trkpt lat="48.82036" lon="1.37058">
        <ele>122.2</ele>
        <time>2016-03-06T09:36:41Z</time>
      </trkpt>
      <trkpt lat="48.82023" lon="1.37058">
        <ele>122.3</ele>
        <time>2016-03-06T09:36:44Z</time>
      </trkpt>
      <trkpt lat="48.82012" lon="1.37061">
        <ele>122.3</ele>
        <time>2016-03-06T09:36:46Z</time>
      </trkpt>
      <trkpt lat="48.82003" lon="1.37061">
        <ele>122.4</ele>
        <time>2016-03-06T09:36:48Z</time>
      </trkpt>
      <trkpt lat="48.81994" lon="1.37063">
        <ele>122.4</ele>
        <time>2016-03-06T09:36:50Z</time>
      </trkpt>
      <trkpt lat="48.81984" lon="1.37065">
        <ele>122.5</ele>
        <time>2016-03-06T09:36:52Z</time>
      </trkpt>
      <trkpt lat="48.81975" lon="1.37065">
        <ele>122.6</ele>
        <time>2016-03-06T09:36:54Z</time>
      </trkpt>
      <trkpt lat="48.81962" lon="1.37066">
        <ele>122.8</ele>
        <time>2016-03-06T09:36:57Z</time>
      </trkpt>
      <trkpt lat="48.81949" lon="1.37065">
        <ele>122.9</ele>
        <time>2016-03-06T09:37:00Z</time>
      </trkpt>
      <trkpt lat="48.81936" lon="1.37066">
        <ele>123.1</ele>
        <time>2016-03-06T09:37:03Z</time>
      </trkpt>
      <trkpt lat="48.81924" lon="1.37067">
        <ele>123.3</ele>
        <time>2016-03-06T09:37:06Z</time>
      </trkpt>
      <trkpt lat="48.81911" lon="1.37068">
        <ele>123.4</ele>
        <time>2016-03-06T09:37:09Z</time>
      </trkpt>
      <trkpt lat="48.81899" lon="1.3707">
        <ele>123.5</ele>
        <time>2016-03-06T09:37:12Z</time>
      </trkpt>
      <trkpt lat="48.81888" lon="1.37077">
        <ele>123.6</ele>
        <time>2016-03-06T09:37:15Z</time>
      </trkpt>
      <trkpt lat="48.81884" lon="1.37092">
        <ele>123.8</ele>
        <time>2016-03-06T09:37:19Z</time>
      </trkpt>
      <trkpt lat="48.81882" lon="1.37107">
        <ele>123.9</ele>
        <time>2016-03-06T09:37:22Z</time>
      </trkpt>
      <trkpt lat="48.81882" lon="1.37126">
        <ele>123.9</ele>
        <time>2016-03-06T09:37:25Z</time>
      </trkpt>
      <trkpt lat="48.8188" lon="1.37143">
        <ele>123.9</ele>
        <time>2016-03-06T09:37:28Z</time>
      </trkpt>
      <trkpt lat="48.81879" lon="1.37162">
        <ele>124.1</ele>
        <time>2016-03-06T09:37:31Z</time>
      </trkpt>
      <trkpt lat="48.81878" lon="1.37177">
        <ele>124.1</ele>
        <time>2016-03-06T09:37:33Z</time>
      </trkpt>
      <trkpt lat="48.81878" lon="1.37198">
        <ele>124.2</ele>
        <time>2016-03-06T09:37:36Z</time>
      </trkpt>
      <trkpt lat="48.81877" lon="1.37213">
        <ele>124.3</ele>
        <time>2016-03-06T09:37:38Z</time>
      </trkpt>
      <trkpt lat="48.81874" lon="1.37234">
        <ele>124.5</ele>
        <time>2016-03-06T09:37:41Z</time>
      </trkpt>
      <trkpt lat="48.81874" lon="1.37255">
        <ele>124.7</ele>
        <time>2016-03-06T09:37:44Z</time>
      </trkpt>
      <trkpt lat="48.81872" lon="1.37274">
        <ele>124.8</ele>
        <time>2016-03-06T09:37:47Z</time>
      </trkpt>
      <trkpt lat="48.81871" lon="1.3729">
        <ele>124.9</ele>
        <time>2016-03-06T09:37:49Z</time>
      </trkpt>
      <trkpt lat="48.8187" lon="1.37307">
        <ele>125</ele>
        <time>2016-03-06T09:37:51Z</time>
      </trkpt>
      <trkpt lat="48.81869" lon="1.37327">
        <ele>125.1</ele>
        <time>2016-03-06T09:37:54Z</time>
      </trkpt>
      <trkpt lat="48.81869" lon="1.37344">
        <ele>125.2</ele>
        <time>2016-03-06T09:37:57Z</time>
      </trkpt>
      <trkpt lat="48.81869" lon="1.3736">
        <ele>125.3</ele>
        <time>2016-03-06T09:38:00Z</time>
      </trkpt>
      <trkpt lat="48.81868" lon="1.37381">
        <ele>125.3</ele>
        <time>2016-03-06T09:38:03Z</time>
      </trkpt>
      <trkpt lat="48.81867" lon="1.37399">
        <ele>125.4</ele>
        <time>2016-03-06T09:38:05Z</time>
      </trkpt>
      <trkpt lat="48.81866" lon="1.37415">
        <ele>125.4</ele>
        <time>2016-03-06T09:38:07Z</time>
      </trkpt>
      <trkpt lat="48.81865" lon="1.3743">
        <ele>125.5</ele>
        <time>2016-03-06T09:38:09Z</time>
      </trkpt>
      <trkpt lat="48.81866" lon="1.37448">
        <ele>125.7</ele>
        <time>2016-03-06T09:38:12Z</time>
      </trkpt>
      <trkpt lat="48.81866" lon="1.37464">
        <ele>125.9</ele>
        <time>2016-03-06T09:38:14Z</time>
      </trkpt>
      <trkpt lat="48.81866" lon="1.37478">
        <ele>126</ele>
        <time>2016-03-06T09:38:16Z</time>
      </trkpt>
      <trkpt lat="48.81864" lon="1.37496">
        <ele>126.1</ele>
        <time>2016-03-06T09:38:18Z</time>
      </trkpt>
      <trkpt lat="48.81862" lon="1.37511">
        <ele>126.2</ele>
        <time>2016-03-06T09:38:20Z</time>
      </trkpt>
      <trkpt lat="48.81861" lon="1.37525">
        <ele>126.3</ele>
        <time>2016-03-06T09:38:22Z</time>
      </trkpt>
      <trkpt lat="48.81862" lon="1.3754">
        <ele>126.4</ele>
        <time>2016-03-06T09:38:25Z</time>
      </trkpt>
      <trkpt lat="48.81859" lon="1.37558">
        <ele>126.5</ele>
        <time>2016-03-06T09:38:28Z</time>
      </trkpt>
      <trkpt lat="48.8185" lon="1.37565">
        <ele>126.7</ele>
        <time>2016-03-06T09:38:31Z</time>
      </trkpt>
      <trkpt lat="48.81836" lon="1.37569">
        <ele>126.9</ele>
        <time>2016-03-06T09:38:34Z</time>
      </trkpt>
      <trkpt lat="48.81827" lon="1.37572">
        <ele>127</ele>
        <time>2016-03-06T09:38:36Z</time>
      </trkpt>
      <trkpt lat="48.81818" lon="1.37573">
        <ele>127.1</ele>
        <time>2016-03-06T09:38:38Z</time>
      </trkpt>
      <trkpt lat="48.81808" lon="1.37575">
        <ele>127.1</ele>
        <time>2016-03-06T09:38:40Z</time>
      </trkpt>
      <trkpt lat="48.81799" lon="1.37576">
        <ele>127.2</ele>
        <time>2016-03-06T09:38:42Z</time>
      </trkpt>
      <trkpt lat="48.8179" lon="1.37579">
        <ele>127.2</ele>
        <time>2016-03-06T09:38:44Z</time>
      </trkpt>
      <trkpt lat="48.81779" lon="1.37589">
        <ele>127.3</ele>
        <time>2016-03-06T09:38:47Z</time>
      </trkpt>
      <trkpt lat="48.81771" lon="1.376">
        <ele>127.4</ele>
        <time>2016-03-06T09:38:50Z</time>
      </trkpt>
      <trkpt lat="48.81764" lon="1.37615">
        <ele>127.6</ele>
        <time>2016-03-06T09:38:54Z</time>
      </trkpt>
      <trkpt lat="48.81757" lon="1.37627">
        <ele>127.7</ele>
        <time>2016-03-06T09:38:57Z</time>
      </trkpt>
      <trkpt lat="48.81752" lon="1.37641">
        <ele>127.9</ele>
        <time>2016-03-06T09:39:01Z</time>
      </trkpt>
      <trkpt lat="48.81748" lon="1.37656">
        <ele>128</ele>
        <time>2016-03-06T09:39:03Z</time>
      </trkpt>
      <trkpt lat="48.81746" lon="1.37671">
        <ele>128.1</ele>
        <time>2016-03-06T09:39:05Z</time>
      </trkpt>
      <trkpt lat="48.81743" lon="1.37685">
        <ele>128.1</ele>
        <time>2016-03-06T09:39:07Z</time>
      </trkpt>
      <trkpt lat="48.81739" lon="1.37703">
        <ele>128.3</ele>
        <time>2016-03-06T09:39:10Z</time>
      </trkpt>
      <trkpt lat="48.81735" lon="1.3772">
        <ele>128.3</ele>
        <time>2016-03-06T09:39:12Z</time>
      </trkpt>
      <trkpt lat="48.8173" lon="1.37735">
        <ele>128.4</ele>
        <time>2016-03-06T09:39:14Z</time>
      </trkpt>
      <trkpt lat="48.81725" lon="1.37752">
        <ele>128.4</ele>
        <time>2016-03-06T09:39:16Z</time>
      </trkpt>
      <trkpt lat="48.8172" lon="1.3777">
        <ele>128.5</ele>
        <time>2016-03-06T09:39:18Z</time>
      </trkpt>
      <trkpt lat="48.81716" lon="1.37782">
        <ele>128.5</ele>
        <time>2016-03-06T09:39:20Z</time>
      </trkpt>
      <trkpt lat="48.81712" lon="1.37798">
        <ele>128.5</ele>
        <time>2016-03-06T09:39:23Z</time>
      </trkpt>
      <trkpt lat="48.81709" lon="1.37813">
        <ele>128.6</ele>
        <time>2016-03-06T09:39:25Z</time>
      </trkpt>
      <trkpt lat="48.81706" lon="1.3783">
        <ele>128.6</ele>
        <time>2016-03-06T09:39:27Z</time>
      </trkpt>
      <trkpt lat="48.81705" lon="1.37846">
        <ele>128.6</ele>
        <time>2016-03-06T09:39:29Z</time>
      </trkpt>
      <trkpt lat="48.81701" lon="1.37868">
        <ele>128.6</ele>
        <time>2016-03-06T09:39:31Z</time>
      </trkpt>
      <trkpt lat="48.817" lon="1.37886">
        <ele>128.6</ele>
        <time>2016-03-06T09:39:33Z</time>
      </trkpt>
      <trkpt lat="48.81699" lon="1.37906">
        <ele>128.7</ele>
        <time>2016-03-06T09:39:35Z</time>
      </trkpt>
      <trkpt lat="48.81698" lon="1.37922">
        <ele>128.7</ele>
        <time>2016-03-06T09:39:37Z</time>
      </trkpt>
      <trkpt lat="48.81697" lon="1.3794">
        <ele>128.7</ele>
        <time>2016-03-06T09:39:39Z</time>
      </trkpt>
      <trkpt lat="48.81695" lon="1.37959">
        <ele>128.7</ele>
        <time>2016-03-06T09:39:41Z</time>
      </trkpt>
      <trkpt lat="48.81694" lon="1.37978">
        <ele>128.7</ele>
        <time>2016-03-06T09:39:43Z</time>
      </trkpt>
      <trkpt lat="48.81692" lon="1.37998">
        <ele>128.7</ele>
        <time>2016-03-06T09:39:45Z</time>
      </trkpt>
      <trkpt lat="48.81691" lon="1.38019">
        <ele>128.7</ele>
        <time>2016-03-06T09:39:47Z</time>
      </trkpt>
      <trkpt lat="48.8169" lon="1.38037">
        <ele>128.7</ele>
        <time>2016-03-06T09:39:49Z</time>
      </trkpt>
      <trkpt lat="48.81688" lon="1.38055">
        <ele>128.7</ele>
        <time>2016-03-06T09:39:51Z</time>
      </trkpt>
      <trkpt lat="48.81687" lon="1.38071">
        <ele>128.7</ele>
        <time>2016-03-06T09:39:53Z</time>
      </trkpt>
      <trkpt lat="48.81677" lon="1.38082">
        <ele>128.7</ele>
        <time>2016-03-06T09:39:56Z</time>
      </trkpt>
      <trkpt lat="48.81663" lon="1.3808">
        <ele>128.7</ele>
        <time>2016-03-06T09:39:59Z</time>
      </trkpt>
      <trkpt lat="48.81653" lon="1.38074">
        <ele>128.7</ele>
        <time>2016-03-06T09:40:01Z</time>
      </trkpt>
      <trkpt lat="48.81642" lon="1.38066">
        <ele>128.6</ele>
        <time>2016-03-06T09:40:03Z</time>
      </trkpt>
      <trkpt lat="48.81632" lon="1.38059">
        <ele>128.6</ele>
        <time>2016-03-06T09:40:05Z</time>
      </trkpt>
      <trkpt lat="48.81623" lon="1.38052">
        <ele>128.6</ele>
        <time>2016-03-06T09:40:07Z</time>
      </trkpt>
      <trkpt lat="48.81613" lon="1.38045">
        <ele>128.6</ele>
        <time>2016-03-06T09:40:09Z</time>
      </trkpt>
      <trkpt lat="48.81604" lon="1.38038">
        <ele>128.5</ele>
        <time>2016-03-06T09:40:11Z</time>
      </trkpt>
      <trkpt lat="48.81594" lon="1.38031">
        <ele>128.5</ele>
        <time>2016-03-06T09:40:13Z</time>
      </trkpt>
      <trkpt lat="48.81585" lon="1.38023">
        <ele>128.5</ele>
        <time>2016-03-06T09:40:15Z</time>
      </trkpt>
      <trkpt lat="48.81576" lon="1.38017">
        <ele>128.5</ele>
        <time>2016-03-06T09:40:17Z</time>
      </trkpt>
      <trkpt lat="48.81566" lon="1.38011">
        <ele>128.5</ele>
        <time>2016-03-06T09:40:19Z</time>
      </trkpt>
      <trkpt lat="48.81557" lon="1.38005">
        <ele>128.4</ele>
        <time>2016-03-06T09:40:21Z</time>
      </trkpt>
      <trkpt lat="48.81547" lon="1.37998">
        <ele>128.4</ele>
        <time>2016-03-06T09:40:23Z</time>
      </trkpt>
      <trkpt lat="48.81537" lon="1.37991">
        <ele>128.3</ele>
        <time>2016-03-06T09:40:25Z</time>
      </trkpt>
      <trkpt lat="48.81527" lon="1.37986">
        <ele>128.2</ele>
        <time>2016-03-06T09:40:27Z</time>
      </trkpt>
      <trkpt lat="48.81517" lon="1.37991">
        <ele>128.2</ele>
        <time>2016-03-06T09:40:29Z</time>
      </trkpt>
      <trkpt lat="48.81511" lon="1.38002">
        <ele>128.1</ele>
        <time>2016-03-06T09:40:31Z</time>
      </trkpt>
      <trkpt lat="48.81507" lon="1.38014">
        <ele>128.1</ele>
        <time>2016-03-06T09:40:33Z</time>
      </trkpt>
      <trkpt lat="48.81502" lon="1.38031">
        <ele>127.9</ele>
        <time>2016-03-06T09:40:36Z</time>
      </trkpt>
      <trkpt lat="48.81497" lon="1.38045">
        <ele>127.8</ele>
        <time>2016-03-06T09:40:38Z</time>
      </trkpt>
      <trkpt lat="48.81493" lon="1.38057">
        <ele>127.7</ele>
        <time>2016-03-06T09:40:40Z</time>
      </trkpt>
      <trkpt lat="48.81488" lon="1.38072">
        <ele>127.5</ele>
        <time>2016-03-06T09:40:43Z</time>
      </trkpt>
      <trkpt lat="48.81482" lon="1.38092">
        <ele>127.4</ele>
        <time>2016-03-06T09:40:46Z</time>
      </trkpt>
      <trkpt lat="48.81476" lon="1.38109">
        <ele>127.3</ele>
        <time>2016-03-06T09:40:48Z</time>
      </trkpt>
      <trkpt lat="48.8147" lon="1.38126">
        <ele>127.3</ele>
        <time>2016-03-06T09:40:50Z</time>
      </trkpt>
      <trkpt lat="48.81465" lon="1.38143">
        <ele>127.2</ele>
        <time>2016-03-06T09:40:52Z</time>
      </trkpt>
      <trkpt lat="48.81461" lon="1.38159">
        <ele>127.2</ele>
        <time>2016-03-06T09:40:54Z</time>
      </trkpt>
      <trkpt lat="48.81459" lon="1.38173">
        <ele>127.1</ele>
        <time>2016-03-06T09:40:56Z</time>
      </trkpt>
      <trkpt lat="48.81455" lon="1.38188">
        <ele>127</ele>
        <time>2016-03-06T09:40:58Z</time>
      </trkpt>
      <trkpt lat="48.81447" lon="1.38196">
        <ele>127</ele>
        <time>2016-03-06T09:41:01Z</time>
      </trkpt>
      <trkpt lat="48.81439" lon="1.38191">
        <ele>126.9</ele>
        <time>2016-03-06T09:41:04Z</time>
      </trkpt>
      <trkpt lat="48.81429" lon="1.38182">
        <ele>126.9</ele>
        <time>2016-03-06T09:41:07Z</time>
      </trkpt>
      <trkpt lat="48.81419" lon="1.38184">
        <ele>126.8</ele>
        <time>2016-03-06T09:41:11Z</time>
      </trkpt>
      <trkpt lat="48.81418" lon="1.38198">
        <ele>126.7</ele>
        <time>2016-03-06T09:41:16Z</time>
      </trkpt>
      <trkpt lat="48.81413" lon="1.38212">
        <ele>126.6</ele>
        <time>2016-03-06T09:41:20Z</time>
      </trkpt>
      <trkpt lat="48.81407" lon="1.38222">
        <ele>126.5</ele>
        <time>2016-03-06T09:41:24Z</time>
      </trkpt>
      <trkpt lat="48.81399" lon="1.38232">
        <ele>126.3</ele>
        <time>2016-03-06T09:41:28Z</time>
      </trkpt>
      <trkpt lat="48.81392" lon="1.38245">
        <ele>126.3</ele>
        <time>2016-03-06T09:41:32Z</time>
      </trkpt>
      <trkpt lat="48.81386" lon="1.38259">
        <ele>126.3</ele>
        <time>2016-03-06T09:41:36Z</time>
      </trkpt>
      <trkpt lat="48.81383" lon="1.38278">
        <ele>126.3</ele>
        <time>2016-03-06T09:41:39Z</time>
      </trkpt>
      <trkpt lat="48.81384" lon="1.38294">
        <ele>126.3</ele>
        <time>2016-03-06T09:41:42Z</time>
      </trkpt>
      <trkpt lat="48.81385" lon="1.38313">
        <ele>126.3</ele>
        <time>2016-03-06T09:41:45Z</time>
      </trkpt>
      <trkpt lat="48.81388" lon="1.38328">
        <ele>126.3</ele>
        <time>2016-03-06T09:41:48Z</time>
      </trkpt>
      <trkpt lat="48.81386" lon="1.38346">
        <ele>126.4</ele>
        <time>2016-03-06T09:41:51Z</time>
      </trkpt>
      <trkpt lat="48.8138" lon="1.38361">
        <ele>126.4</ele>
        <time>2016-03-06T09:41:54Z</time>
      </trkpt>
      <trkpt lat="48.81373" lon="1.38373">
        <ele>126.5</ele>
        <time>2016-03-06T09:41:58Z</time>
      </trkpt>
      <trkpt lat="48.81367" lon="1.38385">
        <ele>126.7</ele>
        <time>2016-03-06T09:42:01Z</time>
      </trkpt>
      <trkpt lat="48.81361" lon="1.38398">
        <ele>126.8</ele>
        <time>2016-03-06T09:42:04Z</time>
      </trkpt>
      <trkpt lat="48.81355" lon="1.38409">
        <ele>127</ele>
        <time>2016-03-06T09:42:07Z</time>
      </trkpt>
      <trkpt lat="48.81346" lon="1.3842">
        <ele>127.3</ele>
        <time>2016-03-06T09:42:11Z</time>
      </trkpt>
      <trkpt lat="48.81338" lon="1.3843">
        <ele>127.4</ele>
        <time>2016-03-06T09:42:14Z</time>
      </trkpt>
      <trkpt lat="48.81333" lon="1.38443">
        <ele>127.5</ele>
        <time>2016-03-06T09:42:17Z</time>
      </trkpt>
      <trkpt lat="48.81327" lon="1.38456">
        <ele>127.6</ele>
        <time>2016-03-06T09:42:20Z</time>
      </trkpt>
      <trkpt lat="48.81318" lon="1.3847">
        <ele>127.7</ele>
        <time>2016-03-06T09:42:23Z</time>
      </trkpt>
      <trkpt lat="48.8131" lon="1.3848">
        <ele>127.7</ele>
        <time>2016-03-06T09:42:25Z</time>
      </trkpt>
      <trkpt lat="48.81301" lon="1.38489">
        <ele>127.7</ele>
        <time>2016-03-06T09:42:28Z</time>
      </trkpt>
      <trkpt lat="48.81293" lon="1.38497">
        <ele>127.8</ele>
        <time>2016-03-06T09:42:30Z</time>
      </trkpt>
      <trkpt lat="48.81284" lon="1.38503">
        <ele>127.8</ele>
        <time>2016-03-06T09:42:34Z</time>
      </trkpt>
      <trkpt lat="48.81274" lon="1.38511">
        <ele>127.9</ele>
        <time>2016-03-06T09:42:38Z</time>
      </trkpt>
      <trkpt lat="48.81266" lon="1.38523">
        <ele>127.9</ele>
        <time>2016-03-06T09:42:41Z</time>
      </trkpt>
      <trkpt lat="48.81256" lon="1.38533">
        <ele>127.9</ele>
        <time>2016-03-06T09:42:44Z</time>
      </trkpt>
      <trkpt lat="48.81248" lon="1.38543">
        <ele>127.9</ele>
        <time>2016-03-06T09:42:47Z</time>
      </trkpt>
      <trkpt lat="48.81239" lon="1.38552">
        <ele>127.9</ele>
        <time>2016-03-06T09:42:50Z</time>
      </trkpt>
      <trkpt lat="48.81232" lon="1.38561">
        <ele>127.9</ele>
        <time>2016-03-06T09:42:54Z</time>
      </trkpt>
      <trkpt lat="48.81223" lon="1.3857">
        <ele>127.9</ele>
        <time>2016-03-06T09:42:57Z</time>
      </trkpt>
      <trkpt lat="48.81214" lon="1.38578">
        <ele>127.9</ele>
        <time>2016-03-06T09:43:00Z</time>
      </trkpt>
      <trkpt lat="48.81205" lon="1.38584">
        <ele>127.9</ele>
        <time>2016-03-06T09:43:03Z</time>
      </trkpt>
      <trkpt lat="48.81194" lon="1.3859">
        <ele>128</ele>
        <time>2016-03-06T09:43:07Z</time>
      </trkpt>
      <trkpt lat="48.81186" lon="1.38598">
        <ele>128.1</ele>
        <time>2016-03-06T09:43:10Z</time>
      </trkpt>
      <trkpt lat="48.81178" lon="1.38605">
        <ele>128.1</ele>
        <time>2016-03-06T09:43:13Z</time>
      </trkpt>
      <trkpt lat="48.8117" lon="1.38614">
        <ele>128.2</ele>
        <time>2016-03-06T09:43:16Z</time>
      </trkpt>
      <trkpt lat="48.81162" lon="1.38624">
        <ele>128.2</ele>
        <time>2016-03-06T09:43:19Z</time>
      </trkpt>
      <trkpt lat="48.81155" lon="1.38634">
        <ele>128.2</ele>
        <time>2016-03-06T09:43:22Z</time>
      </trkpt>
      <trkpt lat="48.81146" lon="1.38648">
        <ele>128.2</ele>
        <time>2016-03-06T09:43:25Z</time>
      </trkpt>
      <trkpt lat="48.81144" lon="1.38663">
        <ele>128.2</ele>
        <time>2016-03-06T09:43:28Z</time>
      </trkpt>
      <trkpt lat="48.81141" lon="1.38678">
        <ele>128.2</ele>
        <time>2016-03-06T09:43:30Z</time>
      </trkpt>
      <trkpt lat="48.81139" lon="1.38695">
        <ele>128.2</ele>
        <time>2016-03-06T09:43:33Z</time>
      </trkpt>
      <trkpt lat="48.81136" lon="1.38714">
        <ele>128.2</ele>
        <time>2016-03-06T09:43:37Z</time>
      </trkpt>
      <trkpt lat="48.81132" lon="1.38731">
        <ele>128.2</ele>
        <time>2016-03-06T09:43:40Z</time>
      </trkpt>
      <trkpt lat="48.81129" lon="1.38747">
        <ele>128.2</ele>
        <time>2016-03-06T09:43:42Z</time>
      </trkpt>
      <trkpt lat="48.81127" lon="1.38761">
        <ele>128.2</ele>
        <time>2016-03-06T09:43:44Z</time>
      </trkpt>
      <trkpt lat="48.81124" lon="1.38777">
        <ele>128.1</ele>
        <time>2016-03-06T09:43:47Z</time>
      </trkpt>
      <trkpt lat="48.8112" lon="1.38796">
        <ele>128.1</ele>
        <time>2016-03-06T09:43:50Z</time>
      </trkpt>
      <trkpt lat="48.81118" lon="1.38811">
        <ele>128.1</ele>
        <time>2016-03-06T09:43:53Z</time>
      </trkpt>
      <trkpt lat="48.81115" lon="1.38824">
        <ele>128.1</ele>
        <time>2016-03-06T09:43:56Z</time>
      </trkpt>
      <trkpt lat="48.81114" lon="1.38839">
        <ele>128.1</ele>
        <time>2016-03-06T09:43:59Z</time>
      </trkpt>
      <trkpt lat="48.81113" lon="1.38855">
        <ele>128.1</ele>
        <time>2016-03-06T09:44:02Z</time>
      </trkpt>
      <trkpt lat="48.81112" lon="1.38872">
        <ele>128</ele>
        <time>2016-03-06T09:44:06Z</time>
      </trkpt>
      <trkpt lat="48.81111" lon="1.38887">
        <ele>128</ele>
        <time>2016-03-06T09:44:09Z</time>
      </trkpt>
      <trkpt lat="48.81109" lon="1.38905">
        <ele>128</ele>
        <time>2016-03-06T09:44:12Z</time>
      </trkpt>
      <trkpt lat="48.81108" lon="1.38925">
        <ele>128</ele>
        <time>2016-03-06T09:44:15Z</time>
      </trkpt>
      <trkpt lat="48.81105" lon="1.38942">
        <ele>128</ele>
        <time>2016-03-06T09:44:18Z</time>
      </trkpt>
      <trkpt lat="48.81106" lon="1.38959">
        <ele>128</ele>
        <time>2016-03-06T09:44:21Z</time>
      </trkpt>
      <trkpt lat="48.81109" lon="1.38976">
        <ele>128</ele>
        <time>2016-03-06T09:44:25Z</time>
      </trkpt>
      <trkpt lat="48.81112" lon="1.38991">
        <ele>127.9</ele>
        <time>2016-03-06T09:44:30Z</time>
      </trkpt>
      <trkpt lat="48.81116" lon="1.39007">
        <ele>127.9</ele>
        <time>2016-03-06T09:44:34Z</time>
      </trkpt>
      <trkpt lat="48.81119" lon="1.39022">
        <ele>127.8</ele>
        <time>2016-03-06T09:44:37Z</time>
      </trkpt>
      <trkpt lat="48.8112" lon="1.39036">
        <ele>127.8</ele>
        <time>2016-03-06T09:44:41Z</time>
      </trkpt>
      <trkpt lat="48.81121" lon="1.3905">
        <ele>127.7</ele>
        <time>2016-03-06T09:44:45Z</time>
      </trkpt>
      <trkpt lat="48.81123" lon="1.39065">
        <ele>127.7</ele>
        <time>2016-03-06T09:44:49Z</time>
      </trkpt>
      <trkpt lat="48.81127" lon="1.39081">
        <ele>127.5</ele>
        <time>2016-03-06T09:44:53Z</time>
      </trkpt>
      <trkpt lat="48.81129" lon="1.39098">
        <ele>127.4</ele>
        <time>2016-03-06T09:44:57Z</time>
      </trkpt>
      <trkpt lat="48.81131" lon="1.39112">
        <ele>127.2</ele>
        <time>2016-03-06T09:45:01Z</time>
      </trkpt>
      <trkpt lat="48.81132" lon="1.39127">
        <ele>127.1</ele>
        <time>2016-03-06T09:45:06Z</time>
      </trkpt>
      <trkpt lat="48.81131" lon="1.39142">
        <ele>127</ele>
        <time>2016-03-06T09:45:10Z</time>
      </trkpt>
      <trkpt lat="48.81134" lon="1.39157">
        <ele>127</ele>
        <time>2016-03-06T09:45:15Z</time>
      </trkpt>
      <trkpt lat="48.81136" lon="1.39171">
        <ele>126.9</ele>
        <time>2016-03-06T09:45:19Z</time>
      </trkpt>
      <trkpt lat="48.81139" lon="1.39186">
        <ele>126.9</ele>
        <time>2016-03-06T09:45:24Z</time>
      </trkpt>
      <trkpt lat="48.8114" lon="1.39203">
        <ele>126.9</ele>
        <time>2016-03-06T09:45:30Z</time>
      </trkpt>
      <trkpt lat="48.81141" lon="1.3922">
        <ele>126.9</ele>
        <time>2016-03-06T09:45:34Z</time>
      </trkpt>
      <trkpt lat="48.81144" lon="1.39237">
        <ele>126.8</ele>
        <time>2016-03-06T09:45:38Z</time>
      </trkpt>
      <trkpt lat="48.81145" lon="1.39252">
        <ele>126.7</ele>
        <time>2016-03-06T09:45:42Z</time>
      </trkpt>
      <trkpt lat="48.81153" lon="1.39262">
        <ele>126.6</ele>
        <time>2016-03-06T09:45:47Z</time>
      </trkpt>
      <trkpt lat="48.81157" lon="1.39274">
        <ele>126.5</ele>
        <time>2016-03-06T09:45:51Z</time>
      </trkpt>
      <trkpt lat="48.81159" lon="1.3929">
        <ele>126.4</ele>
        <time>2016-03-06T09:45:56Z</time>
      </trkpt>
      <trkpt lat="48.81161" lon="1.39303">
        <ele>126.4</ele>
        <time>2016-03-06T09:45:59Z</time>
      </trkpt>
      <trkpt lat="48.81162" lon="1.39321">
        <ele>126.5</ele>
        <time>2016-03-06T09:46:02Z</time>
      </trkpt>
      <trkpt lat="48.81164" lon="1.39339">
        <ele>126.6</ele>
        <time>2016-03-06T09:46:05Z</time>
      </trkpt>
      <trkpt lat="48.81168" lon="1.39353">
        <ele>126.8</ele>
        <time>2016-03-06T09:46:07Z</time>
      </trkpt>
      <trkpt lat="48.81169" lon="1.39374">
        <ele>126.9</ele>
        <time>2016-03-06T09:46:10Z</time>
      </trkpt>
      <trkpt lat="48.81174" lon="1.39391">
        <ele>127.1</ele>
        <time>2016-03-06T09:46:13Z</time>
      </trkpt>
      <trkpt lat="48.81178" lon="1.39411">
        <ele>127.2</ele>
        <time>2016-03-06T09:46:16Z</time>
      </trkpt>
      <trkpt lat="48.8118" lon="1.3943">
        <ele>127.3</ele>
        <time>2016-03-06T09:46:19Z</time>
      </trkpt>
      <trkpt lat="48.81182" lon="1.39449">
        <ele>127.4</ele>
        <time>2016-03-06T09:46:22Z</time>
      </trkpt>
      <trkpt lat="48.81185" lon="1.39462">
        <ele>127.4</ele>
        <time>2016-03-06T09:46:24Z</time>
      </trkpt>
      <trkpt lat="48.81189" lon="1.39475">
        <ele>127.5</ele>
        <time>2016-03-06T09:46:26Z</time>
      </trkpt>
      <trkpt lat="48.81192" lon="1.39492">
        <ele>127.7</ele>
        <time>2016-03-06T09:46:29Z</time>
      </trkpt>
      <trkpt lat="48.81194" lon="1.39506">
        <ele>127.9</ele>
        <time>2016-03-06T09:46:31Z</time>
      </trkpt>
      <trkpt lat="48.81199" lon="1.39522">
        <ele>128</ele>
        <time>2016-03-06T09:46:34Z</time>
      </trkpt>
      <trkpt lat="48.81203" lon="1.39541">
        <ele>128.2</ele>
        <time>2016-03-06T09:46:37Z</time>
      </trkpt>
      <trkpt lat="48.81206" lon="1.39554">
        <ele>128.3</ele>
        <time>2016-03-06T09:46:39Z</time>
      </trkpt>
      <trkpt lat="48.81207" lon="1.39569">
        <ele>128.3</ele>
        <time>2016-03-06T09:46:41Z</time>
      </trkpt>
      <trkpt lat="48.81207" lon="1.39585">
        <ele>128.4</ele>
        <time>2016-03-06T09:46:43Z</time>
      </trkpt>
      <trkpt lat="48.8121" lon="1.39602">
        <ele>128.5</ele>
        <time>2016-03-06T09:46:46Z</time>
      </trkpt>
      <trkpt lat="48.81211" lon="1.39618">
        <ele>128.6</ele>
        <time>2016-03-06T09:46:48Z</time>
      </trkpt>
      <trkpt lat="48.81214" lon="1.39637">
        <ele>128.6</ele>
        <time>2016-03-06T09:46:51Z</time>
      </trkpt>
      <trkpt lat="48.81216" lon="1.39656">
        <ele>128.7</ele>
        <time>2016-03-06T09:46:54Z</time>
      </trkpt>
      <trkpt lat="48.81218" lon="1.39674">
        <ele>128.8</ele>
        <time>2016-03-06T09:46:57Z</time>
      </trkpt>
      <trkpt lat="48.81222" lon="1.39692">
        <ele>128.8</ele>
        <time>2016-03-06T09:47:00Z</time>
      </trkpt>
      <trkpt lat="48.81225" lon="1.39707">
        <ele>128.9</ele>
        <time>2016-03-06T09:47:02Z</time>
      </trkpt>
      <trkpt lat="48.81225" lon="1.39723">
        <ele>129</ele>
        <time>2016-03-06T09:47:04Z</time>
      </trkpt>
      <trkpt lat="48.81226" lon="1.39741">
        <ele>129</ele>
        <time>2016-03-06T09:47:06Z</time>
      </trkpt>
      <trkpt lat="48.81228" lon="1.39754">
        <ele>129.1</ele>
        <time>2016-03-06T09:47:08Z</time>
      </trkpt>
      <trkpt lat="48.8123" lon="1.39768">
        <ele>129.1</ele>
        <time>2016-03-06T09:47:10Z</time>
      </trkpt>
      <trkpt lat="48.81232" lon="1.39782">
        <ele>129.2</ele>
        <time>2016-03-06T09:47:12Z</time>
      </trkpt>
      <trkpt lat="48.81234" lon="1.39796">
        <ele>129.2</ele>
        <time>2016-03-06T09:47:14Z</time>
      </trkpt>
      <trkpt lat="48.81235" lon="1.39812">
        <ele>129.2</ele>
        <time>2016-03-06T09:47:16Z</time>
      </trkpt>
      <trkpt lat="48.81236" lon="1.39826">
        <ele>129.4</ele>
        <time>2016-03-06T09:47:18Z</time>
      </trkpt>
      <trkpt lat="48.81239" lon="1.39845">
        <ele>129.5</ele>
        <time>2016-03-06T09:47:21Z</time>
      </trkpt>
      <trkpt lat="48.81243" lon="1.39866">
        <ele>129.5</ele>
        <time>2016-03-06T09:47:24Z</time>
      </trkpt>
      <trkpt lat="48.81247" lon="1.39885">
        <ele>129.5</ele>
        <time>2016-03-06T09:47:27Z</time>
      </trkpt>
      <trkpt lat="48.81249" lon="1.39901">
        <ele>129.5</ele>
        <time>2016-03-06T09:47:29Z</time>
      </trkpt>
      <trkpt lat="48.8125" lon="1.3992">
        <ele>129.5</ele>
        <time>2016-03-06T09:47:32Z</time>
      </trkpt>
      <trkpt lat="48.81253" lon="1.39938">
        <ele>129.5</ele>
        <time>2016-03-06T09:47:35Z</time>
      </trkpt>
      <trkpt lat="48.81255" lon="1.39958">
        <ele>129.5</ele>
        <time>2016-03-06T09:47:38Z</time>
      </trkpt>
      <trkpt lat="48.81258" lon="1.39978">
        <ele>129.5</ele>
        <time>2016-03-06T09:47:41Z</time>
      </trkpt>
      <trkpt lat="48.81259" lon="1.39996">
        <ele>129.6</ele>
        <time>2016-03-06T09:47:44Z</time>
      </trkpt>
      <trkpt lat="48.81262" lon="1.40012">
        <ele>129.6</ele>
        <time>2016-03-06T09:47:47Z</time>
      </trkpt>
      <trkpt lat="48.81263" lon="1.40027">
        <ele>129.6</ele>
        <time>2016-03-06T09:47:49Z</time>
      </trkpt>
      <trkpt lat="48.81265" lon="1.4004">
        <ele>129.6</ele>
        <time>2016-03-06T09:47:51Z</time>
      </trkpt>
      <trkpt lat="48.81267" lon="1.40059">
        <ele>129.6</ele>
        <time>2016-03-06T09:47:54Z</time>
      </trkpt>
      <trkpt lat="48.81269" lon="1.40078">
        <ele>129.6</ele>
        <time>2016-03-06T09:47:57Z</time>
      </trkpt>
      <trkpt lat="48.81269" lon="1.40099">
        <ele>129.6</ele>
        <time>2016-03-06T09:48:00Z</time>
      </trkpt>
      <trkpt lat="48.81269" lon="1.40114">
        <ele>129.6</ele>
        <time>2016-03-06T09:48:03Z</time>
      </trkpt>
      <trkpt lat="48.81263" lon="1.40128">
        <ele>129.6</ele>
        <time>2016-03-06T09:48:07Z</time>
      </trkpt>
      <trkpt lat="48.81253" lon="1.40137">
        <ele>129.6</ele>
        <time>2016-03-06T09:48:10Z</time>
      </trkpt>
      <trkpt lat="48.81243" lon="1.40146">
        <ele>129.6</ele>
        <time>2016-03-06T09:48:13Z</time>
      </trkpt>
      <trkpt lat="48.81232" lon="1.40156">
        <ele>129.6</ele>
        <time>2016-03-06T09:48:16Z</time>
      </trkpt>
      <trkpt lat="48.81221" lon="1.40164">
        <ele>129.5</ele>
        <time>2016-03-06T09:48:19Z</time>
      </trkpt>
      <trkpt lat="48.81211" lon="1.40171">
        <ele>129.5</ele>
        <time>2016-03-06T09:48:22Z</time>
      </trkpt>
      <trkpt lat="48.81203" lon="1.40182">
        <ele>129.4</ele>
        <time>2016-03-06T09:48:25Z</time>
      </trkpt>
      <trkpt lat="48.81193" lon="1.40187">
        <ele>129.3</ele>
        <time>2016-03-06T09:48:29Z</time>
      </trkpt>
      <trkpt lat="48.81183" lon="1.40194">
        <ele>129.2</ele>
        <time>2016-03-06T09:48:33Z</time>
      </trkpt>
      <trkpt lat="48.81174" lon="1.40201">
        <ele>129.1</ele>
        <time>2016-03-06T09:48:36Z</time>
      </trkpt>
      <trkpt lat="48.81164" lon="1.4021">
        <ele>129</ele>
        <time>2016-03-06T09:48:39Z</time>
      </trkpt>
      <trkpt lat="48.81153" lon="1.40219">
        <ele>128.9</ele>
        <time>2016-03-06T09:48:42Z</time>
      </trkpt>
      <trkpt lat="48.81141" lon="1.40228">
        <ele>128.8</ele>
        <time>2016-03-06T09:48:45Z</time>
      </trkpt>
      <trkpt lat="48.81131" lon="1.40239">
        <ele>128.7</ele>
        <time>2016-03-06T09:48:48Z</time>
      </trkpt>
      <trkpt lat="48.81121" lon="1.40247">
        <ele>128.6</ele>
        <time>2016-03-06T09:48:51Z</time>
      </trkpt>
      <trkpt lat="48.81111" lon="1.40252">
        <ele>128.6</ele>
        <time>2016-03-06T09:48:54Z</time>
      </trkpt>
      <trkpt lat="48.81101" lon="1.40261">
        <ele>128.5</ele>
        <time>2016-03-06T09:48:57Z</time>
      </trkpt>
      <trkpt lat="48.81089" lon="1.4027">
        <ele>128.5</ele>
        <time>2016-03-06T09:49:00Z</time>
      </trkpt>
      <trkpt lat="48.81081" lon="1.40277">
        <ele>128.5</ele>
        <time>2016-03-06T09:49:02Z</time>
      </trkpt>
      <trkpt lat="48.81072" lon="1.40284">
        <ele>128.5</ele>
        <time>2016-03-06T09:49:04Z</time>
      </trkpt>
      <trkpt lat="48.81063" lon="1.4029">
        <ele>128.4</ele>
        <time>2016-03-06T09:49:06Z</time>
      </trkpt>
      <trkpt lat="48.81052" lon="1.40299">
        <ele>128.2</ele>
        <time>2016-03-06T09:49:09Z</time>
      </trkpt>
      <trkpt lat="48.81042" lon="1.40303">
        <ele>128.1</ele>
        <time>2016-03-06T09:49:12Z</time>
      </trkpt>
      <trkpt lat="48.81034" lon="1.40309">
        <ele>128.1</ele>
        <time>2016-03-06T09:49:15Z</time>
      </trkpt>
      <trkpt lat="48.81023" lon="1.40317">
        <ele>128</ele>
        <time>2016-03-06T09:49:19Z</time>
      </trkpt>
      <trkpt lat="48.81014" lon="1.40328">
        <ele>127.9</ele>
        <time>2016-03-06T09:49:23Z</time>
      </trkpt>
      <trkpt lat="48.81004" lon="1.40337">
        <ele>127.9</ele>
        <time>2016-03-06T09:49:26Z</time>
      </trkpt>
      <trkpt lat="48.80995" lon="1.40344">
        <ele>127.9</ele>
        <time>2016-03-06T09:49:29Z</time>
      </trkpt>
      <trkpt lat="48.80986" lon="1.40349">
        <ele>127.8</ele>
        <time>2016-03-06T09:49:32Z</time>
      </trkpt>
      <trkpt lat="48.80976" lon="1.40356">
        <ele>127.8</ele>
        <time>2016-03-06T09:49:36Z</time>
      </trkpt>
      <trkpt lat="48.80968" lon="1.40365">
        <ele>127.8</ele>
        <time>2016-03-06T09:49:39Z</time>
      </trkpt>
      <trkpt lat="48.80959" lon="1.40375">
        <ele>127.9</ele>
        <time>2016-03-06T09:49:42Z</time>
      </trkpt>
      <trkpt lat="48.80951" lon="1.40381">
        <ele>127.9</ele>
        <time>2016-03-06T09:49:44Z</time>
      </trkpt>
      <trkpt lat="48.80942" lon="1.40391">
        <ele>127.9</ele>
        <time>2016-03-06T09:49:47Z</time>
      </trkpt>
      <trkpt lat="48.80933" lon="1.40397">
        <ele>127.9</ele>
        <time>2016-03-06T09:49:49Z</time>
      </trkpt>
      <trkpt lat="48.80924" lon="1.40405">
        <ele>128</ele>
        <time>2016-03-06T09:49:51Z</time>
      </trkpt>
      <trkpt lat="48.80915" lon="1.40412">
        <ele>128</ele>
        <time>2016-03-06T09:49:53Z</time>
      </trkpt>
      <trkpt lat="48.80906" lon="1.4042">
        <ele>128</ele>
        <time>2016-03-06T09:49:55Z</time>
      </trkpt>
      <trkpt lat="48.80898" lon="1.40426">
        <ele>128</ele>
        <time>2016-03-06T09:49:57Z</time>
      </trkpt>
      <trkpt lat="48.80889" lon="1.40433">
        <ele>128</ele>
        <time>2016-03-06T09:49:59Z</time>
      </trkpt>
      <trkpt lat="48.80878" lon="1.40442">
        <ele>128</ele>
        <time>2016-03-06T09:50:02Z</time>
      </trkpt>
      <trkpt lat="48.80868" lon="1.40451">
        <ele>127.9</ele>
        <time>2016-03-06T09:50:04Z</time>
      </trkpt>
      <trkpt lat="48.80858" lon="1.40459">
        <ele>127.9</ele>
        <time>2016-03-06T09:50:06Z</time>
      </trkpt>
      <trkpt lat="48.80846" lon="1.40469">
        <ele>127.9</ele>
        <time>2016-03-06T09:50:09Z</time>
      </trkpt>
      <trkpt lat="48.80838" lon="1.40477">
        <ele>127.9</ele>
        <time>2016-03-06T09:50:11Z</time>
      </trkpt>
      <trkpt lat="48.80829" lon="1.40485">
        <ele>127.9</ele>
        <time>2016-03-06T09:50:13Z</time>
      </trkpt>
      <trkpt lat="48.80817" lon="1.40492">
        <ele>127.9</ele>
        <time>2016-03-06T09:50:16Z</time>
      </trkpt>
      <trkpt lat="48.80808" lon="1.40498">
        <ele>127.9</ele>
        <time>2016-03-06T09:50:18Z</time>
      </trkpt>
      <trkpt lat="48.808" lon="1.40504">
        <ele>127.9</ele>
        <time>2016-03-06T09:50:20Z</time>
      </trkpt>
      <trkpt lat="48.80789" lon="1.40513">
        <ele>127.9</ele>
        <time>2016-03-06T09:50:23Z</time>
      </trkpt>
      <trkpt lat="48.80778" lon="1.40522">
        <ele>128</ele>
        <time>2016-03-06T09:50:26Z</time>
      </trkpt>
      <trkpt lat="48.80767" lon="1.40531">
        <ele>128</ele>
        <time>2016-03-06T09:50:29Z</time>
      </trkpt>
      <trkpt lat="48.80756" lon="1.40541">
        <ele>128</ele>
        <time>2016-03-06T09:50:32Z</time>
      </trkpt>
      <trkpt lat="48.80745" lon="1.40549">
        <ele>128</ele>
        <time>2016-03-06T09:50:35Z</time>
      </trkpt>
      <trkpt lat="48.80734" lon="1.40557">
        <ele>128</ele>
        <time>2016-03-06T09:50:38Z</time>
      </trkpt>
      <trkpt lat="48.80723" lon="1.40565">
        <ele>128.1</ele>
        <time>2016-03-06T09:50:41Z</time>
      </trkpt>
      <trkpt lat="48.80711" lon="1.40574">
        <ele>128.2</ele>
        <time>2016-03-06T09:50:44Z</time>
      </trkpt>
      <trkpt lat="48.80701" lon="1.40581">
        <ele>128.3</ele>
        <time>2016-03-06T09:50:47Z</time>
      </trkpt>
      <trkpt lat="48.80692" lon="1.4059">
        <ele>128.4</ele>
        <time>2016-03-06T09:50:50Z</time>
      </trkpt>
      <trkpt lat="48.80681" lon="1.40598">
        <ele>128.5</ele>
        <time>2016-03-06T09:50:53Z</time>
      </trkpt>
      <trkpt lat="48.8067" lon="1.40606">
        <ele>128.6</ele>
        <time>2016-03-06T09:50:55Z</time>
      </trkpt>
      <trkpt lat="48.80663" lon="1.40613">
        <ele>128.6</ele>
        <time>2016-03-06T09:50:57Z</time>
      </trkpt>
      <trkpt lat="48.80652" lon="1.40622">
        <ele>128.7</ele>
        <time>2016-03-06T09:51:00Z</time>
      </trkpt>
      <trkpt lat="48.80643" lon="1.4063">
        <ele>128.7</ele>
        <time>2016-03-06T09:51:03Z</time>
      </trkpt>
      <trkpt lat="48.80634" lon="1.40635">
        <ele>128.8</ele>
        <time>2016-03-06T09:51:09Z</time>
      </trkpt>
      <trkpt lat="48.80625" lon="1.40644">
        <ele>128.8</ele>
        <time>2016-03-06T09:51:13Z</time>
      </trkpt>
      <trkpt lat="48.80615" lon="1.40651">
        <ele>128.8</ele>
        <time>2016-03-06T09:51:17Z</time>
      </trkpt>
      <trkpt lat="48.80607" lon="1.40662">
        <ele>129</ele>
        <time>2016-03-06T09:51:26Z</time>
      </trkpt>
      <trkpt lat="48.80615" lon="1.40654">
        <ele>128.9</ele>
        <time>2016-03-06T09:55:16Z</time>
      </trkpt>
      <trkpt lat="48.80606" lon="1.40658">
        <ele>128.8</ele>
        <time>2016-03-06T09:57:20Z</time>
      </trkpt>
      <trkpt lat="48.80595" lon="1.40658">
        <ele>128.9</ele>
        <time>2016-03-06T09:57:41Z</time>
      </trkpt>
      <trkpt lat="48.80584" lon="1.40654">
        <ele>128.9</ele>
        <time>2016-03-06T09:57:44Z</time>
      </trkpt>
      <trkpt lat="48.80575" lon="1.40653">
        <ele>128.9</ele>
        <time>2016-03-06T09:57:46Z</time>
      </trkpt>
      <trkpt lat="48.80565" lon="1.40655">
        <ele>129</ele>
        <time>2016-03-06T09:57:48Z</time>
      </trkpt>
      <trkpt lat="48.80556" lon="1.40668">
        <ele>129</ele>
        <time>2016-03-06T09:57:51Z</time>
      </trkpt>
      <trkpt lat="48.80559" lon="1.40686">
        <ele>129.1</ele>
        <time>2016-03-06T09:57:54Z</time>
      </trkpt>
      <trkpt lat="48.8057" lon="1.40698">
        <ele>129.2</ele>
        <time>2016-03-06T09:57:57Z</time>
      </trkpt>
      <trkpt lat="48.80582" lon="1.40705">
        <ele>129.2</ele>
        <time>2016-03-06T09:58:00Z</time>
      </trkpt>
      <trkpt lat="48.80595" lon="1.40707">
        <ele>129.3</ele>
        <time>2016-03-06T09:58:03Z</time>
      </trkpt>
      <trkpt lat="48.80605" lon="1.40712">
        <ele>129.4</ele>
        <time>2016-03-06T09:58:06Z</time>
      </trkpt>
      <trkpt lat="48.80616" lon="1.40724">
        <ele>129.5</ele>
        <time>2016-03-06T09:58:09Z</time>
      </trkpt>
      <trkpt lat="48.80625" lon="1.40737">
        <ele>129.5</ele>
        <time>2016-03-06T09:58:12Z</time>
      </trkpt>
      <trkpt lat="48.80635" lon="1.4075">
        <ele>129.4</ele>
        <time>2016-03-06T09:58:16Z</time>
      </trkpt>
      <trkpt lat="48.80644" lon="1.40762">
        <ele>129.3</ele>
        <time>2016-03-06T09:58:19Z</time>
      </trkpt>
      <trkpt lat="48.8065" lon="1.40775">
        <ele>129.2</ele>
        <time>2016-03-06T09:58:22Z</time>
      </trkpt>
      <trkpt lat="48.8066" lon="1.40786">
        <ele>129.1</ele>
        <time>2016-03-06T09:58:25Z</time>
      </trkpt>
      <trkpt lat="48.80669" lon="1.40799">
        <ele>129</ele>
        <time>2016-03-06T09:58:28Z</time>
      </trkpt>
      <trkpt lat="48.80678" lon="1.40807">
        <ele>129</ele>
        <time>2016-03-06T09:58:30Z</time>
      </trkpt>
      <trkpt lat="48.80687" lon="1.4082">
        <ele>128.9</ele>
        <time>2016-03-06T09:58:33Z</time>
      </trkpt>
      <trkpt lat="48.80698" lon="1.40836">
        <ele>128.8</ele>
        <time>2016-03-06T09:58:36Z</time>
      </trkpt>
      <trkpt lat="48.80704" lon="1.40845">
        <ele>128.7</ele>
        <time>2016-03-06T09:58:38Z</time>
      </trkpt>
      <trkpt lat="48.80714" lon="1.40859">
        <ele>128.6</ele>
        <time>2016-03-06T09:58:41Z</time>
      </trkpt>
      <trkpt lat="48.8072" lon="1.40868">
        <ele>128.6</ele>
        <time>2016-03-06T09:58:43Z</time>
      </trkpt>
      <trkpt lat="48.80728" lon="1.40877">
        <ele>128.5</ele>
        <time>2016-03-06T09:58:45Z</time>
      </trkpt>
      <trkpt lat="48.80735" lon="1.4089">
        <ele>128.5</ele>
        <time>2016-03-06T09:58:48Z</time>
      </trkpt>
      <trkpt lat="48.80745" lon="1.409">
        <ele>128.3</ele>
        <time>2016-03-06T09:58:51Z</time>
      </trkpt>
      <trkpt lat="48.80752" lon="1.40912">
        <ele>128.3</ele>
        <time>2016-03-06T09:58:55Z</time>
      </trkpt>
      <trkpt lat="48.80759" lon="1.40921">
        <ele>128.2</ele>
        <time>2016-03-06T09:58:59Z</time>
      </trkpt>
      <trkpt lat="48.80768" lon="1.4093">
        <ele>128.1</ele>
        <time>2016-03-06T09:59:02Z</time>
      </trkpt>
      <trkpt lat="48.80774" lon="1.4094">
        <ele>128</ele>
        <time>2016-03-06T09:59:08Z</time>
      </trkpt>
      <trkpt lat="48.80781" lon="1.4095">
        <ele>128</ele>
        <time>2016-03-06T09:59:13Z</time>
      </trkpt>
      <trkpt lat="48.80791" lon="1.40962">
        <ele>128</ele>
        <time>2016-03-06T09:59:17Z</time>
      </trkpt>
      <trkpt lat="48.808" lon="1.40973">
        <ele>128.1</ele>
        <time>2016-03-06T09:59:21Z</time>
      </trkpt>
      <trkpt lat="48.80806" lon="1.40984">
        <ele>128.2</ele>
        <time>2016-03-06T09:59:25Z</time>
      </trkpt>
      <trkpt lat="48.80815" lon="1.40996">
        <ele>128.3</ele>
        <time>2016-03-06T09:59:29Z</time>
      </trkpt>
      <trkpt lat="48.80823" lon="1.41006">
        <ele>128.3</ele>
        <time>2016-03-06T09:59:32Z</time>
      </trkpt>
      <trkpt lat="48.8083" lon="1.41014">
        <ele>128.4</ele>
        <time>2016-03-06T09:59:37Z</time>
      </trkpt>
      <trkpt lat="48.80838" lon="1.41026">
        <ele>128.4</ele>
        <time>2016-03-06T09:59:41Z</time>
      </trkpt>
      <trkpt lat="48.80845" lon="1.41035">
        <ele>128.4</ele>
        <time>2016-03-06T09:59:44Z</time>
      </trkpt>
      <trkpt lat="48.80853" lon="1.41044">
        <ele>128.4</ele>
        <time>2016-03-06T09:59:47Z</time>
      </trkpt>
      <trkpt lat="48.80862" lon="1.41053">
        <ele>128.4</ele>
        <time>2016-03-06T09:59:50Z</time>
      </trkpt>
      <trkpt lat="48.80869" lon="1.41062">
        <ele>128.5</ele>
        <time>2016-03-06T09:59:53Z</time>
      </trkpt>
      <trkpt lat="48.80876" lon="1.41073">
        <ele>128.5</ele>
        <time>2016-03-06T09:59:56Z</time>
      </trkpt>
      <trkpt lat="48.80883" lon="1.41084">
        <ele>128.4</ele>
        <time>2016-03-06T09:59:59Z</time>
      </trkpt>
      <trkpt lat="48.80891" lon="1.41096">
        <ele>128.4</ele>
        <time>2016-03-06T10:00:03Z</time>
      </trkpt>
      <trkpt lat="48.80898" lon="1.41107">
        <ele>128.4</ele>
        <time>2016-03-06T10:00:06Z</time>
      </trkpt>
      <trkpt lat="48.80906" lon="1.41119">
        <ele>128.4</ele>
        <time>2016-03-06T10:00:09Z</time>
      </trkpt>
      <trkpt lat="48.80916" lon="1.41131">
        <ele>128.4</ele>
        <time>2016-03-06T10:00:12Z</time>
      </trkpt>
      <trkpt lat="48.80924" lon="1.41143">
        <ele>128.4</ele>
        <time>2016-03-06T10:00:15Z</time>
      </trkpt>
      <trkpt lat="48.80934" lon="1.41155">
        <ele>128.3</ele>
        <time>2016-03-06T10:00:18Z</time>
      </trkpt>
      <trkpt lat="48.80943" lon="1.41166">
        <ele>128.1</ele>
        <time>2016-03-06T10:00:21Z</time>
      </trkpt>
      <trkpt lat="48.80951" lon="1.41176">
        <ele>128</ele>
        <time>2016-03-06T10:00:24Z</time>
      </trkpt>
      <trkpt lat="48.80958" lon="1.41188">
        <ele>127.9</ele>
        <time>2016-03-06T10:00:27Z</time>
      </trkpt>
      <trkpt lat="48.80966" lon="1.41199">
        <ele>127.8</ele>
        <time>2016-03-06T10:00:30Z</time>
      </trkpt>
      <trkpt lat="48.80973" lon="1.41208">
        <ele>127.8</ele>
        <time>2016-03-06T10:00:32Z</time>
      </trkpt>
      <trkpt lat="48.80981" lon="1.41216">
        <ele>127.7</ele>
        <time>2016-03-06T10:00:35Z</time>
      </trkpt>
      <trkpt lat="48.80988" lon="1.41226">
        <ele>127.6</ele>
        <time>2016-03-06T10:00:38Z</time>
      </trkpt>
      <trkpt lat="48.80997" lon="1.41238">
        <ele>127.6</ele>
        <time>2016-03-06T10:00:41Z</time>
      </trkpt>
      <trkpt lat="48.81005" lon="1.41249">
        <ele>127.6</ele>
        <time>2016-03-06T10:00:44Z</time>
      </trkpt>
      <trkpt lat="48.81013" lon="1.41259">
        <ele>127.5</ele>
        <time>2016-03-06T10:00:47Z</time>
      </trkpt>
      <trkpt lat="48.81021" lon="1.41268">
        <ele>127.5</ele>
        <time>2016-03-06T10:00:50Z</time>
      </trkpt>
      <trkpt lat="48.81029" lon="1.41278">
        <ele>127.5</ele>
        <time>2016-03-06T10:00:53Z</time>
      </trkpt>
      <trkpt lat="48.81037" lon="1.41289">
        <ele>127.4</ele>
        <time>2016-03-06T10:00:56Z</time>
      </trkpt>
      <trkpt lat="48.81043" lon="1.41301">
        <ele>127.3</ele>
        <time>2016-03-06T10:00:59Z</time>
      </trkpt>
      <trkpt lat="48.81052" lon="1.4131">
        <ele>127.3</ele>
        <time>2016-03-06T10:01:02Z</time>
      </trkpt>
      <trkpt lat="48.81058" lon="1.41321">
        <ele>127.3</ele>
        <time>2016-03-06T10:01:05Z</time>
      </trkpt>
      <trkpt lat="48.81066" lon="1.41331">
        <ele>127.4</ele>
        <time>2016-03-06T10:01:08Z</time>
      </trkpt>
      <trkpt lat="48.81074" lon="1.41342">
        <ele>127.6</ele>
        <time>2016-03-06T10:01:11Z</time>
      </trkpt>
      <trkpt lat="48.81082" lon="1.41353">
        <ele>127.7</ele>
        <time>2016-03-06T10:01:14Z</time>
      </trkpt>
      <trkpt lat="48.8109" lon="1.41363">
        <ele>127.7</ele>
        <time>2016-03-06T10:01:17Z</time>
      </trkpt>
      <trkpt lat="48.81097" lon="1.41373">
        <ele>127.7</ele>
        <time>2016-03-06T10:01:20Z</time>
      </trkpt>
      <trkpt lat="48.81106" lon="1.41384">
        <ele>127.5</ele>
        <time>2016-03-06T10:01:23Z</time>
      </trkpt>
      <trkpt lat="48.81115" lon="1.41397">
        <ele>127.4</ele>
        <time>2016-03-06T10:01:26Z</time>
      </trkpt>
      <trkpt lat="48.81125" lon="1.41411">
        <ele>127.2</ele>
        <time>2016-03-06T10:01:29Z</time>
      </trkpt>
      <trkpt lat="48.81131" lon="1.4142">
        <ele>127.2</ele>
        <time>2016-03-06T10:01:31Z</time>
      </trkpt>
      <trkpt lat="48.81139" lon="1.4143">
        <ele>127.1</ele>
        <time>2016-03-06T10:01:33Z</time>
      </trkpt>
      <trkpt lat="48.81146" lon="1.41439">
        <ele>127</ele>
        <time>2016-03-06T10:01:35Z</time>
      </trkpt>
      <trkpt lat="48.81153" lon="1.41449">
        <ele>127</ele>
        <time>2016-03-06T10:01:37Z</time>
      </trkpt>
      <trkpt lat="48.8116" lon="1.41458">
        <ele>126.9</ele>
        <time>2016-03-06T10:01:39Z</time>
      </trkpt>
      <trkpt lat="48.81167" lon="1.41467">
        <ele>126.9</ele>
        <time>2016-03-06T10:01:41Z</time>
      </trkpt>
      <trkpt lat="48.81176" lon="1.4148">
        <ele>127</ele>
        <time>2016-03-06T10:01:44Z</time>
      </trkpt>
      <trkpt lat="48.81186" lon="1.41492">
        <ele>127</ele>
        <time>2016-03-06T10:01:47Z</time>
      </trkpt>
      <trkpt lat="48.81196" lon="1.41506">
        <ele>127</ele>
        <time>2016-03-06T10:01:50Z</time>
      </trkpt>
      <trkpt lat="48.81203" lon="1.41515">
        <ele>127</ele>
        <time>2016-03-06T10:01:52Z</time>
      </trkpt>
      <trkpt lat="48.8121" lon="1.41525">
        <ele>127</ele>
        <time>2016-03-06T10:01:54Z</time>
      </trkpt>
      <trkpt lat="48.81218" lon="1.41536">
        <ele>127</ele>
        <time>2016-03-06T10:01:56Z</time>
      </trkpt>
      <trkpt lat="48.81226" lon="1.41546">
        <ele>127</ele>
        <time>2016-03-06T10:01:58Z</time>
      </trkpt>
      <trkpt lat="48.81234" lon="1.41555">
        <ele>127</ele>
        <time>2016-03-06T10:02:00Z</time>
      </trkpt>
      <trkpt lat="48.81244" lon="1.41566">
        <ele>127.1</ele>
        <time>2016-03-06T10:02:03Z</time>
      </trkpt>
      <trkpt lat="48.81254" lon="1.41578">
        <ele>127.2</ele>
        <time>2016-03-06T10:02:06Z</time>
      </trkpt>
      <trkpt lat="48.81262" lon="1.41589">
        <ele>127.3</ele>
        <time>2016-03-06T10:02:09Z</time>
      </trkpt>
      <trkpt lat="48.81269" lon="1.41599">
        <ele>127.4</ele>
        <time>2016-03-06T10:02:12Z</time>
      </trkpt>
      <trkpt lat="48.81277" lon="1.41608">
        <ele>127.6</ele>
        <time>2016-03-06T10:02:18Z</time>
      </trkpt>
      <trkpt lat="48.81284" lon="1.41617">
        <ele>127.7</ele>
        <time>2016-03-06T10:02:26Z</time>
      </trkpt>
      <trkpt lat="48.81292" lon="1.41627">
        <ele>127.8</ele>
        <time>2016-03-06T10:02:31Z</time>
      </trkpt>
      <trkpt lat="48.81298" lon="1.41638">
        <ele>127.8</ele>
        <time>2016-03-06T10:02:38Z</time>
      </trkpt>
      <trkpt lat="48.81305" lon="1.41647">
        <ele>127.9</ele>
        <time>2016-03-06T10:02:48Z</time>
      </trkpt>
      <trkpt lat="48.81312" lon="1.41656">
        <ele>127.9</ele>
        <time>2016-03-06T10:02:54Z</time>
      </trkpt>
      <trkpt lat="48.81319" lon="1.41668">
        <ele>127.9</ele>
        <time>2016-03-06T10:03:00Z</time>
      </trkpt>
      <trkpt lat="48.81327" lon="1.41678">
        <ele>127.8</ele>
        <time>2016-03-06T10:03:04Z</time>
      </trkpt>
      <trkpt lat="48.81334" lon="1.41691">
        <ele>127.7</ele>
        <time>2016-03-06T10:03:08Z</time>
      </trkpt>
      <trkpt lat="48.81343" lon="1.41703">
        <ele>127.7</ele>
        <time>2016-03-06T10:03:11Z</time>
      </trkpt>
      <trkpt lat="48.81352" lon="1.41715">
        <ele>127.6</ele>
        <time>2016-03-06T10:03:14Z</time>
      </trkpt>
      <trkpt lat="48.8136" lon="1.41727">
        <ele>127.6</ele>
        <time>2016-03-06T10:03:17Z</time>
      </trkpt>
      <trkpt lat="48.8137" lon="1.41738">
        <ele>127.7</ele>
        <time>2016-03-06T10:03:20Z</time>
      </trkpt>
      <trkpt lat="48.81376" lon="1.41747">
        <ele>127.7</ele>
        <time>2016-03-06T10:03:22Z</time>
      </trkpt>
      <trkpt lat="48.81383" lon="1.41757">
        <ele>127.8</ele>
        <time>2016-03-06T10:03:24Z</time>
      </trkpt>
      <trkpt lat="48.8139" lon="1.41767">
        <ele>127.8</ele>
        <time>2016-03-06T10:03:26Z</time>
      </trkpt>
      <trkpt lat="48.81397" lon="1.41777">
        <ele>127.8</ele>
        <time>2016-03-06T10:03:28Z</time>
      </trkpt>
      <trkpt lat="48.81405" lon="1.41787">
        <ele>127.9</ele>
        <time>2016-03-06T10:03:30Z</time>
      </trkpt>
      <trkpt lat="48.81413" lon="1.41797">
        <ele>127.9</ele>
        <time>2016-03-06T10:03:32Z</time>
      </trkpt>
      <trkpt lat="48.81422" lon="1.41807">
        <ele>127.9</ele>
        <time>2016-03-06T10:03:34Z</time>
      </trkpt>
      <trkpt lat="48.81429" lon="1.41819">
        <ele>128</ele>
        <time>2016-03-06T10:03:36Z</time>
      </trkpt>
      <trkpt lat="48.81436" lon="1.41829">
        <ele>128</ele>
        <time>2016-03-06T10:03:38Z</time>
      </trkpt>
      <trkpt lat="48.81442" lon="1.41841">
        <ele>128.1</ele>
        <time>2016-03-06T10:03:40Z</time>
      </trkpt>
      <trkpt lat="48.81451" lon="1.41853">
        <ele>128.1</ele>
        <time>2016-03-06T10:03:42Z</time>
      </trkpt>
      <trkpt lat="48.81459" lon="1.41864">
        <ele>128.1</ele>
        <time>2016-03-06T10:03:44Z</time>
      </trkpt>
      <trkpt lat="48.81467" lon="1.4188">
        <ele>128.1</ele>
        <time>2016-03-06T10:03:47Z</time>
      </trkpt>
      <trkpt lat="48.81476" lon="1.4189">
        <ele>128.1</ele>
        <time>2016-03-06T10:03:49Z</time>
      </trkpt>
      <trkpt lat="48.81484" lon="1.41902">
        <ele>128</ele>
        <time>2016-03-06T10:03:51Z</time>
      </trkpt>
      <trkpt lat="48.81496" lon="1.41916">
        <ele>128</ele>
        <time>2016-03-06T10:03:53Z</time>
      </trkpt>
      <trkpt lat="48.81508" lon="1.41929">
        <ele>127.9</ele>
        <time>2016-03-06T10:03:55Z</time>
      </trkpt>
      <trkpt lat="48.81517" lon="1.4194">
        <ele>127.9</ele>
        <time>2016-03-06T10:03:57Z</time>
      </trkpt>
      <trkpt lat="48.81527" lon="1.41951">
        <ele>127.8</ele>
        <time>2016-03-06T10:03:59Z</time>
      </trkpt>
      <trkpt lat="48.81537" lon="1.41964">
        <ele>127.7</ele>
        <time>2016-03-06T10:04:01Z</time>
      </trkpt>
      <trkpt lat="48.81547" lon="1.41979">
        <ele>127.6</ele>
        <time>2016-03-06T10:04:03Z</time>
      </trkpt>
      <trkpt lat="48.81556" lon="1.41991">
        <ele>127.6</ele>
        <time>2016-03-06T10:04:05Z</time>
      </trkpt>
      <trkpt lat="48.81566" lon="1.42004">
        <ele>127.5</ele>
        <time>2016-03-06T10:04:07Z</time>
      </trkpt>
      <trkpt lat="48.81574" lon="1.42017">
        <ele>127.5</ele>
        <time>2016-03-06T10:04:09Z</time>
      </trkpt>
      <trkpt lat="48.81583" lon="1.4203">
        <ele>127.4</ele>
        <time>2016-03-06T10:04:11Z</time>
      </trkpt>
      <trkpt lat="48.81593" lon="1.42042">
        <ele>127.4</ele>
        <time>2016-03-06T10:04:13Z</time>
      </trkpt>
      <trkpt lat="48.81603" lon="1.42055">
        <ele>127.4</ele>
        <time>2016-03-06T10:04:15Z</time>
      </trkpt>
      <trkpt lat="48.81612" lon="1.42069">
        <ele>127.3</ele>
        <time>2016-03-06T10:04:17Z</time>
      </trkpt>
      <trkpt lat="48.81621" lon="1.42081">
        <ele>127.3</ele>
        <time>2016-03-06T10:04:19Z</time>
      </trkpt>
      <trkpt lat="48.81629" lon="1.42093">
        <ele>127.3</ele>
        <time>2016-03-06T10:04:21Z</time>
      </trkpt>
      <trkpt lat="48.81641" lon="1.42107">
        <ele>127.2</ele>
        <time>2016-03-06T10:04:23Z</time>
      </trkpt>
      <trkpt lat="48.8165" lon="1.4212">
        <ele>127.2</ele>
        <time>2016-03-06T10:04:25Z</time>
      </trkpt>
      <trkpt lat="48.8166" lon="1.42132">
        <ele>127.1</ele>
        <time>2016-03-06T10:04:27Z</time>
      </trkpt>
      <trkpt lat="48.81668" lon="1.42144">
        <ele>127.1</ele>
        <time>2016-03-06T10:04:29Z</time>
      </trkpt>
      <trkpt lat="48.81677" lon="1.42156">
        <ele>127</ele>
        <time>2016-03-06T10:04:31Z</time>
      </trkpt>
      <trkpt lat="48.81685" lon="1.42169">
        <ele>127</ele>
        <time>2016-03-06T10:04:33Z</time>
      </trkpt>
      <trkpt lat="48.81695" lon="1.42183">
        <ele>127</ele>
        <time>2016-03-06T10:04:36Z</time>
      </trkpt>
      <trkpt lat="48.81703" lon="1.42194">
        <ele>126.9</ele>
        <time>2016-03-06T10:04:38Z</time>
      </trkpt>
      <trkpt lat="48.8171" lon="1.42207">
        <ele>126.8</ele>
        <time>2016-03-06T10:04:40Z</time>
      </trkpt>
      <trkpt lat="48.81718" lon="1.42218">
        <ele>126.8</ele>
        <time>2016-03-06T10:04:42Z</time>
      </trkpt>
      <trkpt lat="48.81726" lon="1.42228">
        <ele>126.7</ele>
        <time>2016-03-06T10:04:44Z</time>
      </trkpt>
      <trkpt lat="48.81732" lon="1.4224">
        <ele>126.7</ele>
        <time>2016-03-06T10:04:46Z</time>
      </trkpt>
      <trkpt lat="48.81743" lon="1.42257">
        <ele>126.6</ele>
        <time>2016-03-06T10:04:49Z</time>
      </trkpt>
      <trkpt lat="48.81753" lon="1.4227">
        <ele>126.6</ele>
        <time>2016-03-06T10:04:51Z</time>
      </trkpt>
      <trkpt lat="48.81761" lon="1.42281">
        <ele>126.5</ele>
        <time>2016-03-06T10:04:53Z</time>
      </trkpt>
      <trkpt lat="48.8177" lon="1.42291">
        <ele>126.4</ele>
        <time>2016-03-06T10:04:55Z</time>
      </trkpt>
      <trkpt lat="48.81778" lon="1.42302">
        <ele>126.4</ele>
        <time>2016-03-06T10:04:57Z</time>
      </trkpt>
      <trkpt lat="48.81787" lon="1.42314">
        <ele>126.3</ele>
        <time>2016-03-06T10:04:59Z</time>
      </trkpt>
      <trkpt lat="48.818" lon="1.42329">
        <ele>126.1</ele>
        <time>2016-03-06T10:05:01Z</time>
      </trkpt>
      <trkpt lat="48.81812" lon="1.42344">
        <ele>126</ele>
        <time>2016-03-06T10:05:03Z</time>
      </trkpt>
      <trkpt lat="48.81826" lon="1.42358">
        <ele>125.8</ele>
        <time>2016-03-06T10:05:05Z</time>
      </trkpt>
      <trkpt lat="48.81836" lon="1.42373">
        <ele>125.7</ele>
        <time>2016-03-06T10:05:07Z</time>
      </trkpt>
      <trkpt lat="48.81848" lon="1.42388">
        <ele>125.5</ele>
        <time>2016-03-06T10:05:09Z</time>
      </trkpt>
      <trkpt lat="48.8186" lon="1.42403">
        <ele>125.4</ele>
        <time>2016-03-06T10:05:11Z</time>
      </trkpt>
      <trkpt lat="48.81873" lon="1.42418">
        <ele>125.3</ele>
        <time>2016-03-06T10:05:13Z</time>
      </trkpt>
      <trkpt lat="48.81885" lon="1.42432">
        <ele>125.1</ele>
        <time>2016-03-06T10:05:15Z</time>
      </trkpt>
      <trkpt lat="48.81896" lon="1.42446">
        <ele>124.9</ele>
        <time>2016-03-06T10:05:17Z</time>
      </trkpt>
      <trkpt lat="48.81907" lon="1.4246">
        <ele>124.7</ele>
        <time>2016-03-06T10:05:19Z</time>
      </trkpt>
      <trkpt lat="48.81917" lon="1.42474">
        <ele>124.4</ele>
        <time>2016-03-06T10:05:21Z</time>
      </trkpt>
      <trkpt lat="48.81928" lon="1.42489">
        <ele>124.1</ele>
        <time>2016-03-06T10:05:23Z</time>
      </trkpt>
      <trkpt lat="48.81939" lon="1.42503">
        <ele>123.8</ele>
        <time>2016-03-06T10:05:25Z</time>
      </trkpt>
      <trkpt lat="48.81949" lon="1.42517">
        <ele>123.5</ele>
        <time>2016-03-06T10:05:27Z</time>
      </trkpt>
      <trkpt lat="48.8196" lon="1.42531">
        <ele>123.2</ele>
        <time>2016-03-06T10:05:29Z</time>
      </trkpt>
      <trkpt lat="48.8197" lon="1.42545">
        <ele>122.9</ele>
        <time>2016-03-06T10:05:31Z</time>
      </trkpt>
      <trkpt lat="48.81978" lon="1.42557">
        <ele>122.7</ele>
        <time>2016-03-06T10:05:33Z</time>
      </trkpt>
      <trkpt lat="48.81986" lon="1.4257">
        <ele>122.5</ele>
        <time>2016-03-06T10:05:35Z</time>
      </trkpt>
      <trkpt lat="48.81991" lon="1.4258">
        <ele>122.4</ele>
        <time>2016-03-06T10:05:37Z</time>
      </trkpt>
      <trkpt lat="48.81998" lon="1.42591">
        <ele>122.2</ele>
        <time>2016-03-06T10:05:39Z</time>
      </trkpt>
      <trkpt lat="48.82006" lon="1.42602">
        <ele>122.1</ele>
        <time>2016-03-06T10:05:41Z</time>
      </trkpt>
      <trkpt lat="48.82015" lon="1.42614">
        <ele>122</ele>
        <time>2016-03-06T10:05:43Z</time>
      </trkpt>
      <trkpt lat="48.82025" lon="1.42625">
        <ele>122</ele>
        <time>2016-03-06T10:05:45Z</time>
      </trkpt>
      <trkpt lat="48.82033" lon="1.42636">
        <ele>122</ele>
        <time>2016-03-06T10:05:47Z</time>
      </trkpt>
      <trkpt lat="48.82044" lon="1.42648">
        <ele>121.9</ele>
        <time>2016-03-06T10:05:49Z</time>
      </trkpt>
      <trkpt lat="48.82052" lon="1.42661">
        <ele>121.9</ele>
        <time>2016-03-06T10:05:51Z</time>
      </trkpt>
      <trkpt lat="48.8206" lon="1.42673">
        <ele>121.9</ele>
        <time>2016-03-06T10:05:53Z</time>
      </trkpt>
      <trkpt lat="48.8207" lon="1.42685">
        <ele>121.9</ele>
        <time>2016-03-06T10:05:55Z</time>
      </trkpt>
      <trkpt lat="48.82079" lon="1.42696">
        <ele>121.9</ele>
        <time>2016-03-06T10:05:57Z</time>
      </trkpt>
      <trkpt lat="48.82087" lon="1.42708">
        <ele>121.9</ele>
        <time>2016-03-06T10:05:59Z</time>
      </trkpt>
      <trkpt lat="48.82097" lon="1.42719">
        <ele>121.9</ele>
        <time>2016-03-06T10:06:01Z</time>
      </trkpt>
      <trkpt lat="48.82105" lon="1.42731">
        <ele>121.9</ele>
        <time>2016-03-06T10:06:03Z</time>
      </trkpt>
      <trkpt lat="48.82114" lon="1.42742">
        <ele>121.9</ele>
        <time>2016-03-06T10:06:05Z</time>
      </trkpt>
      <trkpt lat="48.82123" lon="1.42753">
        <ele>121.9</ele>
        <time>2016-03-06T10:06:07Z</time>
      </trkpt>
      <trkpt lat="48.82129" lon="1.42765">
        <ele>121.9</ele>
        <time>2016-03-06T10:06:09Z</time>
      </trkpt>
      <trkpt lat="48.82138" lon="1.42777">
        <ele>121.8</ele>
        <time>2016-03-06T10:06:12Z</time>
      </trkpt>
      <trkpt lat="48.82147" lon="1.42786">
        <ele>121.7</ele>
        <time>2016-03-06T10:06:14Z</time>
      </trkpt>
      <trkpt lat="48.82154" lon="1.42797">
        <ele>121.6</ele>
        <time>2016-03-06T10:06:16Z</time>
      </trkpt>
      <trkpt lat="48.82158" lon="1.42813">
        <ele>121.4</ele>
        <time>2016-03-06T10:06:19Z</time>
      </trkpt>
      <trkpt lat="48.82162" lon="1.42827">
        <ele>121.1</ele>
        <time>2016-03-06T10:06:23Z</time>
      </trkpt>
      <trkpt lat="48.82172" lon="1.42836">
        <ele>120.8</ele>
        <time>2016-03-06T10:06:29Z</time>
      </trkpt>
      <trkpt lat="48.82183" lon="1.42839">
        <ele>120.7</ele>
        <time>2016-03-06T10:06:32Z</time>
      </trkpt>
      <trkpt lat="48.82191" lon="1.42851">
        <ele>120.4</ele>
        <time>2016-03-06T10:06:35Z</time>
      </trkpt>
      <trkpt lat="48.82197" lon="1.42862">
        <ele>120</ele>
        <time>2016-03-06T10:06:39Z</time>
      </trkpt>
      <trkpt lat="48.82209" lon="1.42869">
        <ele>119.6</ele>
        <time>2016-03-06T10:06:43Z</time>
      </trkpt>
      <trkpt lat="48.82216" lon="1.42882">
        <ele>119.4</ele>
        <time>2016-03-06T10:06:46Z</time>
      </trkpt>
      <trkpt lat="48.82224" lon="1.42898">
        <ele>119.2</ele>
        <time>2016-03-06T10:06:49Z</time>
      </trkpt>
      <trkpt lat="48.82233" lon="1.42911">
        <ele>119.1</ele>
        <time>2016-03-06T10:06:52Z</time>
      </trkpt>
      <trkpt lat="48.82243" lon="1.42922">
        <ele>119.3</ele>
        <time>2016-03-06T10:06:55Z</time>
      </trkpt>
      <trkpt lat="48.82251" lon="1.42934">
        <ele>119.6</ele>
        <time>2016-03-06T10:06:58Z</time>
      </trkpt>
      <trkpt lat="48.8226" lon="1.42947">
        <ele>119.9</ele>
        <time>2016-03-06T10:07:01Z</time>
      </trkpt>
      <trkpt lat="48.82269" lon="1.42959">
        <ele>120.2</ele>
        <time>2016-03-06T10:07:04Z</time>
      </trkpt>
      <trkpt lat="48.82277" lon="1.42968">
        <ele>120.4</ele>
        <time>2016-03-06T10:07:06Z</time>
      </trkpt>
      <trkpt lat="48.82286" lon="1.42979">
        <ele>120.5</ele>
        <time>2016-03-06T10:07:09Z</time>
      </trkpt>
      <trkpt lat="48.82293" lon="1.42987">
        <ele>120.6</ele>
        <time>2016-03-06T10:07:11Z</time>
      </trkpt>
      <trkpt lat="48.82303" lon="1.42998">
        <ele>120.7</ele>
        <time>2016-03-06T10:07:13Z</time>
      </trkpt>
      <trkpt lat="48.82312" lon="1.43008">
        <ele>120.8</ele>
        <time>2016-03-06T10:07:15Z</time>
      </trkpt>
      <trkpt lat="48.82319" lon="1.43019">
        <ele>120.8</ele>
        <time>2016-03-06T10:07:17Z</time>
      </trkpt>
      <trkpt lat="48.82326" lon="1.43029">
        <ele>120.9</ele>
        <time>2016-03-06T10:07:19Z</time>
      </trkpt>
      <trkpt lat="48.82335" lon="1.43042">
        <ele>121</ele>
        <time>2016-03-06T10:07:22Z</time>
      </trkpt>
      <trkpt lat="48.82344" lon="1.43051">
        <ele>121</ele>
        <time>2016-03-06T10:07:24Z</time>
      </trkpt>
      <trkpt lat="48.8235" lon="1.43062">
        <ele>121</ele>
        <time>2016-03-06T10:07:26Z</time>
      </trkpt>
      <trkpt lat="48.82362" lon="1.43076">
        <ele>120.9</ele>
        <time>2016-03-06T10:07:29Z</time>
      </trkpt>
      <trkpt lat="48.8237" lon="1.4309">
        <ele>120.9</ele>
        <time>2016-03-06T10:07:32Z</time>
      </trkpt>
      <trkpt lat="48.82379" lon="1.43098">
        <ele>121</ele>
        <time>2016-03-06T10:07:34Z</time>
      </trkpt>
      <trkpt lat="48.82388" lon="1.43106">
        <ele>121.1</ele>
        <time>2016-03-06T10:07:36Z</time>
      </trkpt>
      <trkpt lat="48.82395" lon="1.4312">
        <ele>121.2</ele>
        <time>2016-03-06T10:07:39Z</time>
      </trkpt>
      <trkpt lat="48.82401" lon="1.43131">
        <ele>121.2</ele>
        <time>2016-03-06T10:07:41Z</time>
      </trkpt>
      <trkpt lat="48.8241" lon="1.43142">
        <ele>121.2</ele>
        <time>2016-03-06T10:07:43Z</time>
      </trkpt>
      <trkpt lat="48.8242" lon="1.43154">
        <ele>121.3</ele>
        <time>2016-03-06T10:07:45Z</time>
      </trkpt>
      <trkpt lat="48.8243" lon="1.43167">
        <ele>121.3</ele>
        <time>2016-03-06T10:07:47Z</time>
      </trkpt>
      <trkpt lat="48.82437" lon="1.43178">
        <ele>121.3</ele>
        <time>2016-03-06T10:07:49Z</time>
      </trkpt>
      <trkpt lat="48.82445" lon="1.43188">
        <ele>121.4</ele>
        <time>2016-03-06T10:07:51Z</time>
      </trkpt>
      <trkpt lat="48.82452" lon="1.43198">
        <ele>121.4</ele>
        <time>2016-03-06T10:07:53Z</time>
      </trkpt>
      <trkpt lat="48.82461" lon="1.43209">
        <ele>121.5</ele>
        <time>2016-03-06T10:07:55Z</time>
      </trkpt>
      <trkpt lat="48.82468" lon="1.4322">
        <ele>121.5</ele>
        <time>2016-03-06T10:07:57Z</time>
      </trkpt>
      <trkpt lat="48.82474" lon="1.43232">
        <ele>121.6</ele>
        <time>2016-03-06T10:07:59Z</time>
      </trkpt>
      <trkpt lat="48.82484" lon="1.43243">
        <ele>121.6</ele>
        <time>2016-03-06T10:08:01Z</time>
      </trkpt>
      <trkpt lat="48.82492" lon="1.43254">
        <ele>121.7</ele>
        <time>2016-03-06T10:08:03Z</time>
      </trkpt>
      <trkpt lat="48.825" lon="1.43264">
        <ele>121.7</ele>
        <time>2016-03-06T10:08:05Z</time>
      </trkpt>
      <trkpt lat="48.82508" lon="1.43275">
        <ele>121.7</ele>
        <time>2016-03-06T10:08:07Z</time>
      </trkpt>
      <trkpt lat="48.82516" lon="1.43286">
        <ele>121.7</ele>
        <time>2016-03-06T10:08:09Z</time>
      </trkpt>
      <trkpt lat="48.82525" lon="1.43298">
        <ele>121.7</ele>
        <time>2016-03-06T10:08:11Z</time>
      </trkpt>
      <trkpt lat="48.82533" lon="1.43309">
        <ele>121.7</ele>
        <time>2016-03-06T10:08:13Z</time>
      </trkpt>
      <trkpt lat="48.82541" lon="1.43319">
        <ele>121.7</ele>
        <time>2016-03-06T10:08:15Z</time>
      </trkpt>
      <trkpt lat="48.82548" lon="1.43329">
        <ele>121.7</ele>
        <time>2016-03-06T10:08:17Z</time>
      </trkpt>
      <trkpt lat="48.82557" lon="1.43345">
        <ele>121.7</ele>
        <time>2016-03-06T10:08:20Z</time>
      </trkpt>
      <trkpt lat="48.82565" lon="1.43356">
        <ele>121.6</ele>
        <time>2016-03-06T10:08:22Z</time>
      </trkpt>
      <trkpt lat="48.82573" lon="1.43367">
        <ele>121.6</ele>
        <time>2016-03-06T10:08:24Z</time>
      </trkpt>
      <trkpt lat="48.82581" lon="1.43378">
        <ele>121.5</ele>
        <time>2016-03-06T10:08:26Z</time>
      </trkpt>
      <trkpt lat="48.8259" lon="1.43389">
        <ele>121.5</ele>
        <time>2016-03-06T10:08:28Z</time>
      </trkpt>
      <trkpt lat="48.826" lon="1.434">
        <ele>121.4</ele>
        <time>2016-03-06T10:08:30Z</time>
      </trkpt>
      <trkpt lat="48.82609" lon="1.43411">
        <ele>121.3</ele>
        <time>2016-03-06T10:08:32Z</time>
      </trkpt>
      <trkpt lat="48.82617" lon="1.43422">
        <ele>121.2</ele>
        <time>2016-03-06T10:08:34Z</time>
      </trkpt>
      <trkpt lat="48.82626" lon="1.43433">
        <ele>121.1</ele>
        <time>2016-03-06T10:08:36Z</time>
      </trkpt>
      <trkpt lat="48.82635" lon="1.43444">
        <ele>120.9</ele>
        <time>2016-03-06T10:08:38Z</time>
      </trkpt>
      <trkpt lat="48.82643" lon="1.43455">
        <ele>120.7</ele>
        <time>2016-03-06T10:08:40Z</time>
      </trkpt>
      <trkpt lat="48.82652" lon="1.43467">
        <ele>120.6</ele>
        <time>2016-03-06T10:08:42Z</time>
      </trkpt>
      <trkpt lat="48.8266" lon="1.43478">
        <ele>120.4</ele>
        <time>2016-03-06T10:08:44Z</time>
      </trkpt>
      <trkpt lat="48.82669" lon="1.43491">
        <ele>120.2</ele>
        <time>2016-03-06T10:08:46Z</time>
      </trkpt>
      <trkpt lat="48.82675" lon="1.43502">
        <ele>120.1</ele>
        <time>2016-03-06T10:08:48Z</time>
      </trkpt>
      <trkpt lat="48.82683" lon="1.43513">
        <ele>119.9</ele>
        <time>2016-03-06T10:08:50Z</time>
      </trkpt>
      <trkpt lat="48.8269" lon="1.43522">
        <ele>119.8</ele>
        <time>2016-03-06T10:08:52Z</time>
      </trkpt>
      <trkpt lat="48.82697" lon="1.43531">
        <ele>119.6</ele>
        <time>2016-03-06T10:08:54Z</time>
      </trkpt>
      <trkpt lat="48.82703" lon="1.43542">
        <ele>119.5</ele>
        <time>2016-03-06T10:08:56Z</time>
      </trkpt>
      <trkpt lat="48.8271" lon="1.43552">
        <ele>119.4</ele>
        <time>2016-03-06T10:08:58Z</time>
      </trkpt>
      <trkpt lat="48.82717" lon="1.43562">
        <ele>119.3</ele>
        <time>2016-03-06T10:09:00Z</time>
      </trkpt>
      <trkpt lat="48.82726" lon="1.43572">
        <ele>119.2</ele>
        <time>2016-03-06T10:09:02Z</time>
      </trkpt>
      <trkpt lat="48.82734" lon="1.43583">
        <ele>119.2</ele>
        <time>2016-03-06T10:09:04Z</time>
      </trkpt>
      <trkpt lat="48.82743" lon="1.43593">
        <ele>119.2</ele>
        <time>2016-03-06T10:09:06Z</time>
      </trkpt>
      <trkpt lat="48.82751" lon="1.43605">
        <ele>119.1</ele>
        <time>2016-03-06T10:09:08Z</time>
      </trkpt>
      <trkpt lat="48.82757" lon="1.43617">
        <ele>119</ele>
        <time>2016-03-06T10:09:10Z</time>
      </trkpt>
      <trkpt lat="48.82766" lon="1.43627">
        <ele>118.9</ele>
        <time>2016-03-06T10:09:12Z</time>
      </trkpt>
      <trkpt lat="48.82775" lon="1.43635">
        <ele>118.6</ele>
        <time>2016-03-06T10:09:14Z</time>
      </trkpt>
      <trkpt lat="48.82782" lon="1.43646">
        <ele>118.1</ele>
        <time>2016-03-06T10:09:16Z</time>
      </trkpt>
      <trkpt lat="48.82787" lon="1.43665">
        <ele>117.3</ele>
        <time>2016-03-06T10:09:18Z</time>
      </trkpt>
      <trkpt lat="48.82799" lon="1.43682">
        <ele>116.4</ele>
        <time>2016-03-06T10:09:20Z</time>
      </trkpt>
      <trkpt lat="48.82808" lon="1.43701">
        <ele>115.3</ele>
        <time>2016-03-06T10:09:22Z</time>
      </trkpt>
      <trkpt lat="48.82814" lon="1.43716">
        <ele>114.2</ele>
        <time>2016-03-06T10:09:24Z</time>
      </trkpt>
      <trkpt lat="48.82822" lon="1.43728">
        <ele>113.3</ele>
        <time>2016-03-06T10:09:26Z</time>
      </trkpt>
      <trkpt lat="48.82828" lon="1.43739">
        <ele>112.3</ele>
        <time>2016-03-06T10:09:28Z</time>
      </trkpt>
      <trkpt lat="48.82836" lon="1.43751">
        <ele>111.4</ele>
        <time>2016-03-06T10:09:30Z</time>
      </trkpt>
      <trkpt lat="48.82843" lon="1.43759">
        <ele>110.5</ele>
        <time>2016-03-06T10:09:32Z</time>
      </trkpt>
      <trkpt lat="48.8285" lon="1.43768">
        <ele>109.7</ele>
        <time>2016-03-06T10:09:34Z</time>
      </trkpt>
      <trkpt lat="48.8286" lon="1.4378">
        <ele>108.7</ele>
        <time>2016-03-06T10:09:37Z</time>
      </trkpt>
      <trkpt lat="48.8287" lon="1.43789">
        <ele>107.8</ele>
        <time>2016-03-06T10:09:40Z</time>
      </trkpt>
      <trkpt lat="48.8288" lon="1.43798">
        <ele>107</ele>
        <time>2016-03-06T10:09:43Z</time>
      </trkpt>
      <trkpt lat="48.82888" lon="1.43807">
        <ele>106.6</ele>
        <time>2016-03-06T10:09:45Z</time>
      </trkpt>
      <trkpt lat="48.82897" lon="1.43817">
        <ele>105.9</ele>
        <time>2016-03-06T10:09:48Z</time>
      </trkpt>
      <trkpt lat="48.82905" lon="1.43829">
        <ele>105.4</ele>
        <time>2016-03-06T10:09:51Z</time>
      </trkpt>
      <trkpt lat="48.82914" lon="1.43841">
        <ele>104.8</ele>
        <time>2016-03-06T10:09:54Z</time>
      </trkpt>
      <trkpt lat="48.82923" lon="1.43851">
        <ele>104.3</ele>
        <time>2016-03-06T10:09:57Z</time>
      </trkpt>
      <trkpt lat="48.82933" lon="1.43864">
        <ele>103.9</ele>
        <time>2016-03-06T10:10:00Z</time>
      </trkpt>
      <trkpt lat="48.82941" lon="1.43876">
        <ele>103.6</ele>
        <time>2016-03-06T10:10:03Z</time>
      </trkpt>
      <trkpt lat="48.82948" lon="1.43885">
        <ele>103.4</ele>
        <time>2016-03-06T10:10:05Z</time>
      </trkpt>
      <trkpt lat="48.82957" lon="1.43899">
        <ele>103.1</ele>
        <time>2016-03-06T10:10:08Z</time>
      </trkpt>
      <trkpt lat="48.82966" lon="1.43909">
        <ele>102.9</ele>
        <time>2016-03-06T10:10:10Z</time>
      </trkpt>
      <trkpt lat="48.82974" lon="1.43922">
        <ele>102.8</ele>
        <time>2016-03-06T10:10:12Z</time>
      </trkpt>
      <trkpt lat="48.8298" lon="1.43932">
        <ele>102.6</ele>
        <time>2016-03-06T10:10:14Z</time>
      </trkpt>
      <trkpt lat="48.8299" lon="1.43944">
        <ele>102.4</ele>
        <time>2016-03-06T10:10:17Z</time>
      </trkpt>
      <trkpt lat="48.82998" lon="1.43951">
        <ele>102.3</ele>
        <time>2016-03-06T10:10:19Z</time>
      </trkpt>
      <trkpt lat="48.83006" lon="1.43958">
        <ele>102.2</ele>
        <time>2016-03-06T10:10:21Z</time>
      </trkpt>
      <trkpt lat="48.83016" lon="1.43968">
        <ele>102.1</ele>
        <time>2016-03-06T10:10:24Z</time>
      </trkpt>
      <trkpt lat="48.83025" lon="1.43978">
        <ele>102.2</ele>
        <time>2016-03-06T10:10:28Z</time>
      </trkpt>
      <trkpt lat="48.83033" lon="1.43988">
        <ele>102.8</ele>
        <time>2016-03-06T10:10:33Z</time>
      </trkpt>
      <trkpt lat="48.83042" lon="1.43997">
        <ele>103.4</ele>
        <time>2016-03-06T10:10:37Z</time>
      </trkpt>
      <trkpt lat="48.83051" lon="1.44007">
        <ele>104.1</ele>
        <time>2016-03-06T10:10:41Z</time>
      </trkpt>
      <trkpt lat="48.83059" lon="1.44017">
        <ele>105.1</ele>
        <time>2016-03-06T10:10:46Z</time>
      </trkpt>
      <trkpt lat="48.83067" lon="1.44028">
        <ele>105.9</ele>
        <time>2016-03-06T10:10:50Z</time>
      </trkpt>
      <trkpt lat="48.83073" lon="1.44038">
        <ele>106.7</ele>
        <time>2016-03-06T10:10:54Z</time>
      </trkpt>
      <trkpt lat="48.83078" lon="1.44051">
        <ele>107.8</ele>
        <time>2016-03-06T10:11:00Z</time>
      </trkpt>
      <trkpt lat="48.83085" lon="1.44063">
        <ele>108.4</ele>
        <time>2016-03-06T10:11:04Z</time>
      </trkpt>
      <trkpt lat="48.83092" lon="1.44075">
        <ele>108.9</ele>
        <time>2016-03-06T10:11:07Z</time>
      </trkpt>
      <trkpt lat="48.83101" lon="1.44088">
        <ele>109.5</ele>
        <time>2016-03-06T10:11:11Z</time>
      </trkpt>
      <trkpt lat="48.83109" lon="1.441">
        <ele>110</ele>
        <time>2016-03-06T10:11:14Z</time>
      </trkpt>
      <trkpt lat="48.83116" lon="1.44111">
        <ele>110.4</ele>
        <time>2016-03-06T10:11:17Z</time>
      </trkpt>
      <trkpt lat="48.83123" lon="1.44121">
        <ele>110.8</ele>
        <time>2016-03-06T10:11:20Z</time>
      </trkpt>
      <trkpt lat="48.8313" lon="1.4413">
        <ele>111.2</ele>
        <time>2016-03-06T10:11:23Z</time>
      </trkpt>
      <trkpt lat="48.83138" lon="1.44142">
        <ele>111.6</ele>
        <time>2016-03-06T10:11:27Z</time>
      </trkpt>
      <trkpt lat="48.83145" lon="1.44155">
        <ele>111.9</ele>
        <time>2016-03-06T10:11:30Z</time>
      </trkpt>
      <trkpt lat="48.83155" lon="1.44165">
        <ele>112.1</ele>
        <time>2016-03-06T10:11:33Z</time>
      </trkpt>
      <trkpt lat="48.83163" lon="1.44175">
        <ele>112.4</ele>
        <time>2016-03-06T10:11:35Z</time>
      </trkpt>
      <trkpt lat="48.83173" lon="1.44188">
        <ele>112.8</ele>
        <time>2016-03-06T10:11:38Z</time>
      </trkpt>
      <trkpt lat="48.83184" lon="1.442">
        <ele>113.1</ele>
        <time>2016-03-06T10:11:41Z</time>
      </trkpt>
      <trkpt lat="48.83192" lon="1.44215">
        <ele>113.3</ele>
        <time>2016-03-06T10:11:44Z</time>
      </trkpt>
      <trkpt lat="48.83203" lon="1.44229">
        <ele>113.3</ele>
        <time>2016-03-06T10:11:47Z</time>
      </trkpt>
      <trkpt lat="48.83212" lon="1.44239">
        <ele>113.1</ele>
        <time>2016-03-06T10:11:49Z</time>
      </trkpt>
      <trkpt lat="48.83221" lon="1.44249">
        <ele>112.6</ele>
        <time>2016-03-06T10:11:52Z</time>
      </trkpt>
      <trkpt lat="48.83229" lon="1.44255">
        <ele>111.9</ele>
        <time>2016-03-06T10:11:55Z</time>
      </trkpt>
      <trkpt lat="48.83234" lon="1.44267">
        <ele>111</ele>
        <time>2016-03-06T10:11:58Z</time>
      </trkpt>
      <trkpt lat="48.83241" lon="1.44282">
        <ele>109.8</ele>
        <time>2016-03-06T10:12:01Z</time>
      </trkpt>
      <trkpt lat="48.83251" lon="1.44294">
        <ele>108.5</ele>
        <time>2016-03-06T10:12:04Z</time>
      </trkpt>
      <trkpt lat="48.8326" lon="1.44301">
        <ele>107.8</ele>
        <time>2016-03-06T10:12:06Z</time>
      </trkpt>
      <trkpt lat="48.83269" lon="1.44309">
        <ele>106.7</ele>
        <time>2016-03-06T10:12:10Z</time>
      </trkpt>
      <trkpt lat="48.83276" lon="1.44317">
        <ele>106.2</ele>
        <time>2016-03-06T10:12:14Z</time>
      </trkpt>
      <trkpt lat="48.83284" lon="1.44327">
        <ele>106.1</ele>
        <time>2016-03-06T10:12:20Z</time>
      </trkpt>
      <trkpt lat="48.83292" lon="1.44336">
        <ele>106.9</ele>
        <time>2016-03-06T10:12:26Z</time>
      </trkpt>
      <trkpt lat="48.83299" lon="1.44345">
        <ele>108.2</ele>
        <time>2016-03-06T10:12:33Z</time>
      </trkpt>
      <trkpt lat="48.83306" lon="1.44355">
        <ele>109.8</ele>
        <time>2016-03-06T10:12:41Z</time>
      </trkpt>
      <trkpt lat="48.83314" lon="1.44364">
        <ele>110.9</ele>
        <time>2016-03-06T10:12:48Z</time>
      </trkpt>
      <trkpt lat="48.83321" lon="1.44373">
        <ele>111.9</ele>
        <time>2016-03-06T10:12:55Z</time>
      </trkpt>
      <trkpt lat="48.83329" lon="1.44382">
        <ele>112.4</ele>
        <time>2016-03-06T10:13:01Z</time>
      </trkpt>
      <trkpt lat="48.83338" lon="1.44391">
        <ele>112.8</ele>
        <time>2016-03-06T10:13:06Z</time>
      </trkpt>
      <trkpt lat="48.83345" lon="1.444">
        <ele>113</ele>
        <time>2016-03-06T10:13:10Z</time>
      </trkpt>
      <trkpt lat="48.83352" lon="1.44411">
        <ele>113.2</ele>
        <time>2016-03-06T10:13:15Z</time>
      </trkpt>
      <trkpt lat="48.83361" lon="1.4442">
        <ele>113.6</ele>
        <time>2016-03-06T10:13:21Z</time>
      </trkpt>
      <trkpt lat="48.8337" lon="1.44414">
        <ele>114.2</ele>
        <time>2016-03-06T10:13:33Z</time>
      </trkpt>
      <trkpt lat="48.8338" lon="1.44416">
        <ele>114.7</ele>
        <time>2016-03-06T10:13:41Z</time>
      </trkpt>
      <trkpt lat="48.8339" lon="1.44419">
        <ele>115.1</ele>
        <time>2016-03-06T10:13:45Z</time>
      </trkpt>
      <trkpt lat="48.834" lon="1.44422">
        <ele>115.5</ele>
        <time>2016-03-06T10:13:49Z</time>
      </trkpt>
      <trkpt lat="48.83409" lon="1.44423">
        <ele>115.6</ele>
        <time>2016-03-06T10:13:51Z</time>
      </trkpt>
      <trkpt lat="48.8342" lon="1.44427">
        <ele>115.9</ele>
        <time>2016-03-06T10:13:55Z</time>
      </trkpt>
      <trkpt lat="48.83428" lon="1.44422">
        <ele>116.4</ele>
        <time>2016-03-06T10:14:00Z</time>
      </trkpt>
      <trkpt lat="48.83429" lon="1.44405">
        <ele>117.1</ele>
        <time>2016-03-06T10:14:05Z</time>
      </trkpt>
      <trkpt lat="48.8343" lon="1.4439">
        <ele>117.5</ele>
        <time>2016-03-06T10:14:09Z</time>
      </trkpt>
      <trkpt lat="48.83435" lon="1.44377">
        <ele>117.9</ele>
        <time>2016-03-06T10:14:13Z</time>
      </trkpt>
      <trkpt lat="48.83442" lon="1.44367">
        <ele>118.3</ele>
        <time>2016-03-06T10:14:17Z</time>
      </trkpt>
      <trkpt lat="48.83449" lon="1.44355">
        <ele>118.8</ele>
        <time>2016-03-06T10:14:21Z</time>
      </trkpt>
      <trkpt lat="48.83456" lon="1.44342">
        <ele>119.5</ele>
        <time>2016-03-06T10:14:25Z</time>
      </trkpt>
      <trkpt lat="48.83462" lon="1.44331">
        <ele>120</ele>
        <time>2016-03-06T10:14:28Z</time>
      </trkpt>
      <trkpt lat="48.83469" lon="1.44317">
        <ele>120.5</ele>
        <time>2016-03-06T10:14:32Z</time>
      </trkpt>
      <trkpt lat="48.83474" lon="1.44306">
        <ele>120.8</ele>
        <time>2016-03-06T10:14:35Z</time>
      </trkpt>
      <trkpt lat="48.83481" lon="1.44294">
        <ele>121.2</ele>
        <time>2016-03-06T10:14:38Z</time>
      </trkpt>
      <trkpt lat="48.83487" lon="1.44282">
        <ele>121.5</ele>
        <time>2016-03-06T10:14:41Z</time>
      </trkpt>
      <trkpt lat="48.83493" lon="1.44267">
        <ele>121.9</ele>
        <time>2016-03-06T10:14:44Z</time>
      </trkpt>
      <trkpt lat="48.835" lon="1.44253">
        <ele>122.2</ele>
        <time>2016-03-06T10:14:47Z</time>
      </trkpt>
      <trkpt lat="48.83507" lon="1.44241">
        <ele>122.5</ele>
        <time>2016-03-06T10:14:50Z</time>
      </trkpt>
      <trkpt lat="48.83512" lon="1.44226">
        <ele>122.8</ele>
        <time>2016-03-06T10:14:53Z</time>
      </trkpt>
      <trkpt lat="48.83518" lon="1.44213">
        <ele>123</ele>
        <time>2016-03-06T10:14:56Z</time>
      </trkpt>
      <trkpt lat="48.83525" lon="1.442">
        <ele>123.2</ele>
        <time>2016-03-06T10:14:59Z</time>
      </trkpt>
      <trkpt lat="48.83531" lon="1.44187">
        <ele>123.5</ele>
        <time>2016-03-06T10:15:02Z</time>
      </trkpt>
      <trkpt lat="48.83539" lon="1.44173">
        <ele>123.8</ele>
        <time>2016-03-06T10:15:05Z</time>
      </trkpt>
      <trkpt lat="48.83545" lon="1.44158">
        <ele>124</ele>
        <time>2016-03-06T10:15:08Z</time>
      </trkpt>
      <trkpt lat="48.83552" lon="1.44143">
        <ele>124.2</ele>
        <time>2016-03-06T10:15:11Z</time>
      </trkpt>
      <trkpt lat="48.8356" lon="1.44128">
        <ele>124.3</ele>
        <time>2016-03-06T10:15:14Z</time>
      </trkpt>
      <trkpt lat="48.83566" lon="1.44114">
        <ele>124.5</ele>
        <time>2016-03-06T10:15:17Z</time>
      </trkpt>
      <trkpt lat="48.83573" lon="1.44098">
        <ele>124.6</ele>
        <time>2016-03-06T10:15:20Z</time>
      </trkpt>
      <trkpt lat="48.8358" lon="1.44082">
        <ele>124.7</ele>
        <time>2016-03-06T10:15:23Z</time>
      </trkpt>
      <trkpt lat="48.83588" lon="1.44069">
        <ele>124.8</ele>
        <time>2016-03-06T10:15:26Z</time>
      </trkpt>
      <trkpt lat="48.83597" lon="1.44052">
        <ele>124.9</ele>
        <time>2016-03-06T10:15:29Z</time>
      </trkpt>
      <trkpt lat="48.83603" lon="1.4404">
        <ele>124.9</ele>
        <time>2016-03-06T10:15:31Z</time>
      </trkpt>
      <trkpt lat="48.83609" lon="1.44027">
        <ele>125</ele>
        <time>2016-03-06T10:15:33Z</time>
      </trkpt>
      <trkpt lat="48.83615" lon="1.44016">
        <ele>125</ele>
        <time>2016-03-06T10:15:35Z</time>
      </trkpt>
      <trkpt lat="48.83622" lon="1.44005">
        <ele>125.1</ele>
        <time>2016-03-06T10:15:37Z</time>
      </trkpt>
      <trkpt lat="48.83628" lon="1.43994">
        <ele>125.1</ele>
        <time>2016-03-06T10:15:39Z</time>
      </trkpt>
      <trkpt lat="48.83635" lon="1.43978">
        <ele>125.2</ele>
        <time>2016-03-06T10:15:42Z</time>
      </trkpt>
      <trkpt lat="48.83644" lon="1.43962">
        <ele>125.4</ele>
        <time>2016-03-06T10:15:45Z</time>
      </trkpt>
      <trkpt lat="48.83653" lon="1.43947">
        <ele>125.5</ele>
        <time>2016-03-06T10:15:48Z</time>
      </trkpt>
      <trkpt lat="48.83658" lon="1.43935">
        <ele>125.6</ele>
        <time>2016-03-06T10:15:50Z</time>
      </trkpt>
      <trkpt lat="48.83667" lon="1.43922">
        <ele>125.7</ele>
        <time>2016-03-06T10:15:53Z</time>
      </trkpt>
      <trkpt lat="48.83674" lon="1.43908">
        <ele>125.8</ele>
        <time>2016-03-06T10:15:56Z</time>
      </trkpt>
      <trkpt lat="48.83678" lon="1.43894">
        <ele>125.8</ele>
        <time>2016-03-06T10:15:59Z</time>
      </trkpt>
      <trkpt lat="48.8368" lon="1.43881">
        <ele>125.9</ele>
        <time>2016-03-06T10:16:06Z</time>
      </trkpt>
      <trkpt lat="48.83671" lon="1.43881">
        <ele>125.9</ele>
        <time>2016-03-06T10:16:12Z</time>
      </trkpt>
      <trkpt lat="48.83662" lon="1.43872">
        <ele>126</ele>
        <time>2016-03-06T10:16:15Z</time>
      </trkpt>
      <trkpt lat="48.83655" lon="1.43863">
        <ele>126</ele>
        <time>2016-03-06T10:16:17Z</time>
      </trkpt>
      <trkpt lat="48.83648" lon="1.43853">
        <ele>125.9</ele>
        <time>2016-03-06T10:16:19Z</time>
      </trkpt>
      <trkpt lat="48.83639" lon="1.4384">
        <ele>125.9</ele>
        <time>2016-03-06T10:16:22Z</time>
      </trkpt>
      <trkpt lat="48.83628" lon="1.43827">
        <ele>125.9</ele>
        <time>2016-03-06T10:16:25Z</time>
      </trkpt>
      <trkpt lat="48.83621" lon="1.43818">
        <ele>125.9</ele>
        <time>2016-03-06T10:16:27Z</time>
      </trkpt>
      <trkpt lat="48.83612" lon="1.43808">
        <ele>125.8</ele>
        <time>2016-03-06T10:16:29Z</time>
      </trkpt>
      <trkpt lat="48.83603" lon="1.43798">
        <ele>125.8</ele>
        <time>2016-03-06T10:16:31Z</time>
      </trkpt>
      <trkpt lat="48.83594" lon="1.43788">
        <ele>125.7</ele>
        <time>2016-03-06T10:16:33Z</time>
      </trkpt>
      <trkpt lat="48.83585" lon="1.43779">
        <ele>125.7</ele>
        <time>2016-03-06T10:16:35Z</time>
      </trkpt>
      <trkpt lat="48.83577" lon="1.43769">
        <ele>125.6</ele>
        <time>2016-03-06T10:16:37Z</time>
      </trkpt>
      <trkpt lat="48.83568" lon="1.43757">
        <ele>125.5</ele>
        <time>2016-03-06T10:16:39Z</time>
      </trkpt>
      <trkpt lat="48.8356" lon="1.43748">
        <ele>125.4</ele>
        <time>2016-03-06T10:16:41Z</time>
      </trkpt>
      <trkpt lat="48.8355" lon="1.43735">
        <ele>125.3</ele>
        <time>2016-03-06T10:16:44Z</time>
      </trkpt>
      <trkpt lat="48.8354" lon="1.43722">
        <ele>125.3</ele>
        <time>2016-03-06T10:16:46Z</time>
      </trkpt>
      <trkpt lat="48.8353" lon="1.43709">
        <ele>125.2</ele>
        <time>2016-03-06T10:16:48Z</time>
      </trkpt>
      <trkpt lat="48.8352" lon="1.43697">
        <ele>125.2</ele>
        <time>2016-03-06T10:16:50Z</time>
      </trkpt>
      <trkpt lat="48.8351" lon="1.43685">
        <ele>125.2</ele>
        <time>2016-03-06T10:16:52Z</time>
      </trkpt>
      <trkpt lat="48.83502" lon="1.43673">
        <ele>125.2</ele>
        <time>2016-03-06T10:16:54Z</time>
      </trkpt>
      <trkpt lat="48.83494" lon="1.43661">
        <ele>125.2</ele>
        <time>2016-03-06T10:16:56Z</time>
      </trkpt>
      <trkpt lat="48.83487" lon="1.4365">
        <ele>125.2</ele>
        <time>2016-03-06T10:16:58Z</time>
      </trkpt>
      <trkpt lat="48.83478" lon="1.43639">
        <ele>125.2</ele>
        <time>2016-03-06T10:17:00Z</time>
      </trkpt>
      <trkpt lat="48.8347" lon="1.43628">
        <ele>125.2</ele>
        <time>2016-03-06T10:17:02Z</time>
      </trkpt>
      <trkpt lat="48.83462" lon="1.43616">
        <ele>125.3</ele>
        <time>2016-03-06T10:17:04Z</time>
      </trkpt>
      <trkpt lat="48.83455" lon="1.43605">
        <ele>125.3</ele>
        <time>2016-03-06T10:17:06Z</time>
      </trkpt>
      <trkpt lat="48.83443" lon="1.43592">
        <ele>125.3</ele>
        <time>2016-03-06T10:17:09Z</time>
      </trkpt>
      <trkpt lat="48.83431" lon="1.43579">
        <ele>125.3</ele>
        <time>2016-03-06T10:17:12Z</time>
      </trkpt>
      <trkpt lat="48.83423" lon="1.43567">
        <ele>125.4</ele>
        <time>2016-03-06T10:17:14Z</time>
      </trkpt>
      <trkpt lat="48.83415" lon="1.43556">
        <ele>125.5</ele>
        <time>2016-03-06T10:17:16Z</time>
      </trkpt>
      <trkpt lat="48.83406" lon="1.43546">
        <ele>125.6</ele>
        <time>2016-03-06T10:17:18Z</time>
      </trkpt>
      <trkpt lat="48.83399" lon="1.43536">
        <ele>125.6</ele>
        <time>2016-03-06T10:17:20Z</time>
      </trkpt>
      <trkpt lat="48.83392" lon="1.43526">
        <ele>125.7</ele>
        <time>2016-03-06T10:17:22Z</time>
      </trkpt>
      <trkpt lat="48.83384" lon="1.43516">
        <ele>125.7</ele>
        <time>2016-03-06T10:17:24Z</time>
      </trkpt>
      <trkpt lat="48.83377" lon="1.43505">
        <ele>125.8</ele>
        <time>2016-03-06T10:17:26Z</time>
      </trkpt>
      <trkpt lat="48.83369" lon="1.43495">
        <ele>125.9</ele>
        <time>2016-03-06T10:17:28Z</time>
      </trkpt>
      <trkpt lat="48.83362" lon="1.43485">
        <ele>125.9</ele>
        <time>2016-03-06T10:17:30Z</time>
      </trkpt>
      <trkpt lat="48.83354" lon="1.43474">
        <ele>126</ele>
        <time>2016-03-06T10:17:32Z</time>
      </trkpt>
      <trkpt lat="48.83346" lon="1.43463">
        <ele>126</ele>
        <time>2016-03-06T10:17:34Z</time>
      </trkpt>
      <trkpt lat="48.83338" lon="1.43453">
        <ele>126.1</ele>
        <time>2016-03-06T10:17:36Z</time>
      </trkpt>
      <trkpt lat="48.8333" lon="1.43443">
        <ele>126.2</ele>
        <time>2016-03-06T10:17:38Z</time>
      </trkpt>
      <trkpt lat="48.83322" lon="1.43432">
        <ele>126.2</ele>
        <time>2016-03-06T10:17:40Z</time>
      </trkpt>
      <trkpt lat="48.83315" lon="1.43422">
        <ele>126.3</ele>
        <time>2016-03-06T10:17:42Z</time>
      </trkpt>
      <trkpt lat="48.83307" lon="1.43412">
        <ele>126.3</ele>
        <time>2016-03-06T10:17:44Z</time>
      </trkpt>
      <trkpt lat="48.83299" lon="1.43401">
        <ele>126.3</ele>
        <time>2016-03-06T10:17:46Z</time>
      </trkpt>
      <trkpt lat="48.83292" lon="1.43392">
        <ele>126.3</ele>
        <time>2016-03-06T10:17:48Z</time>
      </trkpt>
      <trkpt lat="48.83284" lon="1.43382">
        <ele>126.4</ele>
        <time>2016-03-06T10:17:50Z</time>
      </trkpt>
      <trkpt lat="48.83276" lon="1.43372">
        <ele>126.4</ele>
        <time>2016-03-06T10:17:52Z</time>
      </trkpt>
      <trkpt lat="48.83269" lon="1.43363">
        <ele>126.4</ele>
        <time>2016-03-06T10:17:54Z</time>
      </trkpt>
      <trkpt lat="48.83261" lon="1.43352">
        <ele>126.4</ele>
        <time>2016-03-06T10:17:56Z</time>
      </trkpt>
      <trkpt lat="48.83253" lon="1.43342">
        <ele>126.4</ele>
        <time>2016-03-06T10:17:58Z</time>
      </trkpt>
      <trkpt lat="48.83245" lon="1.43332">
        <ele>126.5</ele>
        <time>2016-03-06T10:18:00Z</time>
      </trkpt>
      <trkpt lat="48.83238" lon="1.43322">
        <ele>126.5</ele>
        <time>2016-03-06T10:18:02Z</time>
      </trkpt>
      <trkpt lat="48.8323" lon="1.43312">
        <ele>126.5</ele>
        <time>2016-03-06T10:18:04Z</time>
      </trkpt>
      <trkpt lat="48.83222" lon="1.43303">
        <ele>126.5</ele>
        <time>2016-03-06T10:18:06Z</time>
      </trkpt>
      <trkpt lat="48.83213" lon="1.4329">
        <ele>126.5</ele>
        <time>2016-03-06T10:18:08Z</time>
      </trkpt>
      <trkpt lat="48.83205" lon="1.43279">
        <ele>126.5</ele>
        <time>2016-03-06T10:18:10Z</time>
      </trkpt>
      <trkpt lat="48.83197" lon="1.4327">
        <ele>126.5</ele>
        <time>2016-03-06T10:18:12Z</time>
      </trkpt>
      <trkpt lat="48.8319" lon="1.4326">
        <ele>126.6</ele>
        <time>2016-03-06T10:18:14Z</time>
      </trkpt>
      <trkpt lat="48.83183" lon="1.43251">
        <ele>126.6</ele>
        <time>2016-03-06T10:18:16Z</time>
      </trkpt>
      <trkpt lat="48.83175" lon="1.43242">
        <ele>126.6</ele>
        <time>2016-03-06T10:18:18Z</time>
      </trkpt>
      <trkpt lat="48.83166" lon="1.43232">
        <ele>126.6</ele>
        <time>2016-03-06T10:18:21Z</time>
      </trkpt>
      <trkpt lat="48.83158" lon="1.4322">
        <ele>126.6</ele>
        <time>2016-03-06T10:18:23Z</time>
      </trkpt>
      <trkpt lat="48.83147" lon="1.43208">
        <ele>126.6</ele>
        <time>2016-03-06T10:18:26Z</time>
      </trkpt>
      <trkpt lat="48.83139" lon="1.43197">
        <ele>126.6</ele>
        <time>2016-03-06T10:18:29Z</time>
      </trkpt>
      <trkpt lat="48.83131" lon="1.43185">
        <ele>126.6</ele>
        <time>2016-03-06T10:18:31Z</time>
      </trkpt>
      <trkpt lat="48.83122" lon="1.43174">
        <ele>126.6</ele>
        <time>2016-03-06T10:18:33Z</time>
      </trkpt>
      <trkpt lat="48.83113" lon="1.43166">
        <ele>126.6</ele>
        <time>2016-03-06T10:18:35Z</time>
      </trkpt>
      <trkpt lat="48.83104" lon="1.43156">
        <ele>126.5</ele>
        <time>2016-03-06T10:18:37Z</time>
      </trkpt>
      <trkpt lat="48.83095" lon="1.43147">
        <ele>126.4</ele>
        <time>2016-03-06T10:18:39Z</time>
      </trkpt>
      <trkpt lat="48.83086" lon="1.43137">
        <ele>126.4</ele>
        <time>2016-03-06T10:18:41Z</time>
      </trkpt>
      <trkpt lat="48.83077" lon="1.43128">
        <ele>126.3</ele>
        <time>2016-03-06T10:18:43Z</time>
      </trkpt>
      <trkpt lat="48.83068" lon="1.43113">
        <ele>126.3</ele>
        <time>2016-03-06T10:18:45Z</time>
      </trkpt>
      <trkpt lat="48.8306" lon="1.43103">
        <ele>126.1</ele>
        <time>2016-03-06T10:18:47Z</time>
      </trkpt>
      <trkpt lat="48.83051" lon="1.43093">
        <ele>126</ele>
        <time>2016-03-06T10:18:49Z</time>
      </trkpt>
      <trkpt lat="48.83041" lon="1.43081">
        <ele>125.8</ele>
        <time>2016-03-06T10:18:51Z</time>
      </trkpt>
      <trkpt lat="48.83032" lon="1.43066">
        <ele>125.7</ele>
        <time>2016-03-06T10:18:53Z</time>
      </trkpt>
      <trkpt lat="48.83023" lon="1.43052">
        <ele>125.6</ele>
        <time>2016-03-06T10:18:55Z</time>
      </trkpt>
      <trkpt lat="48.83016" lon="1.4304">
        <ele>125.5</ele>
        <time>2016-03-06T10:18:57Z</time>
      </trkpt>
      <trkpt lat="48.83008" lon="1.43029">
        <ele>125.4</ele>
        <time>2016-03-06T10:18:59Z</time>
      </trkpt>
      <trkpt lat="48.83001" lon="1.43018">
        <ele>125.3</ele>
        <time>2016-03-06T10:19:01Z</time>
      </trkpt>
      <trkpt lat="48.82995" lon="1.43008">
        <ele>125.2</ele>
        <time>2016-03-06T10:19:03Z</time>
      </trkpt>
      <trkpt lat="48.82988" lon="1.42999">
        <ele>125.2</ele>
        <time>2016-03-06T10:19:05Z</time>
      </trkpt>
      <trkpt lat="48.82981" lon="1.42991">
        <ele>125.1</ele>
        <time>2016-03-06T10:19:07Z</time>
      </trkpt>
      <trkpt lat="48.82973" lon="1.42981">
        <ele>125.1</ele>
        <time>2016-03-06T10:19:09Z</time>
      </trkpt>
      <trkpt lat="48.82966" lon="1.42972">
        <ele>125.2</ele>
        <time>2016-03-06T10:19:11Z</time>
      </trkpt>
      <trkpt lat="48.8296" lon="1.42961">
        <ele>125.2</ele>
        <time>2016-03-06T10:19:13Z</time>
      </trkpt>
      <trkpt lat="48.82952" lon="1.42953">
        <ele>125.3</ele>
        <time>2016-03-06T10:19:15Z</time>
      </trkpt>
      <trkpt lat="48.82945" lon="1.42943">
        <ele>125.4</ele>
        <time>2016-03-06T10:19:17Z</time>
      </trkpt>
      <trkpt lat="48.82936" lon="1.42935">
        <ele>125.4</ele>
        <time>2016-03-06T10:19:19Z</time>
      </trkpt>
      <trkpt lat="48.82928" lon="1.42926">
        <ele>125.5</ele>
        <time>2016-03-06T10:19:21Z</time>
      </trkpt>
      <trkpt lat="48.82921" lon="1.42918">
        <ele>125.5</ele>
        <time>2016-03-06T10:19:23Z</time>
      </trkpt>
      <trkpt lat="48.82913" lon="1.42907">
        <ele>125.6</ele>
        <time>2016-03-06T10:19:25Z</time>
      </trkpt>
      <trkpt lat="48.82906" lon="1.42897">
        <ele>125.7</ele>
        <time>2016-03-06T10:19:27Z</time>
      </trkpt>
      <trkpt lat="48.82898" lon="1.42887">
        <ele>125.8</ele>
        <time>2016-03-06T10:19:29Z</time>
      </trkpt>
      <trkpt lat="48.82891" lon="1.42877">
        <ele>125.9</ele>
        <time>2016-03-06T10:19:31Z</time>
      </trkpt>
      <trkpt lat="48.82884" lon="1.42867">
        <ele>126</ele>
        <time>2016-03-06T10:19:33Z</time>
      </trkpt>
      <trkpt lat="48.82877" lon="1.42857">
        <ele>126.1</ele>
        <time>2016-03-06T10:19:35Z</time>
      </trkpt>
      <trkpt lat="48.82868" lon="1.42845">
        <ele>126.3</ele>
        <time>2016-03-06T10:19:38Z</time>
      </trkpt>
      <trkpt lat="48.8286" lon="1.42834">
        <ele>126.3</ele>
        <time>2016-03-06T10:19:41Z</time>
      </trkpt>
      <trkpt lat="48.82852" lon="1.42823">
        <ele>126.4</ele>
        <time>2016-03-06T10:19:45Z</time>
      </trkpt>
      <trkpt lat="48.82845" lon="1.42814">
        <ele>126.5</ele>
        <time>2016-03-06T10:19:48Z</time>
      </trkpt>
      <trkpt lat="48.82838" lon="1.42806">
        <ele>126.5</ele>
        <time>2016-03-06T10:19:54Z</time>
      </trkpt>
      <trkpt lat="48.8283" lon="1.42798">
        <ele>126.6</ele>
        <time>2016-03-06T10:20:00Z</time>
      </trkpt>
      <trkpt lat="48.82822" lon="1.4279">
        <ele>126.6</ele>
        <time>2016-03-06T10:20:03Z</time>
      </trkpt>
      <trkpt lat="48.82814" lon="1.42779">
        <ele>126.7</ele>
        <time>2016-03-06T10:20:07Z</time>
      </trkpt>
      <trkpt lat="48.82808" lon="1.42767">
        <ele>126.8</ele>
        <time>2016-03-06T10:20:10Z</time>
      </trkpt>
      <trkpt lat="48.82799" lon="1.42757">
        <ele>126.8</ele>
        <time>2016-03-06T10:20:12Z</time>
      </trkpt>
      <trkpt lat="48.82789" lon="1.42749">
        <ele>126.9</ele>
        <time>2016-03-06T10:20:15Z</time>
      </trkpt>
      <trkpt lat="48.82783" lon="1.42739">
        <ele>126.9</ele>
        <time>2016-03-06T10:20:17Z</time>
      </trkpt>
      <trkpt lat="48.82774" lon="1.42728">
        <ele>127</ele>
        <time>2016-03-06T10:20:20Z</time>
      </trkpt>
      <trkpt lat="48.82766" lon="1.42718">
        <ele>127</ele>
        <time>2016-03-06T10:20:22Z</time>
      </trkpt>
      <trkpt lat="48.82756" lon="1.42706">
        <ele>127.1</ele>
        <time>2016-03-06T10:20:25Z</time>
      </trkpt>
      <trkpt lat="48.82749" lon="1.42696">
        <ele>127.2</ele>
        <time>2016-03-06T10:20:27Z</time>
      </trkpt>
      <trkpt lat="48.82742" lon="1.42684">
        <ele>127.2</ele>
        <time>2016-03-06T10:20:29Z</time>
      </trkpt>
      <trkpt lat="48.82735" lon="1.42674">
        <ele>127.3</ele>
        <time>2016-03-06T10:20:31Z</time>
      </trkpt>
      <trkpt lat="48.82725" lon="1.42661">
        <ele>127.3</ele>
        <time>2016-03-06T10:20:34Z</time>
      </trkpt>
      <trkpt lat="48.82718" lon="1.42651">
        <ele>127.3</ele>
        <time>2016-03-06T10:20:37Z</time>
      </trkpt>
      <trkpt lat="48.8271" lon="1.42639">
        <ele>127.4</ele>
        <time>2016-03-06T10:20:40Z</time>
      </trkpt>
      <trkpt lat="48.82701" lon="1.42626">
        <ele>127.4</ele>
        <time>2016-03-06T10:20:43Z</time>
      </trkpt>
      <trkpt lat="48.82691" lon="1.42613">
        <ele>127.4</ele>
        <time>2016-03-06T10:20:46Z</time>
      </trkpt>
      <trkpt lat="48.82681" lon="1.42601">
        <ele>127.5</ele>
        <time>2016-03-06T10:20:49Z</time>
      </trkpt>
      <trkpt lat="48.82672" lon="1.4259">
        <ele>127.5</ele>
        <time>2016-03-06T10:20:52Z</time>
      </trkpt>
      <trkpt lat="48.82664" lon="1.42579">
        <ele>127.5</ele>
        <time>2016-03-06T10:20:55Z</time>
      </trkpt>
      <trkpt lat="48.82655" lon="1.42568">
        <ele>127.5</ele>
        <time>2016-03-06T10:20:58Z</time>
      </trkpt>
      <trkpt lat="48.82645" lon="1.42557">
        <ele>127.5</ele>
        <time>2016-03-06T10:21:01Z</time>
      </trkpt>
      <trkpt lat="48.82637" lon="1.42548">
        <ele>127.5</ele>
        <time>2016-03-06T10:21:03Z</time>
      </trkpt>
      <trkpt lat="48.82628" lon="1.42535">
        <ele>127.5</ele>
        <time>2016-03-06T10:21:06Z</time>
      </trkpt>
      <trkpt lat="48.82619" lon="1.42522">
        <ele>127.6</ele>
        <time>2016-03-06T10:21:09Z</time>
      </trkpt>
      <trkpt lat="48.82611" lon="1.42511">
        <ele>127.7</ele>
        <time>2016-03-06T10:21:12Z</time>
      </trkpt>
      <trkpt lat="48.82602" lon="1.425">
        <ele>127.7</ele>
        <time>2016-03-06T10:21:15Z</time>
      </trkpt>
      <trkpt lat="48.82594" lon="1.4249">
        <ele>127.7</ele>
        <time>2016-03-06T10:21:18Z</time>
      </trkpt>
      <trkpt lat="48.82586" lon="1.42481">
        <ele>127.8</ele>
        <time>2016-03-06T10:21:21Z</time>
      </trkpt>
      <trkpt lat="48.8258" lon="1.4247">
        <ele>127.8</ele>
        <time>2016-03-06T10:21:26Z</time>
      </trkpt>
      <trkpt lat="48.82576" lon="1.42457">
        <ele>127.9</ele>
        <time>2016-03-06T10:21:32Z</time>
      </trkpt>
      <trkpt lat="48.82577" lon="1.42441">
        <ele>127.9</ele>
        <time>2016-03-06T10:22:00Z</time>
      </trkpt>
      <trkpt lat="48.82581" lon="1.42426">
        <ele>127.9</ele>
        <time>2016-03-06T10:22:04Z</time>
      </trkpt>
      <trkpt lat="48.82587" lon="1.42415">
        <ele>127.9</ele>
        <time>2016-03-06T10:22:07Z</time>
      </trkpt>
      <trkpt lat="48.82594" lon="1.42399">
        <ele>127.9</ele>
        <time>2016-03-06T10:22:11Z</time>
      </trkpt>
      <trkpt lat="48.82599" lon="1.42387">
        <ele>127.9</ele>
        <time>2016-03-06T10:22:15Z</time>
      </trkpt>
      <trkpt lat="48.82605" lon="1.42376">
        <ele>127.9</ele>
        <time>2016-03-06T10:22:20Z</time>
      </trkpt>
      <trkpt lat="48.82609" lon="1.42361">
        <ele>127.9</ele>
        <time>2016-03-06T10:22:25Z</time>
      </trkpt>
      <trkpt lat="48.82612" lon="1.42348">
        <ele>127.9</ele>
        <time>2016-03-06T10:22:30Z</time>
      </trkpt>
      <trkpt lat="48.82616" lon="1.42334">
        <ele>127.9</ele>
        <time>2016-03-06T10:22:35Z</time>
      </trkpt>
      <trkpt lat="48.82621" lon="1.4232">
        <ele>127.9</ele>
        <time>2016-03-06T10:22:40Z</time>
      </trkpt>
      <trkpt lat="48.82624" lon="1.42305">
        <ele>127.9</ele>
        <time>2016-03-06T10:22:45Z</time>
      </trkpt>
      <trkpt lat="48.82628" lon="1.42292">
        <ele>127.9</ele>
        <time>2016-03-06T10:22:48Z</time>
      </trkpt>
      <trkpt lat="48.82632" lon="1.42277">
        <ele>127.9</ele>
        <time>2016-03-06T10:22:51Z</time>
      </trkpt>
      <trkpt lat="48.82636" lon="1.42262">
        <ele>127.9</ele>
        <time>2016-03-06T10:22:54Z</time>
      </trkpt>
      <trkpt lat="48.82641" lon="1.42246">
        <ele>127.9</ele>
        <time>2016-03-06T10:22:57Z</time>
      </trkpt>
      <trkpt lat="48.82646" lon="1.4223">
        <ele>127.9</ele>
        <time>2016-03-06T10:23:00Z</time>
      </trkpt>
      <trkpt lat="48.82653" lon="1.42213">
        <ele>127.8</ele>
        <time>2016-03-06T10:23:03Z</time>
      </trkpt>
      <trkpt lat="48.82658" lon="1.42195">
        <ele>127.7</ele>
        <time>2016-03-06T10:23:06Z</time>
      </trkpt>
      <trkpt lat="48.82664" lon="1.42178">
        <ele>127.5</ele>
        <time>2016-03-06T10:23:09Z</time>
      </trkpt>
      <trkpt lat="48.82669" lon="1.42161">
        <ele>127.4</ele>
        <time>2016-03-06T10:23:12Z</time>
      </trkpt>
      <trkpt lat="48.82675" lon="1.42144">
        <ele>127.4</ele>
        <time>2016-03-06T10:23:15Z</time>
      </trkpt>
      <trkpt lat="48.8268" lon="1.42126">
        <ele>127.3</ele>
        <time>2016-03-06T10:23:18Z</time>
      </trkpt>
      <trkpt lat="48.82686" lon="1.42109">
        <ele>127.3</ele>
        <time>2016-03-06T10:23:21Z</time>
      </trkpt>
      <trkpt lat="48.82692" lon="1.42091">
        <ele>127.2</ele>
        <time>2016-03-06T10:23:24Z</time>
      </trkpt>
      <trkpt lat="48.82697" lon="1.42078">
        <ele>127.2</ele>
        <time>2016-03-06T10:23:26Z</time>
      </trkpt>
      <trkpt lat="48.82701" lon="1.42065">
        <ele>127.2</ele>
        <time>2016-03-06T10:23:28Z</time>
      </trkpt>
      <trkpt lat="48.82706" lon="1.42048">
        <ele>127.1</ele>
        <time>2016-03-06T10:23:31Z</time>
      </trkpt>
      <trkpt lat="48.82712" lon="1.42032">
        <ele>126.9</ele>
        <time>2016-03-06T10:23:34Z</time>
      </trkpt>
      <trkpt lat="48.82718" lon="1.42015">
        <ele>126.7</ele>
        <time>2016-03-06T10:23:37Z</time>
      </trkpt>
      <trkpt lat="48.82723" lon="1.42">
        <ele>126.6</ele>
        <time>2016-03-06T10:23:40Z</time>
      </trkpt>
      <trkpt lat="48.82728" lon="1.41985">
        <ele>126.5</ele>
        <time>2016-03-06T10:23:43Z</time>
      </trkpt>
      <trkpt lat="48.82735" lon="1.41971">
        <ele>126.4</ele>
        <time>2016-03-06T10:23:47Z</time>
      </trkpt>
      <trkpt lat="48.82738" lon="1.41958">
        <ele>126.3</ele>
        <time>2016-03-06T10:23:50Z</time>
      </trkpt>
      <trkpt lat="48.82742" lon="1.41943">
        <ele>126.2</ele>
        <time>2016-03-06T10:23:53Z</time>
      </trkpt>
      <trkpt lat="48.82747" lon="1.4193">
        <ele>126.2</ele>
        <time>2016-03-06T10:23:56Z</time>
      </trkpt>
      <trkpt lat="48.82751" lon="1.41915">
        <ele>126.1</ele>
        <time>2016-03-06T10:23:59Z</time>
      </trkpt>
      <trkpt lat="48.82755" lon="1.41901">
        <ele>126.2</ele>
        <time>2016-03-06T10:24:02Z</time>
      </trkpt>
      <trkpt lat="48.8276" lon="1.41885">
        <ele>126.2</ele>
        <time>2016-03-06T10:24:05Z</time>
      </trkpt>
      <trkpt lat="48.82764" lon="1.41868">
        <ele>126.2</ele>
        <time>2016-03-06T10:24:08Z</time>
      </trkpt>
      <trkpt lat="48.8277" lon="1.41852">
        <ele>126.2</ele>
        <time>2016-03-06T10:24:11Z</time>
      </trkpt>
      <trkpt lat="48.82775" lon="1.41838">
        <ele>126.2</ele>
        <time>2016-03-06T10:24:14Z</time>
      </trkpt>
      <trkpt lat="48.8278" lon="1.41823">
        <ele>126.2</ele>
        <time>2016-03-06T10:24:17Z</time>
      </trkpt>
      <trkpt lat="48.82784" lon="1.41811">
        <ele>126.2</ele>
        <time>2016-03-06T10:24:20Z</time>
      </trkpt>
      <trkpt lat="48.82791" lon="1.41797">
        <ele>126.2</ele>
        <time>2016-03-06T10:24:24Z</time>
      </trkpt>
      <trkpt lat="48.82795" lon="1.41783">
        <ele>126.2</ele>
        <time>2016-03-06T10:24:28Z</time>
      </trkpt>
      <trkpt lat="48.82799" lon="1.41769">
        <ele>126.2</ele>
        <time>2016-03-06T10:24:33Z</time>
      </trkpt>
      <trkpt lat="48.82803" lon="1.41753">
        <ele>126.2</ele>
        <time>2016-03-06T10:24:37Z</time>
      </trkpt>
      <trkpt lat="48.82809" lon="1.41738">
        <ele>126.2</ele>
        <time>2016-03-06T10:24:41Z</time>
      </trkpt>
      <trkpt lat="48.82813" lon="1.41725">
        <ele>126.2</ele>
        <time>2016-03-06T10:24:44Z</time>
      </trkpt>
      <trkpt lat="48.82819" lon="1.41711">
        <ele>126.2</ele>
        <time>2016-03-06T10:24:48Z</time>
      </trkpt>
      <trkpt lat="48.82824" lon="1.41698">
        <ele>126.2</ele>
        <time>2016-03-06T10:24:51Z</time>
      </trkpt>
      <trkpt lat="48.8283" lon="1.41683">
        <ele>126.2</ele>
        <time>2016-03-06T10:24:54Z</time>
      </trkpt>
      <trkpt lat="48.82833" lon="1.4167">
        <ele>126.3</ele>
        <time>2016-03-06T10:24:57Z</time>
      </trkpt>
      <trkpt lat="48.82836" lon="1.41656">
        <ele>126.3</ele>
        <time>2016-03-06T10:25:00Z</time>
      </trkpt>
      <trkpt lat="48.82842" lon="1.41639">
        <ele>126.4</ele>
        <time>2016-03-06T10:25:03Z</time>
      </trkpt>
      <trkpt lat="48.82847" lon="1.41622">
        <ele>126.4</ele>
        <time>2016-03-06T10:25:06Z</time>
      </trkpt>
      <trkpt lat="48.82853" lon="1.41607">
        <ele>126.6</ele>
        <time>2016-03-06T10:25:09Z</time>
      </trkpt>
      <trkpt lat="48.8286" lon="1.41589">
        <ele>126.7</ele>
        <time>2016-03-06T10:25:12Z</time>
      </trkpt>
      <trkpt lat="48.82868" lon="1.41573">
        <ele>126.7</ele>
        <time>2016-03-06T10:25:15Z</time>
      </trkpt>
      <trkpt lat="48.82872" lon="1.41559">
        <ele>126.7</ele>
        <time>2016-03-06T10:25:18Z</time>
      </trkpt>
      <trkpt lat="48.82877" lon="1.41546">
        <ele>126.7</ele>
        <time>2016-03-06T10:25:21Z</time>
      </trkpt>
      <trkpt lat="48.82881" lon="1.41531">
        <ele>126.7</ele>
        <time>2016-03-06T10:25:24Z</time>
      </trkpt>
      <trkpt lat="48.82885" lon="1.41513">
        <ele>126.7</ele>
        <time>2016-03-06T10:25:27Z</time>
      </trkpt>
      <trkpt lat="48.82892" lon="1.41497">
        <ele>126.7</ele>
        <time>2016-03-06T10:25:30Z</time>
      </trkpt>
      <trkpt lat="48.82897" lon="1.41479">
        <ele>126.6</ele>
        <time>2016-03-06T10:25:33Z</time>
      </trkpt>
      <trkpt lat="48.82903" lon="1.41464">
        <ele>126.6</ele>
        <time>2016-03-06T10:25:36Z</time>
      </trkpt>
      <trkpt lat="48.82907" lon="1.41448">
        <ele>126.5</ele>
        <time>2016-03-06T10:25:39Z</time>
      </trkpt>
      <trkpt lat="48.82912" lon="1.41429">
        <ele>126.5</ele>
        <time>2016-03-06T10:25:42Z</time>
      </trkpt>
      <trkpt lat="48.82917" lon="1.41414">
        <ele>126.5</ele>
        <time>2016-03-06T10:25:45Z</time>
      </trkpt>
      <trkpt lat="48.82923" lon="1.41399">
        <ele>126.5</ele>
        <time>2016-03-06T10:25:48Z</time>
      </trkpt>
      <trkpt lat="48.82928" lon="1.41386">
        <ele>126.5</ele>
        <time>2016-03-06T10:25:50Z</time>
      </trkpt>
      <trkpt lat="48.82932" lon="1.41369">
        <ele>126.5</ele>
        <time>2016-03-06T10:25:53Z</time>
      </trkpt>
      <trkpt lat="48.82937" lon="1.41353">
        <ele>126.5</ele>
        <time>2016-03-06T10:25:56Z</time>
      </trkpt>
      <trkpt lat="48.82944" lon="1.41338">
        <ele>126.5</ele>
        <time>2016-03-06T10:25:59Z</time>
      </trkpt>
      <trkpt lat="48.82948" lon="1.41321">
        <ele>126.5</ele>
        <time>2016-03-06T10:26:02Z</time>
      </trkpt>
      <trkpt lat="48.82953" lon="1.41306">
        <ele>126.6</ele>
        <time>2016-03-06T10:26:05Z</time>
      </trkpt>
      <trkpt lat="48.82959" lon="1.4129">
        <ele>126.6</ele>
        <time>2016-03-06T10:26:08Z</time>
      </trkpt>
      <trkpt lat="48.82964" lon="1.41276">
        <ele>126.6</ele>
        <time>2016-03-06T10:26:11Z</time>
      </trkpt>
      <trkpt lat="48.82973" lon="1.41266">
        <ele>126.6</ele>
        <time>2016-03-06T10:26:15Z</time>
      </trkpt>
      <trkpt lat="48.82975" lon="1.41251">
        <ele>126.5</ele>
        <time>2016-03-06T10:26:19Z</time>
      </trkpt>
      <trkpt lat="48.82978" lon="1.41234">
        <ele>126.5</ele>
        <time>2016-03-06T10:26:23Z</time>
      </trkpt>
      <trkpt lat="48.82983" lon="1.4122">
        <ele>126.4</ele>
        <time>2016-03-06T10:26:26Z</time>
      </trkpt>
      <trkpt lat="48.82989" lon="1.41208">
        <ele>126.4</ele>
        <time>2016-03-06T10:26:29Z</time>
      </trkpt>
      <trkpt lat="48.82993" lon="1.41189">
        <ele>126.4</ele>
        <time>2016-03-06T10:26:33Z</time>
      </trkpt>
      <trkpt lat="48.82999" lon="1.41173">
        <ele>126.4</ele>
        <time>2016-03-06T10:26:36Z</time>
      </trkpt>
      <trkpt lat="48.83002" lon="1.41159">
        <ele>126.4</ele>
        <time>2016-03-06T10:26:38Z</time>
      </trkpt>
      <trkpt lat="48.83006" lon="1.41146">
        <ele>126.4</ele>
        <time>2016-03-06T10:26:40Z</time>
      </trkpt>
      <trkpt lat="48.8301" lon="1.4113">
        <ele>126.3</ele>
        <time>2016-03-06T10:26:43Z</time>
      </trkpt>
      <trkpt lat="48.83017" lon="1.41113">
        <ele>126.3</ele>
        <time>2016-03-06T10:26:46Z</time>
      </trkpt>
      <trkpt lat="48.83024" lon="1.41098">
        <ele>126.2</ele>
        <time>2016-03-06T10:26:49Z</time>
      </trkpt>
      <trkpt lat="48.8303" lon="1.41083">
        <ele>126.3</ele>
        <time>2016-03-06T10:26:52Z</time>
      </trkpt>
      <trkpt lat="48.83036" lon="1.41064">
        <ele>126.3</ele>
        <time>2016-03-06T10:26:55Z</time>
      </trkpt>
      <trkpt lat="48.8304" lon="1.41052">
        <ele>126.4</ele>
        <time>2016-03-06T10:26:57Z</time>
      </trkpt>
      <trkpt lat="48.83044" lon="1.41034">
        <ele>126.4</ele>
        <time>2016-03-06T10:27:00Z</time>
      </trkpt>
      <trkpt lat="48.8305" lon="1.41018">
        <ele>126.4</ele>
        <time>2016-03-06T10:27:04Z</time>
      </trkpt>
      <trkpt lat="48.83054" lon="1.41">
        <ele>126.5</ele>
        <time>2016-03-06T10:27:08Z</time>
      </trkpt>
      <trkpt lat="48.83059" lon="1.40987">
        <ele>126.5</ele>
        <time>2016-03-06T10:27:10Z</time>
      </trkpt>
      <trkpt lat="48.83064" lon="1.40969">
        <ele>126.5</ele>
        <time>2016-03-06T10:27:13Z</time>
      </trkpt>
      <trkpt lat="48.83068" lon="1.40949">
        <ele>126.6</ele>
        <time>2016-03-06T10:27:16Z</time>
      </trkpt>
      <trkpt lat="48.83072" lon="1.40936">
        <ele>126.7</ele>
        <time>2016-03-06T10:27:18Z</time>
      </trkpt>
      <trkpt lat="48.83078" lon="1.4092">
        <ele>126.8</ele>
        <time>2016-03-06T10:27:21Z</time>
      </trkpt>
      <trkpt lat="48.83084" lon="1.40904">
        <ele>126.8</ele>
        <time>2016-03-06T10:27:24Z</time>
      </trkpt>
      <trkpt lat="48.83088" lon="1.40891">
        <ele>126.9</ele>
        <time>2016-03-06T10:27:26Z</time>
      </trkpt>
      <trkpt lat="48.83092" lon="1.40878">
        <ele>127</ele>
        <time>2016-03-06T10:27:28Z</time>
      </trkpt>
      <trkpt lat="48.83097" lon="1.4086">
        <ele>127.1</ele>
        <time>2016-03-06T10:27:31Z</time>
      </trkpt>
      <trkpt lat="48.83104" lon="1.40844">
        <ele>127.1</ele>
        <time>2016-03-06T10:27:34Z</time>
      </trkpt>
      <trkpt lat="48.83108" lon="1.40826">
        <ele>127.2</ele>
        <time>2016-03-06T10:27:37Z</time>
      </trkpt>
      <trkpt lat="48.83114" lon="1.40807">
        <ele>127.2</ele>
        <time>2016-03-06T10:27:40Z</time>
      </trkpt>
      <trkpt lat="48.83119" lon="1.40796">
        <ele>127.2</ele>
        <time>2016-03-06T10:27:42Z</time>
      </trkpt>
      <trkpt lat="48.83123" lon="1.40779">
        <ele>127.2</ele>
        <time>2016-03-06T10:27:45Z</time>
      </trkpt>
      <trkpt lat="48.83129" lon="1.40768">
        <ele>127.3</ele>
        <time>2016-03-06T10:27:47Z</time>
      </trkpt>
      <trkpt lat="48.83132" lon="1.40754">
        <ele>127.2</ele>
        <time>2016-03-06T10:27:49Z</time>
      </trkpt>
      <trkpt lat="48.83137" lon="1.4074">
        <ele>127.2</ele>
        <time>2016-03-06T10:27:51Z</time>
      </trkpt>
      <trkpt lat="48.83141" lon="1.40725">
        <ele>127.1</ele>
        <time>2016-03-06T10:27:53Z</time>
      </trkpt>
      <trkpt lat="48.83146" lon="1.40712">
        <ele>127</ele>
        <time>2016-03-06T10:27:55Z</time>
      </trkpt>
      <trkpt lat="48.83152" lon="1.407">
        <ele>127</ele>
        <time>2016-03-06T10:27:57Z</time>
      </trkpt>
      <trkpt lat="48.83156" lon="1.40685">
        <ele>126.9</ele>
        <time>2016-03-06T10:27:59Z</time>
      </trkpt>
      <trkpt lat="48.8316" lon="1.40672">
        <ele>126.8</ele>
        <time>2016-03-06T10:28:01Z</time>
      </trkpt>
      <trkpt lat="48.83166" lon="1.40658">
        <ele>126.6</ele>
        <time>2016-03-06T10:28:03Z</time>
      </trkpt>
      <trkpt lat="48.83171" lon="1.40645">
        <ele>126.5</ele>
        <time>2016-03-06T10:28:05Z</time>
      </trkpt>
      <trkpt lat="48.83177" lon="1.40627">
        <ele>126.3</ele>
        <time>2016-03-06T10:28:08Z</time>
      </trkpt>
      <trkpt lat="48.83183" lon="1.40608">
        <ele>126.1</ele>
        <time>2016-03-06T10:28:11Z</time>
      </trkpt>
      <trkpt lat="48.83188" lon="1.4059">
        <ele>126</ele>
        <time>2016-03-06T10:28:14Z</time>
      </trkpt>
      <trkpt lat="48.83193" lon="1.40578">
        <ele>125.9</ele>
        <time>2016-03-06T10:28:16Z</time>
      </trkpt>
      <trkpt lat="48.83198" lon="1.40565">
        <ele>125.8</ele>
        <time>2016-03-06T10:28:18Z</time>
      </trkpt>
      <trkpt lat="48.83201" lon="1.4055">
        <ele>125.8</ele>
        <time>2016-03-06T10:28:20Z</time>
      </trkpt>
      <trkpt lat="48.83207" lon="1.40538">
        <ele>125.7</ele>
        <time>2016-03-06T10:28:22Z</time>
      </trkpt>
      <trkpt lat="48.83214" lon="1.4052">
        <ele>125.6</ele>
        <time>2016-03-06T10:28:25Z</time>
      </trkpt>
      <trkpt lat="48.83218" lon="1.40506">
        <ele>125.2</ele>
        <time>2016-03-06T10:28:28Z</time>
      </trkpt>
      <trkpt lat="48.83225" lon="1.40494">
        <ele>124.9</ele>
        <time>2016-03-06T10:28:30Z</time>
      </trkpt>
      <trkpt lat="48.83234" lon="1.40482">
        <ele>124.3</ele>
        <time>2016-03-06T10:28:33Z</time>
      </trkpt>
      <trkpt lat="48.83246" lon="1.4048">
        <ele>123.8</ele>
        <time>2016-03-06T10:28:36Z</time>
      </trkpt>
      <trkpt lat="48.83256" lon="1.4048">
        <ele>123</ele>
        <time>2016-03-06T10:28:39Z</time>
      </trkpt>
      <trkpt lat="48.83264" lon="1.40491">
        <ele>122.2</ele>
        <time>2016-03-06T10:28:43Z</time>
      </trkpt>
      <trkpt lat="48.83267" lon="1.40505">
        <ele>121.7</ele>
        <time>2016-03-06T10:28:46Z</time>
      </trkpt>
      <trkpt lat="48.83269" lon="1.40519">
        <ele>121.4</ele>
        <time>2016-03-06T10:28:48Z</time>
      </trkpt>
      <trkpt lat="48.83276" lon="1.40529">
        <ele>121.2</ele>
        <time>2016-03-06T10:28:50Z</time>
      </trkpt>
      <trkpt lat="48.83282" lon="1.40543">
        <ele>120.9</ele>
        <time>2016-03-06T10:28:53Z</time>
      </trkpt>
      <trkpt lat="48.8329" lon="1.40555">
        <ele>120.7</ele>
        <time>2016-03-06T10:28:56Z</time>
      </trkpt>
      <trkpt lat="48.83296" lon="1.40567">
        <ele>120.6</ele>
        <time>2016-03-06T10:28:58Z</time>
      </trkpt>
      <trkpt lat="48.83299" lon="1.40583">
        <ele>120.4</ele>
        <time>2016-03-06T10:29:00Z</time>
      </trkpt>
      <trkpt lat="48.83302" lon="1.406">
        <ele>120.3</ele>
        <time>2016-03-06T10:29:02Z</time>
      </trkpt>
      <trkpt lat="48.83305" lon="1.40619">
        <ele>120.1</ele>
        <time>2016-03-06T10:29:04Z</time>
      </trkpt>
      <trkpt lat="48.83304" lon="1.40637">
        <ele>119.9</ele>
        <time>2016-03-06T10:29:06Z</time>
      </trkpt>
      <trkpt lat="48.83308" lon="1.40652">
        <ele>119.8</ele>
        <time>2016-03-06T10:29:08Z</time>
      </trkpt>
      <trkpt lat="48.83313" lon="1.40668">
        <ele>119.8</ele>
        <time>2016-03-06T10:29:11Z</time>
      </trkpt>
      <trkpt lat="48.83317" lon="1.40683">
        <ele>120.2</ele>
        <time>2016-03-06T10:29:14Z</time>
      </trkpt>
      <trkpt lat="48.83321" lon="1.40697">
        <ele>120.6</ele>
        <time>2016-03-06T10:29:17Z</time>
      </trkpt>
      <trkpt lat="48.83326" lon="1.4071">
        <ele>121</ele>
        <time>2016-03-06T10:29:20Z</time>
      </trkpt>
      <trkpt lat="48.8333" lon="1.40725">
        <ele>121.5</ele>
        <time>2016-03-06T10:29:24Z</time>
      </trkpt>
      <trkpt lat="48.83333" lon="1.40738">
        <ele>121.8</ele>
        <time>2016-03-06T10:29:27Z</time>
      </trkpt>
      <trkpt lat="48.83339" lon="1.40752">
        <ele>122.2</ele>
        <time>2016-03-06T10:29:30Z</time>
      </trkpt>
      <trkpt lat="48.83345" lon="1.40767">
        <ele>122.8</ele>
        <time>2016-03-06T10:29:34Z</time>
      </trkpt>
      <trkpt lat="48.83351" lon="1.40782">
        <ele>123.3</ele>
        <time>2016-03-06T10:29:38Z</time>
      </trkpt>
      <trkpt lat="48.83357" lon="1.40798">
        <ele>123.8</ele>
        <time>2016-03-06T10:29:42Z</time>
      </trkpt>
      <trkpt lat="48.83359" lon="1.40814">
        <ele>124.2</ele>
        <time>2016-03-06T10:29:45Z</time>
      </trkpt>
      <trkpt lat="48.83365" lon="1.4083">
        <ele>124.6</ele>
        <time>2016-03-06T10:29:49Z</time>
      </trkpt>
      <trkpt lat="48.8337" lon="1.40845">
        <ele>124.9</ele>
        <time>2016-03-06T10:29:52Z</time>
      </trkpt>
      <trkpt lat="48.83373" lon="1.40862">
        <ele>125.2</ele>
        <time>2016-03-06T10:29:55Z</time>
      </trkpt>
      <trkpt lat="48.83375" lon="1.40881">
        <ele>125.5</ele>
        <time>2016-03-06T10:29:58Z</time>
      </trkpt>
      <trkpt lat="48.83382" lon="1.40897">
        <ele>125.7</ele>
        <time>2016-03-06T10:30:01Z</time>
      </trkpt>
      <trkpt lat="48.83385" lon="1.40909">
        <ele>125.9</ele>
        <time>2016-03-06T10:30:03Z</time>
      </trkpt>
      <trkpt lat="48.83388" lon="1.40926">
        <ele>126.1</ele>
        <time>2016-03-06T10:30:06Z</time>
      </trkpt>
      <trkpt lat="48.83396" lon="1.40938">
        <ele>126.3</ele>
        <time>2016-03-06T10:30:09Z</time>
      </trkpt>
      <trkpt lat="48.834" lon="1.40955">
        <ele>126.4</ele>
        <time>2016-03-06T10:30:12Z</time>
      </trkpt>
      <trkpt lat="48.83405" lon="1.40967">
        <ele>126.5</ele>
        <time>2016-03-06T10:30:14Z</time>
      </trkpt>
      <trkpt lat="48.83409" lon="1.4098">
        <ele>126.6</ele>
        <time>2016-03-06T10:30:16Z</time>
      </trkpt>
      <trkpt lat="48.83414" lon="1.40998">
        <ele>126.8</ele>
        <time>2016-03-06T10:30:19Z</time>
      </trkpt>
      <trkpt lat="48.83417" lon="1.41016">
        <ele>126.9</ele>
        <time>2016-03-06T10:30:22Z</time>
      </trkpt>
      <trkpt lat="48.83417" lon="1.41032">
        <ele>127</ele>
        <time>2016-03-06T10:30:25Z</time>
      </trkpt>
      <trkpt lat="48.83422" lon="1.41046">
        <ele>127.1</ele>
        <time>2016-03-06T10:30:28Z</time>
      </trkpt>
      <trkpt lat="48.83427" lon="1.41061">
        <ele>127.2</ele>
        <time>2016-03-06T10:30:32Z</time>
      </trkpt>
      <trkpt lat="48.83431" lon="1.41075">
        <ele>127.3</ele>
        <time>2016-03-06T10:30:35Z</time>
      </trkpt>
      <trkpt lat="48.83437" lon="1.41088">
        <ele>127.4</ele>
        <time>2016-03-06T10:30:38Z</time>
      </trkpt>
      <trkpt lat="48.83441" lon="1.41103">
        <ele>127.5</ele>
        <time>2016-03-06T10:30:41Z</time>
      </trkpt>
      <trkpt lat="48.83447" lon="1.41121">
        <ele>127.6</ele>
        <time>2016-03-06T10:30:44Z</time>
      </trkpt>
      <trkpt lat="48.83451" lon="1.4114">
        <ele>127.8</ele>
        <time>2016-03-06T10:30:47Z</time>
      </trkpt>
      <trkpt lat="48.83454" lon="1.41154">
        <ele>127.8</ele>
        <time>2016-03-06T10:30:49Z</time>
      </trkpt>
      <trkpt lat="48.83457" lon="1.41167">
        <ele>127.9</ele>
        <time>2016-03-06T10:30:51Z</time>
      </trkpt>
      <trkpt lat="48.83462" lon="1.41185">
        <ele>128</ele>
        <time>2016-03-06T10:30:54Z</time>
      </trkpt>
      <trkpt lat="48.83465" lon="1.41198">
        <ele>128</ele>
        <time>2016-03-06T10:30:56Z</time>
      </trkpt>
      <trkpt lat="48.83471" lon="1.41216">
        <ele>128</ele>
        <time>2016-03-06T10:30:59Z</time>
      </trkpt>
      <trkpt lat="48.83475" lon="1.41232">
        <ele>128.1</ele>
        <time>2016-03-06T10:31:02Z</time>
      </trkpt>
      <trkpt lat="48.83478" lon="1.41246">
        <ele>128.1</ele>
        <time>2016-03-06T10:31:04Z</time>
      </trkpt>
      <trkpt lat="48.83482" lon="1.4126">
        <ele>128.1</ele>
        <time>2016-03-06T10:31:06Z</time>
      </trkpt>
      <trkpt lat="48.83486" lon="1.41273">
        <ele>128.1</ele>
        <time>2016-03-06T10:31:08Z</time>
      </trkpt>
      <trkpt lat="48.8349" lon="1.41292">
        <ele>128.1</ele>
        <time>2016-03-06T10:31:11Z</time>
      </trkpt>
      <trkpt lat="48.83493" lon="1.41306">
        <ele>128.2</ele>
        <time>2016-03-06T10:31:13Z</time>
      </trkpt>
      <trkpt lat="48.83499" lon="1.41323">
        <ele>128.2</ele>
        <time>2016-03-06T10:31:16Z</time>
      </trkpt>
      <trkpt lat="48.83505" lon="1.41338">
        <ele>128.2</ele>
        <time>2016-03-06T10:31:18Z</time>
      </trkpt>
      <trkpt lat="48.83511" lon="1.41352">
        <ele>128.2</ele>
        <time>2016-03-06T10:31:20Z</time>
      </trkpt>
      <trkpt lat="48.83516" lon="1.41364">
        <ele>128.3</ele>
        <time>2016-03-06T10:31:22Z</time>
      </trkpt>
      <trkpt lat="48.8352" lon="1.41377">
        <ele>128.3</ele>
        <time>2016-03-06T10:31:24Z</time>
      </trkpt>
      <trkpt lat="48.83524" lon="1.4139">
        <ele>128.3</ele>
        <time>2016-03-06T10:31:26Z</time>
      </trkpt>
      <trkpt lat="48.83528" lon="1.41403">
        <ele>128.3</ele>
        <time>2016-03-06T10:31:28Z</time>
      </trkpt>
      <trkpt lat="48.83532" lon="1.41415">
        <ele>128.3</ele>
        <time>2016-03-06T10:31:30Z</time>
      </trkpt>
      <trkpt lat="48.83536" lon="1.41429">
        <ele>128.3</ele>
        <time>2016-03-06T10:31:32Z</time>
      </trkpt>
      <trkpt lat="48.8354" lon="1.41442">
        <ele>128.3</ele>
        <time>2016-03-06T10:31:34Z</time>
      </trkpt>
      <trkpt lat="48.83544" lon="1.41457">
        <ele>128.3</ele>
        <time>2016-03-06T10:31:36Z</time>
      </trkpt>
      <trkpt lat="48.83546" lon="1.41471">
        <ele>128.3</ele>
        <time>2016-03-06T10:31:38Z</time>
      </trkpt>
      <trkpt lat="48.8355" lon="1.41484">
        <ele>128.2</ele>
        <time>2016-03-06T10:31:40Z</time>
      </trkpt>
      <trkpt lat="48.83555" lon="1.41497">
        <ele>128.2</ele>
        <time>2016-03-06T10:31:42Z</time>
      </trkpt>
      <trkpt lat="48.83559" lon="1.41509">
        <ele>128.2</ele>
        <time>2016-03-06T10:31:44Z</time>
      </trkpt>
      <trkpt lat="48.83563" lon="1.41521">
        <ele>128.1</ele>
        <time>2016-03-06T10:31:46Z</time>
      </trkpt>
      <trkpt lat="48.83568" lon="1.41539">
        <ele>128.1</ele>
        <time>2016-03-06T10:31:49Z</time>
      </trkpt>
      <trkpt lat="48.83568" lon="1.41555">
        <ele>128.1</ele>
        <time>2016-03-06T10:31:52Z</time>
      </trkpt>
      <trkpt lat="48.83572" lon="1.41569">
        <ele>128</ele>
        <time>2016-03-06T10:31:56Z</time>
      </trkpt>
      <trkpt lat="48.83581" lon="1.41559">
        <ele>128</ele>
        <time>2016-03-06T10:32:01Z</time>
      </trkpt>
      <trkpt lat="48.83589" lon="1.41547">
        <ele>128.1</ele>
        <time>2016-03-06T10:32:05Z</time>
      </trkpt>
      <trkpt lat="48.83596" lon="1.41534">
        <ele>128.1</ele>
        <time>2016-03-06T10:32:08Z</time>
      </trkpt>
      <trkpt lat="48.83606" lon="1.41522">
        <ele>128.1</ele>
        <time>2016-03-06T10:32:11Z</time>
      </trkpt>
      <trkpt lat="48.83615" lon="1.41507">
        <ele>128.1</ele>
        <time>2016-03-06T10:32:14Z</time>
      </trkpt>
      <trkpt lat="48.83619" lon="1.41495">
        <ele>128.2</ele>
        <time>2016-03-06T10:32:16Z</time>
      </trkpt>
      <trkpt lat="48.83626" lon="1.41477">
        <ele>128.2</ele>
        <time>2016-03-06T10:32:19Z</time>
      </trkpt>
      <trkpt lat="48.83632" lon="1.41463">
        <ele>128.2</ele>
        <time>2016-03-06T10:32:22Z</time>
      </trkpt>
      <trkpt lat="48.83638" lon="1.41445">
        <ele>128.2</ele>
        <time>2016-03-06T10:32:25Z</time>
      </trkpt>
      <trkpt lat="48.83643" lon="1.41431">
        <ele>128.2</ele>
        <time>2016-03-06T10:32:27Z</time>
      </trkpt>
      <trkpt lat="48.83646" lon="1.41418">
        <ele>128.2</ele>
        <time>2016-03-06T10:32:29Z</time>
      </trkpt>
      <trkpt lat="48.8365" lon="1.41404">
        <ele>128.2</ele>
        <time>2016-03-06T10:32:31Z</time>
      </trkpt>
      <trkpt lat="48.83652" lon="1.4139">
        <ele>128.3</ele>
        <time>2016-03-06T10:32:33Z</time>
      </trkpt>
      <trkpt lat="48.83656" lon="1.41371">
        <ele>128.3</ele>
        <time>2016-03-06T10:32:36Z</time>
      </trkpt>
      <trkpt lat="48.83657" lon="1.41355">
        <ele>128.4</ele>
        <time>2016-03-06T10:32:38Z</time>
      </trkpt>
      <trkpt lat="48.83658" lon="1.41341">
        <ele>128.4</ele>
        <time>2016-03-06T10:32:40Z</time>
      </trkpt>
      <trkpt lat="48.83661" lon="1.41324">
        <ele>128.4</ele>
        <time>2016-03-06T10:32:42Z</time>
      </trkpt>
      <trkpt lat="48.83664" lon="1.4131">
        <ele>128.5</ele>
        <time>2016-03-06T10:32:44Z</time>
      </trkpt>
      <trkpt lat="48.83669" lon="1.41293">
        <ele>128.5</ele>
        <time>2016-03-06T10:32:47Z</time>
      </trkpt>
      <trkpt lat="48.83674" lon="1.41273">
        <ele>128.6</ele>
        <time>2016-03-06T10:32:50Z</time>
      </trkpt>
      <trkpt lat="48.8368" lon="1.41255">
        <ele>128.6</ele>
        <time>2016-03-06T10:32:53Z</time>
      </trkpt>
      <trkpt lat="48.83685" lon="1.41239">
        <ele>128.5</ele>
        <time>2016-03-06T10:32:56Z</time>
      </trkpt>
      <trkpt lat="48.8369" lon="1.41226">
        <ele>128.4</ele>
        <time>2016-03-06T10:32:58Z</time>
      </trkpt>
      <trkpt lat="48.83693" lon="1.41211">
        <ele>128.4</ele>
        <time>2016-03-06T10:33:00Z</time>
      </trkpt>
      <trkpt lat="48.837" lon="1.41191">
        <ele>128.3</ele>
        <time>2016-03-06T10:33:03Z</time>
      </trkpt>
      <trkpt lat="48.83705" lon="1.4118">
        <ele>128.3</ele>
        <time>2016-03-06T10:33:05Z</time>
      </trkpt>
      <trkpt lat="48.83712" lon="1.4117">
        <ele>128.3</ele>
        <time>2016-03-06T10:33:07Z</time>
      </trkpt>
      <trkpt lat="48.83719" lon="1.41153">
        <ele>128.3</ele>
        <time>2016-03-06T10:33:10Z</time>
      </trkpt>
      <trkpt lat="48.83724" lon="1.4114">
        <ele>128.3</ele>
        <time>2016-03-06T10:33:12Z</time>
      </trkpt>
      <trkpt lat="48.83732" lon="1.41124">
        <ele>128.2</ele>
        <time>2016-03-06T10:33:15Z</time>
      </trkpt>
      <trkpt lat="48.8374" lon="1.41109">
        <ele>128.2</ele>
        <time>2016-03-06T10:33:18Z</time>
      </trkpt>
      <trkpt lat="48.83745" lon="1.41096">
        <ele>128.2</ele>
        <time>2016-03-06T10:33:20Z</time>
      </trkpt>
      <trkpt lat="48.83751" lon="1.41084">
        <ele>128.2</ele>
        <time>2016-03-06T10:33:22Z</time>
      </trkpt>
      <trkpt lat="48.83758" lon="1.41073">
        <ele>128.2</ele>
        <time>2016-03-06T10:33:24Z</time>
      </trkpt>
      <trkpt lat="48.83764" lon="1.41058">
        <ele>128.2</ele>
        <time>2016-03-06T10:33:26Z</time>
      </trkpt>
      <trkpt lat="48.8377" lon="1.41048">
        <ele>128.2</ele>
        <time>2016-03-06T10:33:28Z</time>
      </trkpt>
      <trkpt lat="48.83772" lon="1.41034">
        <ele>128.1</ele>
        <time>2016-03-06T10:33:30Z</time>
      </trkpt>
      <trkpt lat="48.83777" lon="1.41021">
        <ele>127.9</ele>
        <time>2016-03-06T10:33:32Z</time>
      </trkpt>
      <trkpt lat="48.83783" lon="1.41011">
        <ele>127.7</ele>
        <time>2016-03-06T10:33:34Z</time>
      </trkpt>
      <trkpt lat="48.8379" lon="1.41001">
        <ele>127.6</ele>
        <time>2016-03-06T10:33:36Z</time>
      </trkpt>
      <trkpt lat="48.83799" lon="1.40993">
        <ele>127.4</ele>
        <time>2016-03-06T10:33:38Z</time>
      </trkpt>
      <trkpt lat="48.83807" lon="1.40983">
        <ele>127.1</ele>
        <time>2016-03-06T10:33:40Z</time>
      </trkpt>
      <trkpt lat="48.83815" lon="1.40973">
        <ele>126.8</ele>
        <time>2016-03-06T10:33:42Z</time>
      </trkpt>
      <trkpt lat="48.83824" lon="1.40958">
        <ele>126.3</ele>
        <time>2016-03-06T10:33:44Z</time>
      </trkpt>
      <trkpt lat="48.83833" lon="1.40944">
        <ele>125.7</ele>
        <time>2016-03-06T10:33:46Z</time>
      </trkpt>
      <trkpt lat="48.83844" lon="1.40932">
        <ele>125.1</ele>
        <time>2016-03-06T10:33:48Z</time>
      </trkpt>
      <trkpt lat="48.83854" lon="1.40923">
        <ele>124.5</ele>
        <time>2016-03-06T10:33:50Z</time>
      </trkpt>
      <trkpt lat="48.83864" lon="1.40914">
        <ele>123.6</ele>
        <time>2016-03-06T10:33:52Z</time>
      </trkpt>
      <trkpt lat="48.83876" lon="1.40907">
        <ele>122.6</ele>
        <time>2016-03-06T10:33:54Z</time>
      </trkpt>
      <trkpt lat="48.83889" lon="1.40904">
        <ele>121.7</ele>
        <time>2016-03-06T10:33:56Z</time>
      </trkpt>
      <trkpt lat="48.83903" lon="1.40903">
        <ele>121</ele>
        <time>2016-03-06T10:33:58Z</time>
      </trkpt>
      <trkpt lat="48.83917" lon="1.40901">
        <ele>120.2</ele>
        <time>2016-03-06T10:34:00Z</time>
      </trkpt>
      <trkpt lat="48.83931" lon="1.40898">
        <ele>119.4</ele>
        <time>2016-03-06T10:34:02Z</time>
      </trkpt>
      <trkpt lat="48.83947" lon="1.40897">
        <ele>118.5</ele>
        <time>2016-03-06T10:34:04Z</time>
      </trkpt>
      <trkpt lat="48.83964" lon="1.40895">
        <ele>117.6</ele>
        <time>2016-03-06T10:34:06Z</time>
      </trkpt>
      <trkpt lat="48.8398" lon="1.40894">
        <ele>116.6</ele>
        <time>2016-03-06T10:34:08Z</time>
      </trkpt>
      <trkpt lat="48.83993" lon="1.40893">
        <ele>115.4</ele>
        <time>2016-03-06T10:34:10Z</time>
      </trkpt>
      <trkpt lat="48.84004" lon="1.4089">
        <ele>113.5</ele>
        <time>2016-03-06T10:34:13Z</time>
      </trkpt>
      <trkpt lat="48.84013" lon="1.40887">
        <ele>111.7</ele>
        <time>2016-03-06T10:34:16Z</time>
      </trkpt>
      <trkpt lat="48.84026" lon="1.40885">
        <ele>109.7</ele>
        <time>2016-03-06T10:34:19Z</time>
      </trkpt>
      <trkpt lat="48.84039" lon="1.40884">
        <ele>108.1</ele>
        <time>2016-03-06T10:34:21Z</time>
      </trkpt>
      <trkpt lat="48.84052" lon="1.40882">
        <ele>106.7</ele>
        <time>2016-03-06T10:34:23Z</time>
      </trkpt>
      <trkpt lat="48.8407" lon="1.40882">
        <ele>105</ele>
        <time>2016-03-06T10:34:25Z</time>
      </trkpt>
      <trkpt lat="48.84087" lon="1.4088">
        <ele>103.4</ele>
        <time>2016-03-06T10:34:27Z</time>
      </trkpt>
      <trkpt lat="48.84096" lon="1.4088">
        <ele>102.5</ele>
        <time>2016-03-06T10:34:28Z</time>
      </trkpt>
      <trkpt lat="48.84114" lon="1.40879">
        <ele>100.8</ele>
        <time>2016-03-06T10:34:30Z</time>
      </trkpt>
      <trkpt lat="48.84123" lon="1.40879">
        <ele>99.8</ele>
        <time>2016-03-06T10:34:31Z</time>
      </trkpt>
      <trkpt lat="48.84141" lon="1.40879">
        <ele>98.1</ele>
        <time>2016-03-06T10:34:33Z</time>
      </trkpt>
      <trkpt lat="48.84157" lon="1.40878">
        <ele>96.3</ele>
        <time>2016-03-06T10:34:35Z</time>
      </trkpt>
      <trkpt lat="48.84172" lon="1.40876">
        <ele>94.4</ele>
        <time>2016-03-06T10:34:37Z</time>
      </trkpt>
      <trkpt lat="48.84186" lon="1.40876">
        <ele>92.6</ele>
        <time>2016-03-06T10:34:39Z</time>
      </trkpt>
      <trkpt lat="48.842" lon="1.40875">
        <ele>90.8</ele>
        <time>2016-03-06T10:34:41Z</time>
      </trkpt>
      <trkpt lat="48.84214" lon="1.40874">
        <ele>89.2</ele>
        <time>2016-03-06T10:34:43Z</time>
      </trkpt>
      <trkpt lat="48.84227" lon="1.40873">
        <ele>87.8</ele>
        <time>2016-03-06T10:34:45Z</time>
      </trkpt>
      <trkpt lat="48.8424" lon="1.40873">
        <ele>86.6</ele>
        <time>2016-03-06T10:34:47Z</time>
      </trkpt>
      <trkpt lat="48.84252" lon="1.40872">
        <ele>85.4</ele>
        <time>2016-03-06T10:34:49Z</time>
      </trkpt>
      <trkpt lat="48.84263" lon="1.40871">
        <ele>84.3</ele>
        <time>2016-03-06T10:34:51Z</time>
      </trkpt>
      <trkpt lat="48.84275" lon="1.4087">
        <ele>83.3</ele>
        <time>2016-03-06T10:34:53Z</time>
      </trkpt>
      <trkpt lat="48.84286" lon="1.40869">
        <ele>82.3</ele>
        <time>2016-03-06T10:34:55Z</time>
      </trkpt>
      <trkpt lat="48.84296" lon="1.40868">
        <ele>81.5</ele>
        <time>2016-03-06T10:34:57Z</time>
      </trkpt>
      <trkpt lat="48.84306" lon="1.40867">
        <ele>80.8</ele>
        <time>2016-03-06T10:34:59Z</time>
      </trkpt>
      <trkpt lat="48.84316" lon="1.40866">
        <ele>80.1</ele>
        <time>2016-03-06T10:35:01Z</time>
      </trkpt>
      <trkpt lat="48.84325" lon="1.40865">
        <ele>79.5</ele>
        <time>2016-03-06T10:35:03Z</time>
      </trkpt>
      <trkpt lat="48.84335" lon="1.40865">
        <ele>78.9</ele>
        <time>2016-03-06T10:35:05Z</time>
      </trkpt>
      <trkpt lat="48.84344" lon="1.40864">
        <ele>78.4</ele>
        <time>2016-03-06T10:35:07Z</time>
      </trkpt>
      <trkpt lat="48.84353" lon="1.40863">
        <ele>77.9</ele>
        <time>2016-03-06T10:35:09Z</time>
      </trkpt>
      <trkpt lat="48.84362" lon="1.40862">
        <ele>77.5</ele>
        <time>2016-03-06T10:35:11Z</time>
      </trkpt>
      <trkpt lat="48.84375" lon="1.40861">
        <ele>76.9</ele>
        <time>2016-03-06T10:35:14Z</time>
      </trkpt>
      <trkpt lat="48.84388" lon="1.4086">
        <ele>76.5</ele>
        <time>2016-03-06T10:35:17Z</time>
      </trkpt>
      <trkpt lat="48.84401" lon="1.40859">
        <ele>76.1</ele>
        <time>2016-03-06T10:35:20Z</time>
      </trkpt>
      <trkpt lat="48.8441" lon="1.40858">
        <ele>75.9</ele>
        <time>2016-03-06T10:35:22Z</time>
      </trkpt>
      <trkpt lat="48.84419" lon="1.40857">
        <ele>75.8</ele>
        <time>2016-03-06T10:35:24Z</time>
      </trkpt>
      <trkpt lat="48.84428" lon="1.40855">
        <ele>75.6</ele>
        <time>2016-03-06T10:35:26Z</time>
      </trkpt>
      <trkpt lat="48.84437" lon="1.40853">
        <ele>75.4</ele>
        <time>2016-03-06T10:35:28Z</time>
      </trkpt>
      <trkpt lat="48.84446" lon="1.40853">
        <ele>75.1</ele>
        <time>2016-03-06T10:35:30Z</time>
      </trkpt>
      <trkpt lat="48.84456" lon="1.40855">
        <ele>75</ele>
        <time>2016-03-06T10:35:32Z</time>
      </trkpt>
      <trkpt lat="48.84465" lon="1.40855">
        <ele>74.8</ele>
        <time>2016-03-06T10:35:34Z</time>
      </trkpt>
      <trkpt lat="48.84476" lon="1.40853">
        <ele>74.5</ele>
        <time>2016-03-06T10:35:37Z</time>
      </trkpt>
      <trkpt lat="48.84487" lon="1.40852">
        <ele>74.3</ele>
        <time>2016-03-06T10:35:40Z</time>
      </trkpt>
      <trkpt lat="48.84498" lon="1.40849">
        <ele>74</ele>
        <time>2016-03-06T10:35:44Z</time>
      </trkpt>
      <trkpt lat="48.84509" lon="1.4085">
        <ele>73.8</ele>
        <time>2016-03-06T10:35:48Z</time>
      </trkpt>
      <trkpt lat="48.84518" lon="1.4085">
        <ele>73.6</ele>
        <time>2016-03-06T10:35:51Z</time>
      </trkpt>
      <trkpt lat="48.84528" lon="1.4085">
        <ele>73.4</ele>
        <time>2016-03-06T10:35:54Z</time>
      </trkpt>
      <trkpt lat="48.8454" lon="1.40849">
        <ele>73.1</ele>
        <time>2016-03-06T10:35:57Z</time>
      </trkpt>
      <trkpt lat="48.84554" lon="1.40847">
        <ele>72.6</ele>
        <time>2016-03-06T10:36:00Z</time>
      </trkpt>
      <trkpt lat="48.84564" lon="1.40846">
        <ele>72.3</ele>
        <time>2016-03-06T10:36:02Z</time>
      </trkpt>
      <trkpt lat="48.84574" lon="1.40845">
        <ele>71.9</ele>
        <time>2016-03-06T10:36:04Z</time>
      </trkpt>
      <trkpt lat="48.84585" lon="1.40844">
        <ele>71.4</ele>
        <time>2016-03-06T10:36:06Z</time>
      </trkpt>
      <trkpt lat="48.84596" lon="1.40843">
        <ele>70.9</ele>
        <time>2016-03-06T10:36:08Z</time>
      </trkpt>
      <trkpt lat="48.84607" lon="1.40841">
        <ele>70.5</ele>
        <time>2016-03-06T10:36:10Z</time>
      </trkpt>
      <trkpt lat="48.84619" lon="1.4084">
        <ele>70</ele>
        <time>2016-03-06T10:36:12Z</time>
      </trkpt>
      <trkpt lat="48.84629" lon="1.4084">
        <ele>69.6</ele>
        <time>2016-03-06T10:36:14Z</time>
      </trkpt>
      <trkpt lat="48.84641" lon="1.40839">
        <ele>69.2</ele>
        <time>2016-03-06T10:36:16Z</time>
      </trkpt>
      <trkpt lat="48.84651" lon="1.40837">
        <ele>68.8</ele>
        <time>2016-03-06T10:36:18Z</time>
      </trkpt>
      <trkpt lat="48.84661" lon="1.40837">
        <ele>68.5</ele>
        <time>2016-03-06T10:36:20Z</time>
      </trkpt>
      <trkpt lat="48.84672" lon="1.40837">
        <ele>68.2</ele>
        <time>2016-03-06T10:36:22Z</time>
      </trkpt>
      <trkpt lat="48.84682" lon="1.40834">
        <ele>67.9</ele>
        <time>2016-03-06T10:36:24Z</time>
      </trkpt>
      <trkpt lat="48.84691" lon="1.40834">
        <ele>67.5</ele>
        <time>2016-03-06T10:36:26Z</time>
      </trkpt>
      <trkpt lat="48.84702" lon="1.40831">
        <ele>67</ele>
        <time>2016-03-06T10:36:29Z</time>
      </trkpt>
      <trkpt lat="48.84713" lon="1.40832">
        <ele>66.4</ele>
        <time>2016-03-06T10:36:32Z</time>
      </trkpt>
      <trkpt lat="48.84724" lon="1.40832">
        <ele>66</ele>
        <time>2016-03-06T10:36:35Z</time>
      </trkpt>
      <trkpt lat="48.84735" lon="1.40832">
        <ele>63</ele>
        <time>2016-03-06T10:40:10Z</time>
      </trkpt>
      <trkpt lat="48.84745" lon="1.40829">
        <ele>63</ele>
        <time>2016-03-06T10:40:13Z</time>
      </trkpt>
      <trkpt lat="48.84756" lon="1.40828">
        <ele>63</ele>
        <time>2016-03-06T10:40:16Z</time>
      </trkpt>
      <trkpt lat="48.84769" lon="1.40828">
        <ele>63</ele>
        <time>2016-03-06T10:40:19Z</time>
      </trkpt>
      <trkpt lat="48.84778" lon="1.40827">
        <ele>63</ele>
        <time>2016-03-06T10:40:21Z</time>
      </trkpt>
      <trkpt lat="48.84787" lon="1.40826">
        <ele>63</ele>
        <time>2016-03-06T10:40:23Z</time>
      </trkpt>
      <trkpt lat="48.84797" lon="1.40825">
        <ele>63</ele>
        <time>2016-03-06T10:40:25Z</time>
      </trkpt>
      <trkpt lat="48.84806" lon="1.40825">
        <ele>63</ele>
        <time>2016-03-06T10:40:27Z</time>
      </trkpt>
      <trkpt lat="48.84816" lon="1.40825">
        <ele>63</ele>
        <time>2016-03-06T10:40:29Z</time>
      </trkpt>
      <trkpt lat="48.84826" lon="1.40824">
        <ele>63</ele>
        <time>2016-03-06T10:40:31Z</time>
      </trkpt>
      <trkpt lat="48.84836" lon="1.40824">
        <ele>63</ele>
        <time>2016-03-06T10:40:33Z</time>
      </trkpt>
      <trkpt lat="48.84846" lon="1.40824">
        <ele>63</ele>
        <time>2016-03-06T10:40:35Z</time>
      </trkpt>
      <trkpt lat="48.84856" lon="1.40823">
        <ele>63</ele>
        <time>2016-03-06T10:40:37Z</time>
      </trkpt>
      <trkpt lat="48.84867" lon="1.40822">
        <ele>63</ele>
        <time>2016-03-06T10:40:39Z</time>
      </trkpt>
      <trkpt lat="48.84877" lon="1.40821">
        <ele>63</ele>
        <time>2016-03-06T10:40:41Z</time>
      </trkpt>
      <trkpt lat="48.84886" lon="1.4082">
        <ele>63</ele>
        <time>2016-03-06T10:40:43Z</time>
      </trkpt>
      <trkpt lat="48.84896" lon="1.40819">
        <ele>63</ele>
        <time>2016-03-06T10:40:45Z</time>
      </trkpt>
      <trkpt lat="48.84906" lon="1.40819">
        <ele>63</ele>
        <time>2016-03-06T10:40:47Z</time>
      </trkpt>
      <trkpt lat="48.84916" lon="1.40818">
        <ele>63</ele>
        <time>2016-03-06T10:40:49Z</time>
      </trkpt>
      <trkpt lat="48.84927" lon="1.40817">
        <ele>63</ele>
        <time>2016-03-06T10:40:51Z</time>
      </trkpt>
      <trkpt lat="48.84938" lon="1.40816">
        <ele>63</ele>
        <time>2016-03-06T10:40:53Z</time>
      </trkpt>
      <trkpt lat="48.84949" lon="1.40815">
        <ele>62.9</ele>
        <time>2016-03-06T10:40:55Z</time>
      </trkpt>
      <trkpt lat="48.84959" lon="1.40813">
        <ele>62.9</ele>
        <time>2016-03-06T10:40:57Z</time>
      </trkpt>
      <trkpt lat="48.8497" lon="1.40812">
        <ele>62.9</ele>
        <time>2016-03-06T10:40:59Z</time>
      </trkpt>
      <trkpt lat="48.84981" lon="1.40811">
        <ele>62.8</ele>
        <time>2016-03-06T10:41:01Z</time>
      </trkpt>
      <trkpt lat="48.84992" lon="1.4081">
        <ele>62.8</ele>
        <time>2016-03-06T10:41:03Z</time>
      </trkpt>
      <trkpt lat="48.85004" lon="1.40809">
        <ele>62.8</ele>
        <time>2016-03-06T10:41:05Z</time>
      </trkpt>
      <trkpt lat="48.85016" lon="1.40807">
        <ele>62.8</ele>
        <time>2016-03-06T10:41:07Z</time>
      </trkpt>
      <trkpt lat="48.85029" lon="1.40807">
        <ele>62.7</ele>
        <time>2016-03-06T10:41:09Z</time>
      </trkpt>
      <trkpt lat="48.85043" lon="1.40806">
        <ele>62.6</ele>
        <time>2016-03-06T10:41:11Z</time>
      </trkpt>
      <trkpt lat="48.85058" lon="1.40805">
        <ele>62.3</ele>
        <time>2016-03-06T10:41:13Z</time>
      </trkpt>
      <trkpt lat="48.85074" lon="1.40805">
        <ele>62</ele>
        <time>2016-03-06T10:41:15Z</time>
      </trkpt>
      <trkpt lat="48.8509" lon="1.40804">
        <ele>61.7</ele>
        <time>2016-03-06T10:41:17Z</time>
      </trkpt>
      <trkpt lat="48.85106" lon="1.40803">
        <ele>61.4</ele>
        <time>2016-03-06T10:41:19Z</time>
      </trkpt>
      <trkpt lat="48.85121" lon="1.40801">
        <ele>61.2</ele>
        <time>2016-03-06T10:41:21Z</time>
      </trkpt>
      <trkpt lat="48.85134" lon="1.408">
        <ele>61</ele>
        <time>2016-03-06T10:41:23Z</time>
      </trkpt>
      <trkpt lat="48.85147" lon="1.40799">
        <ele>60.7</ele>
        <time>2016-03-06T10:41:25Z</time>
      </trkpt>
      <trkpt lat="48.8516" lon="1.40799">
        <ele>60.5</ele>
        <time>2016-03-06T10:41:27Z</time>
      </trkpt>
      <trkpt lat="48.85172" lon="1.40797">
        <ele>60.3</ele>
        <time>2016-03-06T10:41:29Z</time>
      </trkpt>
      <trkpt lat="48.85184" lon="1.40797">
        <ele>60.1</ele>
        <time>2016-03-06T10:41:31Z</time>
      </trkpt>
      <trkpt lat="48.85195" lon="1.40796">
        <ele>59.9</ele>
        <time>2016-03-06T10:41:33Z</time>
      </trkpt>
      <trkpt lat="48.85207" lon="1.40796">
        <ele>59.8</ele>
        <time>2016-03-06T10:41:35Z</time>
      </trkpt>
      <trkpt lat="48.85218" lon="1.40794">
        <ele>59.7</ele>
        <time>2016-03-06T10:41:37Z</time>
      </trkpt>
      <trkpt lat="48.8523" lon="1.40794">
        <ele>59.5</ele>
        <time>2016-03-06T10:41:39Z</time>
      </trkpt>
      <trkpt lat="48.85241" lon="1.40792">
        <ele>59.4</ele>
        <time>2016-03-06T10:41:41Z</time>
      </trkpt>
      <trkpt lat="48.85252" lon="1.40791">
        <ele>59.4</ele>
        <time>2016-03-06T10:41:43Z</time>
      </trkpt>
      <trkpt lat="48.85263" lon="1.40791">
        <ele>59.3</ele>
        <time>2016-03-06T10:41:45Z</time>
      </trkpt>
      <trkpt lat="48.85275" lon="1.40791">
        <ele>59.2</ele>
        <time>2016-03-06T10:41:47Z</time>
      </trkpt>
      <trkpt lat="48.85285" lon="1.4079">
        <ele>59.2</ele>
        <time>2016-03-06T10:41:49Z</time>
      </trkpt>
      <trkpt lat="48.85295" lon="1.40788">
        <ele>59.1</ele>
        <time>2016-03-06T10:41:51Z</time>
      </trkpt>
      <trkpt lat="48.85305" lon="1.40787">
        <ele>59.1</ele>
        <time>2016-03-06T10:41:53Z</time>
      </trkpt>
      <trkpt lat="48.85315" lon="1.40786">
        <ele>59</ele>
        <time>2016-03-06T10:41:55Z</time>
      </trkpt>
      <trkpt lat="48.85324" lon="1.40785">
        <ele>59</ele>
        <time>2016-03-06T10:41:57Z</time>
      </trkpt>
      <trkpt lat="48.85334" lon="1.40784">
        <ele>58.9</ele>
        <time>2016-03-06T10:41:59Z</time>
      </trkpt>
      <trkpt lat="48.85343" lon="1.40783">
        <ele>58.8</ele>
        <time>2016-03-06T10:42:01Z</time>
      </trkpt>
      <trkpt lat="48.85353" lon="1.40783">
        <ele>58.8</ele>
        <time>2016-03-06T10:42:03Z</time>
      </trkpt>
      <trkpt lat="48.85362" lon="1.40782">
        <ele>58.7</ele>
        <time>2016-03-06T10:42:05Z</time>
      </trkpt>
      <trkpt lat="48.85372" lon="1.40782">
        <ele>58.6</ele>
        <time>2016-03-06T10:42:07Z</time>
      </trkpt>
      <trkpt lat="48.85381" lon="1.40781">
        <ele>58.5</ele>
        <time>2016-03-06T10:42:09Z</time>
      </trkpt>
      <trkpt lat="48.85391" lon="1.4078">
        <ele>58.4</ele>
        <time>2016-03-06T10:42:11Z</time>
      </trkpt>
      <trkpt lat="48.854" lon="1.40779">
        <ele>58.3</ele>
        <time>2016-03-06T10:42:13Z</time>
      </trkpt>
      <trkpt lat="48.85409" lon="1.40778">
        <ele>58.2</ele>
        <time>2016-03-06T10:42:15Z</time>
      </trkpt>
      <trkpt lat="48.85422" lon="1.40775">
        <ele>58</ele>
        <time>2016-03-06T10:42:18Z</time>
      </trkpt>
      <trkpt lat="48.85431" lon="1.40774">
        <ele>58</ele>
        <time>2016-03-06T10:42:20Z</time>
      </trkpt>
      <trkpt lat="48.85441" lon="1.40773">
        <ele>57.9</ele>
        <time>2016-03-06T10:42:22Z</time>
      </trkpt>
      <trkpt lat="48.8545" lon="1.40773">
        <ele>57.8</ele>
        <time>2016-03-06T10:42:24Z</time>
      </trkpt>
      <trkpt lat="48.85459" lon="1.40773">
        <ele>57.7</ele>
        <time>2016-03-06T10:42:26Z</time>
      </trkpt>
      <trkpt lat="48.85469" lon="1.40773">
        <ele>57.7</ele>
        <time>2016-03-06T10:42:28Z</time>
      </trkpt>
      <trkpt lat="48.85479" lon="1.40774">
        <ele>57.6</ele>
        <time>2016-03-06T10:42:30Z</time>
      </trkpt>
      <trkpt lat="48.85488" lon="1.40773">
        <ele>57.6</ele>
        <time>2016-03-06T10:42:32Z</time>
      </trkpt>
      <trkpt lat="48.85498" lon="1.40771">
        <ele>57.6</ele>
        <time>2016-03-06T10:42:34Z</time>
      </trkpt>
      <trkpt lat="48.85508" lon="1.4077">
        <ele>57.5</ele>
        <time>2016-03-06T10:42:36Z</time>
      </trkpt>
      <trkpt lat="48.85517" lon="1.40768">
        <ele>57.5</ele>
        <time>2016-03-06T10:42:38Z</time>
      </trkpt>
      <trkpt lat="48.85526" lon="1.40767">
        <ele>57.5</ele>
        <time>2016-03-06T10:42:40Z</time>
      </trkpt>
      <trkpt lat="48.85535" lon="1.40767">
        <ele>57.4</ele>
        <time>2016-03-06T10:42:42Z</time>
      </trkpt>
      <trkpt lat="48.85544" lon="1.40767">
        <ele>57.4</ele>
        <time>2016-03-06T10:42:44Z</time>
      </trkpt>
      <trkpt lat="48.85554" lon="1.40766">
        <ele>57.4</ele>
        <time>2016-03-06T10:42:46Z</time>
      </trkpt>
      <trkpt lat="48.85563" lon="1.40766">
        <ele>57.4</ele>
        <time>2016-03-06T10:42:48Z</time>
      </trkpt>
      <trkpt lat="48.85572" lon="1.40766">
        <ele>57.4</ele>
        <time>2016-03-06T10:42:50Z</time>
      </trkpt>
      <trkpt lat="48.85585" lon="1.40765">
        <ele>57.5</ele>
        <time>2016-03-06T10:42:53Z</time>
      </trkpt>
      <trkpt lat="48.85597" lon="1.40764">
        <ele>57.7</ele>
        <time>2016-03-06T10:42:56Z</time>
      </trkpt>
      <trkpt lat="48.85608" lon="1.40772">
        <ele>57.8</ele>
        <time>2016-03-06T10:42:59Z</time>
      </trkpt>
      <trkpt lat="48.85613" lon="1.40783">
        <ele>57.8</ele>
        <time>2016-03-06T10:43:01Z</time>
      </trkpt>
      <trkpt lat="48.85618" lon="1.40795">
        <ele>57.8</ele>
        <time>2016-03-06T10:43:03Z</time>
      </trkpt>
      <trkpt lat="48.85623" lon="1.40808">
        <ele>57.7</ele>
        <time>2016-03-06T10:43:05Z</time>
      </trkpt>
      <trkpt lat="48.85628" lon="1.4082">
        <ele>57.7</ele>
        <time>2016-03-06T10:43:07Z</time>
      </trkpt>
      <trkpt lat="48.85633" lon="1.40833">
        <ele>57.7</ele>
        <time>2016-03-06T10:43:09Z</time>
      </trkpt>
      <trkpt lat="48.85639" lon="1.40844">
        <ele>57.7</ele>
        <time>2016-03-06T10:43:11Z</time>
      </trkpt>
      <trkpt lat="48.85646" lon="1.40854">
        <ele>57.6</ele>
        <time>2016-03-06T10:43:13Z</time>
      </trkpt>
      <trkpt lat="48.85655" lon="1.40863">
        <ele>57.6</ele>
        <time>2016-03-06T10:43:15Z</time>
      </trkpt>
      <trkpt lat="48.85664" lon="1.40872">
        <ele>57.4</ele>
        <time>2016-03-06T10:43:17Z</time>
      </trkpt>
      <trkpt lat="48.85672" lon="1.4088">
        <ele>57.4</ele>
        <time>2016-03-06T10:43:19Z</time>
      </trkpt>
      <trkpt lat="48.8568" lon="1.40889">
        <ele>57.3</ele>
        <time>2016-03-06T10:43:21Z</time>
      </trkpt>
      <trkpt lat="48.85688" lon="1.409">
        <ele>57.2</ele>
        <time>2016-03-06T10:43:23Z</time>
      </trkpt>
      <trkpt lat="48.85695" lon="1.40911">
        <ele>57.2</ele>
        <time>2016-03-06T10:43:25Z</time>
      </trkpt>
      <trkpt lat="48.85701" lon="1.40921">
        <ele>57.1</ele>
        <time>2016-03-06T10:43:27Z</time>
      </trkpt>
      <trkpt lat="48.85707" lon="1.40932">
        <ele>57</ele>
        <time>2016-03-06T10:43:31Z</time>
      </trkpt>
      <trkpt lat="48.85716" lon="1.40928">
        <ele>56.9</ele>
        <time>2016-03-06T10:43:34Z</time>
      </trkpt>
      <trkpt lat="48.85725" lon="1.40917">
        <ele>56.9</ele>
        <time>2016-03-06T10:43:37Z</time>
      </trkpt>
      <trkpt lat="48.85734" lon="1.40905">
        <ele>56.8</ele>
        <time>2016-03-06T10:43:40Z</time>
      </trkpt>
      <trkpt lat="48.85744" lon="1.40889">
        <ele>56.8</ele>
        <time>2016-03-06T10:43:43Z</time>
      </trkpt>
      <trkpt lat="48.85749" lon="1.40878">
        <ele>56.7</ele>
        <time>2016-03-06T10:43:45Z</time>
      </trkpt>
      <trkpt lat="48.85753" lon="1.40864">
        <ele>56.7</ele>
        <time>2016-03-06T10:43:47Z</time>
      </trkpt>
      <trkpt lat="48.85752" lon="1.4085">
        <ele>56.7</ele>
        <time>2016-03-06T10:43:49Z</time>
      </trkpt>
      <trkpt lat="48.8575" lon="1.40836">
        <ele>56.7</ele>
        <time>2016-03-06T10:43:51Z</time>
      </trkpt>
      <trkpt lat="48.85747" lon="1.40822">
        <ele>56.7</ele>
        <time>2016-03-06T10:43:53Z</time>
      </trkpt>
      <trkpt lat="48.85744" lon="1.40808">
        <ele>56.6</ele>
        <time>2016-03-06T10:43:55Z</time>
      </trkpt>
      <trkpt lat="48.85741" lon="1.40789">
        <ele>56.6</ele>
        <time>2016-03-06T10:43:58Z</time>
      </trkpt>
      <trkpt lat="48.85736" lon="1.40769">
        <ele>56.6</ele>
        <time>2016-03-06T10:44:01Z</time>
      </trkpt>
      <trkpt lat="48.85733" lon="1.40756">
        <ele>56.6</ele>
        <time>2016-03-06T10:44:03Z</time>
      </trkpt>
      <trkpt lat="48.85729" lon="1.40742">
        <ele>56.6</ele>
        <time>2016-03-06T10:44:05Z</time>
      </trkpt>
      <trkpt lat="48.85727" lon="1.40728">
        <ele>56.6</ele>
        <time>2016-03-06T10:44:07Z</time>
      </trkpt>
      <trkpt lat="48.85726" lon="1.40714">
        <ele>56.6</ele>
        <time>2016-03-06T10:44:09Z</time>
      </trkpt>
      <trkpt lat="48.8573" lon="1.40701">
        <ele>56.6</ele>
        <time>2016-03-06T10:44:11Z</time>
      </trkpt>
      <trkpt lat="48.85737" lon="1.40692">
        <ele>56.6</ele>
        <time>2016-03-06T10:44:13Z</time>
      </trkpt>
      <trkpt lat="48.85745" lon="1.40686">
        <ele>56.6</ele>
        <time>2016-03-06T10:44:15Z</time>
      </trkpt>
      <trkpt lat="48.85754" lon="1.40679">
        <ele>56.7</ele>
        <time>2016-03-06T10:44:17Z</time>
      </trkpt>
      <trkpt lat="48.85762" lon="1.40673">
        <ele>56.7</ele>
        <time>2016-03-06T10:44:19Z</time>
      </trkpt>
      <trkpt lat="48.8577" lon="1.40666">
        <ele>56.7</ele>
        <time>2016-03-06T10:44:21Z</time>
      </trkpt>
      <trkpt lat="48.85779" lon="1.40658">
        <ele>56.7</ele>
        <time>2016-03-06T10:44:23Z</time>
      </trkpt>
      <trkpt lat="48.85787" lon="1.40652">
        <ele>56.7</ele>
        <time>2016-03-06T10:44:25Z</time>
      </trkpt>
      <trkpt lat="48.85796" lon="1.40645">
        <ele>56.7</ele>
        <time>2016-03-06T10:44:27Z</time>
      </trkpt>
      <trkpt lat="48.85805" lon="1.40638">
        <ele>56.7</ele>
        <time>2016-03-06T10:44:29Z</time>
      </trkpt>
      <trkpt lat="48.85814" lon="1.40631">
        <ele>56.7</ele>
        <time>2016-03-06T10:44:31Z</time>
      </trkpt>
      <trkpt lat="48.85823" lon="1.40624">
        <ele>56.7</ele>
        <time>2016-03-06T10:44:33Z</time>
      </trkpt>
      <trkpt lat="48.85832" lon="1.40617">
        <ele>56.7</ele>
        <time>2016-03-06T10:44:35Z</time>
      </trkpt>
      <trkpt lat="48.8584" lon="1.4061">
        <ele>56.7</ele>
        <time>2016-03-06T10:44:37Z</time>
      </trkpt>
      <trkpt lat="48.85848" lon="1.40604">
        <ele>56.8</ele>
        <time>2016-03-06T10:44:39Z</time>
      </trkpt>
      <trkpt lat="48.85855" lon="1.40595">
        <ele>56.8</ele>
        <time>2016-03-06T10:44:41Z</time>
      </trkpt>
      <trkpt lat="48.85862" lon="1.40585">
        <ele>56.8</ele>
        <time>2016-03-06T10:44:43Z</time>
      </trkpt>
      <trkpt lat="48.85869" lon="1.40575">
        <ele>56.8</ele>
        <time>2016-03-06T10:44:45Z</time>
      </trkpt>
      <trkpt lat="48.85876" lon="1.40564">
        <ele>56.8</ele>
        <time>2016-03-06T10:44:47Z</time>
      </trkpt>
      <trkpt lat="48.85882" lon="1.40554">
        <ele>56.8</ele>
        <time>2016-03-06T10:44:49Z</time>
      </trkpt>
      <trkpt lat="48.85889" lon="1.40543">
        <ele>56.9</ele>
        <time>2016-03-06T10:44:51Z</time>
      </trkpt>
      <trkpt lat="48.85895" lon="1.40533">
        <ele>56.9</ele>
        <time>2016-03-06T10:44:53Z</time>
      </trkpt>
      <trkpt lat="48.85901" lon="1.40523">
        <ele>57</ele>
        <time>2016-03-06T10:44:55Z</time>
      </trkpt>
      <trkpt lat="48.85907" lon="1.40513">
        <ele>57</ele>
        <time>2016-03-06T10:44:57Z</time>
      </trkpt>
      <trkpt lat="48.85917" lon="1.40499">
        <ele>57.1</ele>
        <time>2016-03-06T10:45:00Z</time>
      </trkpt>
      <trkpt lat="48.85923" lon="1.40489">
        <ele>57.1</ele>
        <time>2016-03-06T10:45:02Z</time>
      </trkpt>
      <trkpt lat="48.85932" lon="1.40474">
        <ele>57.3</ele>
        <time>2016-03-06T10:45:05Z</time>
      </trkpt>
      <trkpt lat="48.85941" lon="1.4046">
        <ele>57.4</ele>
        <time>2016-03-06T10:45:08Z</time>
      </trkpt>
      <trkpt lat="48.8595" lon="1.40447">
        <ele>57.5</ele>
        <time>2016-03-06T10:45:11Z</time>
      </trkpt>
      <trkpt lat="48.85958" lon="1.40434">
        <ele>57.8</ele>
        <time>2016-03-06T10:45:14Z</time>
      </trkpt>
      <trkpt lat="48.85966" lon="1.40422">
        <ele>58</ele>
        <time>2016-03-06T10:45:17Z</time>
      </trkpt>
      <trkpt lat="48.85973" lon="1.4041">
        <ele>58.4</ele>
        <time>2016-03-06T10:45:20Z</time>
      </trkpt>
      <trkpt lat="48.85981" lon="1.40398">
        <ele>58.8</ele>
        <time>2016-03-06T10:45:23Z</time>
      </trkpt>
      <trkpt lat="48.85989" lon="1.40386">
        <ele>59.2</ele>
        <time>2016-03-06T10:45:26Z</time>
      </trkpt>
      <trkpt lat="48.85996" lon="1.40374">
        <ele>59.7</ele>
        <time>2016-03-06T10:45:29Z</time>
      </trkpt>
      <trkpt lat="48.86004" lon="1.40363">
        <ele>60.2</ele>
        <time>2016-03-06T10:45:32Z</time>
      </trkpt>
      <trkpt lat="48.86012" lon="1.40351">
        <ele>60.6</ele>
        <time>2016-03-06T10:45:35Z</time>
      </trkpt>
      <trkpt lat="48.86021" lon="1.40337">
        <ele>60.9</ele>
        <time>2016-03-06T10:45:38Z</time>
      </trkpt>
      <trkpt lat="48.86028" lon="1.40326">
        <ele>61.1</ele>
        <time>2016-03-06T10:45:40Z</time>
      </trkpt>
      <trkpt lat="48.86036" lon="1.40313">
        <ele>61.3</ele>
        <time>2016-03-06T10:45:42Z</time>
      </trkpt>
      <trkpt lat="48.86043" lon="1.403">
        <ele>61.4</ele>
        <time>2016-03-06T10:45:44Z</time>
      </trkpt>
      <trkpt lat="48.86051" lon="1.40288">
        <ele>61.3</ele>
        <time>2016-03-06T10:45:46Z</time>
      </trkpt>
      <trkpt lat="48.86059" lon="1.40278">
        <ele>61.2</ele>
        <time>2016-03-06T10:45:48Z</time>
      </trkpt>
      <trkpt lat="48.86067" lon="1.40269">
        <ele>61.1</ele>
        <time>2016-03-06T10:45:50Z</time>
      </trkpt>
      <trkpt lat="48.86076" lon="1.4026">
        <ele>60.9</ele>
        <time>2016-03-06T10:45:52Z</time>
      </trkpt>
      <trkpt lat="48.86084" lon="1.40251">
        <ele>60.8</ele>
        <time>2016-03-06T10:45:54Z</time>
      </trkpt>
      <trkpt lat="48.86092" lon="1.40243">
        <ele>60.7</ele>
        <time>2016-03-06T10:45:56Z</time>
      </trkpt>
      <trkpt lat="48.861" lon="1.40236">
        <ele>60.6</ele>
        <time>2016-03-06T10:45:58Z</time>
      </trkpt>
      <trkpt lat="48.86109" lon="1.40228">
        <ele>60.5</ele>
        <time>2016-03-06T10:46:00Z</time>
      </trkpt>
      <trkpt lat="48.86117" lon="1.40221">
        <ele>60.5</ele>
        <time>2016-03-06T10:46:02Z</time>
      </trkpt>
      <trkpt lat="48.86126" lon="1.40215">
        <ele>60.4</ele>
        <time>2016-03-06T10:46:04Z</time>
      </trkpt>
      <trkpt lat="48.86135" lon="1.40209">
        <ele>60.3</ele>
        <time>2016-03-06T10:46:06Z</time>
      </trkpt>
      <trkpt lat="48.86144" lon="1.40204">
        <ele>60.2</ele>
        <time>2016-03-06T10:46:08Z</time>
      </trkpt>
      <trkpt lat="48.86153" lon="1.402">
        <ele>60.1</ele>
        <time>2016-03-06T10:46:10Z</time>
      </trkpt>
      <trkpt lat="48.86162" lon="1.40196">
        <ele>60</ele>
        <time>2016-03-06T10:46:12Z</time>
      </trkpt>
      <trkpt lat="48.86172" lon="1.40192">
        <ele>60</ele>
        <time>2016-03-06T10:46:14Z</time>
      </trkpt>
      <trkpt lat="48.86181" lon="1.40189">
        <ele>59.9</ele>
        <time>2016-03-06T10:46:16Z</time>
      </trkpt>
      <trkpt lat="48.8619" lon="1.40185">
        <ele>59.8</ele>
        <time>2016-03-06T10:46:18Z</time>
      </trkpt>
      <trkpt lat="48.86199" lon="1.40182">
        <ele>59.8</ele>
        <time>2016-03-06T10:46:20Z</time>
      </trkpt>
      <trkpt lat="48.86211" lon="1.40174">
        <ele>59.7</ele>
        <time>2016-03-06T10:46:23Z</time>
      </trkpt>
      <trkpt lat="48.86223" lon="1.40167">
        <ele>59.6</ele>
        <time>2016-03-06T10:46:26Z</time>
      </trkpt>
      <trkpt lat="48.86234" lon="1.40158">
        <ele>59.5</ele>
        <time>2016-03-06T10:46:29Z</time>
      </trkpt>
      <trkpt lat="48.86246" lon="1.40148">
        <ele>59.4</ele>
        <time>2016-03-06T10:46:32Z</time>
      </trkpt>
      <trkpt lat="48.86254" lon="1.40142">
        <ele>59.4</ele>
        <time>2016-03-06T10:46:34Z</time>
      </trkpt>
      <trkpt lat="48.86262" lon="1.40135">
        <ele>59.3</ele>
        <time>2016-03-06T10:46:36Z</time>
      </trkpt>
      <trkpt lat="48.8627" lon="1.40128">
        <ele>59.3</ele>
        <time>2016-03-06T10:46:38Z</time>
      </trkpt>
      <trkpt lat="48.86279" lon="1.4012">
        <ele>59.4</ele>
        <time>2016-03-06T10:46:40Z</time>
      </trkpt>
      <trkpt lat="48.86287" lon="1.40113">
        <ele>59.4</ele>
        <time>2016-03-06T10:46:42Z</time>
      </trkpt>
      <trkpt lat="48.86296" lon="1.40106">
        <ele>59.5</ele>
        <time>2016-03-06T10:46:44Z</time>
      </trkpt>
      <trkpt lat="48.86304" lon="1.40099">
        <ele>59.5</ele>
        <time>2016-03-06T10:46:46Z</time>
      </trkpt>
      <trkpt lat="48.86316" lon="1.40089">
        <ele>59.6</ele>
        <time>2016-03-06T10:46:49Z</time>
      </trkpt>
      <trkpt lat="48.86327" lon="1.40079">
        <ele>59.6</ele>
        <time>2016-03-06T10:46:52Z</time>
      </trkpt>
      <trkpt lat="48.86339" lon="1.4007">
        <ele>59.6</ele>
        <time>2016-03-06T10:46:55Z</time>
      </trkpt>
      <trkpt lat="48.8635" lon="1.4006">
        <ele>59.7</ele>
        <time>2016-03-06T10:46:58Z</time>
      </trkpt>
      <trkpt lat="48.86362" lon="1.40051">
        <ele>59.7</ele>
        <time>2016-03-06T10:47:01Z</time>
      </trkpt>
      <trkpt lat="48.86369" lon="1.40044">
        <ele>59.7</ele>
        <time>2016-03-06T10:47:03Z</time>
      </trkpt>
      <trkpt lat="48.86377" lon="1.40037">
        <ele>59.7</ele>
        <time>2016-03-06T10:47:05Z</time>
      </trkpt>
      <trkpt lat="48.86385" lon="1.4003">
        <ele>59.7</ele>
        <time>2016-03-06T10:47:07Z</time>
      </trkpt>
      <trkpt lat="48.86396" lon="1.40018">
        <ele>59.7</ele>
        <time>2016-03-06T10:47:10Z</time>
      </trkpt>
      <trkpt lat="48.86407" lon="1.40006">
        <ele>59.8</ele>
        <time>2016-03-06T10:47:13Z</time>
      </trkpt>
      <trkpt lat="48.86414" lon="1.39998">
        <ele>59.8</ele>
        <time>2016-03-06T10:47:15Z</time>
      </trkpt>
      <trkpt lat="48.86421" lon="1.3999">
        <ele>59.8</ele>
        <time>2016-03-06T10:47:17Z</time>
      </trkpt>
      <trkpt lat="48.86431" lon="1.39977">
        <ele>59.8</ele>
        <time>2016-03-06T10:47:20Z</time>
      </trkpt>
      <trkpt lat="48.86442" lon="1.39971">
        <ele>59.8</ele>
        <time>2016-03-06T10:47:23Z</time>
      </trkpt>
      <trkpt lat="48.86452" lon="1.39981">
        <ele>59.8</ele>
        <time>2016-03-06T10:47:26Z</time>
      </trkpt>
      <trkpt lat="48.86452" lon="1.4">
        <ele>59.8</ele>
        <time>2016-03-06T10:47:29Z</time>
      </trkpt>
      <trkpt lat="48.86449" lon="1.4002">
        <ele>59.8</ele>
        <time>2016-03-06T10:47:32Z</time>
      </trkpt>
      <trkpt lat="48.86448" lon="1.40034">
        <ele>59.8</ele>
        <time>2016-03-06T10:47:34Z</time>
      </trkpt>
      <trkpt lat="48.86446" lon="1.40048">
        <ele>59.8</ele>
        <time>2016-03-06T10:47:36Z</time>
      </trkpt>
      <trkpt lat="48.86444" lon="1.40063">
        <ele>59.8</ele>
        <time>2016-03-06T10:47:38Z</time>
      </trkpt>
      <trkpt lat="48.86443" lon="1.40077">
        <ele>59.9</ele>
        <time>2016-03-06T10:47:40Z</time>
      </trkpt>
      <trkpt lat="48.86441" lon="1.40091">
        <ele>60</ele>
        <time>2016-03-06T10:47:42Z</time>
      </trkpt>
      <trkpt lat="48.8644" lon="1.40105">
        <ele>60.1</ele>
        <time>2016-03-06T10:47:44Z</time>
      </trkpt>
      <trkpt lat="48.86439" lon="1.4012">
        <ele>60.1</ele>
        <time>2016-03-06T10:47:46Z</time>
      </trkpt>
      <trkpt lat="48.86438" lon="1.40136">
        <ele>60.1</ele>
        <time>2016-03-06T10:47:48Z</time>
      </trkpt>
      <trkpt lat="48.86437" lon="1.40151">
        <ele>60.1</ele>
        <time>2016-03-06T10:47:50Z</time>
      </trkpt>
      <trkpt lat="48.86435" lon="1.40167">
        <ele>60.1</ele>
        <time>2016-03-06T10:47:52Z</time>
      </trkpt>
      <trkpt lat="48.86434" lon="1.40183">
        <ele>60</ele>
        <time>2016-03-06T10:47:54Z</time>
      </trkpt>
      <trkpt lat="48.86433" lon="1.40199">
        <ele>59.9</ele>
        <time>2016-03-06T10:47:56Z</time>
      </trkpt>
      <trkpt lat="48.86432" lon="1.40215">
        <ele>59.9</ele>
        <time>2016-03-06T10:47:58Z</time>
      </trkpt>
      <trkpt lat="48.86432" lon="1.40231">
        <ele>59.8</ele>
        <time>2016-03-06T10:48:00Z</time>
      </trkpt>
      <trkpt lat="48.86433" lon="1.40245">
        <ele>59.7</ele>
        <time>2016-03-06T10:48:02Z</time>
      </trkpt>
      <trkpt lat="48.86439" lon="1.40257">
        <ele>59.6</ele>
        <time>2016-03-06T10:48:04Z</time>
      </trkpt>
      <trkpt lat="48.86446" lon="1.40266">
        <ele>59.6</ele>
        <time>2016-03-06T10:48:06Z</time>
      </trkpt>
      <trkpt lat="48.86455" lon="1.40276">
        <ele>59.6</ele>
        <time>2016-03-06T10:48:09Z</time>
      </trkpt>
      <trkpt lat="48.86462" lon="1.40285">
        <ele>59.6</ele>
        <time>2016-03-06T10:48:12Z</time>
      </trkpt>
      <trkpt lat="48.86471" lon="1.40292">
        <ele>60</ele>
        <time>2016-03-06T10:48:16Z</time>
      </trkpt>
      <trkpt lat="48.86481" lon="1.40297">
        <ele>60.7</ele>
        <time>2016-03-06T10:48:21Z</time>
      </trkpt>
      <trkpt lat="48.8649" lon="1.40304">
        <ele>61.5</ele>
        <time>2016-03-06T10:48:26Z</time>
      </trkpt>
      <trkpt lat="48.86498" lon="1.40314">
        <ele>62.5</ele>
        <time>2016-03-06T10:48:31Z</time>
      </trkpt>
      <trkpt lat="48.86505" lon="1.40323">
        <ele>63.5</ele>
        <time>2016-03-06T10:48:36Z</time>
      </trkpt>
      <trkpt lat="48.86513" lon="1.40333">
        <ele>64.6</ele>
        <time>2016-03-06T10:48:41Z</time>
      </trkpt>
      <trkpt lat="48.8652" lon="1.40342">
        <ele>65.7</ele>
        <time>2016-03-06T10:48:46Z</time>
      </trkpt>
      <trkpt lat="48.86526" lon="1.40353">
        <ele>66.8</ele>
        <time>2016-03-06T10:48:51Z</time>
      </trkpt>
      <trkpt lat="48.86533" lon="1.40362">
        <ele>67.8</ele>
        <time>2016-03-06T10:48:56Z</time>
      </trkpt>
      <trkpt lat="48.8654" lon="1.40373">
        <ele>68.6</ele>
        <time>2016-03-06T10:49:01Z</time>
      </trkpt>
      <trkpt lat="48.86548" lon="1.40383">
        <ele>69.5</ele>
        <time>2016-03-06T10:49:06Z</time>
      </trkpt>
      <trkpt lat="48.86555" lon="1.40394">
        <ele>70.6</ele>
        <time>2016-03-06T10:49:11Z</time>
      </trkpt>
      <trkpt lat="48.86562" lon="1.40405">
        <ele>71.7</ele>
        <time>2016-03-06T10:49:16Z</time>
      </trkpt>
      <trkpt lat="48.8657" lon="1.40414">
        <ele>72.6</ele>
        <time>2016-03-06T10:49:21Z</time>
      </trkpt>
      <trkpt lat="48.86577" lon="1.40426">
        <ele>73.7</ele>
        <time>2016-03-06T10:49:28Z</time>
      </trkpt>
      <trkpt lat="48.86585" lon="1.40436">
        <ele>74.5</ele>
        <time>2016-03-06T10:49:33Z</time>
      </trkpt>
      <trkpt lat="48.86592" lon="1.40445">
        <ele>75.5</ele>
        <time>2016-03-06T10:49:38Z</time>
      </trkpt>
      <trkpt lat="48.866" lon="1.40453">
        <ele>76.6</ele>
        <time>2016-03-06T10:49:43Z</time>
      </trkpt>
      <trkpt lat="48.86606" lon="1.40464">
        <ele>77.8</ele>
        <time>2016-03-06T10:49:49Z</time>
      </trkpt>
      <trkpt lat="48.86612" lon="1.40474">
        <ele>79</ele>
        <time>2016-03-06T10:49:56Z</time>
      </trkpt>
      <trkpt lat="48.86618" lon="1.40487">
        <ele>80.5</ele>
        <time>2016-03-06T10:50:04Z</time>
      </trkpt>
      <trkpt lat="48.86625" lon="1.40499">
        <ele>81.9</ele>
        <time>2016-03-06T10:50:11Z</time>
      </trkpt>
      <trkpt lat="48.8663" lon="1.4051">
        <ele>83</ele>
        <time>2016-03-06T10:50:17Z</time>
      </trkpt>
      <trkpt lat="48.86636" lon="1.40521">
        <ele>84</ele>
        <time>2016-03-06T10:50:23Z</time>
      </trkpt>
      <trkpt lat="48.86642" lon="1.40533">
        <ele>84.9</ele>
        <time>2016-03-06T10:50:29Z</time>
      </trkpt>
      <trkpt lat="48.86646" lon="1.40545">
        <ele>85.9</ele>
        <time>2016-03-06T10:50:35Z</time>
      </trkpt>
      <trkpt lat="48.86653" lon="1.40555">
        <ele>87.2</ele>
        <time>2016-03-06T10:50:42Z</time>
      </trkpt>
      <trkpt lat="48.8666" lon="1.40568">
        <ele>88.5</ele>
        <time>2016-03-06T10:50:49Z</time>
      </trkpt>
      <trkpt lat="48.86665" lon="1.40579">
        <ele>89.5</ele>
        <time>2016-03-06T10:50:55Z</time>
      </trkpt>
      <trkpt lat="48.86671" lon="1.40589">
        <ele>90.5</ele>
        <time>2016-03-06T10:51:01Z</time>
      </trkpt>
      <trkpt lat="48.86678" lon="1.40599">
        <ele>91.5</ele>
        <time>2016-03-06T10:51:07Z</time>
      </trkpt>
      <trkpt lat="48.86683" lon="1.40611">
        <ele>92.8</ele>
        <time>2016-03-06T10:51:13Z</time>
      </trkpt>
      <trkpt lat="48.86688" lon="1.40622">
        <ele>94.4</ele>
        <time>2016-03-06T10:51:20Z</time>
      </trkpt>
      <trkpt lat="48.86694" lon="1.40632">
        <ele>96</ele>
        <time>2016-03-06T10:51:27Z</time>
      </trkpt>
      <trkpt lat="48.86701" lon="1.40643">
        <ele>97.5</ele>
        <time>2016-03-06T10:51:34Z</time>
      </trkpt>
      <trkpt lat="48.86708" lon="1.40654">
        <ele>99.1</ele>
        <time>2016-03-06T10:51:42Z</time>
      </trkpt>
      <trkpt lat="48.86716" lon="1.40665">
        <ele>102.3</ele>
        <time>2016-03-06T10:54:33Z</time>
      </trkpt>
      <trkpt lat="48.86723" lon="1.40677">
        <ele>102.5</ele>
        <time>2016-03-06T10:54:39Z</time>
      </trkpt>
      <trkpt lat="48.86728" lon="1.40692">
        <ele>102.9</ele>
        <time>2016-03-06T10:54:45Z</time>
      </trkpt>
      <trkpt lat="48.86731" lon="1.40706">
        <ele>103.3</ele>
        <time>2016-03-06T10:54:50Z</time>
      </trkpt>
      <trkpt lat="48.86733" lon="1.4072">
        <ele>103.7</ele>
        <time>2016-03-06T10:54:55Z</time>
      </trkpt>
      <trkpt lat="48.86735" lon="1.40736">
        <ele>104.2</ele>
        <time>2016-03-06T10:55:00Z</time>
      </trkpt>
      <trkpt lat="48.86735" lon="1.4075">
        <ele>104.8</ele>
        <time>2016-03-06T10:55:05Z</time>
      </trkpt>
      <trkpt lat="48.86736" lon="1.40764">
        <ele>105.3</ele>
        <time>2016-03-06T10:55:09Z</time>
      </trkpt>
      <trkpt lat="48.8674" lon="1.40779">
        <ele>105.7</ele>
        <time>2016-03-06T10:55:13Z</time>
      </trkpt>
      <trkpt lat="48.86746" lon="1.4079">
        <ele>106</ele>
        <time>2016-03-06T10:55:17Z</time>
      </trkpt>
      <trkpt lat="48.86754" lon="1.40798">
        <ele>106.2</ele>
        <time>2016-03-06T10:55:21Z</time>
      </trkpt>
      <trkpt lat="48.86765" lon="1.40809">
        <ele>106.4</ele>
        <time>2016-03-06T10:55:25Z</time>
      </trkpt>
      <trkpt lat="48.86772" lon="1.4082">
        <ele>106.5</ele>
        <time>2016-03-06T10:55:28Z</time>
      </trkpt>
      <trkpt lat="48.86781" lon="1.40831">
        <ele>106.6</ele>
        <time>2016-03-06T10:55:31Z</time>
      </trkpt>
      <trkpt lat="48.86789" lon="1.40839">
        <ele>106.7</ele>
        <time>2016-03-06T10:55:34Z</time>
      </trkpt>
      <trkpt lat="48.86797" lon="1.40848">
        <ele>106.8</ele>
        <time>2016-03-06T10:55:39Z</time>
      </trkpt>
      <trkpt lat="48.86805" lon="1.40854">
        <ele>107.2</ele>
        <time>2016-03-06T10:55:44Z</time>
      </trkpt>
      <trkpt lat="48.86816" lon="1.4085">
        <ele>107.8</ele>
        <time>2016-03-06T10:55:49Z</time>
      </trkpt>
      <trkpt lat="48.86825" lon="1.40845">
        <ele>108.1</ele>
        <time>2016-03-06T10:55:52Z</time>
      </trkpt>
      <trkpt lat="48.86836" lon="1.4084">
        <ele>108.3</ele>
        <time>2016-03-06T10:55:55Z</time>
      </trkpt>
      <trkpt lat="48.86847" lon="1.40835">
        <ele>108.4</ele>
        <time>2016-03-06T10:55:58Z</time>
      </trkpt>
      <trkpt lat="48.86856" lon="1.4083">
        <ele>108.5</ele>
        <time>2016-03-06T10:56:01Z</time>
      </trkpt>
      <trkpt lat="48.86868" lon="1.40826">
        <ele>108.6</ele>
        <time>2016-03-06T10:56:06Z</time>
      </trkpt>
      <trkpt lat="48.86879" lon="1.40821">
        <ele>108.7</ele>
        <time>2016-03-06T10:56:10Z</time>
      </trkpt>
      <trkpt lat="48.86888" lon="1.40817">
        <ele>108.8</ele>
        <time>2016-03-06T10:56:14Z</time>
      </trkpt>
      <trkpt lat="48.869" lon="1.40815">
        <ele>108.9</ele>
        <time>2016-03-06T10:56:18Z</time>
      </trkpt>
      <trkpt lat="48.8691" lon="1.40815">
        <ele>109</ele>
        <time>2016-03-06T10:56:22Z</time>
      </trkpt>
      <trkpt lat="48.86921" lon="1.40813">
        <ele>109.1</ele>
        <time>2016-03-06T10:56:26Z</time>
      </trkpt>
      <trkpt lat="48.8693" lon="1.40809">
        <ele>109.2</ele>
        <time>2016-03-06T10:56:29Z</time>
      </trkpt>
      <trkpt lat="48.8694" lon="1.40805">
        <ele>109.3</ele>
        <time>2016-03-06T10:56:33Z</time>
      </trkpt>
      <trkpt lat="48.8695" lon="1.40803">
        <ele>109.5</ele>
        <time>2016-03-06T10:56:37Z</time>
      </trkpt>
      <trkpt lat="48.8696" lon="1.40802">
        <ele>109.7</ele>
        <time>2016-03-06T10:56:41Z</time>
      </trkpt>
      <trkpt lat="48.8697" lon="1.40804">
        <ele>110</ele>
        <time>2016-03-06T10:56:45Z</time>
      </trkpt>
      <trkpt lat="48.8698" lon="1.40812">
        <ele>110.4</ele>
        <time>2016-03-06T10:56:49Z</time>
      </trkpt>
      <trkpt lat="48.8699" lon="1.40821">
        <ele>110.8</ele>
        <time>2016-03-06T10:56:53Z</time>
      </trkpt>
      <trkpt lat="48.86999" lon="1.40827">
        <ele>111.1</ele>
        <time>2016-03-06T10:56:56Z</time>
      </trkpt>
      <trkpt lat="48.87007" lon="1.40835">
        <ele>111.4</ele>
        <time>2016-03-06T10:56:59Z</time>
      </trkpt>
      <trkpt lat="48.87015" lon="1.40842">
        <ele>111.7</ele>
        <time>2016-03-06T10:57:02Z</time>
      </trkpt>
      <trkpt lat="48.87022" lon="1.40852">
        <ele>112.1</ele>
        <time>2016-03-06T10:57:06Z</time>
      </trkpt>
      <trkpt lat="48.87031" lon="1.4086">
        <ele>112.5</ele>
        <time>2016-03-06T10:57:10Z</time>
      </trkpt>
      <trkpt lat="48.87041" lon="1.40868">
        <ele>112.9</ele>
        <time>2016-03-06T10:57:14Z</time>
      </trkpt>
      <trkpt lat="48.87051" lon="1.40876">
        <ele>113.3</ele>
        <time>2016-03-06T10:57:18Z</time>
      </trkpt>
      <trkpt lat="48.8706" lon="1.40879">
        <ele>113.6</ele>
        <time>2016-03-06T10:57:23Z</time>
      </trkpt>
      <trkpt lat="48.87072" lon="1.40884">
        <ele>113.9</ele>
        <time>2016-03-06T10:57:28Z</time>
      </trkpt>
      <trkpt lat="48.87081" lon="1.40887">
        <ele>114.1</ele>
        <time>2016-03-06T10:57:31Z</time>
      </trkpt>
      <trkpt lat="48.87091" lon="1.40891">
        <ele>114.2</ele>
        <time>2016-03-06T10:57:35Z</time>
      </trkpt>
      <trkpt lat="48.87102" lon="1.40895">
        <ele>114.3</ele>
        <time>2016-03-06T10:57:38Z</time>
      </trkpt>
      <trkpt lat="48.87116" lon="1.40901">
        <ele>114.4</ele>
        <time>2016-03-06T10:57:41Z</time>
      </trkpt>
      <trkpt lat="48.87126" lon="1.40907">
        <ele>114.4</ele>
        <time>2016-03-06T10:57:43Z</time>
      </trkpt>
      <trkpt lat="48.87138" lon="1.40914">
        <ele>114.4</ele>
        <time>2016-03-06T10:57:46Z</time>
      </trkpt>
      <trkpt lat="48.87146" lon="1.40924">
        <ele>114.3</ele>
        <time>2016-03-06T10:57:49Z</time>
      </trkpt>
      <trkpt lat="48.87154" lon="1.40936">
        <ele>114.3</ele>
        <time>2016-03-06T10:57:53Z</time>
      </trkpt>
      <trkpt lat="48.87163" lon="1.40945">
        <ele>114.2</ele>
        <time>2016-03-06T10:57:56Z</time>
      </trkpt>
      <trkpt lat="48.87171" lon="1.40955">
        <ele>114.2</ele>
        <time>2016-03-06T10:57:59Z</time>
      </trkpt>
      <trkpt lat="48.87181" lon="1.40961">
        <ele>114.1</ele>
        <time>2016-03-06T10:58:04Z</time>
      </trkpt>
      <trkpt lat="48.8719" lon="1.40964">
        <ele>114</ele>
        <time>2016-03-06T10:58:08Z</time>
      </trkpt>
      <trkpt lat="48.87202" lon="1.40969">
        <ele>113.8</ele>
        <time>2016-03-06T10:58:12Z</time>
      </trkpt>
      <trkpt lat="48.87211" lon="1.40971">
        <ele>113.7</ele>
        <time>2016-03-06T10:58:16Z</time>
      </trkpt>
      <trkpt lat="48.8722" lon="1.40974">
        <ele>113.6</ele>
        <time>2016-03-06T10:58:20Z</time>
      </trkpt>
      <trkpt lat="48.8723" lon="1.40975">
        <ele>113.5</ele>
        <time>2016-03-06T10:58:23Z</time>
      </trkpt>
      <trkpt lat="48.87239" lon="1.40978">
        <ele>113.4</ele>
        <time>2016-03-06T10:58:27Z</time>
      </trkpt>
      <trkpt lat="48.8725" lon="1.4098">
        <ele>113.4</ele>
        <time>2016-03-06T10:58:30Z</time>
      </trkpt>
      <trkpt lat="48.87261" lon="1.40984">
        <ele>113.5</ele>
        <time>2016-03-06T10:58:33Z</time>
      </trkpt>
      <trkpt lat="48.87271" lon="1.40992">
        <ele>113.6</ele>
        <time>2016-03-06T10:58:36Z</time>
      </trkpt>
      <trkpt lat="48.8728" lon="1.40997">
        <ele>113.6</ele>
        <time>2016-03-06T10:58:39Z</time>
      </trkpt>
      <trkpt lat="48.8729" lon="1.41002">
        <ele>113.7</ele>
        <time>2016-03-06T10:58:42Z</time>
      </trkpt>
      <trkpt lat="48.87299" lon="1.41">
        <ele>113.8</ele>
        <time>2016-03-06T10:58:45Z</time>
      </trkpt>
      <trkpt lat="48.87307" lon="1.40988">
        <ele>114</ele>
        <time>2016-03-06T10:58:49Z</time>
      </trkpt>
      <trkpt lat="48.87313" lon="1.40975">
        <ele>114.1</ele>
        <time>2016-03-06T10:58:53Z</time>
      </trkpt>
      <trkpt lat="48.87319" lon="1.40963">
        <ele>114.1</ele>
        <time>2016-03-06T10:58:56Z</time>
      </trkpt>
      <trkpt lat="48.87325" lon="1.40948">
        <ele>114.2</ele>
        <time>2016-03-06T10:58:59Z</time>
      </trkpt>
      <trkpt lat="48.8733" lon="1.40932">
        <ele>114</ele>
        <time>2016-03-06T10:59:02Z</time>
      </trkpt>
      <trkpt lat="48.87336" lon="1.40916">
        <ele>113.8</ele>
        <time>2016-03-06T10:59:05Z</time>
      </trkpt>
      <trkpt lat="48.8734" lon="1.40903">
        <ele>113.5</ele>
        <time>2016-03-06T10:59:07Z</time>
      </trkpt>
      <trkpt lat="48.87345" lon="1.40889">
        <ele>113.2</ele>
        <time>2016-03-06T10:59:09Z</time>
      </trkpt>
      <trkpt lat="48.87349" lon="1.40875">
        <ele>112.9</ele>
        <time>2016-03-06T10:59:11Z</time>
      </trkpt>
      <trkpt lat="48.87355" lon="1.4086">
        <ele>112.5</ele>
        <time>2016-03-06T10:59:13Z</time>
      </trkpt>
      <trkpt lat="48.87361" lon="1.4084">
        <ele>112</ele>
        <time>2016-03-06T10:59:15Z</time>
      </trkpt>
      <trkpt lat="48.87365" lon="1.40817">
        <ele>111.3</ele>
        <time>2016-03-06T10:59:17Z</time>
      </trkpt>
      <trkpt lat="48.87368" lon="1.40794">
        <ele>110.6</ele>
        <time>2016-03-06T10:59:19Z</time>
      </trkpt>
      <trkpt lat="48.87371" lon="1.40772">
        <ele>109.7</ele>
        <time>2016-03-06T10:59:21Z</time>
      </trkpt>
      <trkpt lat="48.87376" lon="1.40755">
        <ele>108.9</ele>
        <time>2016-03-06T10:59:23Z</time>
      </trkpt>
      <trkpt lat="48.87382" lon="1.40739">
        <ele>107.5</ele>
        <time>2016-03-06T10:59:26Z</time>
      </trkpt>
      <trkpt lat="48.87388" lon="1.40725">
        <ele>105.9</ele>
        <time>2016-03-06T10:59:29Z</time>
      </trkpt>
      <trkpt lat="48.87393" lon="1.40709">
        <ele>104.8</ele>
        <time>2016-03-06T10:59:31Z</time>
      </trkpt>
      <trkpt lat="48.87398" lon="1.40697">
        <ele>103.7</ele>
        <time>2016-03-06T10:59:33Z</time>
      </trkpt>
      <trkpt lat="48.87403" lon="1.4068">
        <ele>102.6</ele>
        <time>2016-03-06T10:59:35Z</time>
      </trkpt>
      <trkpt lat="48.87409" lon="1.40663">
        <ele>101.4</ele>
        <time>2016-03-06T10:59:37Z</time>
      </trkpt>
      <trkpt lat="48.87416" lon="1.40646">
        <ele>100.1</ele>
        <time>2016-03-06T10:59:39Z</time>
      </trkpt>
      <trkpt lat="48.8742" lon="1.40629">
        <ele>98.9</ele>
        <time>2016-03-06T10:59:41Z</time>
      </trkpt>
      <trkpt lat="48.87423" lon="1.4061">
        <ele>97.7</ele>
        <time>2016-03-06T10:59:43Z</time>
      </trkpt>
      <trkpt lat="48.87425" lon="1.40593">
        <ele>96.6</ele>
        <time>2016-03-06T10:59:45Z</time>
      </trkpt>
      <trkpt lat="48.87428" lon="1.40578">
        <ele>95.2</ele>
        <time>2016-03-06T10:59:48Z</time>
      </trkpt>
      <trkpt lat="48.87431" lon="1.40564">
        <ele>94</ele>
        <time>2016-03-06T10:59:51Z</time>
      </trkpt>
      <trkpt lat="48.87435" lon="1.40548">
        <ele>93</ele>
        <time>2016-03-06T10:59:54Z</time>
      </trkpt>
      <trkpt lat="48.87436" lon="1.40532">
        <ele>92.1</ele>
        <time>2016-03-06T10:59:57Z</time>
      </trkpt>
      <trkpt lat="48.87436" lon="1.40517">
        <ele>91.4</ele>
        <time>2016-03-06T11:00:00Z</time>
      </trkpt>
      <trkpt lat="48.87441" lon="1.40505">
        <ele>90.9</ele>
        <time>2016-03-06T11:00:04Z</time>
      </trkpt>
      <trkpt lat="48.87445" lon="1.40493">
        <ele>90.8</ele>
        <time>2016-03-06T11:00:08Z</time>
      </trkpt>
      <trkpt lat="48.87445" lon="1.40478">
        <ele>91.1</ele>
        <time>2016-03-06T11:00:13Z</time>
      </trkpt>
      <trkpt lat="48.8745" lon="1.40465">
        <ele>91.5</ele>
        <time>2016-03-06T11:00:19Z</time>
      </trkpt>
      <trkpt lat="48.87452" lon="1.40451">
        <ele>92.4</ele>
        <time>2016-03-06T11:00:25Z</time>
      </trkpt>
      <trkpt lat="48.87454" lon="1.40436">
        <ele>93.6</ele>
        <time>2016-03-06T11:00:31Z</time>
      </trkpt>
      <trkpt lat="48.87458" lon="1.40423">
        <ele>94.9</ele>
        <time>2016-03-06T11:00:37Z</time>
      </trkpt>
      <trkpt lat="48.87462" lon="1.40409">
        <ele>95.9</ele>
        <time>2016-03-06T11:00:42Z</time>
      </trkpt>
      <trkpt lat="48.87468" lon="1.40395">
        <ele>96.6</ele>
        <time>2016-03-06T11:00:47Z</time>
      </trkpt>
      <trkpt lat="48.87474" lon="1.40381">
        <ele>97</ele>
        <time>2016-03-06T11:00:51Z</time>
      </trkpt>
      <trkpt lat="48.87476" lon="1.40367">
        <ele>97.4</ele>
        <time>2016-03-06T11:00:54Z</time>
      </trkpt>
      <trkpt lat="48.8748" lon="1.40352">
        <ele>97.8</ele>
        <time>2016-03-06T11:00:58Z</time>
      </trkpt>
      <trkpt lat="48.87483" lon="1.40337">
        <ele>98.2</ele>
        <time>2016-03-06T11:01:02Z</time>
      </trkpt>
      <trkpt lat="48.87487" lon="1.40321">
        <ele>98.6</ele>
        <time>2016-03-06T11:01:06Z</time>
      </trkpt>
      <trkpt lat="48.87492" lon="1.40305">
        <ele>99</ele>
        <time>2016-03-06T11:01:10Z</time>
      </trkpt>
      <trkpt lat="48.87496" lon="1.4029">
        <ele>99.4</ele>
        <time>2016-03-06T11:01:14Z</time>
      </trkpt>
      <trkpt lat="48.87501" lon="1.40277">
        <ele>99.6</ele>
        <time>2016-03-06T11:01:18Z</time>
      </trkpt>
      <trkpt lat="48.87502" lon="1.40263">
        <ele>99.8</ele>
        <time>2016-03-06T11:01:21Z</time>
      </trkpt>
      <trkpt lat="48.87506" lon="1.40246">
        <ele>100</ele>
        <time>2016-03-06T11:01:25Z</time>
      </trkpt>
      <trkpt lat="48.8751" lon="1.40229">
        <ele>100.2</ele>
        <time>2016-03-06T11:01:29Z</time>
      </trkpt>
      <trkpt lat="48.87517" lon="1.40216">
        <ele>100.6</ele>
        <time>2016-03-06T11:01:33Z</time>
      </trkpt>
      <trkpt lat="48.87521" lon="1.402">
        <ele>101.2</ele>
        <time>2016-03-06T11:01:37Z</time>
      </trkpt>
      <trkpt lat="48.87523" lon="1.40185">
        <ele>101.7</ele>
        <time>2016-03-06T11:01:41Z</time>
      </trkpt>
      <trkpt lat="48.87526" lon="1.40168">
        <ele>102.4</ele>
        <time>2016-03-06T11:01:46Z</time>
      </trkpt>
      <trkpt lat="48.87528" lon="1.40154">
        <ele>103.1</ele>
        <time>2016-03-06T11:01:50Z</time>
      </trkpt>
      <trkpt lat="48.8753" lon="1.4014">
        <ele>103.8</ele>
        <time>2016-03-06T11:01:54Z</time>
      </trkpt>
      <trkpt lat="48.87535" lon="1.40128">
        <ele>104.6</ele>
        <time>2016-03-06T11:01:58Z</time>
      </trkpt>
      <trkpt lat="48.87539" lon="1.40113">
        <ele>105.3</ele>
        <time>2016-03-06T11:02:02Z</time>
      </trkpt>
      <trkpt lat="48.87541" lon="1.40099">
        <ele>105.9</ele>
        <time>2016-03-06T11:02:06Z</time>
      </trkpt>
      <trkpt lat="48.87545" lon="1.40086">
        <ele>106.6</ele>
        <time>2016-03-06T11:02:10Z</time>
      </trkpt>
      <trkpt lat="48.87548" lon="1.40072">
        <ele>107.4</ele>
        <time>2016-03-06T11:02:14Z</time>
      </trkpt>
      <trkpt lat="48.87553" lon="1.40059">
        <ele>108</ele>
        <time>2016-03-06T11:02:18Z</time>
      </trkpt>
      <trkpt lat="48.87556" lon="1.40044">
        <ele>108.6</ele>
        <time>2016-03-06T11:02:22Z</time>
      </trkpt>
      <trkpt lat="48.8756" lon="1.40029">
        <ele>109.4</ele>
        <time>2016-03-06T11:02:26Z</time>
      </trkpt>
      <trkpt lat="48.87564" lon="1.40014">
        <ele>110.1</ele>
        <time>2016-03-06T11:02:30Z</time>
      </trkpt>
      <trkpt lat="48.87569" lon="1.39999">
        <ele>110.9</ele>
        <time>2016-03-06T11:02:34Z</time>
      </trkpt>
      <trkpt lat="48.87572" lon="1.39984">
        <ele>111.6</ele>
        <time>2016-03-06T11:02:38Z</time>
      </trkpt>
      <trkpt lat="48.87576" lon="1.39969">
        <ele>112.2</ele>
        <time>2016-03-06T11:02:42Z</time>
      </trkpt>
      <trkpt lat="48.87578" lon="1.39953">
        <ele>112.8</ele>
        <time>2016-03-06T11:02:46Z</time>
      </trkpt>
      <trkpt lat="48.87582" lon="1.39936">
        <ele>113.2</ele>
        <time>2016-03-06T11:02:50Z</time>
      </trkpt>
      <trkpt lat="48.87586" lon="1.3992">
        <ele>113.7</ele>
        <time>2016-03-06T11:02:54Z</time>
      </trkpt>
      <trkpt lat="48.87591" lon="1.39904">
        <ele>114.1</ele>
        <time>2016-03-06T11:02:58Z</time>
      </trkpt>
      <trkpt lat="48.87594" lon="1.39889">
        <ele>114.5</ele>
        <time>2016-03-06T11:03:02Z</time>
      </trkpt>
      <trkpt lat="48.87597" lon="1.39872">
        <ele>114.8</ele>
        <time>2016-03-06T11:03:06Z</time>
      </trkpt>
      <trkpt lat="48.87599" lon="1.39855">
        <ele>115.2</ele>
        <time>2016-03-06T11:03:10Z</time>
      </trkpt>
      <trkpt lat="48.87605" lon="1.39839">
        <ele>115.6</ele>
        <time>2016-03-06T11:03:14Z</time>
      </trkpt>
      <trkpt lat="48.87608" lon="1.39826">
        <ele>115.9</ele>
        <time>2016-03-06T11:03:17Z</time>
      </trkpt>
      <trkpt lat="48.87612" lon="1.39813">
        <ele>116.1</ele>
        <time>2016-03-06T11:03:20Z</time>
      </trkpt>
      <trkpt lat="48.87615" lon="1.39798">
        <ele>116.2</ele>
        <time>2016-03-06T11:03:23Z</time>
      </trkpt>
      <trkpt lat="48.87618" lon="1.39783">
        <ele>116.4</ele>
        <time>2016-03-06T11:03:26Z</time>
      </trkpt>
      <trkpt lat="48.87622" lon="1.39767">
        <ele>116.7</ele>
        <time>2016-03-06T11:03:29Z</time>
      </trkpt>
      <trkpt lat="48.87627" lon="1.39748">
        <ele>116</ele>
        <time>2016-03-06T11:03:33Z</time>
      </trkpt>
      <trkpt lat="48.87631" lon="1.39735">
        <ele>117.3</ele>
        <time>2016-03-06T11:03:36Z</time>
      </trkpt>
      <trkpt lat="48.87636" lon="1.39721">
        <ele>117.7</ele>
        <time>2016-03-06T11:03:39Z</time>
      </trkpt>
      <trkpt lat="48.8764" lon="1.39706">
        <ele>118</ele>
        <time>2016-03-06T11:03:42Z</time>
      </trkpt>
      <trkpt lat="48.87642" lon="1.39691">
        <ele>118.3</ele>
        <time>2016-03-06T11:03:45Z</time>
      </trkpt>
      <trkpt lat="48.87647" lon="1.39676">
        <ele>118.6</ele>
        <time>2016-03-06T11:03:48Z</time>
      </trkpt>
      <trkpt lat="48.8765" lon="1.39661">
        <ele>118.9</ele>
        <time>2016-03-06T11:03:51Z</time>
      </trkpt>
      <trkpt lat="48.87656" lon="1.39648">
        <ele>119.1</ele>
        <time>2016-03-06T11:03:54Z</time>
      </trkpt>
      <trkpt lat="48.87659" lon="1.39633">
        <ele>119.4</ele>
        <time>2016-03-06T11:03:57Z</time>
      </trkpt>
      <trkpt lat="48.87664" lon="1.3962">
        <ele>119.8</ele>
        <time>2016-03-06T11:04:00Z</time>
      </trkpt>
      <trkpt lat="48.87665" lon="1.39604">
        <ele>120</ele>
        <time>2016-03-06T11:04:03Z</time>
      </trkpt>
      <trkpt lat="48.87669" lon="1.39591">
        <ele>120.3</ele>
        <time>2016-03-06T11:04:06Z</time>
      </trkpt>
      <trkpt lat="48.87672" lon="1.39575">
        <ele>120.5</ele>
        <time>2016-03-06T11:04:09Z</time>
      </trkpt>
      <trkpt lat="48.87674" lon="1.39558">
        <ele>120.6</ele>
        <time>2016-03-06T11:04:12Z</time>
      </trkpt>
      <trkpt lat="48.87678" lon="1.39541">
        <ele>120.7</ele>
        <time>2016-03-06T11:04:15Z</time>
      </trkpt>
      <trkpt lat="48.87682" lon="1.39524">
        <ele>120.9</ele>
        <time>2016-03-06T11:04:18Z</time>
      </trkpt>
      <trkpt lat="48.87687" lon="1.39508">
        <ele>121</ele>
        <time>2016-03-06T11:04:21Z</time>
      </trkpt>
      <trkpt lat="48.87692" lon="1.39493">
        <ele>121</ele>
        <time>2016-03-06T11:04:24Z</time>
      </trkpt>
      <trkpt lat="48.87696" lon="1.39474">
        <ele>121.2</ele>
        <time>2016-03-06T11:04:27Z</time>
      </trkpt>
      <trkpt lat="48.87699" lon="1.39455">
        <ele>121.3</ele>
        <time>2016-03-06T11:04:30Z</time>
      </trkpt>
      <trkpt lat="48.87704" lon="1.39439">
        <ele>121.4</ele>
        <time>2016-03-06T11:04:33Z</time>
      </trkpt>
      <trkpt lat="48.87708" lon="1.39421">
        <ele>121.5</ele>
        <time>2016-03-06T11:04:36Z</time>
      </trkpt>
      <trkpt lat="48.87712" lon="1.39404">
        <ele>121.7</ele>
        <time>2016-03-06T11:04:39Z</time>
      </trkpt>
      <trkpt lat="48.87716" lon="1.39387">
        <ele>121.8</ele>
        <time>2016-03-06T11:04:42Z</time>
      </trkpt>
      <trkpt lat="48.8772" lon="1.3937">
        <ele>122</ele>
        <time>2016-03-06T11:04:45Z</time>
      </trkpt>
      <trkpt lat="48.87726" lon="1.39354">
        <ele>122.1</ele>
        <time>2016-03-06T11:04:48Z</time>
      </trkpt>
      <trkpt lat="48.87733" lon="1.39339">
        <ele>122.2</ele>
        <time>2016-03-06T11:04:51Z</time>
      </trkpt>
      <trkpt lat="48.87736" lon="1.39322">
        <ele>122.2</ele>
        <time>2016-03-06T11:04:54Z</time>
      </trkpt>
      <trkpt lat="48.87739" lon="1.39305">
        <ele>122.3</ele>
        <time>2016-03-06T11:04:57Z</time>
      </trkpt>
      <trkpt lat="48.87742" lon="1.39289">
        <ele>122.4</ele>
        <time>2016-03-06T11:05:00Z</time>
      </trkpt>
      <trkpt lat="48.87747" lon="1.39274">
        <ele>122.5</ele>
        <time>2016-03-06T11:05:03Z</time>
      </trkpt>
      <trkpt lat="48.87753" lon="1.39258">
        <ele>122.5</ele>
        <time>2016-03-06T11:05:06Z</time>
      </trkpt>
      <trkpt lat="48.87757" lon="1.39242">
        <ele>122.6</ele>
        <time>2016-03-06T11:05:09Z</time>
      </trkpt>
      <trkpt lat="48.87762" lon="1.39226">
        <ele>122.6</ele>
        <time>2016-03-06T11:05:12Z</time>
      </trkpt>
      <trkpt lat="48.87764" lon="1.39211">
        <ele>122.7</ele>
        <time>2016-03-06T11:05:15Z</time>
      </trkpt>
      <trkpt lat="48.87765" lon="1.39195">
        <ele>122.7</ele>
        <time>2016-03-06T11:05:18Z</time>
      </trkpt>
      <trkpt lat="48.87767" lon="1.39179">
        <ele>122.6</ele>
        <time>2016-03-06T11:05:21Z</time>
      </trkpt>
      <trkpt lat="48.87771" lon="1.39165">
        <ele>122.6</ele>
        <time>2016-03-06T11:05:24Z</time>
      </trkpt>
      <trkpt lat="48.87773" lon="1.39149">
        <ele>122.6</ele>
        <time>2016-03-06T11:05:27Z</time>
      </trkpt>
      <trkpt lat="48.87778" lon="1.39133">
        <ele>122.7</ele>
        <time>2016-03-06T11:05:30Z</time>
      </trkpt>
      <trkpt lat="48.87783" lon="1.39117">
        <ele>122.7</ele>
        <time>2016-03-06T11:05:33Z</time>
      </trkpt>
      <trkpt lat="48.87787" lon="1.391">
        <ele>122.8</ele>
        <time>2016-03-06T11:05:36Z</time>
      </trkpt>
      <trkpt lat="48.87792" lon="1.39083">
        <ele>122.8</ele>
        <time>2016-03-06T11:05:39Z</time>
      </trkpt>
      <trkpt lat="48.87797" lon="1.39065">
        <ele>122.8</ele>
        <time>2016-03-06T11:05:42Z</time>
      </trkpt>
      <trkpt lat="48.878" lon="1.39047">
        <ele>122.8</ele>
        <time>2016-03-06T11:05:45Z</time>
      </trkpt>
      <trkpt lat="48.87805" lon="1.39028">
        <ele>122.6</ele>
        <time>2016-03-06T11:05:48Z</time>
      </trkpt>
      <trkpt lat="48.87809" lon="1.39009">
        <ele>122.5</ele>
        <time>2016-03-06T11:05:51Z</time>
      </trkpt>
      <trkpt lat="48.87812" lon="1.38996">
        <ele>122.5</ele>
        <time>2016-03-06T11:05:53Z</time>
      </trkpt>
      <trkpt lat="48.87815" lon="1.38983">
        <ele>122.5</ele>
        <time>2016-03-06T11:05:55Z</time>
      </trkpt>
      <trkpt lat="48.8782" lon="1.38971">
        <ele>122.5</ele>
        <time>2016-03-06T11:05:57Z</time>
      </trkpt>
      <trkpt lat="48.87823" lon="1.38957">
        <ele>122.4</ele>
        <time>2016-03-06T11:05:59Z</time>
      </trkpt>
      <trkpt lat="48.87826" lon="1.38942">
        <ele>122.3</ele>
        <time>2016-03-06T11:06:01Z</time>
      </trkpt>
      <trkpt lat="48.87831" lon="1.38928">
        <ele>122.2</ele>
        <time>2016-03-06T11:06:03Z</time>
      </trkpt>
      <trkpt lat="48.87834" lon="1.38913">
        <ele>122.1</ele>
        <time>2016-03-06T11:06:05Z</time>
      </trkpt>
      <trkpt lat="48.87838" lon="1.38898">
        <ele>122</ele>
        <time>2016-03-06T11:06:07Z</time>
      </trkpt>
      <trkpt lat="48.87842" lon="1.38884">
        <ele>121.8</ele>
        <time>2016-03-06T11:06:09Z</time>
      </trkpt>
      <trkpt lat="48.87845" lon="1.3887">
        <ele>121.6</ele>
        <time>2016-03-06T11:06:11Z</time>
      </trkpt>
      <trkpt lat="48.8785" lon="1.38853">
        <ele>121.4</ele>
        <time>2016-03-06T11:06:14Z</time>
      </trkpt>
      <trkpt lat="48.87853" lon="1.38837">
        <ele>121.3</ele>
        <time>2016-03-06T11:06:17Z</time>
      </trkpt>
      <trkpt lat="48.87856" lon="1.38821">
        <ele>121.1</ele>
        <time>2016-03-06T11:06:20Z</time>
      </trkpt>
      <trkpt lat="48.8786" lon="1.38805">
        <ele>121</ele>
        <time>2016-03-06T11:06:23Z</time>
      </trkpt>
      <trkpt lat="48.87866" lon="1.38791">
        <ele>120.9</ele>
        <time>2016-03-06T11:06:26Z</time>
      </trkpt>
      <trkpt lat="48.87868" lon="1.38774">
        <ele>121</ele>
        <time>2016-03-06T11:06:29Z</time>
      </trkpt>
      <trkpt lat="48.87872" lon="1.38755">
        <ele>121.1</ele>
        <time>2016-03-06T11:06:32Z</time>
      </trkpt>
      <trkpt lat="48.87875" lon="1.38737">
        <ele>121.1</ele>
        <time>2016-03-06T11:06:35Z</time>
      </trkpt>
      <trkpt lat="48.87882" lon="1.3872">
        <ele>121.1</ele>
        <time>2016-03-06T11:06:38Z</time>
      </trkpt>
      <trkpt lat="48.87886" lon="1.38702">
        <ele>121.1</ele>
        <time>2016-03-06T11:06:41Z</time>
      </trkpt>
      <trkpt lat="48.87891" lon="1.38684">
        <ele>121.1</ele>
        <time>2016-03-06T11:06:44Z</time>
      </trkpt>
      <trkpt lat="48.87894" lon="1.38666">
        <ele>121.1</ele>
        <time>2016-03-06T11:06:47Z</time>
      </trkpt>
      <trkpt lat="48.87898" lon="1.38649">
        <ele>121.2</ele>
        <time>2016-03-06T11:06:50Z</time>
      </trkpt>
      <trkpt lat="48.87904" lon="1.38631">
        <ele>121.2</ele>
        <time>2016-03-06T11:06:53Z</time>
      </trkpt>
      <trkpt lat="48.87908" lon="1.38611">
        <ele>121.3</ele>
        <time>2016-03-06T11:06:56Z</time>
      </trkpt>
      <trkpt lat="48.87912" lon="1.38598">
        <ele>121.3</ele>
        <time>2016-03-06T11:06:58Z</time>
      </trkpt>
      <trkpt lat="48.87916" lon="1.38585">
        <ele>121.3</ele>
        <time>2016-03-06T11:07:00Z</time>
      </trkpt>
      <trkpt lat="48.87919" lon="1.38571">
        <ele>121.3</ele>
        <time>2016-03-06T11:07:02Z</time>
      </trkpt>
      <trkpt lat="48.87921" lon="1.38558">
        <ele>121.3</ele>
        <time>2016-03-06T11:07:04Z</time>
      </trkpt>
      <trkpt lat="48.87924" lon="1.38545">
        <ele>121.3</ele>
        <time>2016-03-06T11:07:06Z</time>
      </trkpt>
      <trkpt lat="48.87926" lon="1.38531">
        <ele>121.3</ele>
        <time>2016-03-06T11:07:08Z</time>
      </trkpt>
      <trkpt lat="48.87929" lon="1.38518">
        <ele>121.3</ele>
        <time>2016-03-06T11:07:10Z</time>
      </trkpt>
      <trkpt lat="48.87933" lon="1.38504">
        <ele>121.3</ele>
        <time>2016-03-06T11:07:12Z</time>
      </trkpt>
      <trkpt lat="48.87936" lon="1.3849">
        <ele>121.2</ele>
        <time>2016-03-06T11:07:14Z</time>
      </trkpt>
      <trkpt lat="48.87939" lon="1.38476">
        <ele>121.2</ele>
        <time>2016-03-06T11:07:16Z</time>
      </trkpt>
      <trkpt lat="48.87942" lon="1.38462">
        <ele>121.2</ele>
        <time>2016-03-06T11:07:18Z</time>
      </trkpt>
      <trkpt lat="48.87947" lon="1.38448">
        <ele>121.1</ele>
        <time>2016-03-06T11:07:20Z</time>
      </trkpt>
      <trkpt lat="48.8795" lon="1.38433">
        <ele>120.9</ele>
        <time>2016-03-06T11:07:22Z</time>
      </trkpt>
      <trkpt lat="48.87954" lon="1.38419">
        <ele>120.7</ele>
        <time>2016-03-06T11:07:24Z</time>
      </trkpt>
      <trkpt lat="48.87958" lon="1.38405">
        <ele>120.6</ele>
        <time>2016-03-06T11:07:26Z</time>
      </trkpt>
      <trkpt lat="48.87962" lon="1.38391">
        <ele>120.4</ele>
        <time>2016-03-06T11:07:28Z</time>
      </trkpt>
      <trkpt lat="48.87965" lon="1.38378">
        <ele>120.2</ele>
        <time>2016-03-06T11:07:30Z</time>
      </trkpt>
      <trkpt lat="48.8797" lon="1.38359">
        <ele>119.9</ele>
        <time>2016-03-06T11:07:33Z</time>
      </trkpt>
      <trkpt lat="48.87973" lon="1.38345">
        <ele>119.8</ele>
        <time>2016-03-06T11:07:35Z</time>
      </trkpt>
      <trkpt lat="48.87978" lon="1.38326">
        <ele>119.6</ele>
        <time>2016-03-06T11:07:38Z</time>
      </trkpt>
      <trkpt lat="48.8798" lon="1.38312">
        <ele>119.3</ele>
        <time>2016-03-06T11:07:40Z</time>
      </trkpt>
      <trkpt lat="48.87981" lon="1.38294">
        <ele>118.8</ele>
        <time>2016-03-06T11:07:43Z</time>
      </trkpt>
      <trkpt lat="48.87979" lon="1.38274">
        <ele>118.2</ele>
        <time>2016-03-06T11:07:46Z</time>
      </trkpt>
      <trkpt lat="48.87979" lon="1.38255">
        <ele>117.8</ele>
        <time>2016-03-06T11:07:49Z</time>
      </trkpt>
      <trkpt lat="48.87976" lon="1.38237">
        <ele>117.5</ele>
        <time>2016-03-06T11:07:52Z</time>
      </trkpt>
      <trkpt lat="48.87975" lon="1.38217">
        <ele>117</ele>
        <time>2016-03-06T11:07:55Z</time>
      </trkpt>
      <trkpt lat="48.87972" lon="1.38202">
        <ele>116.6</ele>
        <time>2016-03-06T11:07:57Z</time>
      </trkpt>
      <trkpt lat="48.8797" lon="1.38188">
        <ele>116.1</ele>
        <time>2016-03-06T11:07:59Z</time>
      </trkpt>
      <trkpt lat="48.87969" lon="1.38165">
        <ele>114.9</ele>
        <time>2016-03-06T11:08:02Z</time>
      </trkpt>
      <trkpt lat="48.87968" lon="1.38148">
        <ele>114.1</ele>
        <time>2016-03-06T11:08:04Z</time>
      </trkpt>
      <trkpt lat="48.87965" lon="1.38131">
        <ele>113.1</ele>
        <time>2016-03-06T11:08:06Z</time>
      </trkpt>
      <trkpt lat="48.87964" lon="1.38115">
        <ele>112</ele>
        <time>2016-03-06T11:08:08Z</time>
      </trkpt>
      <trkpt lat="48.87964" lon="1.38096">
        <ele>110.6</ele>
        <time>2016-03-06T11:08:10Z</time>
      </trkpt>
      <trkpt lat="48.87965" lon="1.38077">
        <ele>109.1</ele>
        <time>2016-03-06T11:08:12Z</time>
      </trkpt>
      <trkpt lat="48.87961" lon="1.38059">
        <ele>107.8</ele>
        <time>2016-03-06T11:08:14Z</time>
      </trkpt>
      <trkpt lat="48.87959" lon="1.38039">
        <ele>106.3</ele>
        <time>2016-03-06T11:08:16Z</time>
      </trkpt>
      <trkpt lat="48.87956" lon="1.3802">
        <ele>104.9</ele>
        <time>2016-03-06T11:08:18Z</time>
      </trkpt>
      <trkpt lat="48.87954" lon="1.38001">
        <ele>103.5</ele>
        <time>2016-03-06T11:08:20Z</time>
      </trkpt>
      <trkpt lat="48.87951" lon="1.3798">
        <ele>102.3</ele>
        <time>2016-03-06T11:08:22Z</time>
      </trkpt>
      <trkpt lat="48.87955" lon="1.37964">
        <ele>101</ele>
        <time>2016-03-06T11:08:24Z</time>
      </trkpt>
      <trkpt lat="48.87962" lon="1.37951">
        <ele>99.8</ele>
        <time>2016-03-06T11:08:26Z</time>
      </trkpt>
      <trkpt lat="48.87967" lon="1.37936">
        <ele>98.4</ele>
        <time>2016-03-06T11:08:28Z</time>
      </trkpt>
      <trkpt lat="48.8797" lon="1.3792">
        <ele>97</ele>
        <time>2016-03-06T11:08:30Z</time>
      </trkpt>
      <trkpt lat="48.87975" lon="1.37905">
        <ele>95.6</ele>
        <time>2016-03-06T11:08:32Z</time>
      </trkpt>
      <trkpt lat="48.8798" lon="1.37885">
        <ele>94.3</ele>
        <time>2016-03-06T11:08:34Z</time>
      </trkpt>
      <trkpt lat="48.87985" lon="1.37866">
        <ele>93.1</ele>
        <time>2016-03-06T11:08:36Z</time>
      </trkpt>
      <trkpt lat="48.87991" lon="1.37848">
        <ele>91.9</ele>
        <time>2016-03-06T11:08:38Z</time>
      </trkpt>
      <trkpt lat="48.87989" lon="1.37832">
        <ele>90.8</ele>
        <time>2016-03-06T11:08:40Z</time>
      </trkpt>
      <trkpt lat="48.87992" lon="1.37814">
        <ele>89.7</ele>
        <time>2016-03-06T11:08:42Z</time>
      </trkpt>
      <trkpt lat="48.87996" lon="1.37797">
        <ele>88.1</ele>
        <time>2016-03-06T11:08:45Z</time>
      </trkpt>
      <trkpt lat="48.88008" lon="1.37802">
        <ele>85</ele>
        <time>2016-03-06T11:08:50Z</time>
      </trkpt>
      <trkpt lat="48.88015" lon="1.3781">
        <ele>84.3</ele>
        <time>2016-03-06T11:08:53Z</time>
      </trkpt>
      <trkpt lat="48.88023" lon="1.37821">
        <ele>83.2</ele>
        <time>2016-03-06T11:08:56Z</time>
      </trkpt>
      <trkpt lat="48.88031" lon="1.37832">
        <ele>82.4</ele>
        <time>2016-03-06T11:08:59Z</time>
      </trkpt>
      <trkpt lat="48.88038" lon="1.37842">
        <ele>81.5</ele>
        <time>2016-03-06T11:09:03Z</time>
      </trkpt>
      <trkpt lat="48.88043" lon="1.37856">
        <ele>81</ele>
        <time>2016-03-06T11:09:06Z</time>
      </trkpt>
      <trkpt lat="48.88049" lon="1.3787">
        <ele>80.6</ele>
        <time>2016-03-06T11:09:10Z</time>
      </trkpt>
      <trkpt lat="48.88056" lon="1.37881">
        <ele>80.7</ele>
        <time>2016-03-06T11:09:14Z</time>
      </trkpt>
      <trkpt lat="48.88064" lon="1.37888">
        <ele>81.1</ele>
        <time>2016-03-06T11:09:18Z</time>
      </trkpt>
      <trkpt lat="48.88073" lon="1.37884">
        <ele>81.5</ele>
        <time>2016-03-06T11:09:22Z</time>
      </trkpt>
      <trkpt lat="48.8808" lon="1.37873">
        <ele>82.2</ele>
        <time>2016-03-06T11:09:26Z</time>
      </trkpt>
      <trkpt lat="48.88084" lon="1.3786">
        <ele>82.7</ele>
        <time>2016-03-06T11:09:30Z</time>
      </trkpt>
      <trkpt lat="48.88089" lon="1.37845">
        <ele>83.1</ele>
        <time>2016-03-06T11:09:34Z</time>
      </trkpt>
      <trkpt lat="48.88093" lon="1.37831">
        <ele>83.4</ele>
        <time>2016-03-06T11:09:38Z</time>
      </trkpt>
      <trkpt lat="48.88097" lon="1.37817">
        <ele>83.8</ele>
        <time>2016-03-06T11:09:42Z</time>
      </trkpt>
      <trkpt lat="48.88102" lon="1.37803">
        <ele>84.3</ele>
        <time>2016-03-06T11:09:46Z</time>
      </trkpt>
      <trkpt lat="48.88108" lon="1.37789">
        <ele>84.6</ele>
        <time>2016-03-06T11:09:50Z</time>
      </trkpt>
      <trkpt lat="48.88112" lon="1.37776">
        <ele>84.9</ele>
        <time>2016-03-06T11:09:54Z</time>
      </trkpt>
      <trkpt lat="48.88115" lon="1.37762">
        <ele>85.2</ele>
        <time>2016-03-06T11:09:58Z</time>
      </trkpt>
      <trkpt lat="48.88119" lon="1.37749">
        <ele>85.5</ele>
        <time>2016-03-06T11:10:02Z</time>
      </trkpt>
      <trkpt lat="48.88123" lon="1.37736">
        <ele>86</ele>
        <time>2016-03-06T11:10:06Z</time>
      </trkpt>
      <trkpt lat="48.88127" lon="1.37723">
        <ele>86.5</ele>
        <time>2016-03-06T11:10:10Z</time>
      </trkpt>
      <trkpt lat="48.88131" lon="1.37709">
        <ele>86.9</ele>
        <time>2016-03-06T11:10:14Z</time>
      </trkpt>
      <trkpt lat="48.88135" lon="1.37696">
        <ele>87.2</ele>
        <time>2016-03-06T11:10:18Z</time>
      </trkpt>
      <trkpt lat="48.88139" lon="1.37682">
        <ele>87.6</ele>
        <time>2016-03-06T11:10:22Z</time>
      </trkpt>
      <trkpt lat="48.88144" lon="1.37669">
        <ele>88.1</ele>
        <time>2016-03-06T11:10:26Z</time>
      </trkpt>
      <trkpt lat="48.88148" lon="1.37656">
        <ele>88.6</ele>
        <time>2016-03-06T11:10:30Z</time>
      </trkpt>
      <trkpt lat="48.88152" lon="1.37641">
        <ele>89.1</ele>
        <time>2016-03-06T11:10:34Z</time>
      </trkpt>
      <trkpt lat="48.88156" lon="1.37627">
        <ele>89.7</ele>
        <time>2016-03-06T11:10:38Z</time>
      </trkpt>
      <trkpt lat="48.88158" lon="1.37612">
        <ele>90.4</ele>
        <time>2016-03-06T11:10:43Z</time>
      </trkpt>
      <trkpt lat="48.88161" lon="1.37596">
        <ele>91</ele>
        <time>2016-03-06T11:10:48Z</time>
      </trkpt>
      <trkpt lat="48.88163" lon="1.37581">
        <ele>91.6</ele>
        <time>2016-03-06T11:10:52Z</time>
      </trkpt>
      <trkpt lat="48.88164" lon="1.37565">
        <ele>92.2</ele>
        <time>2016-03-06T11:10:56Z</time>
      </trkpt>
      <trkpt lat="48.88167" lon="1.3755">
        <ele>92.6</ele>
        <time>2016-03-06T11:11:00Z</time>
      </trkpt>
      <trkpt lat="48.8817" lon="1.37536">
        <ele>93.2</ele>
        <time>2016-03-06T11:11:04Z</time>
      </trkpt>
      <trkpt lat="48.88176" lon="1.37523">
        <ele>93.6</ele>
        <time>2016-03-06T11:11:08Z</time>
      </trkpt>
      <trkpt lat="48.88182" lon="1.37512">
        <ele>94</ele>
        <time>2016-03-06T11:11:12Z</time>
      </trkpt>
      <trkpt lat="48.88186" lon="1.37498">
        <ele>94.7</ele>
        <time>2016-03-06T11:11:17Z</time>
      </trkpt>
      <trkpt lat="48.88189" lon="1.37484">
        <ele>95.3</ele>
        <time>2016-03-06T11:11:22Z</time>
      </trkpt>
      <trkpt lat="48.88192" lon="1.37468">
        <ele>95.9</ele>
        <time>2016-03-06T11:11:27Z</time>
      </trkpt>
      <trkpt lat="48.88196" lon="1.37453">
        <ele>96.5</ele>
        <time>2016-03-06T11:11:31Z</time>
      </trkpt>
      <trkpt lat="48.88201" lon="1.37439">
        <ele>97</ele>
        <time>2016-03-06T11:11:35Z</time>
      </trkpt>
      <trkpt lat="48.88206" lon="1.37424">
        <ele>97.6</ele>
        <time>2016-03-06T11:11:39Z</time>
      </trkpt>
      <trkpt lat="48.88209" lon="1.37409">
        <ele>98.2</ele>
        <time>2016-03-06T11:11:43Z</time>
      </trkpt>
      <trkpt lat="48.88214" lon="1.37394">
        <ele>98.8</ele>
        <time>2016-03-06T11:11:47Z</time>
      </trkpt>
      <trkpt lat="48.88217" lon="1.37379">
        <ele>99.6</ele>
        <time>2016-03-06T11:11:51Z</time>
      </trkpt>
      <trkpt lat="48.88222" lon="1.37365">
        <ele>100.5</ele>
        <time>2016-03-06T11:11:55Z</time>
      </trkpt>
      <trkpt lat="48.88227" lon="1.37351">
        <ele>101.2</ele>
        <time>2016-03-06T11:11:59Z</time>
      </trkpt>
      <trkpt lat="48.8823" lon="1.37337">
        <ele>101.8</ele>
        <time>2016-03-06T11:12:03Z</time>
      </trkpt>
      <trkpt lat="48.88235" lon="1.37322">
        <ele>102.4</ele>
        <time>2016-03-06T11:12:07Z</time>
      </trkpt>
      <trkpt lat="48.88239" lon="1.37307">
        <ele>103</ele>
        <time>2016-03-06T11:12:11Z</time>
      </trkpt>
      <trkpt lat="48.88242" lon="1.37292">
        <ele>103.5</ele>
        <time>2016-03-06T11:12:15Z</time>
      </trkpt>
      <trkpt lat="48.88246" lon="1.37278">
        <ele>104.1</ele>
        <time>2016-03-06T11:12:19Z</time>
      </trkpt>
      <trkpt lat="48.88251" lon="1.37264">
        <ele>104.8</ele>
        <time>2016-03-06T11:12:23Z</time>
      </trkpt>
      <trkpt lat="48.88255" lon="1.37249">
        <ele>105.4</ele>
        <time>2016-03-06T11:12:27Z</time>
      </trkpt>
      <trkpt lat="48.88259" lon="1.37237">
        <ele>105.8</ele>
        <time>2016-03-06T11:12:30Z</time>
      </trkpt>
      <trkpt lat="48.88262" lon="1.37224">
        <ele>106.3</ele>
        <time>2016-03-06T11:12:33Z</time>
      </trkpt>
      <trkpt lat="48.88267" lon="1.37208">
        <ele>106.8</ele>
        <time>2016-03-06T11:12:37Z</time>
      </trkpt>
      <trkpt lat="48.88268" lon="1.37193">
        <ele>107.3</ele>
        <time>2016-03-06T11:12:41Z</time>
      </trkpt>
      <trkpt lat="48.88273" lon="1.37177">
        <ele>107.9</ele>
        <time>2016-03-06T11:12:45Z</time>
      </trkpt>
      <trkpt lat="48.88275" lon="1.37163">
        <ele>108.2</ele>
        <time>2016-03-06T11:12:48Z</time>
      </trkpt>
      <trkpt lat="48.88277" lon="1.37149">
        <ele>108.5</ele>
        <time>2016-03-06T11:12:51Z</time>
      </trkpt>
      <trkpt lat="48.8828" lon="1.37135">
        <ele>108.9</ele>
        <time>2016-03-06T11:12:54Z</time>
      </trkpt>
      <trkpt lat="48.88284" lon="1.37122">
        <ele>109.3</ele>
        <time>2016-03-06T11:12:57Z</time>
      </trkpt>
      <trkpt lat="48.88287" lon="1.37108">
        <ele>109.6</ele>
        <time>2016-03-06T11:13:00Z</time>
      </trkpt>
      <trkpt lat="48.8829" lon="1.37095">
        <ele>110</ele>
        <time>2016-03-06T11:13:03Z</time>
      </trkpt>
      <trkpt lat="48.88295" lon="1.37082">
        <ele>110.4</ele>
        <time>2016-03-06T11:13:06Z</time>
      </trkpt>
      <trkpt lat="48.88299" lon="1.37069">
        <ele>110.8</ele>
        <time>2016-03-06T11:13:09Z</time>
      </trkpt>
      <trkpt lat="48.88301" lon="1.37054">
        <ele>111.1</ele>
        <time>2016-03-06T11:13:12Z</time>
      </trkpt>
      <trkpt lat="48.88305" lon="1.3704">
        <ele>111.4</ele>
        <time>2016-03-06T11:13:15Z</time>
      </trkpt>
      <trkpt lat="48.88309" lon="1.37027">
        <ele>111.6</ele>
        <time>2016-03-06T11:13:18Z</time>
      </trkpt>
      <trkpt lat="48.88313" lon="1.37013">
        <ele>111.8</ele>
        <time>2016-03-06T11:13:21Z</time>
      </trkpt>
      <trkpt lat="48.88317" lon="1.36997">
        <ele>112</ele>
        <time>2016-03-06T11:13:24Z</time>
      </trkpt>
      <trkpt lat="48.88319" lon="1.36982">
        <ele>112.2</ele>
        <time>2016-03-06T11:13:27Z</time>
      </trkpt>
      <trkpt lat="48.88325" lon="1.36965">
        <ele>112.3</ele>
        <time>2016-03-06T11:13:30Z</time>
      </trkpt>
      <trkpt lat="48.8833" lon="1.36949">
        <ele>112.5</ele>
        <time>2016-03-06T11:13:33Z</time>
      </trkpt>
      <trkpt lat="48.88335" lon="1.36937">
        <ele>112.5</ele>
        <time>2016-03-06T11:13:35Z</time>
      </trkpt>
      <trkpt lat="48.88341" lon="1.36919">
        <ele>112.6</ele>
        <time>2016-03-06T11:13:38Z</time>
      </trkpt>
      <trkpt lat="48.88344" lon="1.36901">
        <ele>112.8</ele>
        <time>2016-03-06T11:13:41Z</time>
      </trkpt>
      <trkpt lat="48.88346" lon="1.36888">
        <ele>112.8</ele>
        <time>2016-03-06T11:13:43Z</time>
      </trkpt>
      <trkpt lat="48.8835" lon="1.36875">
        <ele>112.9</ele>
        <time>2016-03-06T11:13:45Z</time>
      </trkpt>
      <trkpt lat="48.88354" lon="1.36861">
        <ele>112.9</ele>
        <time>2016-03-06T11:13:47Z</time>
      </trkpt>
      <trkpt lat="48.88358" lon="1.36848">
        <ele>113</ele>
        <time>2016-03-06T11:13:49Z</time>
      </trkpt>
      <trkpt lat="48.88361" lon="1.36834">
        <ele>113</ele>
        <time>2016-03-06T11:13:51Z</time>
      </trkpt>
      <trkpt lat="48.88365" lon="1.3682">
        <ele>113.1</ele>
        <time>2016-03-06T11:13:53Z</time>
      </trkpt>
      <trkpt lat="48.88369" lon="1.36807">
        <ele>113.1</ele>
        <time>2016-03-06T11:13:55Z</time>
      </trkpt>
      <trkpt lat="48.8837" lon="1.36793">
        <ele>113.1</ele>
        <time>2016-03-06T11:13:57Z</time>
      </trkpt>
      <trkpt lat="48.88371" lon="1.36779">
        <ele>113.2</ele>
        <time>2016-03-06T11:13:59Z</time>
      </trkpt>
      <trkpt lat="48.88374" lon="1.36764">
        <ele>113.2</ele>
        <time>2016-03-06T11:14:01Z</time>
      </trkpt>
      <trkpt lat="48.88379" lon="1.3675">
        <ele>113.2</ele>
        <time>2016-03-06T11:14:03Z</time>
      </trkpt>
      <trkpt lat="48.88383" lon="1.36736">
        <ele>113.2</ele>
        <time>2016-03-06T11:14:05Z</time>
      </trkpt>
      <trkpt lat="48.88387" lon="1.36722">
        <ele>113.2</ele>
        <time>2016-03-06T11:14:07Z</time>
      </trkpt>
      <trkpt lat="48.8839" lon="1.36708">
        <ele>113.2</ele>
        <time>2016-03-06T11:14:09Z</time>
      </trkpt>
      <trkpt lat="48.88394" lon="1.36694">
        <ele>113.1</ele>
        <time>2016-03-06T11:14:11Z</time>
      </trkpt>
      <trkpt lat="48.88398" lon="1.3668">
        <ele>113</ele>
        <time>2016-03-06T11:14:13Z</time>
      </trkpt>
      <trkpt lat="48.88403" lon="1.36665">
        <ele>112.7</ele>
        <time>2016-03-06T11:14:15Z</time>
      </trkpt>
      <trkpt lat="48.8841" lon="1.36652">
        <ele>112.4</ele>
        <time>2016-03-06T11:14:17Z</time>
      </trkpt>
      <trkpt lat="48.88414" lon="1.36639">
        <ele>112.2</ele>
        <time>2016-03-06T11:14:19Z</time>
      </trkpt>
      <trkpt lat="48.88417" lon="1.36621">
        <ele>111.9</ele>
        <time>2016-03-06T11:14:22Z</time>
      </trkpt>
      <trkpt lat="48.88419" lon="1.36601">
        <ele>111.7</ele>
        <time>2016-03-06T11:14:25Z</time>
      </trkpt>
      <trkpt lat="48.88424" lon="1.36582">
        <ele>111.5</ele>
        <time>2016-03-06T11:14:28Z</time>
      </trkpt>
      <trkpt lat="48.88429" lon="1.3657">
        <ele>111.3</ele>
        <time>2016-03-06T11:14:30Z</time>
      </trkpt>
      <trkpt lat="48.88431" lon="1.36555">
        <ele>111.2</ele>
        <time>2016-03-06T11:14:32Z</time>
      </trkpt>
      <trkpt lat="48.88434" lon="1.36541">
        <ele>111.1</ele>
        <time>2016-03-06T11:14:34Z</time>
      </trkpt>
      <trkpt lat="48.88439" lon="1.36527">
        <ele>111</ele>
        <time>2016-03-06T11:14:36Z</time>
      </trkpt>
      <trkpt lat="48.88441" lon="1.36512">
        <ele>111</ele>
        <time>2016-03-06T11:14:38Z</time>
      </trkpt>
      <trkpt lat="48.88445" lon="1.36498">
        <ele>110.9</ele>
        <time>2016-03-06T11:14:40Z</time>
      </trkpt>
      <trkpt lat="48.88448" lon="1.36485">
        <ele>110.8</ele>
        <time>2016-03-06T11:14:42Z</time>
      </trkpt>
      <trkpt lat="48.88453" lon="1.36468">
        <ele>110.9</ele>
        <time>2016-03-06T11:14:45Z</time>
      </trkpt>
      <trkpt lat="48.88458" lon="1.36456">
        <ele>110.9</ele>
        <time>2016-03-06T11:14:47Z</time>
      </trkpt>
      <trkpt lat="48.88463" lon="1.36444">
        <ele>111</ele>
        <time>2016-03-06T11:14:49Z</time>
      </trkpt>
      <trkpt lat="48.88468" lon="1.36426">
        <ele>111.1</ele>
        <time>2016-03-06T11:14:52Z</time>
      </trkpt>
      <trkpt lat="48.88472" lon="1.36408">
        <ele>111.3</ele>
        <time>2016-03-06T11:14:55Z</time>
      </trkpt>
      <trkpt lat="48.88476" lon="1.36392">
        <ele>111.6</ele>
        <time>2016-03-06T11:14:58Z</time>
      </trkpt>
      <trkpt lat="48.8848" lon="1.36376">
        <ele>112</ele>
        <time>2016-03-06T11:15:01Z</time>
      </trkpt>
      <trkpt lat="48.88483" lon="1.3636">
        <ele>112.4</ele>
        <time>2016-03-06T11:15:04Z</time>
      </trkpt>
      <trkpt lat="48.88487" lon="1.36344">
        <ele>112.7</ele>
        <time>2016-03-06T11:15:07Z</time>
      </trkpt>
      <trkpt lat="48.88491" lon="1.36328">
        <ele>113.1</ele>
        <time>2016-03-06T11:15:10Z</time>
      </trkpt>
      <trkpt lat="48.88495" lon="1.36312">
        <ele>113.4</ele>
        <time>2016-03-06T11:15:13Z</time>
      </trkpt>
      <trkpt lat="48.88499" lon="1.36297">
        <ele>113.8</ele>
        <time>2016-03-06T11:15:16Z</time>
      </trkpt>
      <trkpt lat="48.88504" lon="1.36281">
        <ele>114.1</ele>
        <time>2016-03-06T11:15:19Z</time>
      </trkpt>
      <trkpt lat="48.88508" lon="1.36265">
        <ele>114.5</ele>
        <time>2016-03-06T11:15:22Z</time>
      </trkpt>
      <trkpt lat="48.88512" lon="1.36248">
        <ele>114.9</ele>
        <time>2016-03-06T11:15:25Z</time>
      </trkpt>
      <trkpt lat="48.88516" lon="1.36233">
        <ele>115.2</ele>
        <time>2016-03-06T11:15:28Z</time>
      </trkpt>
      <trkpt lat="48.88519" lon="1.36218">
        <ele>115.6</ele>
        <time>2016-03-06T11:15:31Z</time>
      </trkpt>
      <trkpt lat="48.88523" lon="1.36201">
        <ele>115.8</ele>
        <time>2016-03-06T11:15:34Z</time>
      </trkpt>
      <trkpt lat="48.88527" lon="1.36182">
        <ele>116.1</ele>
        <time>2016-03-06T11:15:37Z</time>
      </trkpt>
      <trkpt lat="48.88531" lon="1.36163">
        <ele>116.3</ele>
        <time>2016-03-06T11:15:40Z</time>
      </trkpt>
      <trkpt lat="48.88532" lon="1.36144">
        <ele>116.4</ele>
        <time>2016-03-06T11:15:43Z</time>
      </trkpt>
      <trkpt lat="48.88536" lon="1.3613">
        <ele>116.5</ele>
        <time>2016-03-06T11:15:45Z</time>
      </trkpt>
      <trkpt lat="48.88539" lon="1.36116">
        <ele>116.6</ele>
        <time>2016-03-06T11:15:47Z</time>
      </trkpt>
      <trkpt lat="48.88542" lon="1.36098">
        <ele>116.6</ele>
        <time>2016-03-06T11:15:50Z</time>
      </trkpt>
      <trkpt lat="48.88546" lon="1.36079">
        <ele>116.6</ele>
        <time>2016-03-06T11:15:53Z</time>
      </trkpt>
      <trkpt lat="48.8855" lon="1.36067">
        <ele>116.6</ele>
        <time>2016-03-06T11:15:55Z</time>
      </trkpt>
      <trkpt lat="48.88555" lon="1.36051">
        <ele>116.6</ele>
        <time>2016-03-06T11:15:58Z</time>
      </trkpt>
      <trkpt lat="48.88561" lon="1.36034">
        <ele>116.6</ele>
        <time>2016-03-06T11:16:01Z</time>
      </trkpt>
      <trkpt lat="48.88566" lon="1.36017">
        <ele>116.6</ele>
        <time>2016-03-06T11:16:04Z</time>
      </trkpt>
      <trkpt lat="48.88571" lon="1.36">
        <ele>116.6</ele>
        <time>2016-03-06T11:16:07Z</time>
      </trkpt>
      <trkpt lat="48.88572" lon="1.35982">
        <ele>116.7</ele>
        <time>2016-03-06T11:16:10Z</time>
      </trkpt>
      <trkpt lat="48.88574" lon="1.35965">
        <ele>116.7</ele>
        <time>2016-03-06T11:16:13Z</time>
      </trkpt>
      <trkpt lat="48.88579" lon="1.35945">
        <ele>116.8</ele>
        <time>2016-03-06T11:16:16Z</time>
      </trkpt>
      <trkpt lat="48.88584" lon="1.35929">
        <ele>116.9</ele>
        <time>2016-03-06T11:16:19Z</time>
      </trkpt>
      <trkpt lat="48.88588" lon="1.3591">
        <ele>116.9</ele>
        <time>2016-03-06T11:16:22Z</time>
      </trkpt>
      <trkpt lat="48.88591" lon="1.35893">
        <ele>117.1</ele>
        <time>2016-03-06T11:16:25Z</time>
      </trkpt>
      <trkpt lat="48.88596" lon="1.35876">
        <ele>117.4</ele>
        <time>2016-03-06T11:16:28Z</time>
      </trkpt>
      <trkpt lat="48.88599" lon="1.35861">
        <ele>117.7</ele>
        <time>2016-03-06T11:16:31Z</time>
      </trkpt>
      <trkpt lat="48.88603" lon="1.35845">
        <ele>118</ele>
        <time>2016-03-06T11:16:34Z</time>
      </trkpt>
      <trkpt lat="48.88603" lon="1.35828">
        <ele>118.2</ele>
        <time>2016-03-06T11:16:37Z</time>
      </trkpt>
      <trkpt lat="48.88606" lon="1.35812">
        <ele>118.5</ele>
        <time>2016-03-06T11:16:40Z</time>
      </trkpt>
      <trkpt lat="48.88608" lon="1.35795">
        <ele>118.8</ele>
        <time>2016-03-06T11:16:43Z</time>
      </trkpt>
      <trkpt lat="48.8861" lon="1.35779">
        <ele>119.2</ele>
        <time>2016-03-06T11:16:46Z</time>
      </trkpt>
      <trkpt lat="48.88612" lon="1.35764">
        <ele>119.5</ele>
        <time>2016-03-06T11:16:49Z</time>
      </trkpt>
      <trkpt lat="48.88616" lon="1.35749">
        <ele>119.8</ele>
        <time>2016-03-06T11:16:52Z</time>
      </trkpt>
      <trkpt lat="48.8862" lon="1.35735">
        <ele>120.1</ele>
        <time>2016-03-06T11:16:55Z</time>
      </trkpt>
      <trkpt lat="48.88623" lon="1.35719">
        <ele>120.4</ele>
        <time>2016-03-06T11:16:58Z</time>
      </trkpt>
      <trkpt lat="48.88624" lon="1.35701">
        <ele>120.7</ele>
        <time>2016-03-06T11:17:01Z</time>
      </trkpt>
      <trkpt lat="48.88627" lon="1.35683">
        <ele>121</ele>
        <time>2016-03-06T11:17:04Z</time>
      </trkpt>
      <trkpt lat="48.88627" lon="1.35664">
        <ele>121.4</ele>
        <time>2016-03-06T11:17:07Z</time>
      </trkpt>
      <trkpt lat="48.88629" lon="1.35648">
        <ele>121.6</ele>
        <time>2016-03-06T11:17:10Z</time>
      </trkpt>
      <trkpt lat="48.88626" lon="1.35633">
        <ele>121.9</ele>
        <time>2016-03-06T11:17:13Z</time>
      </trkpt>
      <trkpt lat="48.88628" lon="1.35617">
        <ele>122.1</ele>
        <time>2016-03-06T11:17:16Z</time>
      </trkpt>
      <trkpt lat="48.88631" lon="1.35601">
        <ele>122.4</ele>
        <time>2016-03-06T11:17:19Z</time>
      </trkpt>
      <trkpt lat="48.88635" lon="1.35585">
        <ele>122.7</ele>
        <time>2016-03-06T11:17:22Z</time>
      </trkpt>
      <trkpt lat="48.88635" lon="1.35569">
        <ele>123</ele>
        <time>2016-03-06T11:17:25Z</time>
      </trkpt>
      <trkpt lat="48.88638" lon="1.35552">
        <ele>123.2</ele>
        <time>2016-03-06T11:17:28Z</time>
      </trkpt>
      <trkpt lat="48.88643" lon="1.35536">
        <ele>123.4</ele>
        <time>2016-03-06T11:17:31Z</time>
      </trkpt>
      <trkpt lat="48.88647" lon="1.35519">
        <ele>123.7</ele>
        <time>2016-03-06T11:17:34Z</time>
      </trkpt>
      <trkpt lat="48.88651" lon="1.35502">
        <ele>123.9</ele>
        <time>2016-03-06T11:17:37Z</time>
      </trkpt>
      <trkpt lat="48.88653" lon="1.35485">
        <ele>124.1</ele>
        <time>2016-03-06T11:17:40Z</time>
      </trkpt>
      <trkpt lat="48.88656" lon="1.35467">
        <ele>124.4</ele>
        <time>2016-03-06T11:17:43Z</time>
      </trkpt>
      <trkpt lat="48.88659" lon="1.35447">
        <ele>124.7</ele>
        <time>2016-03-06T11:17:46Z</time>
      </trkpt>
      <trkpt lat="48.88661" lon="1.35428">
        <ele>124.9</ele>
        <time>2016-03-06T11:17:49Z</time>
      </trkpt>
      <trkpt lat="48.88663" lon="1.3541">
        <ele>125.1</ele>
        <time>2016-03-06T11:17:52Z</time>
      </trkpt>
      <trkpt lat="48.88667" lon="1.35391">
        <ele>125.4</ele>
        <time>2016-03-06T11:17:55Z</time>
      </trkpt>
      <trkpt lat="48.8867" lon="1.35372">
        <ele>125.6</ele>
        <time>2016-03-06T11:17:58Z</time>
      </trkpt>
      <trkpt lat="48.88673" lon="1.35353">
        <ele>125.8</ele>
        <time>2016-03-06T11:18:01Z</time>
      </trkpt>
      <trkpt lat="48.88678" lon="1.35335">
        <ele>125.9</ele>
        <time>2016-03-06T11:18:04Z</time>
      </trkpt>
      <trkpt lat="48.88682" lon="1.35317">
        <ele>126.1</ele>
        <time>2016-03-06T11:18:07Z</time>
      </trkpt>
      <trkpt lat="48.88685" lon="1.35301">
        <ele>126.2</ele>
        <time>2016-03-06T11:18:10Z</time>
      </trkpt>
      <trkpt lat="48.88686" lon="1.35282">
        <ele>126.4</ele>
        <time>2016-03-06T11:18:13Z</time>
      </trkpt>
      <trkpt lat="48.88686" lon="1.35264">
        <ele>126.5</ele>
        <time>2016-03-06T11:18:16Z</time>
      </trkpt>
      <trkpt lat="48.88687" lon="1.35246">
        <ele>126.6</ele>
        <time>2016-03-06T11:18:19Z</time>
      </trkpt>
      <trkpt lat="48.88691" lon="1.35226">
        <ele>126.7</ele>
        <time>2016-03-06T11:18:22Z</time>
      </trkpt>
      <trkpt lat="48.88693" lon="1.35208">
        <ele>126.8</ele>
        <time>2016-03-06T11:18:25Z</time>
      </trkpt>
      <trkpt lat="48.88695" lon="1.35189">
        <ele>126.8</ele>
        <time>2016-03-06T11:18:28Z</time>
      </trkpt>
      <trkpt lat="48.88697" lon="1.3517">
        <ele>127</ele>
        <time>2016-03-06T11:18:31Z</time>
      </trkpt>
      <trkpt lat="48.887" lon="1.35153">
        <ele>127.1</ele>
        <time>2016-03-06T11:18:34Z</time>
      </trkpt>
      <trkpt lat="48.88703" lon="1.35137">
        <ele>127.2</ele>
        <time>2016-03-06T11:18:37Z</time>
      </trkpt>
      <trkpt lat="48.88708" lon="1.35119">
        <ele>127.3</ele>
        <time>2016-03-06T11:18:40Z</time>
      </trkpt>
      <trkpt lat="48.8871" lon="1.351">
        <ele>127.3</ele>
        <time>2016-03-06T11:18:43Z</time>
      </trkpt>
      <trkpt lat="48.88711" lon="1.35081">
        <ele>127.4</ele>
        <time>2016-03-06T11:18:46Z</time>
      </trkpt>
      <trkpt lat="48.88712" lon="1.35062">
        <ele>127.5</ele>
        <time>2016-03-06T11:18:49Z</time>
      </trkpt>
      <trkpt lat="48.88716" lon="1.35044">
        <ele>127.6</ele>
        <time>2016-03-06T11:18:52Z</time>
      </trkpt>
      <trkpt lat="48.88718" lon="1.35024">
        <ele>127.6</ele>
        <time>2016-03-06T11:18:55Z</time>
      </trkpt>
      <trkpt lat="48.8872" lon="1.35004">
        <ele>127.7</ele>
        <time>2016-03-06T11:18:58Z</time>
      </trkpt>
      <trkpt lat="48.88722" lon="1.34991">
        <ele>127.8</ele>
        <time>2016-03-06T11:19:00Z</time>
      </trkpt>
      <trkpt lat="48.88724" lon="1.34971">
        <ele>127.9</ele>
        <time>2016-03-06T11:19:03Z</time>
      </trkpt>
      <trkpt lat="48.88727" lon="1.34952">
        <ele>128</ele>
        <time>2016-03-06T11:19:06Z</time>
      </trkpt>
      <trkpt lat="48.88728" lon="1.34936">
        <ele>128.1</ele>
        <time>2016-03-06T11:19:09Z</time>
      </trkpt>
      <trkpt lat="48.8873" lon="1.3492">
        <ele>128.2</ele>
        <time>2016-03-06T11:19:12Z</time>
      </trkpt>
      <trkpt lat="48.88733" lon="1.34902">
        <ele>128.2</ele>
        <time>2016-03-06T11:19:15Z</time>
      </trkpt>
      <trkpt lat="48.88735" lon="1.34888">
        <ele>128.3</ele>
        <time>2016-03-06T11:19:17Z</time>
      </trkpt>
      <trkpt lat="48.88736" lon="1.34869">
        <ele>128.4</ele>
        <time>2016-03-06T11:19:20Z</time>
      </trkpt>
      <trkpt lat="48.88738" lon="1.3485">
        <ele>128.4</ele>
        <time>2016-03-06T11:19:23Z</time>
      </trkpt>
      <trkpt lat="48.8874" lon="1.34833">
        <ele>128.5</ele>
        <time>2016-03-06T11:19:26Z</time>
      </trkpt>
      <trkpt lat="48.88743" lon="1.34815">
        <ele>128.5</ele>
        <time>2016-03-06T11:19:29Z</time>
      </trkpt>
      <trkpt lat="48.88746" lon="1.34798">
        <ele>128.5</ele>
        <time>2016-03-06T11:19:32Z</time>
      </trkpt>
      <trkpt lat="48.88747" lon="1.34781">
        <ele>128.6</ele>
        <time>2016-03-06T11:19:35Z</time>
      </trkpt>
      <trkpt lat="48.88749" lon="1.34764">
        <ele>128.6</ele>
        <time>2016-03-06T11:19:38Z</time>
      </trkpt>
      <trkpt lat="48.88752" lon="1.34746">
        <ele>128.6</ele>
        <time>2016-03-06T11:19:41Z</time>
      </trkpt>
      <trkpt lat="48.88754" lon="1.34727">
        <ele>128.6</ele>
        <time>2016-03-06T11:19:44Z</time>
      </trkpt>
      <trkpt lat="48.88756" lon="1.34708">
        <ele>128.7</ele>
        <time>2016-03-06T11:19:47Z</time>
      </trkpt>
      <trkpt lat="48.88759" lon="1.34691">
        <ele>128.7</ele>
        <time>2016-03-06T11:19:50Z</time>
      </trkpt>
      <trkpt lat="48.88763" lon="1.34678">
        <ele>128.7</ele>
        <time>2016-03-06T11:19:53Z</time>
      </trkpt>
      <trkpt lat="48.88766" lon="1.34664">
        <ele>128.8</ele>
        <time>2016-03-06T11:19:56Z</time>
      </trkpt>
      <trkpt lat="48.88765" lon="1.34648">
        <ele>128.8</ele>
        <time>2016-03-06T11:19:59Z</time>
      </trkpt>
      <trkpt lat="48.88769" lon="1.34632">
        <ele>128.8</ele>
        <time>2016-03-06T11:20:02Z</time>
      </trkpt>
      <trkpt lat="48.88769" lon="1.34616">
        <ele>128.9</ele>
        <time>2016-03-06T11:20:05Z</time>
      </trkpt>
      <trkpt lat="48.88771" lon="1.34599">
        <ele>128.9</ele>
        <time>2016-03-06T11:20:08Z</time>
      </trkpt>
      <trkpt lat="48.88773" lon="1.34582">
        <ele>129</ele>
        <time>2016-03-06T11:20:11Z</time>
      </trkpt>
      <trkpt lat="48.88775" lon="1.34565">
        <ele>128.9</ele>
        <time>2016-03-06T11:20:14Z</time>
      </trkpt>
      <trkpt lat="48.88779" lon="1.3455">
        <ele>128.9</ele>
        <time>2016-03-06T11:20:17Z</time>
      </trkpt>
      <trkpt lat="48.88781" lon="1.34537">
        <ele>128.7</ele>
        <time>2016-03-06T11:20:19Z</time>
      </trkpt>
      <trkpt lat="48.88785" lon="1.3452">
        <ele>128.6</ele>
        <time>2016-03-06T11:20:22Z</time>
      </trkpt>
      <trkpt lat="48.88787" lon="1.34501">
        <ele>128.5</ele>
        <time>2016-03-06T11:20:25Z</time>
      </trkpt>
      <trkpt lat="48.8879" lon="1.34482">
        <ele>128.5</ele>
        <time>2016-03-06T11:20:28Z</time>
      </trkpt>
      <trkpt lat="48.88793" lon="1.34464">
        <ele>128.4</ele>
        <time>2016-03-06T11:20:31Z</time>
      </trkpt>
      <trkpt lat="48.88795" lon="1.34445">
        <ele>128.4</ele>
        <time>2016-03-06T11:20:34Z</time>
      </trkpt>
      <trkpt lat="48.88795" lon="1.34426">
        <ele>128.3</ele>
        <time>2016-03-06T11:20:37Z</time>
      </trkpt>
      <trkpt lat="48.88798" lon="1.34408">
        <ele>128.3</ele>
        <time>2016-03-06T11:20:40Z</time>
      </trkpt>
      <trkpt lat="48.88802" lon="1.3439">
        <ele>128.2</ele>
        <time>2016-03-06T11:20:43Z</time>
      </trkpt>
      <trkpt lat="48.88805" lon="1.34371">
        <ele>128.2</ele>
        <time>2016-03-06T11:20:46Z</time>
      </trkpt>
      <trkpt lat="48.88807" lon="1.34351">
        <ele>128.2</ele>
        <time>2016-03-06T11:20:49Z</time>
      </trkpt>
      <trkpt lat="48.8881" lon="1.34333">
        <ele>128.1</ele>
        <time>2016-03-06T11:20:52Z</time>
      </trkpt>
      <trkpt lat="48.88812" lon="1.34314">
        <ele>128</ele>
        <time>2016-03-06T11:20:55Z</time>
      </trkpt>
      <trkpt lat="48.88813" lon="1.34295">
        <ele>128</ele>
        <time>2016-03-06T11:20:58Z</time>
      </trkpt>
      <trkpt lat="48.88817" lon="1.34277">
        <ele>127.9</ele>
        <time>2016-03-06T11:21:01Z</time>
      </trkpt>
      <trkpt lat="48.8882" lon="1.34257">
        <ele>127.8</ele>
        <time>2016-03-06T11:21:04Z</time>
      </trkpt>
      <trkpt lat="48.88823" lon="1.34241">
        <ele>127.8</ele>
        <time>2016-03-06T11:21:07Z</time>
      </trkpt>
      <trkpt lat="48.88826" lon="1.34224">
        <ele>127.7</ele>
        <time>2016-03-06T11:21:10Z</time>
      </trkpt>
      <trkpt lat="48.88829" lon="1.3421">
        <ele>127.7</ele>
        <time>2016-03-06T11:21:12Z</time>
      </trkpt>
      <trkpt lat="48.88833" lon="1.34192">
        <ele>127.8</ele>
        <time>2016-03-06T11:21:15Z</time>
      </trkpt>
      <trkpt lat="48.88836" lon="1.34172">
        <ele>127.8</ele>
        <time>2016-03-06T11:21:18Z</time>
      </trkpt>
      <trkpt lat="48.88839" lon="1.34153">
        <ele>127.9</ele>
        <time>2016-03-06T11:21:21Z</time>
      </trkpt>
      <trkpt lat="48.88841" lon="1.3414">
        <ele>127.9</ele>
        <time>2016-03-06T11:21:23Z</time>
      </trkpt>
      <trkpt lat="48.88844" lon="1.34125">
        <ele>128</ele>
        <time>2016-03-06T11:21:25Z</time>
      </trkpt>
      <trkpt lat="48.88846" lon="1.34111">
        <ele>128</ele>
        <time>2016-03-06T11:21:27Z</time>
      </trkpt>
      <trkpt lat="48.88847" lon="1.34097">
        <ele>128</ele>
        <time>2016-03-06T11:21:29Z</time>
      </trkpt>
      <trkpt lat="48.88848" lon="1.34082">
        <ele>128</ele>
        <time>2016-03-06T11:21:31Z</time>
      </trkpt>
      <trkpt lat="48.88851" lon="1.34067">
        <ele>128</ele>
        <time>2016-03-06T11:21:33Z</time>
      </trkpt>
      <trkpt lat="48.88852" lon="1.34052">
        <ele>128</ele>
        <time>2016-03-06T11:21:35Z</time>
      </trkpt>
      <trkpt lat="48.88854" lon="1.34036">
        <ele>128</ele>
        <time>2016-03-06T11:21:37Z</time>
      </trkpt>
      <trkpt lat="48.88857" lon="1.34023">
        <ele>127.9</ele>
        <time>2016-03-06T11:21:39Z</time>
      </trkpt>
      <trkpt lat="48.88858" lon="1.34008">
        <ele>127.8</ele>
        <time>2016-03-06T11:21:41Z</time>
      </trkpt>
      <trkpt lat="48.88859" lon="1.33994">
        <ele>127.8</ele>
        <time>2016-03-06T11:21:43Z</time>
      </trkpt>
      <trkpt lat="48.88861" lon="1.33974">
        <ele>127.7</ele>
        <time>2016-03-06T11:21:46Z</time>
      </trkpt>
      <trkpt lat="48.88863" lon="1.33955">
        <ele>127.6</ele>
        <time>2016-03-06T11:21:49Z</time>
      </trkpt>
      <trkpt lat="48.88865" lon="1.33936">
        <ele>127.7</ele>
        <time>2016-03-06T11:21:52Z</time>
      </trkpt>
      <trkpt lat="48.88867" lon="1.33918">
        <ele>127.8</ele>
        <time>2016-03-06T11:21:55Z</time>
      </trkpt>
      <trkpt lat="48.88869" lon="1.33901">
        <ele>127.8</ele>
        <time>2016-03-06T11:21:58Z</time>
      </trkpt>
      <trkpt lat="48.88874" lon="1.33886">
        <ele>127.9</ele>
        <time>2016-03-06T11:22:01Z</time>
      </trkpt>
      <trkpt lat="48.88877" lon="1.33869">
        <ele>128</ele>
        <time>2016-03-06T11:22:04Z</time>
      </trkpt>
      <trkpt lat="48.88878" lon="1.33851">
        <ele>128</ele>
        <time>2016-03-06T11:22:07Z</time>
      </trkpt>
      <trkpt lat="48.88881" lon="1.33833">
        <ele>128.1</ele>
        <time>2016-03-06T11:22:10Z</time>
      </trkpt>
      <trkpt lat="48.88885" lon="1.33817">
        <ele>128.2</ele>
        <time>2016-03-06T11:22:13Z</time>
      </trkpt>
      <trkpt lat="48.88886" lon="1.33799">
        <ele>128.2</ele>
        <time>2016-03-06T11:22:16Z</time>
      </trkpt>
      <trkpt lat="48.88889" lon="1.33781">
        <ele>128.3</ele>
        <time>2016-03-06T11:22:19Z</time>
      </trkpt>
      <trkpt lat="48.88891" lon="1.33763">
        <ele>128.3</ele>
        <time>2016-03-06T11:22:22Z</time>
      </trkpt>
      <trkpt lat="48.88894" lon="1.33744">
        <ele>128.3</ele>
        <time>2016-03-06T11:22:25Z</time>
      </trkpt>
      <trkpt lat="48.88896" lon="1.33725">
        <ele>128.4</ele>
        <time>2016-03-06T11:22:28Z</time>
      </trkpt>
      <trkpt lat="48.88896" lon="1.33706">
        <ele>128.3</ele>
        <time>2016-03-06T11:22:31Z</time>
      </trkpt>
      <trkpt lat="48.88896" lon="1.33686">
        <ele>128.1</ele>
        <time>2016-03-06T11:22:34Z</time>
      </trkpt>
      <trkpt lat="48.88896" lon="1.33672">
        <ele>128.1</ele>
        <time>2016-03-06T11:22:36Z</time>
      </trkpt>
      <trkpt lat="48.88895" lon="1.33652">
        <ele>127.7</ele>
        <time>2016-03-06T11:22:39Z</time>
      </trkpt>
      <trkpt lat="48.88896" lon="1.33635">
        <ele>126.7</ele>
        <time>2016-03-06T11:22:42Z</time>
      </trkpt>
      <trkpt lat="48.88897" lon="1.3362">
        <ele>125.9</ele>
        <time>2016-03-06T11:22:45Z</time>
      </trkpt>
      <trkpt lat="48.88898" lon="1.33603">
        <ele>125</ele>
        <time>2016-03-06T11:22:48Z</time>
      </trkpt>
      <trkpt lat="48.88901" lon="1.33588">
        <ele>124.5</ele>
        <time>2016-03-06T11:22:50Z</time>
      </trkpt>
      <trkpt lat="48.88905" lon="1.33573">
        <ele>123.7</ele>
        <time>2016-03-06T11:22:52Z</time>
      </trkpt>
      <trkpt lat="48.88907" lon="1.3356">
        <ele>123.1</ele>
        <time>2016-03-06T11:22:54Z</time>
      </trkpt>
      <trkpt lat="48.88914" lon="1.33545">
        <ele>122.5</ele>
        <time>2016-03-06T11:22:56Z</time>
      </trkpt>
      <trkpt lat="48.88917" lon="1.33529">
        <ele>122</ele>
        <time>2016-03-06T11:22:58Z</time>
      </trkpt>
      <trkpt lat="48.8892" lon="1.33514">
        <ele>121.4</ele>
        <time>2016-03-06T11:23:00Z</time>
      </trkpt>
      <trkpt lat="48.88923" lon="1.33497">
        <ele>120.8</ele>
        <time>2016-03-06T11:23:02Z</time>
      </trkpt>
      <trkpt lat="48.88924" lon="1.33483">
        <ele>120.3</ele>
        <time>2016-03-06T11:23:04Z</time>
      </trkpt>
      <trkpt lat="48.88924" lon="1.33467">
        <ele>119.7</ele>
        <time>2016-03-06T11:23:07Z</time>
      </trkpt>
      <trkpt lat="48.88925" lon="1.3345">
        <ele>119.4</ele>
        <time>2016-03-06T11:23:11Z</time>
      </trkpt>
      <trkpt lat="48.88926" lon="1.33433">
        <ele>119.4</ele>
        <time>2016-03-06T11:23:15Z</time>
      </trkpt>
      <trkpt lat="48.88931" lon="1.33418">
        <ele>119.5</ele>
        <time>2016-03-06T11:23:19Z</time>
      </trkpt>
      <trkpt lat="48.88934" lon="1.33404">
        <ele>120.2</ele>
        <time>2016-03-06T11:23:24Z</time>
      </trkpt>
      <trkpt lat="48.88935" lon="1.3339">
        <ele>120.7</ele>
        <time>2016-03-06T11:23:28Z</time>
      </trkpt>
      <trkpt lat="48.88937" lon="1.33373">
        <ele>121.3</ele>
        <time>2016-03-06T11:23:33Z</time>
      </trkpt>
      <trkpt lat="48.88939" lon="1.33358">
        <ele>122</ele>
        <time>2016-03-06T11:23:38Z</time>
      </trkpt>
      <trkpt lat="48.88942" lon="1.33345">
        <ele>122.7</ele>
        <time>2016-03-06T11:23:43Z</time>
      </trkpt>
      <trkpt lat="48.88942" lon="1.33328">
        <ele>123.5</ele>
        <time>2016-03-06T11:23:48Z</time>
      </trkpt>
      <trkpt lat="48.88947" lon="1.33313">
        <ele>124.1</ele>
        <time>2016-03-06T11:23:53Z</time>
      </trkpt>
      <trkpt lat="48.88947" lon="1.33296">
        <ele>124.5</ele>
        <time>2016-03-06T11:23:57Z</time>
      </trkpt>
      <trkpt lat="48.88947" lon="1.33282">
        <ele>124.7</ele>
        <time>2016-03-06T11:24:00Z</time>
      </trkpt>
      <trkpt lat="48.88949" lon="1.33268">
        <ele>125</ele>
        <time>2016-03-06T11:24:03Z</time>
      </trkpt>
      <trkpt lat="48.8895" lon="1.33253">
        <ele>125.3</ele>
        <time>2016-03-06T11:24:06Z</time>
      </trkpt>
      <trkpt lat="48.88952" lon="1.33239">
        <ele>125.5</ele>
        <time>2016-03-06T11:24:09Z</time>
      </trkpt>
      <trkpt lat="48.88957" lon="1.33224">
        <ele>125.7</ele>
        <time>2016-03-06T11:24:12Z</time>
      </trkpt>
      <trkpt lat="48.88961" lon="1.33208">
        <ele>125.8</ele>
        <time>2016-03-06T11:24:15Z</time>
      </trkpt>
      <trkpt lat="48.88964" lon="1.33191">
        <ele>126</ele>
        <time>2016-03-06T11:24:18Z</time>
      </trkpt>
      <trkpt lat="48.88966" lon="1.33175">
        <ele>126.2</ele>
        <time>2016-03-06T11:24:21Z</time>
      </trkpt>
      <trkpt lat="48.88968" lon="1.33157">
        <ele>126.4</ele>
        <time>2016-03-06T11:24:24Z</time>
      </trkpt>
      <trkpt lat="48.8897" lon="1.3314">
        <ele>126.6</ele>
        <time>2016-03-06T11:24:27Z</time>
      </trkpt>
      <trkpt lat="48.88972" lon="1.33123">
        <ele>126.8</ele>
        <time>2016-03-06T11:24:30Z</time>
      </trkpt>
      <trkpt lat="48.88975" lon="1.33104">
        <ele>127</ele>
        <time>2016-03-06T11:24:33Z</time>
      </trkpt>
      <trkpt lat="48.88978" lon="1.33085">
        <ele>127.2</ele>
        <time>2016-03-06T11:24:36Z</time>
      </trkpt>
      <trkpt lat="48.88981" lon="1.33065">
        <ele>127.4</ele>
        <time>2016-03-06T11:24:39Z</time>
      </trkpt>
      <trkpt lat="48.88985" lon="1.33046">
        <ele>127.6</ele>
        <time>2016-03-06T11:24:42Z</time>
      </trkpt>
      <trkpt lat="48.88988" lon="1.33026">
        <ele>127.8</ele>
        <time>2016-03-06T11:24:45Z</time>
      </trkpt>
      <trkpt lat="48.8899" lon="1.33007">
        <ele>128</ele>
        <time>2016-03-06T11:24:48Z</time>
      </trkpt>
      <trkpt lat="48.88993" lon="1.32988">
        <ele>128.2</ele>
        <time>2016-03-06T11:24:51Z</time>
      </trkpt>
      <trkpt lat="48.88995" lon="1.32969">
        <ele>128.3</ele>
        <time>2016-03-06T11:24:54Z</time>
      </trkpt>
      <trkpt lat="48.88996" lon="1.32949">
        <ele>128.4</ele>
        <time>2016-03-06T11:24:57Z</time>
      </trkpt>
      <trkpt lat="48.88997" lon="1.32931">
        <ele>128.5</ele>
        <time>2016-03-06T11:25:00Z</time>
      </trkpt>
      <trkpt lat="48.89" lon="1.32917">
        <ele>128.6</ele>
        <time>2016-03-06T11:25:02Z</time>
      </trkpt>
      <trkpt lat="48.89001" lon="1.32903">
        <ele>128.6</ele>
        <time>2016-03-06T11:25:04Z</time>
      </trkpt>
      <trkpt lat="48.89001" lon="1.32885">
        <ele>128.7</ele>
        <time>2016-03-06T11:25:07Z</time>
      </trkpt>
      <trkpt lat="48.89004" lon="1.32866">
        <ele>128.8</ele>
        <time>2016-03-06T11:25:10Z</time>
      </trkpt>
      <trkpt lat="48.89008" lon="1.32846">
        <ele>128.8</ele>
        <time>2016-03-06T11:25:13Z</time>
      </trkpt>
      <trkpt lat="48.89015" lon="1.32814">
        <ele>128.9</ele>
        <time>2016-03-06T11:25:18Z</time>
      </trkpt>
      <trkpt lat="48.89016" lon="1.32799">
        <ele>128.9</ele>
        <time>2016-03-06T11:25:20Z</time>
      </trkpt>
      <trkpt lat="48.89017" lon="1.32784">
        <ele>128</ele>
        <time>2016-03-06T11:25:22Z</time>
      </trkpt>
      <trkpt lat="48.8902" lon="1.32762">
        <ele>128.9</ele>
        <time>2016-03-06T11:25:25Z</time>
      </trkpt>
      <trkpt lat="48.89021" lon="1.32747">
        <ele>128.9</ele>
        <time>2016-03-06T11:25:27Z</time>
      </trkpt>
      <trkpt lat="48.89023" lon="1.32732">
        <ele>128.9</ele>
        <time>2016-03-06T11:25:29Z</time>
      </trkpt>
      <trkpt lat="48.89026" lon="1.32717">
        <ele>128.9</ele>
        <time>2016-03-06T11:25:31Z</time>
      </trkpt>
      <trkpt lat="48.89028" lon="1.32701">
        <ele>129</ele>
        <time>2016-03-06T11:25:33Z</time>
      </trkpt>
      <trkpt lat="48.8903" lon="1.32686">
        <ele>129</ele>
        <time>2016-03-06T11:25:35Z</time>
      </trkpt>
      <trkpt lat="48.89032" lon="1.3267">
        <ele>129</ele>
        <time>2016-03-06T11:25:37Z</time>
      </trkpt>
      <trkpt lat="48.89034" lon="1.32655">
        <ele>129</ele>
        <time>2016-03-06T11:25:39Z</time>
      </trkpt>
      <trkpt lat="48.89037" lon="1.32636">
        <ele>129</ele>
        <time>2016-03-06T11:25:42Z</time>
      </trkpt>
      <trkpt lat="48.89042" lon="1.32621">
        <ele>129</ele>
        <time>2016-03-06T11:25:44Z</time>
      </trkpt>
      <trkpt lat="48.89045" lon="1.32607">
        <ele>129</ele>
        <time>2016-03-06T11:25:46Z</time>
      </trkpt>
      <trkpt lat="48.89046" lon="1.32593">
        <ele>129</ele>
        <time>2016-03-06T11:25:48Z</time>
      </trkpt>
      <trkpt lat="48.89048" lon="1.32579">
        <ele>129.1</ele>
        <time>2016-03-06T11:25:50Z</time>
      </trkpt>
      <trkpt lat="48.8905" lon="1.32564">
        <ele>129.1</ele>
        <time>2016-03-06T11:25:52Z</time>
      </trkpt>
      <trkpt lat="48.89052" lon="1.3255">
        <ele>129.2</ele>
        <time>2016-03-06T11:25:54Z</time>
      </trkpt>
      <trkpt lat="48.89052" lon="1.32535">
        <ele>129.3</ele>
        <time>2016-03-06T11:25:56Z</time>
      </trkpt>
      <trkpt lat="48.89052" lon="1.32521">
        <ele>129.4</ele>
        <time>2016-03-06T11:25:58Z</time>
      </trkpt>
      <trkpt lat="48.89055" lon="1.32502">
        <ele>129.5</ele>
        <time>2016-03-06T11:26:01Z</time>
      </trkpt>
      <trkpt lat="48.89058" lon="1.32483">
        <ele>129.6</ele>
        <time>2016-03-06T11:26:04Z</time>
      </trkpt>
      <trkpt lat="48.89061" lon="1.32464">
        <ele>129.8</ele>
        <time>2016-03-06T11:26:07Z</time>
      </trkpt>
      <trkpt lat="48.89061" lon="1.32445">
        <ele>129.9</ele>
        <time>2016-03-06T11:26:10Z</time>
      </trkpt>
      <trkpt lat="48.89063" lon="1.32428">
        <ele>130.1</ele>
        <time>2016-03-06T11:26:13Z</time>
      </trkpt>
      <trkpt lat="48.89062" lon="1.32409">
        <ele>130.3</ele>
        <time>2016-03-06T11:26:16Z</time>
      </trkpt>
      <trkpt lat="48.89066" lon="1.32395">
        <ele>130.4</ele>
        <time>2016-03-06T11:26:18Z</time>
      </trkpt>
      <trkpt lat="48.89067" lon="1.32375">
        <ele>130.8</ele>
        <time>2016-03-06T11:26:21Z</time>
      </trkpt>
      <trkpt lat="48.89071" lon="1.32357">
        <ele>130.9</ele>
        <time>2016-03-06T11:26:24Z</time>
      </trkpt>
      <trkpt lat="48.89072" lon="1.32342">
        <ele>131</ele>
        <time>2016-03-06T11:26:26Z</time>
      </trkpt>
      <trkpt lat="48.89074" lon="1.32328">
        <ele>131.1</ele>
        <time>2016-03-06T11:26:28Z</time>
      </trkpt>
      <trkpt lat="48.89078" lon="1.32308">
        <ele>131.2</ele>
        <time>2016-03-06T11:26:31Z</time>
      </trkpt>
      <trkpt lat="48.8908" lon="1.32294">
        <ele>131.3</ele>
        <time>2016-03-06T11:26:33Z</time>
      </trkpt>
      <trkpt lat="48.89084" lon="1.32279">
        <ele>131.4</ele>
        <time>2016-03-06T11:26:35Z</time>
      </trkpt>
      <trkpt lat="48.89086" lon="1.32259">
        <ele>131.5</ele>
        <time>2016-03-06T11:26:38Z</time>
      </trkpt>
      <trkpt lat="48.89088" lon="1.32245">
        <ele>131.6</ele>
        <time>2016-03-06T11:26:40Z</time>
      </trkpt>
      <trkpt lat="48.89092" lon="1.3223">
        <ele>131.7</ele>
        <time>2016-03-06T11:26:42Z</time>
      </trkpt>
      <trkpt lat="48.89094" lon="1.32216">
        <ele>131.8</ele>
        <time>2016-03-06T11:26:44Z</time>
      </trkpt>
      <trkpt lat="48.89097" lon="1.32202">
        <ele>131.9</ele>
        <time>2016-03-06T11:26:46Z</time>
      </trkpt>
      <trkpt lat="48.891" lon="1.32182">
        <ele>132</ele>
        <time>2016-03-06T11:26:49Z</time>
      </trkpt>
      <trkpt lat="48.89101" lon="1.32168">
        <ele>132</ele>
        <time>2016-03-06T11:26:51Z</time>
      </trkpt>
      <trkpt lat="48.89103" lon="1.32148">
        <ele>132.2</ele>
        <time>2016-03-06T11:26:54Z</time>
      </trkpt>
      <trkpt lat="48.89106" lon="1.32129">
        <ele>132.3</ele>
        <time>2016-03-06T11:26:57Z</time>
      </trkpt>
      <trkpt lat="48.8911" lon="1.32111">
        <ele>132.5</ele>
        <time>2016-03-06T11:27:00Z</time>
      </trkpt>
      <trkpt lat="48.89113" lon="1.32091">
        <ele>132.7</ele>
        <time>2016-03-06T11:27:03Z</time>
      </trkpt>
      <trkpt lat="48.89115" lon="1.32077">
        <ele>132.8</ele>
        <time>2016-03-06T11:27:05Z</time>
      </trkpt>
      <trkpt lat="48.89118" lon="1.32063">
        <ele>132.9</ele>
        <time>2016-03-06T11:27:07Z</time>
      </trkpt>
      <trkpt lat="48.8912" lon="1.32043">
        <ele>133</ele>
        <time>2016-03-06T11:27:10Z</time>
      </trkpt>
      <trkpt lat="48.89123" lon="1.3203">
        <ele>133.1</ele>
        <time>2016-03-06T11:27:12Z</time>
      </trkpt>
      <trkpt lat="48.89124" lon="1.32016">
        <ele>133</ele>
        <time>2016-03-06T11:27:14Z</time>
      </trkpt>
      <trkpt lat="48.89127" lon="1.31995">
        <ele>133.3</ele>
        <time>2016-03-06T11:27:17Z</time>
      </trkpt>
      <trkpt lat="48.89128" lon="1.31981">
        <ele>133.4</ele>
        <time>2016-03-06T11:27:19Z</time>
      </trkpt>
      <trkpt lat="48.89131" lon="1.31963">
        <ele>133.6</ele>
        <time>2016-03-06T11:27:22Z</time>
      </trkpt>
      <trkpt lat="48.89134" lon="1.31943">
        <ele>133.8</ele>
        <time>2016-03-06T11:27:25Z</time>
      </trkpt>
      <trkpt lat="48.89137" lon="1.31922">
        <ele>134</ele>
        <time>2016-03-06T11:27:28Z</time>
      </trkpt>
      <trkpt lat="48.8914" lon="1.31909">
        <ele>134.1</ele>
        <time>2016-03-06T11:27:30Z</time>
      </trkpt>
      <trkpt lat="48.89143" lon="1.3189">
        <ele>134.3</ele>
        <time>2016-03-06T11:27:33Z</time>
      </trkpt>
      <trkpt lat="48.89146" lon="1.3187">
        <ele>134.4</ele>
        <time>2016-03-06T11:27:36Z</time>
      </trkpt>
      <trkpt lat="48.89149" lon="1.31847">
        <ele>134</ele>
        <time>2016-03-06T11:27:39Z</time>
      </trkpt>
      <trkpt lat="48.89152" lon="1.31827">
        <ele>134.6</ele>
        <time>2016-03-06T11:27:42Z</time>
      </trkpt>
      <trkpt lat="48.89155" lon="1.31808">
        <ele>134.6</ele>
        <time>2016-03-06T11:27:45Z</time>
      </trkpt>
      <trkpt lat="48.89157" lon="1.31787">
        <ele>134.8</ele>
        <time>2016-03-06T11:27:48Z</time>
      </trkpt>
      <trkpt lat="48.89158" lon="1.31772">
        <ele>134.9</ele>
        <time>2016-03-06T11:27:50Z</time>
      </trkpt>
      <trkpt lat="48.89159" lon="1.31757">
        <ele>135</ele>
        <time>2016-03-06T11:27:52Z</time>
      </trkpt>
      <trkpt lat="48.8916" lon="1.31737">
        <ele>135.1</ele>
        <time>2016-03-06T11:27:55Z</time>
      </trkpt>
      <trkpt lat="48.89162" lon="1.31723">
        <ele>135.1</ele>
        <time>2016-03-06T11:27:57Z</time>
      </trkpt>
      <trkpt lat="48.89163" lon="1.31703">
        <ele>135.3</ele>
        <time>2016-03-06T11:28:00Z</time>
      </trkpt>
      <trkpt lat="48.89165" lon="1.31689">
        <ele>135.4</ele>
        <time>2016-03-06T11:28:02Z</time>
      </trkpt>
      <trkpt lat="48.89167" lon="1.31676">
        <ele>135.5</ele>
        <time>2016-03-06T11:28:04Z</time>
      </trkpt>
      <trkpt lat="48.8917" lon="1.31662">
        <ele>135.6</ele>
        <time>2016-03-06T11:28:06Z</time>
      </trkpt>
      <trkpt lat="48.89171" lon="1.31648">
        <ele>135.7</ele>
        <time>2016-03-06T11:28:08Z</time>
      </trkpt>
      <trkpt lat="48.89172" lon="1.31633">
        <ele>135.8</ele>
        <time>2016-03-06T11:28:10Z</time>
      </trkpt>
      <trkpt lat="48.89176" lon="1.31619">
        <ele>135.8</ele>
        <time>2016-03-06T11:28:12Z</time>
      </trkpt>
      <trkpt lat="48.89177" lon="1.31606">
        <ele>135.9</ele>
        <time>2016-03-06T11:28:14Z</time>
      </trkpt>
      <trkpt lat="48.8918" lon="1.31586">
        <ele>136</ele>
        <time>2016-03-06T11:28:17Z</time>
      </trkpt>
      <trkpt lat="48.89185" lon="1.31561">
        <ele>136</ele>
        <time>2016-03-06T11:28:21Z</time>
      </trkpt>
      <trkpt lat="48.89187" lon="1.31542">
        <ele>136.1</ele>
        <time>2016-03-06T11:28:24Z</time>
      </trkpt>
      <trkpt lat="48.89189" lon="1.31524">
        <ele>136.2</ele>
        <time>2016-03-06T11:28:27Z</time>
      </trkpt>
      <trkpt lat="48.89192" lon="1.31504">
        <ele>136.2</ele>
        <time>2016-03-06T11:28:30Z</time>
      </trkpt>
      <trkpt lat="48.89194" lon="1.31485">
        <ele>136.4</ele>
        <time>2016-03-06T11:28:33Z</time>
      </trkpt>
      <trkpt lat="48.89193" lon="1.31467">
        <ele>136.5</ele>
        <time>2016-03-06T11:28:36Z</time>
      </trkpt>
      <trkpt lat="48.89198" lon="1.3145">
        <ele>136.6</ele>
        <time>2016-03-06T11:28:39Z</time>
      </trkpt>
      <trkpt lat="48.892" lon="1.31428">
        <ele>136.7</ele>
        <time>2016-03-06T11:28:42Z</time>
      </trkpt>
      <trkpt lat="48.89203" lon="1.31414">
        <ele>136.8</ele>
        <time>2016-03-06T11:28:44Z</time>
      </trkpt>
      <trkpt lat="48.89205" lon="1.31399">
        <ele>136.8</ele>
        <time>2016-03-06T11:28:46Z</time>
      </trkpt>
      <trkpt lat="48.89206" lon="1.31385">
        <ele>136.9</ele>
        <time>2016-03-06T11:28:48Z</time>
      </trkpt>
      <trkpt lat="48.8921" lon="1.31371">
        <ele>137</ele>
        <time>2016-03-06T11:28:50Z</time>
      </trkpt>
      <trkpt lat="48.89212" lon="1.31357">
        <ele>137</ele>
        <time>2016-03-06T11:28:52Z</time>
      </trkpt>
      <trkpt lat="48.89213" lon="1.31343">
        <ele>137.1</ele>
        <time>2016-03-06T11:28:54Z</time>
      </trkpt>
      <trkpt lat="48.89215" lon="1.31329">
        <ele>137.1</ele>
        <time>2016-03-06T11:28:56Z</time>
      </trkpt>
      <trkpt lat="48.89217" lon="1.31314">
        <ele>137.2</ele>
        <time>2016-03-06T11:28:58Z</time>
      </trkpt>
      <trkpt lat="48.89219" lon="1.313">
        <ele>137.3</ele>
        <time>2016-03-06T11:29:00Z</time>
      </trkpt>
      <trkpt lat="48.89222" lon="1.31286">
        <ele>137.4</ele>
        <time>2016-03-06T11:29:02Z</time>
      </trkpt>
      <trkpt lat="48.89224" lon="1.31273">
        <ele>137.4</ele>
        <time>2016-03-06T11:29:04Z</time>
      </trkpt>
      <trkpt lat="48.89226" lon="1.31255">
        <ele>137.5</ele>
        <time>2016-03-06T11:29:07Z</time>
      </trkpt>
      <trkpt lat="48.89227" lon="1.31241">
        <ele>137.6</ele>
        <time>2016-03-06T11:29:09Z</time>
      </trkpt>
      <trkpt lat="48.89229" lon="1.31227">
        <ele>137.6</ele>
        <time>2016-03-06T11:29:11Z</time>
      </trkpt>
      <trkpt lat="48.8923" lon="1.31212">
        <ele>137.7</ele>
        <time>2016-03-06T11:29:13Z</time>
      </trkpt>
      <trkpt lat="48.8923" lon="1.31199">
        <ele>137.7</ele>
        <time>2016-03-06T11:29:15Z</time>
      </trkpt>
      <trkpt lat="48.89233" lon="1.31184">
        <ele>137.8</ele>
        <time>2016-03-06T11:29:17Z</time>
      </trkpt>
      <trkpt lat="48.89235" lon="1.31168">
        <ele>137.8</ele>
        <time>2016-03-06T11:29:19Z</time>
      </trkpt>
      <trkpt lat="48.89238" lon="1.31152">
        <ele>137.9</ele>
        <time>2016-03-06T11:29:21Z</time>
      </trkpt>
      <trkpt lat="48.8924" lon="1.31138">
        <ele>137.9</ele>
        <time>2016-03-06T11:29:23Z</time>
      </trkpt>
      <trkpt lat="48.89242" lon="1.31124">
        <ele>138</ele>
        <time>2016-03-06T11:29:25Z</time>
      </trkpt>
      <trkpt lat="48.89245" lon="1.3111">
        <ele>138</ele>
        <time>2016-03-06T11:29:27Z</time>
      </trkpt>
      <trkpt lat="48.89247" lon="1.31095">
        <ele>138</ele>
        <time>2016-03-06T11:29:29Z</time>
      </trkpt>
      <trkpt lat="48.89249" lon="1.3108">
        <ele>137.9</ele>
        <time>2016-03-06T11:29:31Z</time>
      </trkpt>
      <trkpt lat="48.89251" lon="1.31064">
        <ele>137.8</ele>
        <time>2016-03-06T11:29:33Z</time>
      </trkpt>
      <trkpt lat="48.89252" lon="1.31049">
        <ele>137.7</ele>
        <time>2016-03-06T11:29:35Z</time>
      </trkpt>
      <trkpt lat="48.89255" lon="1.31035">
        <ele>137.7</ele>
        <time>2016-03-06T11:29:37Z</time>
      </trkpt>
      <trkpt lat="48.89257" lon="1.31022">
        <ele>137.5</ele>
        <time>2016-03-06T11:29:39Z</time>
      </trkpt>
      <trkpt lat="48.89256" lon="1.31008">
        <ele>137.5</ele>
        <time>2016-03-06T11:29:41Z</time>
      </trkpt>
      <trkpt lat="48.89258" lon="1.30993">
        <ele>137.4</ele>
        <time>2016-03-06T11:29:43Z</time>
      </trkpt>
      <trkpt lat="48.89261" lon="1.30978">
        <ele>137.3</ele>
        <time>2016-03-06T11:29:45Z</time>
      </trkpt>
      <trkpt lat="48.89263" lon="1.30962">
        <ele>137.3</ele>
        <time>2016-03-06T11:29:47Z</time>
      </trkpt>
      <trkpt lat="48.89265" lon="1.30946">
        <ele>137.2</ele>
        <time>2016-03-06T11:29:49Z</time>
      </trkpt>
      <trkpt lat="48.89267" lon="1.3093">
        <ele>137.2</ele>
        <time>2016-03-06T11:29:51Z</time>
      </trkpt>
      <trkpt lat="48.89269" lon="1.30916">
        <ele>137.1</ele>
        <time>2016-03-06T11:29:53Z</time>
      </trkpt>
      <trkpt lat="48.89271" lon="1.309">
        <ele>137.1</ele>
        <time>2016-03-06T11:29:55Z</time>
      </trkpt>
      <trkpt lat="48.89272" lon="1.30885">
        <ele>137</ele>
        <time>2016-03-06T11:29:57Z</time>
      </trkpt>
      <trkpt lat="48.89274" lon="1.3087">
        <ele>137</ele>
        <time>2016-03-06T11:29:59Z</time>
      </trkpt>
      <trkpt lat="48.89276" lon="1.30857">
        <ele>137</ele>
        <time>2016-03-06T11:30:01Z</time>
      </trkpt>
      <trkpt lat="48.89279" lon="1.30844">
        <ele>137</ele>
        <time>2016-03-06T11:30:03Z</time>
      </trkpt>
      <trkpt lat="48.89286" lon="1.30831">
        <ele>136.9</ele>
        <time>2016-03-06T11:30:06Z</time>
      </trkpt>
      <trkpt lat="48.89296" lon="1.30821">
        <ele>136.8</ele>
        <time>2016-03-06T11:30:09Z</time>
      </trkpt>
      <trkpt lat="48.89307" lon="1.30812">
        <ele>136.7</ele>
        <time>2016-03-06T11:30:12Z</time>
      </trkpt>
      <trkpt lat="48.89315" lon="1.30805">
        <ele>136.7</ele>
        <time>2016-03-06T11:30:14Z</time>
      </trkpt>
      <trkpt lat="48.89323" lon="1.30797">
        <ele>136.7</ele>
        <time>2016-03-06T11:30:16Z</time>
      </trkpt>
      <trkpt lat="48.89333" lon="1.30787">
        <ele>136.6</ele>
        <time>2016-03-06T11:30:19Z</time>
      </trkpt>
      <trkpt lat="48.89341" lon="1.30776">
        <ele>136.6</ele>
        <time>2016-03-06T11:30:22Z</time>
      </trkpt>
      <trkpt lat="48.89351" lon="1.30767">
        <ele>136.6</ele>
        <time>2016-03-06T11:30:24Z</time>
      </trkpt>
      <trkpt lat="48.89361" lon="1.3076">
        <ele>136.6</ele>
        <time>2016-03-06T11:30:26Z</time>
      </trkpt>
      <trkpt lat="48.89369" lon="1.30754">
        <ele>136.6</ele>
        <time>2016-03-06T11:30:28Z</time>
      </trkpt>
      <trkpt lat="48.89377" lon="1.30747">
        <ele>136.6</ele>
        <time>2016-03-06T11:30:30Z</time>
      </trkpt>
      <trkpt lat="48.89386" lon="1.30742">
        <ele>136.6</ele>
        <time>2016-03-06T11:30:32Z</time>
      </trkpt>
      <trkpt lat="48.89398" lon="1.30731">
        <ele>136.5</ele>
        <time>2016-03-06T11:30:36Z</time>
      </trkpt>
      <trkpt lat="48.89408" lon="1.30723">
        <ele>136.5</ele>
        <time>2016-03-06T11:30:38Z</time>
      </trkpt>
      <trkpt lat="48.89417" lon="1.30712">
        <ele>136.4</ele>
        <time>2016-03-06T11:30:40Z</time>
      </trkpt>
      <trkpt lat="48.89424" lon="1.30701">
        <ele>136.4</ele>
        <time>2016-03-06T11:30:42Z</time>
      </trkpt>
      <trkpt lat="48.89432" lon="1.3069">
        <ele>136.4</ele>
        <time>2016-03-06T11:30:44Z</time>
      </trkpt>
      <trkpt lat="48.89439" lon="1.3068">
        <ele>136.4</ele>
        <time>2016-03-06T11:30:46Z</time>
      </trkpt>
      <trkpt lat="48.89447" lon="1.3067">
        <ele>136.4</ele>
        <time>2016-03-06T11:30:48Z</time>
      </trkpt>
      <trkpt lat="48.89455" lon="1.30659">
        <ele>136.4</ele>
        <time>2016-03-06T11:30:50Z</time>
      </trkpt>
      <trkpt lat="48.89462" lon="1.3065">
        <ele>136.4</ele>
        <time>2016-03-06T11:30:52Z</time>
      </trkpt>
      <trkpt lat="48.89468" lon="1.30639">
        <ele>136.4</ele>
        <time>2016-03-06T11:30:54Z</time>
      </trkpt>
      <trkpt lat="48.89475" lon="1.30627">
        <ele>136.4</ele>
        <time>2016-03-06T11:30:56Z</time>
      </trkpt>
      <trkpt lat="48.89482" lon="1.30617">
        <ele>136.3</ele>
        <time>2016-03-06T11:30:58Z</time>
      </trkpt>
      <trkpt lat="48.89491" lon="1.30603">
        <ele>136.3</ele>
        <time>2016-03-06T11:31:01Z</time>
      </trkpt>
      <trkpt lat="48.89498" lon="1.30595">
        <ele>136.3</ele>
        <time>2016-03-06T11:31:03Z</time>
      </trkpt>
      <trkpt lat="48.89507" lon="1.3058">
        <ele>136.3</ele>
        <time>2016-03-06T11:31:06Z</time>
      </trkpt>
      <trkpt lat="48.89514" lon="1.30571">
        <ele>136.3</ele>
        <time>2016-03-06T11:31:08Z</time>
      </trkpt>
      <trkpt lat="48.89523" lon="1.30558">
        <ele>136.2</ele>
        <time>2016-03-06T11:31:11Z</time>
      </trkpt>
      <trkpt lat="48.89529" lon="1.30546">
        <ele>136.2</ele>
        <time>2016-03-06T11:31:13Z</time>
      </trkpt>
      <trkpt lat="48.89535" lon="1.30536">
        <ele>136.2</ele>
        <time>2016-03-06T11:31:15Z</time>
      </trkpt>
      <trkpt lat="48.89546" lon="1.30524">
        <ele>136.2</ele>
        <time>2016-03-06T11:31:18Z</time>
      </trkpt>
      <trkpt lat="48.89552" lon="1.30512">
        <ele>136.2</ele>
        <time>2016-03-06T11:31:20Z</time>
      </trkpt>
      <trkpt lat="48.89557" lon="1.30501">
        <ele>136.2</ele>
        <time>2016-03-06T11:31:22Z</time>
      </trkpt>
      <trkpt lat="48.89564" lon="1.30489">
        <ele>136.2</ele>
        <time>2016-03-06T11:31:24Z</time>
      </trkpt>
      <trkpt lat="48.89571" lon="1.30479">
        <ele>136.2</ele>
        <time>2016-03-06T11:31:26Z</time>
      </trkpt>
      <trkpt lat="48.89577" lon="1.3046">
        <ele>136.2</ele>
        <time>2016-03-06T11:31:29Z</time>
      </trkpt>
      <trkpt lat="48.89581" lon="1.30447">
        <ele>136.2</ele>
        <time>2016-03-06T11:31:31Z</time>
      </trkpt>
      <trkpt lat="48.89586" lon="1.30435">
        <ele>136.2</ele>
        <time>2016-03-06T11:31:33Z</time>
      </trkpt>
      <trkpt lat="48.89589" lon="1.30418">
        <ele>136.2</ele>
        <time>2016-03-06T11:31:35Z</time>
      </trkpt>
      <trkpt lat="48.89596" lon="1.30404">
        <ele>136.2</ele>
        <time>2016-03-06T11:31:37Z</time>
      </trkpt>
      <trkpt lat="48.89602" lon="1.30392">
        <ele>136.2</ele>
        <time>2016-03-06T11:31:39Z</time>
      </trkpt>
      <trkpt lat="48.89608" lon="1.3038">
        <ele>136.2</ele>
        <time>2016-03-06T11:31:41Z</time>
      </trkpt>
      <trkpt lat="48.89614" lon="1.30367">
        <ele>136.2</ele>
        <time>2016-03-06T11:31:43Z</time>
      </trkpt>
      <trkpt lat="48.89619" lon="1.30355">
        <ele>136.2</ele>
        <time>2016-03-06T11:31:45Z</time>
      </trkpt>
      <trkpt lat="48.89624" lon="1.30338">
        <ele>136.2</ele>
        <time>2016-03-06T11:31:48Z</time>
      </trkpt>
      <trkpt lat="48.89627" lon="1.30322">
        <ele>136.2</ele>
        <time>2016-03-06T11:31:50Z</time>
      </trkpt>
      <trkpt lat="48.89629" lon="1.30308">
        <ele>136.2</ele>
        <time>2016-03-06T11:31:52Z</time>
      </trkpt>
      <trkpt lat="48.89634" lon="1.30296">
        <ele>136.2</ele>
        <time>2016-03-06T11:31:54Z</time>
      </trkpt>
      <trkpt lat="48.8964" lon="1.30282">
        <ele>136.2</ele>
        <time>2016-03-06T11:31:56Z</time>
      </trkpt>
      <trkpt lat="48.89645" lon="1.30271">
        <ele>136.2</ele>
        <time>2016-03-06T11:31:58Z</time>
      </trkpt>
      <trkpt lat="48.89652" lon="1.30253">
        <ele>136.2</ele>
        <time>2016-03-06T11:32:01Z</time>
      </trkpt>
      <trkpt lat="48.89658" lon="1.30241">
        <ele>136.2</ele>
        <time>2016-03-06T11:32:03Z</time>
      </trkpt>
      <trkpt lat="48.89664" lon="1.30228">
        <ele>136.2</ele>
        <time>2016-03-06T11:32:05Z</time>
      </trkpt>
      <trkpt lat="48.89671" lon="1.30218">
        <ele>136.2</ele>
        <time>2016-03-06T11:32:07Z</time>
      </trkpt>
      <trkpt lat="48.8968" lon="1.30205">
        <ele>136.1</ele>
        <time>2016-03-06T11:32:10Z</time>
      </trkpt>
      <trkpt lat="48.89684" lon="1.30191">
        <ele>136.1</ele>
        <time>2016-03-06T11:32:12Z</time>
      </trkpt>
      <trkpt lat="48.8969" lon="1.30177">
        <ele>136.1</ele>
        <time>2016-03-06T11:32:14Z</time>
      </trkpt>
      <trkpt lat="48.89696" lon="1.30165">
        <ele>136.1</ele>
        <time>2016-03-06T11:32:16Z</time>
      </trkpt>
      <trkpt lat="48.89696" lon="1.30148">
        <ele>136.1</ele>
        <time>2016-03-06T11:32:18Z</time>
      </trkpt>
      <trkpt lat="48.89697" lon="1.30131">
        <ele>136.1</ele>
        <time>2016-03-06T11:32:20Z</time>
      </trkpt>
      <trkpt lat="48.89697" lon="1.30113">
        <ele>136.1</ele>
        <time>2016-03-06T11:32:22Z</time>
      </trkpt>
      <trkpt lat="48.89696" lon="1.30096">
        <ele>136.1</ele>
        <time>2016-03-06T11:32:24Z</time>
      </trkpt>
      <trkpt lat="48.89698" lon="1.30082">
        <ele>136.1</ele>
        <time>2016-03-06T11:32:26Z</time>
      </trkpt>
      <trkpt lat="48.89704" lon="1.30068">
        <ele>136.1</ele>
        <time>2016-03-06T11:32:30Z</time>
      </trkpt>
      <trkpt lat="48.89705" lon="1.30051">
        <ele>136</ele>
        <time>2016-03-06T11:32:35Z</time>
      </trkpt>
      <trkpt lat="48.89711" lon="1.30036">
        <ele>135.9</ele>
        <time>2016-03-06T11:32:38Z</time>
      </trkpt>
      <trkpt lat="48.89717" lon="1.30019">
        <ele>135.8</ele>
        <time>2016-03-06T11:32:41Z</time>
      </trkpt>
      <trkpt lat="48.89723" lon="1.30004">
        <ele>135.7</ele>
        <time>2016-03-06T11:32:44Z</time>
      </trkpt>
      <trkpt lat="48.89728" lon="1.29988">
        <ele>135.7</ele>
        <time>2016-03-06T11:32:47Z</time>
      </trkpt>
      <trkpt lat="48.89732" lon="1.29975">
        <ele>135.7</ele>
        <time>2016-03-06T11:32:49Z</time>
      </trkpt>
      <trkpt lat="48.89737" lon="1.29965">
        <ele>135.6</ele>
        <time>2016-03-06T11:32:51Z</time>
      </trkpt>
      <trkpt lat="48.89746" lon="1.2995">
        <ele>135.6</ele>
        <time>2016-03-06T11:32:54Z</time>
      </trkpt>
      <trkpt lat="48.89755" lon="1.29933">
        <ele>135.6</ele>
        <time>2016-03-06T11:32:57Z</time>
      </trkpt>
      <trkpt lat="48.89761" lon="1.29922">
        <ele>135.6</ele>
        <time>2016-03-06T11:32:59Z</time>
      </trkpt>
      <trkpt lat="48.89768" lon="1.29902">
        <ele>135.5</ele>
        <time>2016-03-06T11:33:02Z</time>
      </trkpt>
      <trkpt lat="48.89774" lon="1.29889">
        <ele>135.5</ele>
        <time>2016-03-06T11:33:04Z</time>
      </trkpt>
      <trkpt lat="48.89777" lon="1.29874">
        <ele>135.5</ele>
        <time>2016-03-06T11:33:06Z</time>
      </trkpt>
      <trkpt lat="48.89782" lon="1.2986">
        <ele>135.5</ele>
        <time>2016-03-06T11:33:08Z</time>
      </trkpt>
      <trkpt lat="48.89786" lon="1.29845">
        <ele>135.5</ele>
        <time>2016-03-06T11:33:10Z</time>
      </trkpt>
      <trkpt lat="48.8979" lon="1.29831">
        <ele>135.5</ele>
        <time>2016-03-06T11:33:12Z</time>
      </trkpt>
      <trkpt lat="48.89794" lon="1.29818">
        <ele>135.5</ele>
        <time>2016-03-06T11:33:14Z</time>
      </trkpt>
      <trkpt lat="48.89799" lon="1.29806">
        <ele>135.5</ele>
        <time>2016-03-06T11:33:16Z</time>
      </trkpt>
      <trkpt lat="48.89803" lon="1.29791">
        <ele>135.5</ele>
        <time>2016-03-06T11:33:18Z</time>
      </trkpt>
      <trkpt lat="48.89806" lon="1.29776">
        <ele>135.5</ele>
        <time>2016-03-06T11:33:20Z</time>
      </trkpt>
      <trkpt lat="48.8981" lon="1.29759">
        <ele>135.5</ele>
        <time>2016-03-06T11:33:22Z</time>
      </trkpt>
      <trkpt lat="48.89815" lon="1.29745">
        <ele>135.4</ele>
        <time>2016-03-06T11:33:24Z</time>
      </trkpt>
      <trkpt lat="48.89818" lon="1.29731">
        <ele>135.4</ele>
        <time>2016-03-06T11:33:26Z</time>
      </trkpt>
      <trkpt lat="48.89821" lon="1.29717">
        <ele>135.3</ele>
        <time>2016-03-06T11:33:28Z</time>
      </trkpt>
      <trkpt lat="48.89827" lon="1.29706">
        <ele>135.2</ele>
        <time>2016-03-06T11:33:30Z</time>
      </trkpt>
      <trkpt lat="48.89835" lon="1.29689">
        <ele>135.1</ele>
        <time>2016-03-06T11:33:33Z</time>
      </trkpt>
      <trkpt lat="48.89842" lon="1.29676">
        <ele>134.9</ele>
        <time>2016-03-06T11:33:35Z</time>
      </trkpt>
      <trkpt lat="48.89851" lon="1.29663">
        <ele>134.6</ele>
        <time>2016-03-06T11:33:38Z</time>
      </trkpt>
      <trkpt lat="48.89858" lon="1.29647">
        <ele>134.4</ele>
        <time>2016-03-06T11:33:41Z</time>
      </trkpt>
      <trkpt lat="48.89863" lon="1.29635">
        <ele>134.2</ele>
        <time>2016-03-06T11:33:43Z</time>
      </trkpt>
      <trkpt lat="48.89862" lon="1.29612">
        <ele>134</ele>
        <time>2016-03-06T11:33:46Z</time>
      </trkpt>
      <trkpt lat="48.89862" lon="1.29593">
        <ele>133.9</ele>
        <time>2016-03-06T11:33:48Z</time>
      </trkpt>
      <trkpt lat="48.89858" lon="1.29576">
        <ele>133.8</ele>
        <time>2016-03-06T11:33:50Z</time>
      </trkpt>
      <trkpt lat="48.89858" lon="1.29558">
        <ele>133.7</ele>
        <time>2016-03-06T11:33:52Z</time>
      </trkpt>
      <trkpt lat="48.89857" lon="1.29539">
        <ele>133.6</ele>
        <time>2016-03-06T11:33:54Z</time>
      </trkpt>
      <trkpt lat="48.89855" lon="1.29521">
        <ele>133.6</ele>
        <time>2016-03-06T11:33:56Z</time>
      </trkpt>
      <trkpt lat="48.89853" lon="1.29504">
        <ele>133.6</ele>
        <time>2016-03-06T11:33:58Z</time>
      </trkpt>
      <trkpt lat="48.89849" lon="1.29489">
        <ele>133.6</ele>
        <time>2016-03-06T11:34:00Z</time>
      </trkpt>
      <trkpt lat="48.89848" lon="1.29472">
        <ele>133.6</ele>
        <time>2016-03-06T11:34:02Z</time>
      </trkpt>
      <trkpt lat="48.89851" lon="1.29455">
        <ele>133.6</ele>
        <time>2016-03-06T11:34:04Z</time>
      </trkpt>
      <trkpt lat="48.89855" lon="1.29441">
        <ele>133.6</ele>
        <time>2016-03-06T11:34:06Z</time>
      </trkpt>
      <trkpt lat="48.89858" lon="1.29427">
        <ele>133.6</ele>
        <time>2016-03-06T11:34:08Z</time>
      </trkpt>
      <trkpt lat="48.89863" lon="1.29413">
        <ele>133.7</ele>
        <time>2016-03-06T11:34:10Z</time>
      </trkpt>
      <trkpt lat="48.89869" lon="1.29399">
        <ele>133.7</ele>
        <time>2016-03-06T11:34:12Z</time>
      </trkpt>
      <trkpt lat="48.89874" lon="1.29385">
        <ele>133.8</ele>
        <time>2016-03-06T11:34:14Z</time>
      </trkpt>
      <trkpt lat="48.89878" lon="1.29372">
        <ele>133.8</ele>
        <time>2016-03-06T11:34:16Z</time>
      </trkpt>
      <trkpt lat="48.89883" lon="1.29357">
        <ele>133.8</ele>
        <time>2016-03-06T11:34:18Z</time>
      </trkpt>
      <trkpt lat="48.89887" lon="1.29343">
        <ele>133.9</ele>
        <time>2016-03-06T11:34:20Z</time>
      </trkpt>
      <trkpt lat="48.89892" lon="1.29329">
        <ele>133.9</ele>
        <time>2016-03-06T11:34:22Z</time>
      </trkpt>
      <trkpt lat="48.89895" lon="1.29315">
        <ele>134</ele>
        <time>2016-03-06T11:34:24Z</time>
      </trkpt>
      <trkpt lat="48.89899" lon="1.29297">
        <ele>134.1</ele>
        <time>2016-03-06T11:34:27Z</time>
      </trkpt>
      <trkpt lat="48.89902" lon="1.29277">
        <ele>134.2</ele>
        <time>2016-03-06T11:34:30Z</time>
      </trkpt>
      <trkpt lat="48.89903" lon="1.2926">
        <ele>134.2</ele>
        <time>2016-03-06T11:34:32Z</time>
      </trkpt>
      <trkpt lat="48.89908" lon="1.29244">
        <ele>134.3</ele>
        <time>2016-03-06T11:34:34Z</time>
      </trkpt>
      <trkpt lat="48.89916" lon="1.29229">
        <ele>134.1</ele>
        <time>2016-03-06T11:34:36Z</time>
      </trkpt>
      <trkpt lat="48.89923" lon="1.29214">
        <ele>134</ele>
        <time>2016-03-06T11:34:38Z</time>
      </trkpt>
      <trkpt lat="48.89928" lon="1.29197">
        <ele>133.8</ele>
        <time>2016-03-06T11:34:40Z</time>
      </trkpt>
      <trkpt lat="48.89932" lon="1.29179">
        <ele>133.5</ele>
        <time>2016-03-06T11:34:42Z</time>
      </trkpt>
      <trkpt lat="48.89936" lon="1.29163">
        <ele>133.3</ele>
        <time>2016-03-06T11:34:44Z</time>
      </trkpt>
      <trkpt lat="48.8994" lon="1.29149">
        <ele>133.2</ele>
        <time>2016-03-06T11:34:46Z</time>
      </trkpt>
      <trkpt lat="48.89945" lon="1.29136">
        <ele>133</ele>
        <time>2016-03-06T11:34:48Z</time>
      </trkpt>
      <trkpt lat="48.89951" lon="1.29118">
        <ele>132.7</ele>
        <time>2016-03-06T11:34:51Z</time>
      </trkpt>
      <trkpt lat="48.89957" lon="1.29103">
        <ele>132.5</ele>
        <time>2016-03-06T11:34:54Z</time>
      </trkpt>
      <trkpt lat="48.89962" lon="1.29086">
        <ele>132.4</ele>
        <time>2016-03-06T11:34:57Z</time>
      </trkpt>
      <trkpt lat="48.89968" lon="1.2907">
        <ele>132.3</ele>
        <time>2016-03-06T11:35:00Z</time>
      </trkpt>
      <trkpt lat="48.89974" lon="1.29054">
        <ele>132.4</ele>
        <time>2016-03-06T11:35:03Z</time>
      </trkpt>
      <trkpt lat="48.89979" lon="1.29039">
        <ele>132.4</ele>
        <time>2016-03-06T11:35:06Z</time>
      </trkpt>
      <trkpt lat="48.89984" lon="1.29025">
        <ele>132.7</ele>
        <time>2016-03-06T11:35:09Z</time>
      </trkpt>
      <trkpt lat="48.8999" lon="1.29011">
        <ele>132.9</ele>
        <time>2016-03-06T11:35:12Z</time>
      </trkpt>
      <trkpt lat="48.89996" lon="1.28997">
        <ele>133.1</ele>
        <time>2016-03-06T11:35:15Z</time>
      </trkpt>
      <trkpt lat="48.90002" lon="1.28983">
        <ele>133.3</ele>
        <time>2016-03-06T11:35:18Z</time>
      </trkpt>
      <trkpt lat="48.90009" lon="1.2897">
        <ele>133.5</ele>
        <time>2016-03-06T11:35:21Z</time>
      </trkpt>
      <trkpt lat="48.90015" lon="1.28956">
        <ele>133.7</ele>
        <time>2016-03-06T11:35:24Z</time>
      </trkpt>
      <trkpt lat="48.90021" lon="1.28942">
        <ele>133.9</ele>
        <time>2016-03-06T11:35:27Z</time>
      </trkpt>
      <trkpt lat="48.90028" lon="1.28928">
        <ele>134.1</ele>
        <time>2016-03-06T11:35:30Z</time>
      </trkpt>
      <trkpt lat="48.90035" lon="1.28913">
        <ele>134.3</ele>
        <time>2016-03-06T11:35:33Z</time>
      </trkpt>
      <trkpt lat="48.90041" lon="1.28898">
        <ele>134.5</ele>
        <time>2016-03-06T11:35:36Z</time>
      </trkpt>
      <trkpt lat="48.90048" lon="1.28882">
        <ele>134.6</ele>
        <time>2016-03-06T11:35:39Z</time>
      </trkpt>
      <trkpt lat="48.90055" lon="1.28867">
        <ele>134.8</ele>
        <time>2016-03-06T11:35:42Z</time>
      </trkpt>
      <trkpt lat="48.90061" lon="1.28851">
        <ele>135</ele>
        <time>2016-03-06T11:35:45Z</time>
      </trkpt>
      <trkpt lat="48.90067" lon="1.28834">
        <ele>135.3</ele>
        <time>2016-03-06T11:35:48Z</time>
      </trkpt>
      <trkpt lat="48.90074" lon="1.28818">
        <ele>135.7</ele>
        <time>2016-03-06T11:35:51Z</time>
      </trkpt>
      <trkpt lat="48.9008" lon="1.28801">
        <ele>135.9</ele>
        <time>2016-03-06T11:35:54Z</time>
      </trkpt>
      <trkpt lat="48.90086" lon="1.28785">
        <ele>136.2</ele>
        <time>2016-03-06T11:35:57Z</time>
      </trkpt>
      <trkpt lat="48.90092" lon="1.28769">
        <ele>136.5</ele>
        <time>2016-03-06T11:36:00Z</time>
      </trkpt>
      <trkpt lat="48.90098" lon="1.28752">
        <ele>136.8</ele>
        <time>2016-03-06T11:36:03Z</time>
      </trkpt>
      <trkpt lat="48.90103" lon="1.28736">
        <ele>137.1</ele>
        <time>2016-03-06T11:36:06Z</time>
      </trkpt>
      <trkpt lat="48.90109" lon="1.2872">
        <ele>137.4</ele>
        <time>2016-03-06T11:36:09Z</time>
      </trkpt>
      <trkpt lat="48.90114" lon="1.28703">
        <ele>137.7</ele>
        <time>2016-03-06T11:36:12Z</time>
      </trkpt>
      <trkpt lat="48.90119" lon="1.28685">
        <ele>137.9</ele>
        <time>2016-03-06T11:36:15Z</time>
      </trkpt>
      <trkpt lat="48.90124" lon="1.28667">
        <ele>138.1</ele>
        <time>2016-03-06T11:36:18Z</time>
      </trkpt>
      <trkpt lat="48.90129" lon="1.28649">
        <ele>138.2</ele>
        <time>2016-03-06T11:36:21Z</time>
      </trkpt>
      <trkpt lat="48.90134" lon="1.2863">
        <ele>138.3</ele>
        <time>2016-03-06T11:36:24Z</time>
      </trkpt>
      <trkpt lat="48.90138" lon="1.28611">
        <ele>138.4</ele>
        <time>2016-03-06T11:36:27Z</time>
      </trkpt>
      <trkpt lat="48.90143" lon="1.28593">
        <ele>138.5</ele>
        <time>2016-03-06T11:36:30Z</time>
      </trkpt>
      <trkpt lat="48.90148" lon="1.28575">
        <ele>138.6</ele>
        <time>2016-03-06T11:36:33Z</time>
      </trkpt>
      <trkpt lat="48.90153" lon="1.28556">
        <ele>138.8</ele>
        <time>2016-03-06T11:36:36Z</time>
      </trkpt>
      <trkpt lat="48.90158" lon="1.28537">
        <ele>138.9</ele>
        <time>2016-03-06T11:36:39Z</time>
      </trkpt>
      <trkpt lat="48.90163" lon="1.28518">
        <ele>139</ele>
        <time>2016-03-06T11:36:42Z</time>
      </trkpt>
      <trkpt lat="48.90168" lon="1.285">
        <ele>139.1</ele>
        <time>2016-03-06T11:36:45Z</time>
      </trkpt>
      <trkpt lat="48.90172" lon="1.2848">
        <ele>139.3</ele>
        <time>2016-03-06T11:36:48Z</time>
      </trkpt>
      <trkpt lat="48.90175" lon="1.28468">
        <ele>139.4</ele>
        <time>2016-03-06T11:36:50Z</time>
      </trkpt>
      <trkpt lat="48.90179" lon="1.28455">
        <ele>139.5</ele>
        <time>2016-03-06T11:36:52Z</time>
      </trkpt>
      <trkpt lat="48.90182" lon="1.28442">
        <ele>139.8</ele>
        <time>2016-03-06T11:36:54Z</time>
      </trkpt>
      <trkpt lat="48.90187" lon="1.28423">
        <ele>140</ele>
        <time>2016-03-06T11:36:57Z</time>
      </trkpt>
      <trkpt lat="48.9019" lon="1.2841">
        <ele>140.2</ele>
        <time>2016-03-06T11:36:59Z</time>
      </trkpt>
      <trkpt lat="48.90193" lon="1.28397">
        <ele>140.3</ele>
        <time>2016-03-06T11:37:01Z</time>
      </trkpt>
      <trkpt lat="48.90197" lon="1.28384">
        <ele>140.4</ele>
        <time>2016-03-06T11:37:03Z</time>
      </trkpt>
      <trkpt lat="48.902" lon="1.28371">
        <ele>140.5</ele>
        <time>2016-03-06T11:37:05Z</time>
      </trkpt>
      <trkpt lat="48.90203" lon="1.28358">
        <ele>140.6</ele>
        <time>2016-03-06T11:37:07Z</time>
      </trkpt>
      <trkpt lat="48.90206" lon="1.28345">
        <ele>140.7</ele>
        <time>2016-03-06T11:37:09Z</time>
      </trkpt>
      <trkpt lat="48.90209" lon="1.28331">
        <ele>140.7</ele>
        <time>2016-03-06T11:37:11Z</time>
      </trkpt>
      <trkpt lat="48.90213" lon="1.28317">
        <ele>140.8</ele>
        <time>2016-03-06T11:37:13Z</time>
      </trkpt>
      <trkpt lat="48.90216" lon="1.28303">
        <ele>140.8</ele>
        <time>2016-03-06T11:37:15Z</time>
      </trkpt>
      <trkpt lat="48.90219" lon="1.28289">
        <ele>140.9</ele>
        <time>2016-03-06T11:37:17Z</time>
      </trkpt>
      <trkpt lat="48.90223" lon="1.28275">
        <ele>140.9</ele>
        <time>2016-03-06T11:37:19Z</time>
      </trkpt>
      <trkpt lat="48.90226" lon="1.28261">
        <ele>141</ele>
        <time>2016-03-06T11:37:21Z</time>
      </trkpt>
      <trkpt lat="48.90229" lon="1.28247">
        <ele>141</ele>
        <time>2016-03-06T11:37:23Z</time>
      </trkpt>
      <trkpt lat="48.90232" lon="1.28233">
        <ele>141.1</ele>
        <time>2016-03-06T11:37:25Z</time>
      </trkpt>
      <trkpt lat="48.90235" lon="1.28218">
        <ele>141.1</ele>
        <time>2016-03-06T11:37:27Z</time>
      </trkpt>
      <trkpt lat="48.90239" lon="1.28204">
        <ele>141.1</ele>
        <time>2016-03-06T11:37:29Z</time>
      </trkpt>
      <trkpt lat="48.90242" lon="1.2819">
        <ele>141.2</ele>
        <time>2016-03-06T11:37:31Z</time>
      </trkpt>
      <trkpt lat="48.90244" lon="1.28177">
        <ele>141.2</ele>
        <time>2016-03-06T11:37:33Z</time>
      </trkpt>
      <trkpt lat="48.90248" lon="1.28158">
        <ele>141.2</ele>
        <time>2016-03-06T11:37:36Z</time>
      </trkpt>
      <trkpt lat="48.90248" lon="1.28144">
        <ele>141.1</ele>
        <time>2016-03-06T11:37:38Z</time>
      </trkpt>
      <trkpt lat="48.90249" lon="1.28129">
        <ele>141</ele>
        <time>2016-03-06T11:37:40Z</time>
      </trkpt>
      <trkpt lat="48.90254" lon="1.28118">
        <ele>141</ele>
        <time>2016-03-06T11:37:42Z</time>
      </trkpt>
      <trkpt lat="48.90264" lon="1.28117">
        <ele>140.9</ele>
        <time>2016-03-06T11:37:44Z</time>
      </trkpt>
      <trkpt lat="48.90275" lon="1.2812">
        <ele>140.9</ele>
        <time>2016-03-06T11:37:46Z</time>
      </trkpt>
      <trkpt lat="48.90286" lon="1.28125">
        <ele>140.8</ele>
        <time>2016-03-06T11:37:48Z</time>
      </trkpt>
      <trkpt lat="48.90296" lon="1.28129">
        <ele>140.7</ele>
        <time>2016-03-06T11:37:50Z</time>
      </trkpt>
      <trkpt lat="48.90307" lon="1.28133">
        <ele>140.7</ele>
        <time>2016-03-06T11:37:52Z</time>
      </trkpt>
      <trkpt lat="48.90317" lon="1.28137">
        <ele>140.7</ele>
        <time>2016-03-06T11:37:54Z</time>
      </trkpt>
      <trkpt lat="48.90327" lon="1.28142">
        <ele>140.6</ele>
        <time>2016-03-06T11:37:56Z</time>
      </trkpt>
      <trkpt lat="48.90338" lon="1.28145">
        <ele>140.6</ele>
        <time>2016-03-06T11:37:58Z</time>
      </trkpt>
      <trkpt lat="48.9035" lon="1.28148">
        <ele>140.5</ele>
        <time>2016-03-06T11:38:00Z</time>
      </trkpt>
      <trkpt lat="48.90361" lon="1.2815">
        <ele>140.5</ele>
        <time>2016-03-06T11:38:02Z</time>
      </trkpt>
      <trkpt lat="48.90371" lon="1.28151">
        <ele>140.5</ele>
        <time>2016-03-06T11:38:04Z</time>
      </trkpt>
      <trkpt lat="48.90382" lon="1.28151">
        <ele>140.3</ele>
        <time>2016-03-06T11:38:06Z</time>
      </trkpt>
      <trkpt lat="48.90392" lon="1.2815">
        <ele>140.2</ele>
        <time>2016-03-06T11:38:08Z</time>
      </trkpt>
      <trkpt lat="48.90403" lon="1.28149">
        <ele>140.1</ele>
        <time>2016-03-06T11:38:10Z</time>
      </trkpt>
      <trkpt lat="48.90412" lon="1.28162">
        <ele>139.9</ele>
        <time>2016-03-06T11:38:13Z</time>
      </trkpt>
      <trkpt lat="48.90414" lon="1.28177">
        <ele>139.8</ele>
        <time>2016-03-06T11:38:15Z</time>
      </trkpt>
      <trkpt lat="48.90415" lon="1.28194">
        <ele>139.6</ele>
        <time>2016-03-06T11:38:17Z</time>
      </trkpt>
      <trkpt lat="48.90416" lon="1.28212">
        <ele>139.5</ele>
        <time>2016-03-06T11:38:19Z</time>
      </trkpt>
      <trkpt lat="48.90417" lon="1.2823">
        <ele>139.3</ele>
        <time>2016-03-06T11:38:21Z</time>
      </trkpt>
      <trkpt lat="48.90418" lon="1.28248">
        <ele>139.2</ele>
        <time>2016-03-06T11:38:23Z</time>
      </trkpt>
      <trkpt lat="48.9042" lon="1.28266">
        <ele>139.1</ele>
        <time>2016-03-06T11:38:25Z</time>
      </trkpt>
      <trkpt lat="48.90421" lon="1.28284">
        <ele>139</ele>
        <time>2016-03-06T11:38:27Z</time>
      </trkpt>
      <trkpt lat="48.90422" lon="1.283">
        <ele>138.9</ele>
        <time>2016-03-06T11:38:29Z</time>
      </trkpt>
      <trkpt lat="48.90423" lon="1.28317">
        <ele>138.8</ele>
        <time>2016-03-06T11:38:31Z</time>
      </trkpt>
      <trkpt lat="48.90424" lon="1.28335">
        <ele>138.7</ele>
        <time>2016-03-06T11:38:33Z</time>
      </trkpt>
      <trkpt lat="48.90426" lon="1.28351">
        <ele>138.5</ele>
        <time>2016-03-06T11:38:35Z</time>
      </trkpt>
      <trkpt lat="48.90427" lon="1.28368">
        <ele>138.4</ele>
        <time>2016-03-06T11:38:37Z</time>
      </trkpt>
      <trkpt lat="48.90428" lon="1.28384">
        <ele>138.2</ele>
        <time>2016-03-06T11:38:39Z</time>
      </trkpt>
      <trkpt lat="48.90428" lon="1.284">
        <ele>138.1</ele>
        <time>2016-03-06T11:38:41Z</time>
      </trkpt>
      <trkpt lat="48.9043" lon="1.28415">
        <ele>138</ele>
        <time>2016-03-06T11:38:43Z</time>
      </trkpt>
      <trkpt lat="48.90431" lon="1.28431">
        <ele>137.9</ele>
        <time>2016-03-06T11:38:45Z</time>
      </trkpt>
      <trkpt lat="48.90432" lon="1.28445">
        <ele>137.9</ele>
        <time>2016-03-06T11:38:47Z</time>
      </trkpt>
      <trkpt lat="48.90433" lon="1.2846">
        <ele>137.8</ele>
        <time>2016-03-06T11:38:49Z</time>
      </trkpt>
      <trkpt lat="48.90434" lon="1.28474">
        <ele>137.7</ele>
        <time>2016-03-06T11:38:51Z</time>
      </trkpt>
      <trkpt lat="48.90439" lon="1.28492">
        <ele>137.7</ele>
        <time>2016-03-06T11:38:54Z</time>
      </trkpt>
      <trkpt lat="48.90448" lon="1.28498">
        <ele>137.6</ele>
        <time>2016-03-06T11:38:57Z</time>
      </trkpt>
      <trkpt lat="48.90456" lon="1.28483">
        <ele>137.5</ele>
        <time>2016-03-06T11:39:01Z</time>
      </trkpt>
      <trkpt lat="48.90461" lon="1.28467">
        <ele>137.5</ele>
        <time>2016-03-06T11:39:04Z</time>
      </trkpt>
      <trkpt lat="48.90465" lon="1.28455">
        <ele>137.5</ele>
        <time>2016-03-06T11:39:06Z</time>
      </trkpt>
      <trkpt lat="48.9047" lon="1.2844">
        <ele>137.5</ele>
        <time>2016-03-06T11:39:08Z</time>
      </trkpt>
      <trkpt lat="48.90475" lon="1.28425">
        <ele>137.4</ele>
        <time>2016-03-06T11:39:10Z</time>
      </trkpt>
      <trkpt lat="48.9048" lon="1.28409">
        <ele>137.4</ele>
        <time>2016-03-06T11:39:12Z</time>
      </trkpt>
      <trkpt lat="48.90486" lon="1.28393">
        <ele>137.4</ele>
        <time>2016-03-06T11:39:14Z</time>
      </trkpt>
      <trkpt lat="48.90492" lon="1.28377">
        <ele>137.4</ele>
        <time>2016-03-06T11:39:16Z</time>
      </trkpt>
      <trkpt lat="48.90498" lon="1.28361">
        <ele>137.4</ele>
        <time>2016-03-06T11:39:18Z</time>
      </trkpt>
      <trkpt lat="48.90505" lon="1.28346">
        <ele>137.4</ele>
        <time>2016-03-06T11:39:20Z</time>
      </trkpt>
      <trkpt lat="48.9051" lon="1.28331">
        <ele>137.4</ele>
        <time>2016-03-06T11:39:22Z</time>
      </trkpt>
      <trkpt lat="48.90516" lon="1.28316">
        <ele>137.4</ele>
        <time>2016-03-06T11:39:24Z</time>
      </trkpt>
      <trkpt lat="48.90523" lon="1.28301">
        <ele>137.4</ele>
        <time>2016-03-06T11:39:26Z</time>
      </trkpt>
      <trkpt lat="48.90529" lon="1.28285">
        <ele>137.4</ele>
        <time>2016-03-06T11:39:28Z</time>
      </trkpt>
      <trkpt lat="48.90535" lon="1.2827">
        <ele>137.4</ele>
        <time>2016-03-06T11:39:30Z</time>
      </trkpt>
      <trkpt lat="48.90542" lon="1.28254">
        <ele>137.2</ele>
        <time>2016-03-06T11:39:32Z</time>
      </trkpt>
      <trkpt lat="48.90549" lon="1.28239">
        <ele>137.1</ele>
        <time>2016-03-06T11:39:34Z</time>
      </trkpt>
      <trkpt lat="48.90555" lon="1.28224">
        <ele>137</ele>
        <time>2016-03-06T11:39:36Z</time>
      </trkpt>
      <trkpt lat="48.90561" lon="1.28209">
        <ele>136.9</ele>
        <time>2016-03-06T11:39:38Z</time>
      </trkpt>
      <trkpt lat="48.90569" lon="1.282">
        <ele>136.8</ele>
        <time>2016-03-06T11:39:40Z</time>
      </trkpt>
      <trkpt lat="48.90579" lon="1.28202">
        <ele>136.7</ele>
        <time>2016-03-06T11:39:42Z</time>
      </trkpt>
      <trkpt lat="48.90585" lon="1.28215">
        <ele>136.6</ele>
        <time>2016-03-06T11:39:44Z</time>
      </trkpt>
      <trkpt lat="48.90588" lon="1.2823">
        <ele>136.5</ele>
        <time>2016-03-06T11:39:46Z</time>
      </trkpt>
      <trkpt lat="48.90592" lon="1.28245">
        <ele>136.5</ele>
        <time>2016-03-06T11:39:48Z</time>
      </trkpt>
      <trkpt lat="48.90595" lon="1.28261">
        <ele>136.4</ele>
        <time>2016-03-06T11:39:50Z</time>
      </trkpt>
      <trkpt lat="48.90599" lon="1.28277">
        <ele>136.4</ele>
        <time>2016-03-06T11:39:52Z</time>
      </trkpt>
      <trkpt lat="48.90602" lon="1.28293">
        <ele>136.3</ele>
        <time>2016-03-06T11:39:54Z</time>
      </trkpt>
      <trkpt lat="48.90606" lon="1.28308">
        <ele>136.3</ele>
        <time>2016-03-06T11:39:56Z</time>
      </trkpt>
      <trkpt lat="48.9061" lon="1.28324">
        <ele>136.3</ele>
        <time>2016-03-06T11:39:58Z</time>
      </trkpt>
      <trkpt lat="48.90613" lon="1.2834">
        <ele>136.2</ele>
        <time>2016-03-06T11:40:00Z</time>
      </trkpt>
      <trkpt lat="48.90617" lon="1.28356">
        <ele>136.2</ele>
        <time>2016-03-06T11:40:02Z</time>
      </trkpt>
      <trkpt lat="48.9062" lon="1.28373">
        <ele>136.2</ele>
        <time>2016-03-06T11:40:04Z</time>
      </trkpt>
      <trkpt lat="48.90624" lon="1.28389">
        <ele>136.2</ele>
        <time>2016-03-06T11:40:06Z</time>
      </trkpt>
      <trkpt lat="48.90627" lon="1.28406">
        <ele>136.2</ele>
        <time>2016-03-06T11:40:08Z</time>
      </trkpt>
      <trkpt lat="48.90631" lon="1.28423">
        <ele>136.2</ele>
        <time>2016-03-06T11:40:10Z</time>
      </trkpt>
      <trkpt lat="48.90634" lon="1.28438">
        <ele>136.1</ele>
        <time>2016-03-06T11:40:12Z</time>
      </trkpt>
      <trkpt lat="48.90641" lon="1.2845">
        <ele>136.1</ele>
        <time>2016-03-06T11:40:15Z</time>
      </trkpt>
      <trkpt lat="48.90651" lon="1.28448">
        <ele>136</ele>
        <time>2016-03-06T11:40:21Z</time>
      </trkpt>
      <trkpt lat="48.90661" lon="1.28443">
        <ele>136</ele>
        <time>2016-03-06T11:40:24Z</time>
      </trkpt>
      <trkpt lat="48.90673" lon="1.28438">
        <ele>136.1</ele>
        <time>2016-03-06T11:40:27Z</time>
      </trkpt>
      <trkpt lat="48.90685" lon="1.28432">
        <ele>136.2</ele>
        <time>2016-03-06T11:40:30Z</time>
      </trkpt>
      <trkpt lat="48.90694" lon="1.28423">
        <ele>136.4</ele>
        <time>2016-03-06T11:40:33Z</time>
      </trkpt>
      <trkpt lat="48.90703" lon="1.28419">
        <ele>136.7</ele>
        <time>2016-03-06T11:40:38Z</time>
      </trkpt>
      <trkpt lat="48.90714" lon="1.28414">
        <ele>136.9</ele>
        <time>2016-03-06T11:40:41Z</time>
      </trkpt>
      <trkpt lat="48.90726" lon="1.28408">
        <ele>137.1</ele>
        <time>2016-03-06T11:40:44Z</time>
      </trkpt>
      <trkpt lat="48.90738" lon="1.28402">
        <ele>137.3</ele>
        <time>2016-03-06T11:40:47Z</time>
      </trkpt>
      <trkpt lat="48.90748" lon="1.28395">
        <ele>137.5</ele>
        <time>2016-03-06T11:40:50Z</time>
      </trkpt>
      <trkpt lat="48.90753" lon="1.28381">
        <ele>137.7</ele>
        <time>2016-03-06T11:40:54Z</time>
      </trkpt>
      <trkpt lat="48.90764" lon="1.28376">
        <ele>137.9</ele>
        <time>2016-03-06T11:40:57Z</time>
      </trkpt>
      <trkpt lat="48.90774" lon="1.28369">
        <ele>138</ele>
        <time>2016-03-06T11:41:00Z</time>
      </trkpt>
      <trkpt lat="48.90782" lon="1.28357">
        <ele>138.3</ele>
        <time>2016-03-06T11:41:03Z</time>
      </trkpt>
      <trkpt lat="48.90788" lon="1.28345">
        <ele>138.5</ele>
        <time>2016-03-06T11:41:06Z</time>
      </trkpt>
      <trkpt lat="48.90794" lon="1.28332">
        <ele>138.8</ele>
        <time>2016-03-06T11:41:10Z</time>
      </trkpt>
      <trkpt lat="48.908" lon="1.28321">
        <ele>139.1</ele>
        <time>2016-03-06T11:41:14Z</time>
      </trkpt>
      <trkpt lat="48.90802" lon="1.28307">
        <ele>139.3</ele>
        <time>2016-03-06T11:41:19Z</time>
      </trkpt>
      <trkpt lat="48.90802" lon="1.28293">
        <ele>139.6</ele>
        <time>2016-03-06T11:41:25Z</time>
      </trkpt>
      <trkpt lat="48.90799" lon="1.2828">
        <ele>139.9</ele>
        <time>2016-03-06T11:41:40Z</time>
      </trkpt>
      <trkpt lat="48.908" lon="1.2828">
        <ele>140</ele>
        <time>2016-03-06T11:41:43Z</time>
      </trkpt>
    </trkseg>
  </trk>
</gpx>